<?xml version="1.0" encoding="UTF-8" standalone="no" ?>
<gpx xmlns="http://www.topografix.com/GPX/1/1" xmlns:xsi="http://www.w3.org/2001/XMLSchema-instance" xsi:schemaLocation="http://www.topografix.com/GPX/1/1 http://www.topografix.com/GPX/1/1/gpx.xsd" version="1.1" creator="VisuGPX - https://www.visugpx.com">
  <metadata>
    <name>Rando Mouen 18 mars</name>
    <desc><![CDATA[Rando mouen 18 mars.]]></desc>
  </metadata>
  <trk>
    <name><![CDATA[18/03/12 09:34]]></name>
    <desc><![CDATA[Mouen]]></desc>
    <trkseg>
      <trkpt lat="49.15738" lon="-0.467">
        <ele>116</ele>
        <time>2012-03-18T08:34:23Z</time>
      </trkpt>
      <trkpt lat="49.1574" lon="-0.46694">
        <ele>117</ele>
        <time>2012-03-18T08:34:28Z</time>
      </trkpt>
      <trkpt lat="49.15743" lon="-0.46688">
        <ele>117</ele>
        <time>2012-03-18T08:34:33Z</time>
      </trkpt>
      <trkpt lat="49.15748" lon="-0.46684">
        <ele>116</ele>
        <time>2012-03-18T08:34:37Z</time>
      </trkpt>
      <trkpt lat="49.15752" lon="-0.46679">
        <ele>116</ele>
        <time>2012-03-18T08:34:42Z</time>
      </trkpt>
      <trkpt lat="49.15755" lon="-0.46672">
        <ele>115</ele>
        <time>2012-03-18T08:34:47Z</time>
      </trkpt>
      <trkpt lat="49.15756" lon="-0.46664">
        <ele>114</ele>
        <time>2012-03-18T08:34:52Z</time>
      </trkpt>
      <trkpt lat="49.15757" lon="-0.46658">
        <ele>114</ele>
        <time>2012-03-18T08:34:56Z</time>
      </trkpt>
      <trkpt lat="49.15757" lon="-0.46649">
        <ele>114</ele>
        <time>2012-03-18T08:35:01Z</time>
      </trkpt>
      <trkpt lat="49.15756" lon="-0.46641">
        <ele>113</ele>
        <time>2012-03-18T08:35:05Z</time>
      </trkpt>
      <trkpt lat="49.15754" lon="-0.46634">
        <ele>113</ele>
        <time>2012-03-18T08:35:10Z</time>
      </trkpt>
      <trkpt lat="49.15752" lon="-0.46626">
        <ele>113</ele>
        <time>2012-03-18T08:35:15Z</time>
      </trkpt>
      <trkpt lat="49.15749" lon="-0.46619">
        <ele>113</ele>
        <time>2012-03-18T08:35:22Z</time>
      </trkpt>
      <trkpt lat="49.15745" lon="-0.46614">
        <ele>113</ele>
        <time>2012-03-18T08:35:26Z</time>
      </trkpt>
      <trkpt lat="49.15741" lon="-0.46609">
        <ele>113</ele>
        <time>2012-03-18T08:35:30Z</time>
      </trkpt>
      <trkpt lat="49.15738" lon="-0.46603">
        <ele>113</ele>
        <time>2012-03-18T08:35:36Z</time>
      </trkpt>
      <trkpt lat="49.15734" lon="-0.46596">
        <ele>113</ele>
        <time>2012-03-18T08:35:40Z</time>
      </trkpt>
      <trkpt lat="49.15731" lon="-0.46591">
        <ele>112</ele>
        <time>2012-03-18T08:35:45Z</time>
      </trkpt>
      <trkpt lat="49.15727" lon="-0.46585">
        <ele>111</ele>
        <time>2012-03-18T08:35:50Z</time>
      </trkpt>
      <trkpt lat="49.15725" lon="-0.46579">
        <ele>110</ele>
        <time>2012-03-18T08:35:55Z</time>
      </trkpt>
      <trkpt lat="49.15722" lon="-0.46573">
        <ele>109</ele>
        <time>2012-03-18T08:35:58Z</time>
      </trkpt>
      <trkpt lat="49.15719" lon="-0.46567">
        <ele>109</ele>
        <time>2012-03-18T08:36:01Z</time>
      </trkpt>
      <trkpt lat="49.15715" lon="-0.46563">
        <ele>109</ele>
        <time>2012-03-18T08:36:05Z</time>
      </trkpt>
      <trkpt lat="49.1571" lon="-0.46556">
        <ele>109</ele>
        <time>2012-03-18T08:36:10Z</time>
      </trkpt>
      <trkpt lat="49.15705" lon="-0.46552">
        <ele>108</ele>
        <time>2012-03-18T08:36:14Z</time>
      </trkpt>
      <trkpt lat="49.15703" lon="-0.46545">
        <ele>112</ele>
        <time>2012-03-18T08:36:18Z</time>
      </trkpt>
      <trkpt lat="49.15699" lon="-0.4654">
        <ele>111</ele>
        <time>2012-03-18T08:36:23Z</time>
      </trkpt>
      <trkpt lat="49.15696" lon="-0.46534">
        <ele>111</ele>
        <time>2012-03-18T08:36:27Z</time>
      </trkpt>
      <trkpt lat="49.15692" lon="-0.4653">
        <ele>110</ele>
        <time>2012-03-18T08:36:30Z</time>
      </trkpt>
      <trkpt lat="49.15688" lon="-0.46524">
        <ele>110</ele>
        <time>2012-03-18T08:36:34Z</time>
      </trkpt>
      <trkpt lat="49.15683" lon="-0.46518">
        <ele>110</ele>
        <time>2012-03-18T08:36:37Z</time>
      </trkpt>
      <trkpt lat="49.15677" lon="-0.46511">
        <ele>109</ele>
        <time>2012-03-18T08:36:44Z</time>
      </trkpt>
      <trkpt lat="49.15668" lon="-0.46501">
        <ele>110</ele>
        <time>2012-03-18T08:36:45Z</time>
      </trkpt>
      <trkpt lat="49.15665" lon="-0.46493">
        <ele>112</ele>
        <time>2012-03-18T08:36:49Z</time>
      </trkpt>
      <trkpt lat="49.1566" lon="-0.46487">
        <ele>114</ele>
        <time>2012-03-18T08:36:54Z</time>
      </trkpt>
      <trkpt lat="49.15658" lon="-0.46479">
        <ele>117</ele>
        <time>2012-03-18T08:37:05Z</time>
      </trkpt>
      <trkpt lat="49.15653" lon="-0.46473">
        <ele>114</ele>
        <time>2012-03-18T08:37:14Z</time>
      </trkpt>
      <trkpt lat="49.15649" lon="-0.46469">
        <ele>113</ele>
        <time>2012-03-18T08:37:17Z</time>
      </trkpt>
      <trkpt lat="49.15647" lon="-0.46461">
        <ele>112</ele>
        <time>2012-03-18T08:37:19Z</time>
      </trkpt>
      <trkpt lat="49.15644" lon="-0.46455">
        <ele>112</ele>
        <time>2012-03-18T08:37:21Z</time>
      </trkpt>
      <trkpt lat="49.1564" lon="-0.46448">
        <ele>111</ele>
        <time>2012-03-18T08:37:24Z</time>
      </trkpt>
      <trkpt lat="49.15637" lon="-0.46442">
        <ele>112</ele>
        <time>2012-03-18T08:37:37Z</time>
      </trkpt>
      <trkpt lat="49.15633" lon="-0.46438">
        <ele>111</ele>
        <time>2012-03-18T08:37:40Z</time>
      </trkpt>
      <trkpt lat="49.15629" lon="-0.46432">
        <ele>112</ele>
        <time>2012-03-18T08:37:44Z</time>
      </trkpt>
      <trkpt lat="49.15623" lon="-0.46429">
        <ele>116</ele>
        <time>2012-03-18T08:37:48Z</time>
      </trkpt>
      <trkpt lat="49.1562" lon="-0.46423">
        <ele>114</ele>
        <time>2012-03-18T08:37:51Z</time>
      </trkpt>
      <trkpt lat="49.15616" lon="-0.46418">
        <ele>113</ele>
        <time>2012-03-18T08:37:56Z</time>
      </trkpt>
      <trkpt lat="49.15611" lon="-0.46419">
        <ele>112</ele>
        <time>2012-03-18T08:38:01Z</time>
      </trkpt>
      <trkpt lat="49.15607" lon="-0.46414">
        <ele>112</ele>
        <time>2012-03-18T08:38:05Z</time>
      </trkpt>
      <trkpt lat="49.15606" lon="-0.46407">
        <ele>110</ele>
        <time>2012-03-18T08:38:17Z</time>
      </trkpt>
      <trkpt lat="49.15602" lon="-0.464">
        <ele>110</ele>
        <time>2012-03-18T08:38:20Z</time>
      </trkpt>
      <trkpt lat="49.15599" lon="-0.46393">
        <ele>110</ele>
        <time>2012-03-18T08:38:24Z</time>
      </trkpt>
      <trkpt lat="49.15596" lon="-0.46384">
        <ele>110</ele>
        <time>2012-03-18T08:38:28Z</time>
      </trkpt>
      <trkpt lat="49.15594" lon="-0.46376">
        <ele>109</ele>
        <time>2012-03-18T08:38:32Z</time>
      </trkpt>
      <trkpt lat="49.15593" lon="-0.46369">
        <ele>109</ele>
        <time>2012-03-18T08:38:35Z</time>
      </trkpt>
      <trkpt lat="49.15591" lon="-0.46362">
        <ele>108</ele>
        <time>2012-03-18T08:38:38Z</time>
      </trkpt>
      <trkpt lat="49.1559" lon="-0.46356">
        <ele>108</ele>
        <time>2012-03-18T08:38:42Z</time>
      </trkpt>
      <trkpt lat="49.15587" lon="-0.46347">
        <ele>108</ele>
        <time>2012-03-18T08:38:46Z</time>
      </trkpt>
      <trkpt lat="49.15586" lon="-0.46339">
        <ele>109</ele>
        <time>2012-03-18T08:38:50Z</time>
      </trkpt>
      <trkpt lat="49.15582" lon="-0.46334">
        <ele>110</ele>
        <time>2012-03-18T08:38:56Z</time>
      </trkpt>
      <trkpt lat="49.15579" lon="-0.46326">
        <ele>109</ele>
        <time>2012-03-18T08:39:02Z</time>
      </trkpt>
      <trkpt lat="49.15578" lon="-0.46317">
        <ele>110</ele>
        <time>2012-03-18T08:39:06Z</time>
      </trkpt>
      <trkpt lat="49.15576" lon="-0.46309">
        <ele>109</ele>
        <time>2012-03-18T08:39:09Z</time>
      </trkpt>
      <trkpt lat="49.15574" lon="-0.46301">
        <ele>107</ele>
        <time>2012-03-18T08:39:15Z</time>
      </trkpt>
      <trkpt lat="49.15574" lon="-0.46293">
        <ele>106</ele>
        <time>2012-03-18T08:39:20Z</time>
      </trkpt>
      <trkpt lat="49.15572" lon="-0.46286">
        <ele>107</ele>
        <time>2012-03-18T08:39:24Z</time>
      </trkpt>
      <trkpt lat="49.15568" lon="-0.46279">
        <ele>106</ele>
        <time>2012-03-18T08:39:27Z</time>
      </trkpt>
      <trkpt lat="49.15567" lon="-0.46263">
        <ele>104</ele>
        <time>2012-03-18T08:39:38Z</time>
      </trkpt>
      <trkpt lat="49.15565" lon="-0.46256">
        <ele>105</ele>
        <time>2012-03-18T08:39:40Z</time>
      </trkpt>
      <trkpt lat="49.15563" lon="-0.46249">
        <ele>105</ele>
        <time>2012-03-18T08:39:47Z</time>
      </trkpt>
      <trkpt lat="49.1556" lon="-0.46243">
        <ele>105</ele>
        <time>2012-03-18T08:39:52Z</time>
      </trkpt>
      <trkpt lat="49.15559" lon="-0.46236">
        <ele>104</ele>
        <time>2012-03-18T08:39:55Z</time>
      </trkpt>
      <trkpt lat="49.15556" lon="-0.46228">
        <ele>105</ele>
        <time>2012-03-18T08:39:58Z</time>
      </trkpt>
      <trkpt lat="49.15554" lon="-0.46221">
        <ele>104</ele>
        <time>2012-03-18T08:40:02Z</time>
      </trkpt>
      <trkpt lat="49.15554" lon="-0.46214">
        <ele>103</ele>
        <time>2012-03-18T08:40:06Z</time>
      </trkpt>
      <trkpt lat="49.15552" lon="-0.46205">
        <ele>103</ele>
        <time>2012-03-18T08:40:10Z</time>
      </trkpt>
      <trkpt lat="49.1555" lon="-0.46198">
        <ele>105</ele>
        <time>2012-03-18T08:40:14Z</time>
      </trkpt>
      <trkpt lat="49.15548" lon="-0.46191">
        <ele>107</ele>
        <time>2012-03-18T08:40:18Z</time>
      </trkpt>
      <trkpt lat="49.15545" lon="-0.46184">
        <ele>107</ele>
        <time>2012-03-18T08:40:23Z</time>
      </trkpt>
      <trkpt lat="49.15543" lon="-0.46176">
        <ele>106</ele>
        <time>2012-03-18T08:40:28Z</time>
      </trkpt>
      <trkpt lat="49.1554" lon="-0.4617">
        <ele>105</ele>
        <time>2012-03-18T08:40:32Z</time>
      </trkpt>
      <trkpt lat="49.15535" lon="-0.4617">
        <ele>104</ele>
        <time>2012-03-18T08:40:37Z</time>
      </trkpt>
      <trkpt lat="49.1553" lon="-0.46166">
        <ele>104</ele>
        <time>2012-03-18T08:40:40Z</time>
      </trkpt>
      <trkpt lat="49.15526" lon="-0.46161">
        <ele>104</ele>
        <time>2012-03-18T08:40:45Z</time>
      </trkpt>
      <trkpt lat="49.15521" lon="-0.46157">
        <ele>104</ele>
        <time>2012-03-18T08:40:49Z</time>
      </trkpt>
      <trkpt lat="49.15519" lon="-0.46151">
        <ele>104</ele>
        <time>2012-03-18T08:40:53Z</time>
      </trkpt>
      <trkpt lat="49.15516" lon="-0.46145">
        <ele>104</ele>
        <time>2012-03-18T08:40:57Z</time>
      </trkpt>
      <trkpt lat="49.15515" lon="-0.46138">
        <ele>103</ele>
        <time>2012-03-18T08:41:01Z</time>
      </trkpt>
      <trkpt lat="49.15516" lon="-0.4613">
        <ele>103</ele>
        <time>2012-03-18T08:41:06Z</time>
      </trkpt>
      <trkpt lat="49.15518" lon="-0.46123">
        <ele>102</ele>
        <time>2012-03-18T08:41:11Z</time>
      </trkpt>
      <trkpt lat="49.15519" lon="-0.46115">
        <ele>102</ele>
        <time>2012-03-18T08:41:16Z</time>
      </trkpt>
      <trkpt lat="49.15519" lon="-0.46107">
        <ele>99</ele>
        <time>2012-03-18T08:41:21Z</time>
      </trkpt>
      <trkpt lat="49.15518" lon="-0.46098">
        <ele>99</ele>
        <time>2012-03-18T08:41:26Z</time>
      </trkpt>
      <trkpt lat="49.15519" lon="-0.4609">
        <ele>100</ele>
        <time>2012-03-18T08:41:30Z</time>
      </trkpt>
      <trkpt lat="49.15519" lon="-0.46082">
        <ele>100</ele>
        <time>2012-03-18T08:41:34Z</time>
      </trkpt>
      <trkpt lat="49.1552" lon="-0.46074">
        <ele>100</ele>
        <time>2012-03-18T08:41:38Z</time>
      </trkpt>
      <trkpt lat="49.1552" lon="-0.46067">
        <ele>100</ele>
        <time>2012-03-18T08:41:42Z</time>
      </trkpt>
      <trkpt lat="49.1552" lon="-0.46059">
        <ele>100</ele>
        <time>2012-03-18T08:41:46Z</time>
      </trkpt>
      <trkpt lat="49.1552" lon="-0.46051">
        <ele>101</ele>
        <time>2012-03-18T08:41:50Z</time>
      </trkpt>
      <trkpt lat="49.15519" lon="-0.46043">
        <ele>101</ele>
        <time>2012-03-18T08:41:54Z</time>
      </trkpt>
      <trkpt lat="49.15518" lon="-0.46035">
        <ele>100</ele>
        <time>2012-03-18T08:41:58Z</time>
      </trkpt>
      <trkpt lat="49.15516" lon="-0.46027">
        <ele>100</ele>
        <time>2012-03-18T08:42:02Z</time>
      </trkpt>
      <trkpt lat="49.15516" lon="-0.4602">
        <ele>99</ele>
        <time>2012-03-18T08:42:06Z</time>
      </trkpt>
      <trkpt lat="49.15515" lon="-0.46012">
        <ele>97</ele>
        <time>2012-03-18T08:42:10Z</time>
      </trkpt>
      <trkpt lat="49.15516" lon="-0.46004">
        <ele>96</ele>
        <time>2012-03-18T08:42:14Z</time>
      </trkpt>
      <trkpt lat="49.15516" lon="-0.45996">
        <ele>97</ele>
        <time>2012-03-18T08:42:19Z</time>
      </trkpt>
      <trkpt lat="49.15518" lon="-0.4599">
        <ele>98</ele>
        <time>2012-03-18T08:42:22Z</time>
      </trkpt>
      <trkpt lat="49.1552" lon="-0.45983">
        <ele>99</ele>
        <time>2012-03-18T08:42:26Z</time>
      </trkpt>
      <trkpt lat="49.15516" lon="-0.45977">
        <ele>99</ele>
        <time>2012-03-18T08:42:29Z</time>
      </trkpt>
      <trkpt lat="49.15514" lon="-0.45969">
        <ele>99</ele>
        <time>2012-03-18T08:42:34Z</time>
      </trkpt>
      <trkpt lat="49.15515" lon="-0.45962">
        <ele>100</ele>
        <time>2012-03-18T08:42:38Z</time>
      </trkpt>
      <trkpt lat="49.15513" lon="-0.45955">
        <ele>99</ele>
        <time>2012-03-18T08:42:41Z</time>
      </trkpt>
      <trkpt lat="49.15508" lon="-0.4595">
        <ele>99</ele>
        <time>2012-03-18T08:42:44Z</time>
      </trkpt>
      <trkpt lat="49.15506" lon="-0.45944">
        <ele>98</ele>
        <time>2012-03-18T08:42:48Z</time>
      </trkpt>
      <trkpt lat="49.15504" lon="-0.45933">
        <ele>101</ele>
        <time>2012-03-18T08:42:52Z</time>
      </trkpt>
      <trkpt lat="49.15503" lon="-0.45925">
        <ele>100</ele>
        <time>2012-03-18T08:42:57Z</time>
      </trkpt>
      <trkpt lat="49.15502" lon="-0.45917">
        <ele>100</ele>
        <time>2012-03-18T08:43:01Z</time>
      </trkpt>
      <trkpt lat="49.15501" lon="-0.45909">
        <ele>100</ele>
        <time>2012-03-18T08:43:05Z</time>
      </trkpt>
      <trkpt lat="49.15499" lon="-0.45901">
        <ele>99</ele>
        <time>2012-03-18T08:43:10Z</time>
      </trkpt>
      <trkpt lat="49.15499" lon="-0.45901">
        <ele>99</ele>
        <time>2012-03-18T08:43:10Z</time>
      </trkpt>
      <trkpt lat="49.15499" lon="-0.45901">
        <ele>99</ele>
        <time>2012-03-18T08:43:11Z</time>
      </trkpt>
      <trkpt lat="49.15497" lon="-0.45891">
        <ele>100</ele>
        <time>2012-03-18T08:43:16Z</time>
      </trkpt>
      <trkpt lat="49.15496" lon="-0.45882">
        <ele>100</ele>
        <time>2012-03-18T08:43:20Z</time>
      </trkpt>
      <trkpt lat="49.15495" lon="-0.45874">
        <ele>101</ele>
        <time>2012-03-18T08:43:24Z</time>
      </trkpt>
      <trkpt lat="49.15497" lon="-0.45868">
        <ele>100</ele>
        <time>2012-03-18T08:43:27Z</time>
      </trkpt>
      <trkpt lat="49.15498" lon="-0.45861">
        <ele>99</ele>
        <time>2012-03-18T08:43:31Z</time>
      </trkpt>
      <trkpt lat="49.15502" lon="-0.45856">
        <ele>98</ele>
        <time>2012-03-18T08:43:35Z</time>
      </trkpt>
      <trkpt lat="49.15505" lon="-0.4585">
        <ele>97</ele>
        <time>2012-03-18T08:43:40Z</time>
      </trkpt>
      <trkpt lat="49.15513" lon="-0.45846">
        <ele>99</ele>
        <time>2012-03-18T08:43:44Z</time>
      </trkpt>
      <trkpt lat="49.15518" lon="-0.45849">
        <ele>98</ele>
        <time>2012-03-18T08:43:47Z</time>
      </trkpt>
      <trkpt lat="49.15521" lon="-0.45845">
        <ele>99</ele>
        <time>2012-03-18T08:43:50Z</time>
      </trkpt>
      <trkpt lat="49.15526" lon="-0.45844">
        <ele>99</ele>
        <time>2012-03-18T08:43:53Z</time>
      </trkpt>
      <trkpt lat="49.15532" lon="-0.45844">
        <ele>100</ele>
        <time>2012-03-18T08:43:55Z</time>
      </trkpt>
      <trkpt lat="49.15538" lon="-0.45846">
        <ele>100</ele>
        <time>2012-03-18T08:43:57Z</time>
      </trkpt>
      <trkpt lat="49.15543" lon="-0.45847">
        <ele>102</ele>
        <time>2012-03-18T08:44:02Z</time>
      </trkpt>
      <trkpt lat="49.15544" lon="-0.45837">
        <ele>101</ele>
        <time>2012-03-18T08:44:05Z</time>
      </trkpt>
      <trkpt lat="49.15549" lon="-0.45839">
        <ele>101</ele>
        <time>2012-03-18T08:44:10Z</time>
      </trkpt>
      <trkpt lat="49.15554" lon="-0.4584">
        <ele>100</ele>
        <time>2012-03-18T08:44:14Z</time>
      </trkpt>
      <trkpt lat="49.15554" lon="-0.4584">
        <ele>100</ele>
        <time>2012-03-18T08:44:14Z</time>
      </trkpt>
      <trkpt lat="49.15554" lon="-0.4584">
        <ele>100</ele>
        <time>2012-03-18T08:44:15Z</time>
      </trkpt>
      <trkpt lat="49.15559" lon="-0.45837">
        <ele>100</ele>
        <time>2012-03-18T08:44:24Z</time>
      </trkpt>
      <trkpt lat="49.15564" lon="-0.45837">
        <ele>98</ele>
        <time>2012-03-18T08:44:26Z</time>
      </trkpt>
      <trkpt lat="49.1557" lon="-0.4584">
        <ele>97</ele>
        <time>2012-03-18T08:44:29Z</time>
      </trkpt>
      <trkpt lat="49.15576" lon="-0.45839">
        <ele>98</ele>
        <time>2012-03-18T08:44:33Z</time>
      </trkpt>
      <trkpt lat="49.15576" lon="-0.45839">
        <ele>98</ele>
        <time>2012-03-18T08:44:33Z</time>
      </trkpt>
      <trkpt lat="49.15576" lon="-0.45839">
        <ele>98</ele>
        <time>2012-03-18T08:44:34Z</time>
      </trkpt>
      <trkpt lat="49.1558" lon="-0.45837">
        <ele>99</ele>
        <time>2012-03-18T08:44:37Z</time>
      </trkpt>
      <trkpt lat="49.15584" lon="-0.45833">
        <ele>98</ele>
        <time>2012-03-18T08:44:41Z</time>
      </trkpt>
      <trkpt lat="49.15587" lon="-0.45827">
        <ele>95</ele>
        <time>2012-03-18T08:44:45Z</time>
      </trkpt>
      <trkpt lat="49.15591" lon="-0.45821">
        <ele>96</ele>
        <time>2012-03-18T08:44:49Z</time>
      </trkpt>
      <trkpt lat="49.15596" lon="-0.45821">
        <ele>98</ele>
        <time>2012-03-18T08:44:55Z</time>
      </trkpt>
      <trkpt lat="49.15601" lon="-0.45819">
        <ele>99</ele>
        <time>2012-03-18T08:45:00Z</time>
      </trkpt>
      <trkpt lat="49.15604" lon="-0.45814">
        <ele>101</ele>
        <time>2012-03-18T08:45:04Z</time>
      </trkpt>
      <trkpt lat="49.15608" lon="-0.45808">
        <ele>102</ele>
        <time>2012-03-18T08:45:10Z</time>
      </trkpt>
      <trkpt lat="49.15612" lon="-0.45806">
        <ele>103</ele>
        <time>2012-03-18T08:45:14Z</time>
      </trkpt>
      <trkpt lat="49.15616" lon="-0.458">
        <ele>102</ele>
        <time>2012-03-18T08:45:19Z</time>
      </trkpt>
      <trkpt lat="49.15619" lon="-0.45793">
        <ele>101</ele>
        <time>2012-03-18T08:45:25Z</time>
      </trkpt>
      <trkpt lat="49.1562" lon="-0.45786">
        <ele>100</ele>
        <time>2012-03-18T08:45:30Z</time>
      </trkpt>
      <trkpt lat="49.1562" lon="-0.45779">
        <ele>100</ele>
        <time>2012-03-18T08:45:33Z</time>
      </trkpt>
      <trkpt lat="49.1562" lon="-0.45771">
        <ele>101</ele>
        <time>2012-03-18T08:45:37Z</time>
      </trkpt>
      <trkpt lat="49.15621" lon="-0.45764">
        <ele>100</ele>
        <time>2012-03-18T08:45:41Z</time>
      </trkpt>
      <trkpt lat="49.15621" lon="-0.45756">
        <ele>101</ele>
        <time>2012-03-18T08:45:45Z</time>
      </trkpt>
      <trkpt lat="49.15622" lon="-0.45748">
        <ele>103</ele>
        <time>2012-03-18T08:45:49Z</time>
      </trkpt>
      <trkpt lat="49.15624" lon="-0.45742">
        <ele>103</ele>
        <time>2012-03-18T08:45:53Z</time>
      </trkpt>
      <trkpt lat="49.15626" lon="-0.45734">
        <ele>104</ele>
        <time>2012-03-18T08:45:57Z</time>
      </trkpt>
      <trkpt lat="49.15628" lon="-0.45727">
        <ele>104</ele>
        <time>2012-03-18T08:46:00Z</time>
      </trkpt>
      <trkpt lat="49.1563" lon="-0.4572">
        <ele>105</ele>
        <time>2012-03-18T08:46:04Z</time>
      </trkpt>
      <trkpt lat="49.15631" lon="-0.45711">
        <ele>105</ele>
        <time>2012-03-18T08:46:08Z</time>
      </trkpt>
      <trkpt lat="49.15633" lon="-0.45704">
        <ele>105</ele>
        <time>2012-03-18T08:46:11Z</time>
      </trkpt>
      <trkpt lat="49.15634" lon="-0.45697">
        <ele>107</ele>
        <time>2012-03-18T08:46:15Z</time>
      </trkpt>
      <trkpt lat="49.15635" lon="-0.4569">
        <ele>106</ele>
        <time>2012-03-18T08:46:18Z</time>
      </trkpt>
      <trkpt lat="49.15637" lon="-0.45683">
        <ele>105</ele>
        <time>2012-03-18T08:46:21Z</time>
      </trkpt>
      <trkpt lat="49.15639" lon="-0.45676">
        <ele>105</ele>
        <time>2012-03-18T08:46:26Z</time>
      </trkpt>
      <trkpt lat="49.15643" lon="-0.45671">
        <ele>104</ele>
        <time>2012-03-18T08:46:30Z</time>
      </trkpt>
      <trkpt lat="49.15645" lon="-0.45663">
        <ele>101</ele>
        <time>2012-03-18T08:46:35Z</time>
      </trkpt>
      <trkpt lat="49.15647" lon="-0.45655">
        <ele>100</ele>
        <time>2012-03-18T08:46:40Z</time>
      </trkpt>
      <trkpt lat="49.15648" lon="-0.45648">
        <ele>99</ele>
        <time>2012-03-18T08:46:44Z</time>
      </trkpt>
      <trkpt lat="49.15651" lon="-0.4564">
        <ele>98</ele>
        <time>2012-03-18T08:46:49Z</time>
      </trkpt>
      <trkpt lat="49.1566" lon="-0.456">
        <ele>102</ele>
        <time>2012-03-18T08:47:11Z</time>
      </trkpt>
      <trkpt lat="49.15664" lon="-0.45594">
        <ele>102</ele>
        <time>2012-03-18T08:47:14Z</time>
      </trkpt>
      <trkpt lat="49.15667" lon="-0.45588">
        <ele>103</ele>
        <time>2012-03-18T08:47:18Z</time>
      </trkpt>
      <trkpt lat="49.15671" lon="-0.45584">
        <ele>103</ele>
        <time>2012-03-18T08:47:25Z</time>
      </trkpt>
      <trkpt lat="49.15674" lon="-0.45578">
        <ele>103</ele>
        <time>2012-03-18T08:47:28Z</time>
      </trkpt>
      <trkpt lat="49.15678" lon="-0.45574">
        <ele>102</ele>
        <time>2012-03-18T08:47:32Z</time>
      </trkpt>
      <trkpt lat="49.15684" lon="-0.45572">
        <ele>101</ele>
        <time>2012-03-18T08:47:37Z</time>
      </trkpt>
      <trkpt lat="49.15686" lon="-0.45564">
        <ele>102</ele>
        <time>2012-03-18T08:47:41Z</time>
      </trkpt>
      <trkpt lat="49.15686" lon="-0.45557">
        <ele>103</ele>
        <time>2012-03-18T08:47:44Z</time>
      </trkpt>
      <trkpt lat="49.15686" lon="-0.45548">
        <ele>104</ele>
        <time>2012-03-18T08:47:47Z</time>
      </trkpt>
      <trkpt lat="49.15687" lon="-0.4554">
        <ele>105</ele>
        <time>2012-03-18T08:47:53Z</time>
      </trkpt>
      <trkpt lat="49.1569" lon="-0.45534">
        <ele>104</ele>
        <time>2012-03-18T08:47:58Z</time>
      </trkpt>
      <trkpt lat="49.15694" lon="-0.4553">
        <ele>104</ele>
        <time>2012-03-18T08:48:02Z</time>
      </trkpt>
      <trkpt lat="49.15697" lon="-0.45524">
        <ele>105</ele>
        <time>2012-03-18T08:48:04Z</time>
      </trkpt>
      <trkpt lat="49.15701" lon="-0.45518">
        <ele>104</ele>
        <time>2012-03-18T08:48:07Z</time>
      </trkpt>
      <trkpt lat="49.15705" lon="-0.45512">
        <ele>104</ele>
        <time>2012-03-18T08:48:12Z</time>
      </trkpt>
      <trkpt lat="49.15708" lon="-0.45503">
        <ele>104</ele>
        <time>2012-03-18T08:48:16Z</time>
      </trkpt>
      <trkpt lat="49.1571" lon="-0.45497">
        <ele>103</ele>
        <time>2012-03-18T08:48:21Z</time>
      </trkpt>
      <trkpt lat="49.15713" lon="-0.45492">
        <ele>103</ele>
        <time>2012-03-18T08:48:25Z</time>
      </trkpt>
      <trkpt lat="49.15716" lon="-0.45485">
        <ele>104</ele>
        <time>2012-03-18T08:48:29Z</time>
      </trkpt>
      <trkpt lat="49.15717" lon="-0.45477">
        <ele>105</ele>
        <time>2012-03-18T08:48:33Z</time>
      </trkpt>
      <trkpt lat="49.15721" lon="-0.45475">
        <ele>102</ele>
        <time>2012-03-18T08:48:45Z</time>
      </trkpt>
      <trkpt lat="49.15723" lon="-0.45467">
        <ele>101</ele>
        <time>2012-03-18T08:48:49Z</time>
      </trkpt>
      <trkpt lat="49.15726" lon="-0.4546">
        <ele>102</ele>
        <time>2012-03-18T08:48:54Z</time>
      </trkpt>
      <trkpt lat="49.15729" lon="-0.45451">
        <ele>104</ele>
        <time>2012-03-18T08:49:00Z</time>
      </trkpt>
      <trkpt lat="49.15731" lon="-0.45445">
        <ele>104</ele>
        <time>2012-03-18T08:49:03Z</time>
      </trkpt>
      <trkpt lat="49.15734" lon="-0.45436">
        <ele>103</ele>
        <time>2012-03-18T08:49:07Z</time>
      </trkpt>
      <trkpt lat="49.15738" lon="-0.45429">
        <ele>103</ele>
        <time>2012-03-18T08:49:12Z</time>
      </trkpt>
      <trkpt lat="49.1574" lon="-0.45421">
        <ele>103</ele>
        <time>2012-03-18T08:49:15Z</time>
      </trkpt>
      <trkpt lat="49.15743" lon="-0.45415">
        <ele>102</ele>
        <time>2012-03-18T08:49:20Z</time>
      </trkpt>
      <trkpt lat="49.15748" lon="-0.4541">
        <ele>103</ele>
        <time>2012-03-18T08:49:25Z</time>
      </trkpt>
      <trkpt lat="49.15752" lon="-0.45403">
        <ele>98</ele>
        <time>2012-03-18T08:49:31Z</time>
      </trkpt>
      <trkpt lat="49.15753" lon="-0.45395">
        <ele>98</ele>
        <time>2012-03-18T08:49:35Z</time>
      </trkpt>
      <trkpt lat="49.15759" lon="-0.45388">
        <ele>98</ele>
        <time>2012-03-18T08:49:41Z</time>
      </trkpt>
      <trkpt lat="49.15762" lon="-0.45383">
        <ele>96</ele>
        <time>2012-03-18T08:49:44Z</time>
      </trkpt>
      <trkpt lat="49.15764" lon="-0.45375">
        <ele>94</ele>
        <time>2012-03-18T08:49:47Z</time>
      </trkpt>
      <trkpt lat="49.15768" lon="-0.45369">
        <ele>95</ele>
        <time>2012-03-18T08:49:51Z</time>
      </trkpt>
      <trkpt lat="49.15769" lon="-0.45362">
        <ele>96</ele>
        <time>2012-03-18T08:49:54Z</time>
      </trkpt>
      <trkpt lat="49.15774" lon="-0.45357">
        <ele>98</ele>
        <time>2012-03-18T08:49:58Z</time>
      </trkpt>
      <trkpt lat="49.15776" lon="-0.45351">
        <ele>98</ele>
        <time>2012-03-18T08:50:02Z</time>
      </trkpt>
      <trkpt lat="49.15779" lon="-0.45344">
        <ele>99</ele>
        <time>2012-03-18T08:50:06Z</time>
      </trkpt>
      <trkpt lat="49.1578" lon="-0.45336">
        <ele>99</ele>
        <time>2012-03-18T08:50:09Z</time>
      </trkpt>
      <trkpt lat="49.15782" lon="-0.45329">
        <ele>100</ele>
        <time>2012-03-18T08:50:12Z</time>
      </trkpt>
      <trkpt lat="49.15786" lon="-0.45324">
        <ele>101</ele>
        <time>2012-03-18T08:50:16Z</time>
      </trkpt>
      <trkpt lat="49.15788" lon="-0.45318">
        <ele>100</ele>
        <time>2012-03-18T08:50:20Z</time>
      </trkpt>
      <trkpt lat="49.15791" lon="-0.45312">
        <ele>100</ele>
        <time>2012-03-18T08:50:24Z</time>
      </trkpt>
      <trkpt lat="49.15796" lon="-0.45307">
        <ele>99</ele>
        <time>2012-03-18T08:50:29Z</time>
      </trkpt>
      <trkpt lat="49.15797" lon="-0.45301">
        <ele>98</ele>
        <time>2012-03-18T08:50:33Z</time>
      </trkpt>
      <trkpt lat="49.15801" lon="-0.45299">
        <ele>96</ele>
        <time>2012-03-18T08:50:38Z</time>
      </trkpt>
      <trkpt lat="49.15806" lon="-0.45297">
        <ele>95</ele>
        <time>2012-03-18T08:50:42Z</time>
      </trkpt>
      <trkpt lat="49.1581" lon="-0.4528">
        <ele>96</ele>
        <time>2012-03-18T08:50:50Z</time>
      </trkpt>
      <trkpt lat="49.15814" lon="-0.45272">
        <ele>97</ele>
        <time>2012-03-18T08:50:54Z</time>
      </trkpt>
      <trkpt lat="49.15818" lon="-0.45267">
        <ele>97</ele>
        <time>2012-03-18T08:50:59Z</time>
      </trkpt>
      <trkpt lat="49.15822" lon="-0.45262">
        <ele>97</ele>
        <time>2012-03-18T08:51:03Z</time>
      </trkpt>
      <trkpt lat="49.15825" lon="-0.45257">
        <ele>98</ele>
        <time>2012-03-18T08:51:07Z</time>
      </trkpt>
      <trkpt lat="49.15828" lon="-0.4525">
        <ele>98</ele>
        <time>2012-03-18T08:51:11Z</time>
      </trkpt>
      <trkpt lat="49.1583" lon="-0.45244">
        <ele>97</ele>
        <time>2012-03-18T08:51:15Z</time>
      </trkpt>
      <trkpt lat="49.15833" lon="-0.45236">
        <ele>97</ele>
        <time>2012-03-18T08:51:18Z</time>
      </trkpt>
      <trkpt lat="49.15837" lon="-0.45232">
        <ele>96</ele>
        <time>2012-03-18T08:51:23Z</time>
      </trkpt>
      <trkpt lat="49.15841" lon="-0.45227">
        <ele>96</ele>
        <time>2012-03-18T08:51:27Z</time>
      </trkpt>
      <trkpt lat="49.15844" lon="-0.45219">
        <ele>96</ele>
        <time>2012-03-18T08:51:32Z</time>
      </trkpt>
      <trkpt lat="49.15846" lon="-0.45211">
        <ele>96</ele>
        <time>2012-03-18T08:51:35Z</time>
      </trkpt>
      <trkpt lat="49.1585" lon="-0.45207">
        <ele>95</ele>
        <time>2012-03-18T08:51:39Z</time>
      </trkpt>
      <trkpt lat="49.15853" lon="-0.452">
        <ele>95</ele>
        <time>2012-03-18T08:51:43Z</time>
      </trkpt>
      <trkpt lat="49.15856" lon="-0.45193">
        <ele>95</ele>
        <time>2012-03-18T08:51:47Z</time>
      </trkpt>
      <trkpt lat="49.15859" lon="-0.45188">
        <ele>93</ele>
        <time>2012-03-18T08:51:51Z</time>
      </trkpt>
      <trkpt lat="49.15864" lon="-0.45184">
        <ele>92</ele>
        <time>2012-03-18T08:51:56Z</time>
      </trkpt>
      <trkpt lat="49.15867" lon="-0.45178">
        <ele>91</ele>
        <time>2012-03-18T08:52:01Z</time>
      </trkpt>
      <trkpt lat="49.15871" lon="-0.4517">
        <ele>91</ele>
        <time>2012-03-18T08:52:05Z</time>
      </trkpt>
      <trkpt lat="49.15875" lon="-0.45164">
        <ele>91</ele>
        <time>2012-03-18T08:52:09Z</time>
      </trkpt>
      <trkpt lat="49.15876" lon="-0.45158">
        <ele>91</ele>
        <time>2012-03-18T08:52:12Z</time>
      </trkpt>
      <trkpt lat="49.15877" lon="-0.4515">
        <ele>93</ele>
        <time>2012-03-18T08:52:14Z</time>
      </trkpt>
      <trkpt lat="49.15879" lon="-0.45143">
        <ele>93</ele>
        <time>2012-03-18T08:52:18Z</time>
      </trkpt>
      <trkpt lat="49.1588" lon="-0.45136">
        <ele>94</ele>
        <time>2012-03-18T08:52:22Z</time>
      </trkpt>
      <trkpt lat="49.15876" lon="-0.45133">
        <ele>95</ele>
        <time>2012-03-18T08:52:27Z</time>
      </trkpt>
      <trkpt lat="49.15872" lon="-0.45129">
        <ele>95</ele>
        <time>2012-03-18T08:52:32Z</time>
      </trkpt>
      <trkpt lat="49.15868" lon="-0.45122">
        <ele>95</ele>
        <time>2012-03-18T08:52:36Z</time>
      </trkpt>
      <trkpt lat="49.15873" lon="-0.45124">
        <ele>92</ele>
        <time>2012-03-18T08:52:48Z</time>
      </trkpt>
      <trkpt lat="49.1588" lon="-0.45126">
        <ele>93</ele>
        <time>2012-03-18T08:52:52Z</time>
      </trkpt>
      <trkpt lat="49.15884" lon="-0.45123">
        <ele>93</ele>
        <time>2012-03-18T08:52:55Z</time>
      </trkpt>
      <trkpt lat="49.15888" lon="-0.45118">
        <ele>93</ele>
        <time>2012-03-18T08:52:59Z</time>
      </trkpt>
      <trkpt lat="49.15893" lon="-0.45112">
        <ele>94</ele>
        <time>2012-03-18T08:53:03Z</time>
      </trkpt>
      <trkpt lat="49.15896" lon="-0.45108">
        <ele>94</ele>
        <time>2012-03-18T08:53:07Z</time>
      </trkpt>
      <trkpt lat="49.15901" lon="-0.45103">
        <ele>93</ele>
        <time>2012-03-18T08:53:11Z</time>
      </trkpt>
      <trkpt lat="49.15903" lon="-0.45096">
        <ele>94</ele>
        <time>2012-03-18T08:53:15Z</time>
      </trkpt>
      <trkpt lat="49.15904" lon="-0.45089">
        <ele>94</ele>
        <time>2012-03-18T08:53:18Z</time>
      </trkpt>
      <trkpt lat="49.15908" lon="-0.45082">
        <ele>94</ele>
        <time>2012-03-18T08:53:23Z</time>
      </trkpt>
      <trkpt lat="49.15911" lon="-0.45076">
        <ele>96</ele>
        <time>2012-03-18T08:53:27Z</time>
      </trkpt>
      <trkpt lat="49.15914" lon="-0.4507">
        <ele>95</ele>
        <time>2012-03-18T08:53:30Z</time>
      </trkpt>
      <trkpt lat="49.15916" lon="-0.45064">
        <ele>94</ele>
        <time>2012-03-18T08:53:34Z</time>
      </trkpt>
      <trkpt lat="49.15921" lon="-0.4506">
        <ele>95</ele>
        <time>2012-03-18T08:53:39Z</time>
      </trkpt>
      <trkpt lat="49.15925" lon="-0.45055">
        <ele>96</ele>
        <time>2012-03-18T08:53:43Z</time>
      </trkpt>
      <trkpt lat="49.15928" lon="-0.4505">
        <ele>95</ele>
        <time>2012-03-18T08:53:46Z</time>
      </trkpt>
      <trkpt lat="49.15933" lon="-0.45047">
        <ele>92</ele>
        <time>2012-03-18T08:53:52Z</time>
      </trkpt>
      <trkpt lat="49.15935" lon="-0.4504">
        <ele>92</ele>
        <time>2012-03-18T08:53:55Z</time>
      </trkpt>
      <trkpt lat="49.15937" lon="-0.45032">
        <ele>93</ele>
        <time>2012-03-18T08:53:59Z</time>
      </trkpt>
      <trkpt lat="49.1594" lon="-0.45025">
        <ele>94</ele>
        <time>2012-03-18T08:54:03Z</time>
      </trkpt>
      <trkpt lat="49.15944" lon="-0.45019">
        <ele>94</ele>
        <time>2012-03-18T08:54:07Z</time>
      </trkpt>
      <trkpt lat="49.15947" lon="-0.45013">
        <ele>93</ele>
        <time>2012-03-18T08:54:12Z</time>
      </trkpt>
      <trkpt lat="49.1595" lon="-0.45007">
        <ele>93</ele>
        <time>2012-03-18T08:54:16Z</time>
      </trkpt>
      <trkpt lat="49.15953" lon="-0.45">
        <ele>92</ele>
        <time>2012-03-18T08:54:21Z</time>
      </trkpt>
      <trkpt lat="49.15955" lon="-0.44994">
        <ele>93</ele>
        <time>2012-03-18T08:54:25Z</time>
      </trkpt>
      <trkpt lat="49.15958" lon="-0.44987">
        <ele>93</ele>
        <time>2012-03-18T08:54:30Z</time>
      </trkpt>
      <trkpt lat="49.15962" lon="-0.44983">
        <ele>93</ele>
        <time>2012-03-18T08:54:34Z</time>
      </trkpt>
      <trkpt lat="49.15963" lon="-0.44977">
        <ele>94</ele>
        <time>2012-03-18T08:54:36Z</time>
      </trkpt>
      <trkpt lat="49.15966" lon="-0.44969">
        <ele>94</ele>
        <time>2012-03-18T08:54:39Z</time>
      </trkpt>
      <trkpt lat="49.15969" lon="-0.44963">
        <ele>93</ele>
        <time>2012-03-18T08:54:43Z</time>
      </trkpt>
      <trkpt lat="49.15972" lon="-0.44958">
        <ele>92</ele>
        <time>2012-03-18T08:54:47Z</time>
      </trkpt>
      <trkpt lat="49.15976" lon="-0.44953">
        <ele>92</ele>
        <time>2012-03-18T08:54:52Z</time>
      </trkpt>
      <trkpt lat="49.15979" lon="-0.44945">
        <ele>90</ele>
        <time>2012-03-18T08:54:59Z</time>
      </trkpt>
      <trkpt lat="49.1598" lon="-0.44938">
        <ele>91</ele>
        <time>2012-03-18T08:55:01Z</time>
      </trkpt>
      <trkpt lat="49.15982" lon="-0.44931">
        <ele>92</ele>
        <time>2012-03-18T08:55:04Z</time>
      </trkpt>
      <trkpt lat="49.15985" lon="-0.44926">
        <ele>92</ele>
        <time>2012-03-18T08:55:08Z</time>
      </trkpt>
      <trkpt lat="49.15989" lon="-0.4492">
        <ele>92</ele>
        <time>2012-03-18T08:55:15Z</time>
      </trkpt>
      <trkpt lat="49.15992" lon="-0.44909">
        <ele>94</ele>
        <time>2012-03-18T08:55:19Z</time>
      </trkpt>
      <trkpt lat="49.15996" lon="-0.44904">
        <ele>94</ele>
        <time>2012-03-18T08:55:22Z</time>
      </trkpt>
      <trkpt lat="49.16" lon="-0.44901">
        <ele>93</ele>
        <time>2012-03-18T08:55:26Z</time>
      </trkpt>
      <trkpt lat="49.16004" lon="-0.44896">
        <ele>93</ele>
        <time>2012-03-18T08:55:32Z</time>
      </trkpt>
      <trkpt lat="49.16007" lon="-0.4489">
        <ele>92</ele>
        <time>2012-03-18T08:55:36Z</time>
      </trkpt>
      <trkpt lat="49.16009" lon="-0.44881">
        <ele>93</ele>
        <time>2012-03-18T08:55:40Z</time>
      </trkpt>
      <trkpt lat="49.16011" lon="-0.44872">
        <ele>94</ele>
        <time>2012-03-18T08:55:43Z</time>
      </trkpt>
      <trkpt lat="49.16015" lon="-0.44872">
        <ele>91</ele>
        <time>2012-03-18T08:55:49Z</time>
      </trkpt>
      <trkpt lat="49.16019" lon="-0.44863">
        <ele>91</ele>
        <time>2012-03-18T08:55:54Z</time>
      </trkpt>
      <trkpt lat="49.1602" lon="-0.44856">
        <ele>92</ele>
        <time>2012-03-18T08:55:56Z</time>
      </trkpt>
      <trkpt lat="49.1602" lon="-0.44856">
        <ele>92</ele>
        <time>2012-03-18T08:55:56Z</time>
      </trkpt>
      <trkpt lat="49.1602" lon="-0.44856">
        <ele>92</ele>
        <time>2012-03-18T08:55:57Z</time>
      </trkpt>
      <trkpt lat="49.16025" lon="-0.44852">
        <ele>93</ele>
        <time>2012-03-18T08:56:01Z</time>
      </trkpt>
      <trkpt lat="49.16026" lon="-0.44845">
        <ele>94</ele>
        <time>2012-03-18T08:56:04Z</time>
      </trkpt>
      <trkpt lat="49.16029" lon="-0.44839">
        <ele>94</ele>
        <time>2012-03-18T08:56:07Z</time>
      </trkpt>
      <trkpt lat="49.16033" lon="-0.44835">
        <ele>92</ele>
        <time>2012-03-18T08:56:12Z</time>
      </trkpt>
      <trkpt lat="49.16038" lon="-0.4483">
        <ele>90</ele>
        <time>2012-03-18T08:56:19Z</time>
      </trkpt>
      <trkpt lat="49.16038" lon="-0.44822">
        <ele>91</ele>
        <time>2012-03-18T08:56:21Z</time>
      </trkpt>
      <trkpt lat="49.16041" lon="-0.44815">
        <ele>92</ele>
        <time>2012-03-18T08:56:25Z</time>
      </trkpt>
      <trkpt lat="49.16044" lon="-0.4481">
        <ele>92</ele>
        <time>2012-03-18T08:56:29Z</time>
      </trkpt>
      <trkpt lat="49.16048" lon="-0.44804">
        <ele>91</ele>
        <time>2012-03-18T08:56:33Z</time>
      </trkpt>
      <trkpt lat="49.1605" lon="-0.44796">
        <ele>91</ele>
        <time>2012-03-18T08:56:37Z</time>
      </trkpt>
      <trkpt lat="49.16055" lon="-0.44791">
        <ele>92</ele>
        <time>2012-03-18T08:56:42Z</time>
      </trkpt>
      <trkpt lat="49.16057" lon="-0.44784">
        <ele>92</ele>
        <time>2012-03-18T08:56:46Z</time>
      </trkpt>
      <trkpt lat="49.16059" lon="-0.44777">
        <ele>90</ele>
        <time>2012-03-18T08:56:51Z</time>
      </trkpt>
      <trkpt lat="49.16063" lon="-0.44774">
        <ele>90</ele>
        <time>2012-03-18T08:56:56Z</time>
      </trkpt>
      <trkpt lat="49.16064" lon="-0.44766">
        <ele>92</ele>
        <time>2012-03-18T08:56:59Z</time>
      </trkpt>
      <trkpt lat="49.16069" lon="-0.44761">
        <ele>91</ele>
        <time>2012-03-18T08:57:03Z</time>
      </trkpt>
      <trkpt lat="49.16071" lon="-0.44755">
        <ele>90</ele>
        <time>2012-03-18T08:57:06Z</time>
      </trkpt>
      <trkpt lat="49.16074" lon="-0.4475">
        <ele>89</ele>
        <time>2012-03-18T08:57:10Z</time>
      </trkpt>
      <trkpt lat="49.16079" lon="-0.44744">
        <ele>89</ele>
        <time>2012-03-18T08:57:15Z</time>
      </trkpt>
      <trkpt lat="49.16081" lon="-0.44733">
        <ele>89</ele>
        <time>2012-03-18T08:57:19Z</time>
      </trkpt>
      <trkpt lat="49.16086" lon="-0.44738">
        <ele>88</ele>
        <time>2012-03-18T08:57:22Z</time>
      </trkpt>
      <trkpt lat="49.16091" lon="-0.44734">
        <ele>86</ele>
        <time>2012-03-18T08:57:28Z</time>
      </trkpt>
      <trkpt lat="49.16091" lon="-0.44725">
        <ele>86</ele>
        <time>2012-03-18T08:57:31Z</time>
      </trkpt>
      <trkpt lat="49.16103" lon="-0.44686">
        <ele>88</ele>
        <time>2012-03-18T08:57:51Z</time>
      </trkpt>
      <trkpt lat="49.16106" lon="-0.4468">
        <ele>89</ele>
        <time>2012-03-18T08:57:54Z</time>
      </trkpt>
      <trkpt lat="49.1611" lon="-0.44678">
        <ele>90</ele>
        <time>2012-03-18T08:57:59Z</time>
      </trkpt>
      <trkpt lat="49.16111" lon="-0.4467">
        <ele>88</ele>
        <time>2012-03-18T08:58:03Z</time>
      </trkpt>
      <trkpt lat="49.16115" lon="-0.44665">
        <ele>88</ele>
        <time>2012-03-18T08:58:07Z</time>
      </trkpt>
      <trkpt lat="49.16118" lon="-0.4466">
        <ele>88</ele>
        <time>2012-03-18T08:58:10Z</time>
      </trkpt>
      <trkpt lat="49.16122" lon="-0.44654">
        <ele>89</ele>
        <time>2012-03-18T08:58:15Z</time>
      </trkpt>
      <trkpt lat="49.16133" lon="-0.44626">
        <ele>89</ele>
        <time>2012-03-18T08:58:31Z</time>
      </trkpt>
      <trkpt lat="49.16137" lon="-0.44622">
        <ele>88</ele>
        <time>2012-03-18T08:58:36Z</time>
      </trkpt>
      <trkpt lat="49.16139" lon="-0.44614">
        <ele>87</ele>
        <time>2012-03-18T08:58:40Z</time>
      </trkpt>
      <trkpt lat="49.16145" lon="-0.44604">
        <ele>89</ele>
        <time>2012-03-18T08:58:48Z</time>
      </trkpt>
      <trkpt lat="49.16146" lon="-0.44595">
        <ele>89</ele>
        <time>2012-03-18T08:58:51Z</time>
      </trkpt>
      <trkpt lat="49.16158" lon="-0.44577">
        <ele>88</ele>
        <time>2012-03-18T08:59:05Z</time>
      </trkpt>
      <trkpt lat="49.1616" lon="-0.44571">
        <ele>88</ele>
        <time>2012-03-18T08:59:09Z</time>
      </trkpt>
      <trkpt lat="49.16155" lon="-0.44568">
        <ele>89</ele>
        <time>2012-03-18T08:59:17Z</time>
      </trkpt>
      <trkpt lat="49.16152" lon="-0.44562">
        <ele>90</ele>
        <time>2012-03-18T08:59:22Z</time>
      </trkpt>
      <trkpt lat="49.16147" lon="-0.44558">
        <ele>91</ele>
        <time>2012-03-18T08:59:26Z</time>
      </trkpt>
      <trkpt lat="49.16142" lon="-0.44557">
        <ele>91</ele>
        <time>2012-03-18T08:59:31Z</time>
      </trkpt>
      <trkpt lat="49.16137" lon="-0.44555">
        <ele>91</ele>
        <time>2012-03-18T08:59:35Z</time>
      </trkpt>
      <trkpt lat="49.16132" lon="-0.44556">
        <ele>92</ele>
        <time>2012-03-18T08:59:38Z</time>
      </trkpt>
      <trkpt lat="49.16127" lon="-0.44556">
        <ele>92</ele>
        <time>2012-03-18T08:59:42Z</time>
      </trkpt>
      <trkpt lat="49.16122" lon="-0.44555">
        <ele>91</ele>
        <time>2012-03-18T08:59:47Z</time>
      </trkpt>
      <trkpt lat="49.16117" lon="-0.44555">
        <ele>90</ele>
        <time>2012-03-18T08:59:51Z</time>
      </trkpt>
      <trkpt lat="49.16112" lon="-0.44555">
        <ele>89</ele>
        <time>2012-03-18T08:59:55Z</time>
      </trkpt>
      <trkpt lat="49.16108" lon="-0.44555">
        <ele>89</ele>
        <time>2012-03-18T08:59:59Z</time>
      </trkpt>
      <trkpt lat="49.16103" lon="-0.44556">
        <ele>88</ele>
        <time>2012-03-18T09:00:03Z</time>
      </trkpt>
      <trkpt lat="49.16097" lon="-0.44555">
        <ele>88</ele>
        <time>2012-03-18T09:00:07Z</time>
      </trkpt>
      <trkpt lat="49.16092" lon="-0.44555">
        <ele>88</ele>
        <time>2012-03-18T09:00:10Z</time>
      </trkpt>
      <trkpt lat="49.16087" lon="-0.44557">
        <ele>88</ele>
        <time>2012-03-18T09:00:14Z</time>
      </trkpt>
      <trkpt lat="49.16082" lon="-0.44556">
        <ele>89</ele>
        <time>2012-03-18T09:00:18Z</time>
      </trkpt>
      <trkpt lat="49.16077" lon="-0.44558">
        <ele>90</ele>
        <time>2012-03-18T09:00:21Z</time>
      </trkpt>
      <trkpt lat="49.16072" lon="-0.44555">
        <ele>86</ele>
        <time>2012-03-18T09:00:27Z</time>
      </trkpt>
      <trkpt lat="49.16067" lon="-0.44555">
        <ele>85</ele>
        <time>2012-03-18T09:00:32Z</time>
      </trkpt>
      <trkpt lat="49.16062" lon="-0.44557">
        <ele>85</ele>
        <time>2012-03-18T09:00:36Z</time>
      </trkpt>
      <trkpt lat="49.16056" lon="-0.44558">
        <ele>88</ele>
        <time>2012-03-18T09:00:40Z</time>
      </trkpt>
      <trkpt lat="49.1605" lon="-0.44558">
        <ele>88</ele>
        <time>2012-03-18T09:00:45Z</time>
      </trkpt>
      <trkpt lat="49.16046" lon="-0.44561">
        <ele>86</ele>
        <time>2012-03-18T09:00:49Z</time>
      </trkpt>
      <trkpt lat="49.16041" lon="-0.44564">
        <ele>87</ele>
        <time>2012-03-18T09:00:54Z</time>
      </trkpt>
      <trkpt lat="49.16036" lon="-0.44564">
        <ele>87</ele>
        <time>2012-03-18T09:00:57Z</time>
      </trkpt>
      <trkpt lat="49.1603" lon="-0.44568">
        <ele>88</ele>
        <time>2012-03-18T09:01:02Z</time>
      </trkpt>
      <trkpt lat="49.16026" lon="-0.4457">
        <ele>87</ele>
        <time>2012-03-18T09:01:06Z</time>
      </trkpt>
      <trkpt lat="49.1602" lon="-0.44572">
        <ele>88</ele>
        <time>2012-03-18T09:01:10Z</time>
      </trkpt>
      <trkpt lat="49.16016" lon="-0.44574">
        <ele>89</ele>
        <time>2012-03-18T09:01:14Z</time>
      </trkpt>
      <trkpt lat="49.16011" lon="-0.44578">
        <ele>89</ele>
        <time>2012-03-18T09:01:19Z</time>
      </trkpt>
      <trkpt lat="49.16006" lon="-0.44581">
        <ele>91</ele>
        <time>2012-03-18T09:01:23Z</time>
      </trkpt>
      <trkpt lat="49.16" lon="-0.44584">
        <ele>91</ele>
        <time>2012-03-18T09:01:27Z</time>
      </trkpt>
      <trkpt lat="49.15994" lon="-0.4459">
        <ele>91</ele>
        <time>2012-03-18T09:01:31Z</time>
      </trkpt>
      <trkpt lat="49.1599" lon="-0.44594">
        <ele>91</ele>
        <time>2012-03-18T09:01:36Z</time>
      </trkpt>
      <trkpt lat="49.15985" lon="-0.44599">
        <ele>92</ele>
        <time>2012-03-18T09:01:41Z</time>
      </trkpt>
      <trkpt lat="49.1598" lon="-0.44604">
        <ele>90</ele>
        <time>2012-03-18T09:01:46Z</time>
      </trkpt>
      <trkpt lat="49.15977" lon="-0.44609">
        <ele>88</ele>
        <time>2012-03-18T09:01:51Z</time>
      </trkpt>
      <trkpt lat="49.15971" lon="-0.44615">
        <ele>87</ele>
        <time>2012-03-18T09:01:57Z</time>
      </trkpt>
      <trkpt lat="49.15967" lon="-0.4462">
        <ele>86</ele>
        <time>2012-03-18T09:02:02Z</time>
      </trkpt>
      <trkpt lat="49.15962" lon="-0.44623">
        <ele>86</ele>
        <time>2012-03-18T09:02:05Z</time>
      </trkpt>
      <trkpt lat="49.15959" lon="-0.44628">
        <ele>86</ele>
        <time>2012-03-18T09:02:09Z</time>
      </trkpt>
      <trkpt lat="49.15955" lon="-0.44632">
        <ele>87</ele>
        <time>2012-03-18T09:02:13Z</time>
      </trkpt>
      <trkpt lat="49.15951" lon="-0.44638">
        <ele>89</ele>
        <time>2012-03-18T09:02:18Z</time>
      </trkpt>
      <trkpt lat="49.15947" lon="-0.44643">
        <ele>88</ele>
        <time>2012-03-18T09:02:24Z</time>
      </trkpt>
      <trkpt lat="49.15943" lon="-0.44647">
        <ele>88</ele>
        <time>2012-03-18T09:02:28Z</time>
      </trkpt>
      <trkpt lat="49.15939" lon="-0.4465">
        <ele>87</ele>
        <time>2012-03-18T09:02:33Z</time>
      </trkpt>
      <trkpt lat="49.15933" lon="-0.44656">
        <ele>87</ele>
        <time>2012-03-18T09:02:38Z</time>
      </trkpt>
      <trkpt lat="49.15929" lon="-0.4466">
        <ele>87</ele>
        <time>2012-03-18T09:02:41Z</time>
      </trkpt>
      <trkpt lat="49.15925" lon="-0.44667">
        <ele>89</ele>
        <time>2012-03-18T09:02:45Z</time>
      </trkpt>
      <trkpt lat="49.15922" lon="-0.44671">
        <ele>90</ele>
        <time>2012-03-18T09:02:50Z</time>
      </trkpt>
      <trkpt lat="49.15916" lon="-0.44676">
        <ele>91</ele>
        <time>2012-03-18T09:02:56Z</time>
      </trkpt>
      <trkpt lat="49.15912" lon="-0.4468">
        <ele>91</ele>
        <time>2012-03-18T09:02:58Z</time>
      </trkpt>
      <trkpt lat="49.1591" lon="-0.44686">
        <ele>91</ele>
        <time>2012-03-18T09:03:02Z</time>
      </trkpt>
      <trkpt lat="49.15906" lon="-0.44692">
        <ele>89</ele>
        <time>2012-03-18T09:03:06Z</time>
      </trkpt>
      <trkpt lat="49.15902" lon="-0.44695">
        <ele>88</ele>
        <time>2012-03-18T09:03:11Z</time>
      </trkpt>
      <trkpt lat="49.159" lon="-0.44702">
        <ele>87</ele>
        <time>2012-03-18T09:03:15Z</time>
      </trkpt>
      <trkpt lat="49.15896" lon="-0.44708">
        <ele>86</ele>
        <time>2012-03-18T09:03:21Z</time>
      </trkpt>
      <trkpt lat="49.15893" lon="-0.44714">
        <ele>86</ele>
        <time>2012-03-18T09:03:25Z</time>
      </trkpt>
      <trkpt lat="49.15889" lon="-0.44719">
        <ele>86</ele>
        <time>2012-03-18T09:03:30Z</time>
      </trkpt>
      <trkpt lat="49.15885" lon="-0.44722">
        <ele>86</ele>
        <time>2012-03-18T09:03:35Z</time>
      </trkpt>
      <trkpt lat="49.15881" lon="-0.44727">
        <ele>87</ele>
        <time>2012-03-18T09:03:39Z</time>
      </trkpt>
      <trkpt lat="49.15876" lon="-0.44733">
        <ele>88</ele>
        <time>2012-03-18T09:03:44Z</time>
      </trkpt>
      <trkpt lat="49.15872" lon="-0.44739">
        <ele>89</ele>
        <time>2012-03-18T09:03:50Z</time>
      </trkpt>
      <trkpt lat="49.15868" lon="-0.44745">
        <ele>92</ele>
        <time>2012-03-18T09:03:55Z</time>
      </trkpt>
      <trkpt lat="49.15863" lon="-0.44747">
        <ele>91</ele>
        <time>2012-03-18T09:04:00Z</time>
      </trkpt>
      <trkpt lat="49.15859" lon="-0.44751">
        <ele>90</ele>
        <time>2012-03-18T09:04:22Z</time>
      </trkpt>
      <trkpt lat="49.15853" lon="-0.44753">
        <ele>90</ele>
        <time>2012-03-18T09:04:26Z</time>
      </trkpt>
      <trkpt lat="49.15849" lon="-0.44759">
        <ele>89</ele>
        <time>2012-03-18T09:04:30Z</time>
      </trkpt>
      <trkpt lat="49.15844" lon="-0.4476">
        <ele>88</ele>
        <time>2012-03-18T09:04:35Z</time>
      </trkpt>
      <trkpt lat="49.15841" lon="-0.44768">
        <ele>91</ele>
        <time>2012-03-18T09:04:38Z</time>
      </trkpt>
      <trkpt lat="49.15836" lon="-0.44772">
        <ele>92</ele>
        <time>2012-03-18T09:04:41Z</time>
      </trkpt>
      <trkpt lat="49.15832" lon="-0.44777">
        <ele>92</ele>
        <time>2012-03-18T09:04:45Z</time>
      </trkpt>
      <trkpt lat="49.15827" lon="-0.4478">
        <ele>92</ele>
        <time>2012-03-18T09:04:49Z</time>
      </trkpt>
      <trkpt lat="49.15822" lon="-0.44785">
        <ele>94</ele>
        <time>2012-03-18T09:04:52Z</time>
      </trkpt>
      <trkpt lat="49.15818" lon="-0.44787">
        <ele>93</ele>
        <time>2012-03-18T09:04:57Z</time>
      </trkpt>
      <trkpt lat="49.15814" lon="-0.4479">
        <ele>93</ele>
        <time>2012-03-18T09:05:01Z</time>
      </trkpt>
      <trkpt lat="49.15809" lon="-0.44791">
        <ele>93</ele>
        <time>2012-03-18T09:05:07Z</time>
      </trkpt>
      <trkpt lat="49.15804" lon="-0.44788">
        <ele>94</ele>
        <time>2012-03-18T09:05:10Z</time>
      </trkpt>
      <trkpt lat="49.158" lon="-0.44791">
        <ele>92</ele>
        <time>2012-03-18T09:05:13Z</time>
      </trkpt>
      <trkpt lat="49.15795" lon="-0.44788">
        <ele>92</ele>
        <time>2012-03-18T09:05:18Z</time>
      </trkpt>
      <trkpt lat="49.15791" lon="-0.44784">
        <ele>92</ele>
        <time>2012-03-18T09:05:23Z</time>
      </trkpt>
      <trkpt lat="49.15785" lon="-0.4478">
        <ele>89</ele>
        <time>2012-03-18T09:05:27Z</time>
      </trkpt>
      <trkpt lat="49.15779" lon="-0.44777">
        <ele>89</ele>
        <time>2012-03-18T09:05:30Z</time>
      </trkpt>
      <trkpt lat="49.15774" lon="-0.44774">
        <ele>90</ele>
        <time>2012-03-18T09:05:35Z</time>
      </trkpt>
      <trkpt lat="49.15769" lon="-0.44772">
        <ele>89</ele>
        <time>2012-03-18T09:05:56Z</time>
      </trkpt>
      <trkpt lat="49.15765" lon="-0.44768">
        <ele>86</ele>
        <time>2012-03-18T09:06:02Z</time>
      </trkpt>
      <trkpt lat="49.15759" lon="-0.44766">
        <ele>84</ele>
        <time>2012-03-18T09:06:08Z</time>
      </trkpt>
      <trkpt lat="49.15753" lon="-0.44764">
        <ele>84</ele>
        <time>2012-03-18T09:06:12Z</time>
      </trkpt>
      <trkpt lat="49.15748" lon="-0.44763">
        <ele>84</ele>
        <time>2012-03-18T09:06:15Z</time>
      </trkpt>
      <trkpt lat="49.15743" lon="-0.4476">
        <ele>84</ele>
        <time>2012-03-18T09:06:19Z</time>
      </trkpt>
      <trkpt lat="49.15739" lon="-0.44757">
        <ele>84</ele>
        <time>2012-03-18T09:06:22Z</time>
      </trkpt>
      <trkpt lat="49.15734" lon="-0.44754">
        <ele>85</ele>
        <time>2012-03-18T09:06:26Z</time>
      </trkpt>
      <trkpt lat="49.15729" lon="-0.44751">
        <ele>86</ele>
        <time>2012-03-18T09:06:30Z</time>
      </trkpt>
      <trkpt lat="49.15724" lon="-0.44746">
        <ele>85</ele>
        <time>2012-03-18T09:06:35Z</time>
      </trkpt>
      <trkpt lat="49.15709" lon="-0.44738">
        <ele>89</ele>
        <time>2012-03-18T09:06:46Z</time>
      </trkpt>
      <trkpt lat="49.15704" lon="-0.44736">
        <ele>88</ele>
        <time>2012-03-18T09:06:50Z</time>
      </trkpt>
      <trkpt lat="49.157" lon="-0.44729">
        <ele>88</ele>
        <time>2012-03-18T09:06:55Z</time>
      </trkpt>
      <trkpt lat="49.15695" lon="-0.44728">
        <ele>86</ele>
        <time>2012-03-18T09:06:59Z</time>
      </trkpt>
      <trkpt lat="49.15691" lon="-0.44725">
        <ele>86</ele>
        <time>2012-03-18T09:07:04Z</time>
      </trkpt>
      <trkpt lat="49.15687" lon="-0.44722">
        <ele>85</ele>
        <time>2012-03-18T09:07:08Z</time>
      </trkpt>
      <trkpt lat="49.15682" lon="-0.44717">
        <ele>83</ele>
        <time>2012-03-18T09:07:13Z</time>
      </trkpt>
      <trkpt lat="49.15682" lon="-0.44708">
        <ele>85</ele>
        <time>2012-03-18T09:07:17Z</time>
      </trkpt>
      <trkpt lat="49.15685" lon="-0.44702">
        <ele>84</ele>
        <time>2012-03-18T09:07:21Z</time>
      </trkpt>
      <trkpt lat="49.15688" lon="-0.44696">
        <ele>84</ele>
        <time>2012-03-18T09:07:26Z</time>
      </trkpt>
      <trkpt lat="49.15692" lon="-0.4469">
        <ele>81</ele>
        <time>2012-03-18T09:07:32Z</time>
      </trkpt>
      <trkpt lat="49.15694" lon="-0.44683">
        <ele>80</ele>
        <time>2012-03-18T09:07:36Z</time>
      </trkpt>
      <trkpt lat="49.15696" lon="-0.44676">
        <ele>78</ele>
        <time>2012-03-18T09:07:40Z</time>
      </trkpt>
      <trkpt lat="49.15697" lon="-0.44667">
        <ele>78</ele>
        <time>2012-03-18T09:07:43Z</time>
      </trkpt>
      <trkpt lat="49.15699" lon="-0.4466">
        <ele>80</ele>
        <time>2012-03-18T09:07:47Z</time>
      </trkpt>
      <trkpt lat="49.15699" lon="-0.4466">
        <ele>80</ele>
        <time>2012-03-18T09:07:47Z</time>
      </trkpt>
      <trkpt lat="49.15699" lon="-0.4466">
        <ele>80</ele>
        <time>2012-03-18T09:07:48Z</time>
      </trkpt>
      <trkpt lat="49.15701" lon="-0.44651">
        <ele>79</ele>
        <time>2012-03-18T09:07:57Z</time>
      </trkpt>
      <trkpt lat="49.15701" lon="-0.44644">
        <ele>81</ele>
        <time>2012-03-18T09:07:59Z</time>
      </trkpt>
      <trkpt lat="49.15703" lon="-0.44635">
        <ele>82</ele>
        <time>2012-03-18T09:08:02Z</time>
      </trkpt>
      <trkpt lat="49.15704" lon="-0.44628">
        <ele>82</ele>
        <time>2012-03-18T09:08:05Z</time>
      </trkpt>
      <trkpt lat="49.15706" lon="-0.4462">
        <ele>81</ele>
        <time>2012-03-18T09:08:09Z</time>
      </trkpt>
      <trkpt lat="49.15709" lon="-0.44614">
        <ele>80</ele>
        <time>2012-03-18T09:08:12Z</time>
      </trkpt>
      <trkpt lat="49.1571" lon="-0.44606">
        <ele>79</ele>
        <time>2012-03-18T09:08:16Z</time>
      </trkpt>
      <trkpt lat="49.15713" lon="-0.446">
        <ele>80</ele>
        <time>2012-03-18T09:08:20Z</time>
      </trkpt>
      <trkpt lat="49.15714" lon="-0.44592">
        <ele>81</ele>
        <time>2012-03-18T09:08:24Z</time>
      </trkpt>
      <trkpt lat="49.15715" lon="-0.44583">
        <ele>82</ele>
        <time>2012-03-18T09:08:28Z</time>
      </trkpt>
      <trkpt lat="49.15718" lon="-0.44576">
        <ele>83</ele>
        <time>2012-03-18T09:08:32Z</time>
      </trkpt>
      <trkpt lat="49.15722" lon="-0.44569">
        <ele>82</ele>
        <time>2012-03-18T09:08:38Z</time>
      </trkpt>
      <trkpt lat="49.15725" lon="-0.44562">
        <ele>82</ele>
        <time>2012-03-18T09:08:42Z</time>
      </trkpt>
      <trkpt lat="49.15729" lon="-0.44556">
        <ele>81</ele>
        <time>2012-03-18T09:08:47Z</time>
      </trkpt>
      <trkpt lat="49.15731" lon="-0.44549">
        <ele>81</ele>
        <time>2012-03-18T09:08:51Z</time>
      </trkpt>
      <trkpt lat="49.15732" lon="-0.44541">
        <ele>80</ele>
        <time>2012-03-18T09:08:54Z</time>
      </trkpt>
      <trkpt lat="49.15734" lon="-0.44534">
        <ele>81</ele>
        <time>2012-03-18T09:08:59Z</time>
      </trkpt>
      <trkpt lat="49.15735" lon="-0.44527">
        <ele>81</ele>
        <time>2012-03-18T09:09:03Z</time>
      </trkpt>
      <trkpt lat="49.15735" lon="-0.44519">
        <ele>81</ele>
        <time>2012-03-18T09:09:06Z</time>
      </trkpt>
      <trkpt lat="49.15737" lon="-0.44511">
        <ele>81</ele>
        <time>2012-03-18T09:09:10Z</time>
      </trkpt>
      <trkpt lat="49.15739" lon="-0.44504">
        <ele>82</ele>
        <time>2012-03-18T09:09:14Z</time>
      </trkpt>
      <trkpt lat="49.15741" lon="-0.44497">
        <ele>80</ele>
        <time>2012-03-18T09:09:18Z</time>
      </trkpt>
      <trkpt lat="49.15743" lon="-0.44489">
        <ele>82</ele>
        <time>2012-03-18T09:09:23Z</time>
      </trkpt>
      <trkpt lat="49.15745" lon="-0.44481">
        <ele>82</ele>
        <time>2012-03-18T09:09:27Z</time>
      </trkpt>
      <trkpt lat="49.15748" lon="-0.44475">
        <ele>83</ele>
        <time>2012-03-18T09:09:32Z</time>
      </trkpt>
      <trkpt lat="49.1575" lon="-0.44468">
        <ele>82</ele>
        <time>2012-03-18T09:09:35Z</time>
      </trkpt>
      <trkpt lat="49.15753" lon="-0.44463">
        <ele>81</ele>
        <time>2012-03-18T09:09:39Z</time>
      </trkpt>
      <trkpt lat="49.15754" lon="-0.44455">
        <ele>80</ele>
        <time>2012-03-18T09:09:43Z</time>
      </trkpt>
      <trkpt lat="49.15756" lon="-0.44448">
        <ele>79</ele>
        <time>2012-03-18T09:09:47Z</time>
      </trkpt>
      <trkpt lat="49.15758" lon="-0.4444">
        <ele>80</ele>
        <time>2012-03-18T09:09:51Z</time>
      </trkpt>
      <trkpt lat="49.1576" lon="-0.44433">
        <ele>81</ele>
        <time>2012-03-18T09:09:56Z</time>
      </trkpt>
      <trkpt lat="49.15763" lon="-0.44426">
        <ele>81</ele>
        <time>2012-03-18T09:10:01Z</time>
      </trkpt>
      <trkpt lat="49.15761" lon="-0.44418">
        <ele>80</ele>
        <time>2012-03-18T09:10:07Z</time>
      </trkpt>
      <trkpt lat="49.15756" lon="-0.44415">
        <ele>80</ele>
        <time>2012-03-18T09:10:11Z</time>
      </trkpt>
      <trkpt lat="49.15756" lon="-0.44407">
        <ele>79</ele>
        <time>2012-03-18T09:10:15Z</time>
      </trkpt>
      <trkpt lat="49.15755" lon="-0.44399">
        <ele>80</ele>
        <time>2012-03-18T09:10:19Z</time>
      </trkpt>
      <trkpt lat="49.15758" lon="-0.44392">
        <ele>80</ele>
        <time>2012-03-18T09:10:22Z</time>
      </trkpt>
      <trkpt lat="49.1576" lon="-0.44386">
        <ele>79</ele>
        <time>2012-03-18T09:10:27Z</time>
      </trkpt>
      <trkpt lat="49.15762" lon="-0.44379">
        <ele>80</ele>
        <time>2012-03-18T09:10:32Z</time>
      </trkpt>
      <trkpt lat="49.15765" lon="-0.44372">
        <ele>81</ele>
        <time>2012-03-18T09:10:37Z</time>
      </trkpt>
      <trkpt lat="49.1577" lon="-0.44367">
        <ele>82</ele>
        <time>2012-03-18T09:10:43Z</time>
      </trkpt>
      <trkpt lat="49.15772" lon="-0.44361">
        <ele>81</ele>
        <time>2012-03-18T09:10:50Z</time>
      </trkpt>
      <trkpt lat="49.15774" lon="-0.44351">
        <ele>83</ele>
        <time>2012-03-18T09:10:53Z</time>
      </trkpt>
      <trkpt lat="49.15775" lon="-0.44341">
        <ele>83</ele>
        <time>2012-03-18T09:10:57Z</time>
      </trkpt>
      <trkpt lat="49.15771" lon="-0.44338">
        <ele>84</ele>
        <time>2012-03-18T09:11:02Z</time>
      </trkpt>
      <trkpt lat="49.15765" lon="-0.44338">
        <ele>84</ele>
        <time>2012-03-18T09:11:07Z</time>
      </trkpt>
      <trkpt lat="49.15761" lon="-0.44337">
        <ele>84</ele>
        <time>2012-03-18T09:11:12Z</time>
      </trkpt>
      <trkpt lat="49.15756" lon="-0.44335">
        <ele>85</ele>
        <time>2012-03-18T09:11:16Z</time>
      </trkpt>
      <trkpt lat="49.15752" lon="-0.44333">
        <ele>86</ele>
        <time>2012-03-18T09:11:20Z</time>
      </trkpt>
      <trkpt lat="49.15747" lon="-0.44328">
        <ele>86</ele>
        <time>2012-03-18T09:11:25Z</time>
      </trkpt>
      <trkpt lat="49.15743" lon="-0.44321">
        <ele>85</ele>
        <time>2012-03-18T09:11:30Z</time>
      </trkpt>
      <trkpt lat="49.15742" lon="-0.44312">
        <ele>84</ele>
        <time>2012-03-18T09:11:35Z</time>
      </trkpt>
      <trkpt lat="49.15742" lon="-0.44305">
        <ele>85</ele>
        <time>2012-03-18T09:11:39Z</time>
      </trkpt>
      <trkpt lat="49.15743" lon="-0.44297">
        <ele>85</ele>
        <time>2012-03-18T09:11:43Z</time>
      </trkpt>
      <trkpt lat="49.15744" lon="-0.4429">
        <ele>83</ele>
        <time>2012-03-18T09:11:48Z</time>
      </trkpt>
      <trkpt lat="49.15746" lon="-0.44282">
        <ele>84</ele>
        <time>2012-03-18T09:11:52Z</time>
      </trkpt>
      <trkpt lat="49.15747" lon="-0.44275">
        <ele>84</ele>
        <time>2012-03-18T09:11:55Z</time>
      </trkpt>
      <trkpt lat="49.15749" lon="-0.44267">
        <ele>84</ele>
        <time>2012-03-18T09:11:59Z</time>
      </trkpt>
      <trkpt lat="49.1575" lon="-0.4426">
        <ele>84</ele>
        <time>2012-03-18T09:12:02Z</time>
      </trkpt>
      <trkpt lat="49.15756" lon="-0.44258">
        <ele>82</ele>
        <time>2012-03-18T09:12:07Z</time>
      </trkpt>
      <trkpt lat="49.15758" lon="-0.44252">
        <ele>80</ele>
        <time>2012-03-18T09:12:12Z</time>
      </trkpt>
      <trkpt lat="49.15761" lon="-0.44245">
        <ele>80</ele>
        <time>2012-03-18T09:12:15Z</time>
      </trkpt>
      <trkpt lat="49.15762" lon="-0.44238">
        <ele>81</ele>
        <time>2012-03-18T09:12:18Z</time>
      </trkpt>
      <trkpt lat="49.15766" lon="-0.44233">
        <ele>81</ele>
        <time>2012-03-18T09:12:21Z</time>
      </trkpt>
      <trkpt lat="49.15766" lon="-0.44233">
        <ele>81</ele>
        <time>2012-03-18T09:12:21Z</time>
      </trkpt>
      <trkpt lat="49.15766" lon="-0.44233">
        <ele>80</ele>
        <time>2012-03-18T09:12:26Z</time>
      </trkpt>
      <trkpt lat="49.15769" lon="-0.44226">
        <ele>81</ele>
        <time>2012-03-18T09:12:34Z</time>
      </trkpt>
      <trkpt lat="49.15769" lon="-0.44219">
        <ele>81</ele>
        <time>2012-03-18T09:12:38Z</time>
      </trkpt>
      <trkpt lat="49.15771" lon="-0.44212">
        <ele>79</ele>
        <time>2012-03-18T09:12:43Z</time>
      </trkpt>
      <trkpt lat="49.15772" lon="-0.44204">
        <ele>78</ele>
        <time>2012-03-18T09:12:48Z</time>
      </trkpt>
      <trkpt lat="49.15774" lon="-0.44196">
        <ele>78</ele>
        <time>2012-03-18T09:12:53Z</time>
      </trkpt>
      <trkpt lat="49.15774" lon="-0.44189">
        <ele>78</ele>
        <time>2012-03-18T09:12:57Z</time>
      </trkpt>
      <trkpt lat="49.15775" lon="-0.44182">
        <ele>79</ele>
        <time>2012-03-18T09:13:01Z</time>
      </trkpt>
      <trkpt lat="49.15776" lon="-0.44175">
        <ele>79</ele>
        <time>2012-03-18T09:13:05Z</time>
      </trkpt>
      <trkpt lat="49.15777" lon="-0.44167">
        <ele>76</ele>
        <time>2012-03-18T09:13:10Z</time>
      </trkpt>
      <trkpt lat="49.15777" lon="-0.44159">
        <ele>77</ele>
        <time>2012-03-18T09:13:13Z</time>
      </trkpt>
      <trkpt lat="49.15778" lon="-0.44152">
        <ele>78</ele>
        <time>2012-03-18T09:13:17Z</time>
      </trkpt>
      <trkpt lat="49.15778" lon="-0.44144">
        <ele>77</ele>
        <time>2012-03-18T09:13:21Z</time>
      </trkpt>
      <trkpt lat="49.15778" lon="-0.44137">
        <ele>77</ele>
        <time>2012-03-18T09:13:25Z</time>
      </trkpt>
      <trkpt lat="49.15778" lon="-0.4413">
        <ele>79</ele>
        <time>2012-03-18T09:13:28Z</time>
      </trkpt>
      <trkpt lat="49.15779" lon="-0.44122">
        <ele>79</ele>
        <time>2012-03-18T09:13:32Z</time>
      </trkpt>
      <trkpt lat="49.15779" lon="-0.44115">
        <ele>79</ele>
        <time>2012-03-18T09:13:36Z</time>
      </trkpt>
      <trkpt lat="49.15779" lon="-0.44108">
        <ele>79</ele>
        <time>2012-03-18T09:13:39Z</time>
      </trkpt>
      <trkpt lat="49.15782" lon="-0.44101">
        <ele>79</ele>
        <time>2012-03-18T09:13:43Z</time>
      </trkpt>
      <trkpt lat="49.15781" lon="-0.44092">
        <ele>78</ele>
        <time>2012-03-18T09:13:46Z</time>
      </trkpt>
      <trkpt lat="49.15782" lon="-0.44085">
        <ele>79</ele>
        <time>2012-03-18T09:13:51Z</time>
      </trkpt>
      <trkpt lat="49.15779" lon="-0.44077">
        <ele>80</ele>
        <time>2012-03-18T09:13:56Z</time>
      </trkpt>
      <trkpt lat="49.15778" lon="-0.44068">
        <ele>80</ele>
        <time>2012-03-18T09:14:00Z</time>
      </trkpt>
      <trkpt lat="49.15776" lon="-0.44061">
        <ele>80</ele>
        <time>2012-03-18T09:14:04Z</time>
      </trkpt>
      <trkpt lat="49.15774" lon="-0.44053">
        <ele>80</ele>
        <time>2012-03-18T09:14:09Z</time>
      </trkpt>
      <trkpt lat="49.15771" lon="-0.44046">
        <ele>80</ele>
        <time>2012-03-18T09:14:13Z</time>
      </trkpt>
      <trkpt lat="49.15769" lon="-0.4404">
        <ele>78</ele>
        <time>2012-03-18T09:14:17Z</time>
      </trkpt>
      <trkpt lat="49.15765" lon="-0.44036">
        <ele>77</ele>
        <time>2012-03-18T09:14:21Z</time>
      </trkpt>
      <trkpt lat="49.1576" lon="-0.44031">
        <ele>77</ele>
        <time>2012-03-18T09:14:25Z</time>
      </trkpt>
      <trkpt lat="49.15756" lon="-0.44027">
        <ele>78</ele>
        <time>2012-03-18T09:14:29Z</time>
      </trkpt>
      <trkpt lat="49.1575" lon="-0.44022">
        <ele>79</ele>
        <time>2012-03-18T09:14:32Z</time>
      </trkpt>
      <trkpt lat="49.15746" lon="-0.44019">
        <ele>80</ele>
        <time>2012-03-18T09:14:36Z</time>
      </trkpt>
      <trkpt lat="49.15741" lon="-0.44019">
        <ele>79</ele>
        <time>2012-03-18T09:14:39Z</time>
      </trkpt>
      <trkpt lat="49.15736" lon="-0.44017">
        <ele>79</ele>
        <time>2012-03-18T09:14:44Z</time>
      </trkpt>
      <trkpt lat="49.15733" lon="-0.44011">
        <ele>78</ele>
        <time>2012-03-18T09:14:48Z</time>
      </trkpt>
      <trkpt lat="49.15732" lon="-0.44004">
        <ele>76</ele>
        <time>2012-03-18T09:14:52Z</time>
      </trkpt>
      <trkpt lat="49.15732" lon="-0.43996">
        <ele>77</ele>
        <time>2012-03-18T09:15:05Z</time>
      </trkpt>
      <trkpt lat="49.15736" lon="-0.43995">
        <ele>76</ele>
        <time>2012-03-18T09:15:36Z</time>
      </trkpt>
      <trkpt lat="49.15736" lon="-0.43995">
        <ele>76</ele>
        <time>2012-03-18T09:15:36Z</time>
      </trkpt>
      <trkpt lat="49.15736" lon="-0.43995">
        <ele>76</ele>
        <time>2012-03-18T09:16:07Z</time>
      </trkpt>
      <trkpt lat="49.15733" lon="-0.44">
        <ele>76</ele>
        <time>2012-03-18T09:16:14Z</time>
      </trkpt>
      <trkpt lat="49.1573" lon="-0.44008">
        <ele>75</ele>
        <time>2012-03-18T09:16:20Z</time>
      </trkpt>
      <trkpt lat="49.1573" lon="-0.44008">
        <ele>75</ele>
        <time>2012-03-18T09:16:20Z</time>
      </trkpt>
      <trkpt lat="49.1573" lon="-0.44008">
        <ele>74</ele>
        <time>2012-03-18T09:16:49Z</time>
      </trkpt>
      <trkpt lat="49.15726" lon="-0.44013">
        <ele>73</ele>
        <time>2012-03-18T09:16:57Z</time>
      </trkpt>
      <trkpt lat="49.15724" lon="-0.44019">
        <ele>73</ele>
        <time>2012-03-18T09:17:53Z</time>
      </trkpt>
      <trkpt lat="49.1572" lon="-0.44023">
        <ele>74</ele>
        <time>2012-03-18T09:17:57Z</time>
      </trkpt>
      <trkpt lat="49.15717" lon="-0.44028">
        <ele>75</ele>
        <time>2012-03-18T09:18:01Z</time>
      </trkpt>
      <trkpt lat="49.15713" lon="-0.44034">
        <ele>75</ele>
        <time>2012-03-18T09:18:06Z</time>
      </trkpt>
      <trkpt lat="49.15709" lon="-0.44038">
        <ele>75</ele>
        <time>2012-03-18T09:18:10Z</time>
      </trkpt>
      <trkpt lat="49.15704" lon="-0.44043">
        <ele>75</ele>
        <time>2012-03-18T09:18:16Z</time>
      </trkpt>
      <trkpt lat="49.15699" lon="-0.44047">
        <ele>74</ele>
        <time>2012-03-18T09:18:21Z</time>
      </trkpt>
      <trkpt lat="49.15695" lon="-0.44052">
        <ele>73</ele>
        <time>2012-03-18T09:18:24Z</time>
      </trkpt>
      <trkpt lat="49.1569" lon="-0.44054">
        <ele>72</ele>
        <time>2012-03-18T09:18:28Z</time>
      </trkpt>
      <trkpt lat="49.15686" lon="-0.44058">
        <ele>72</ele>
        <time>2012-03-18T09:18:33Z</time>
      </trkpt>
      <trkpt lat="49.15682" lon="-0.44064">
        <ele>70</ele>
        <time>2012-03-18T09:18:37Z</time>
      </trkpt>
      <trkpt lat="49.15679" lon="-0.4407">
        <ele>71</ele>
        <time>2012-03-18T09:18:41Z</time>
      </trkpt>
      <trkpt lat="49.15675" lon="-0.44074">
        <ele>75</ele>
        <time>2012-03-18T09:18:45Z</time>
      </trkpt>
      <trkpt lat="49.15671" lon="-0.44078">
        <ele>76</ele>
        <time>2012-03-18T09:18:49Z</time>
      </trkpt>
      <trkpt lat="49.15667" lon="-0.44082">
        <ele>77</ele>
        <time>2012-03-18T09:18:53Z</time>
      </trkpt>
      <trkpt lat="49.15662" lon="-0.44086">
        <ele>77</ele>
        <time>2012-03-18T09:18:59Z</time>
      </trkpt>
      <trkpt lat="49.15658" lon="-0.44092">
        <ele>76</ele>
        <time>2012-03-18T09:19:04Z</time>
      </trkpt>
      <trkpt lat="49.15653" lon="-0.44096">
        <ele>77</ele>
        <time>2012-03-18T09:19:08Z</time>
      </trkpt>
      <trkpt lat="49.15648" lon="-0.44102">
        <ele>79</ele>
        <time>2012-03-18T09:19:13Z</time>
      </trkpt>
      <trkpt lat="49.15644" lon="-0.44108">
        <ele>78</ele>
        <time>2012-03-18T09:19:19Z</time>
      </trkpt>
      <trkpt lat="49.15639" lon="-0.44113">
        <ele>79</ele>
        <time>2012-03-18T09:19:23Z</time>
      </trkpt>
      <trkpt lat="49.15634" lon="-0.44116">
        <ele>79</ele>
        <time>2012-03-18T09:19:26Z</time>
      </trkpt>
      <trkpt lat="49.1563" lon="-0.4412">
        <ele>80</ele>
        <time>2012-03-18T09:19:32Z</time>
      </trkpt>
      <trkpt lat="49.15626" lon="-0.44124">
        <ele>81</ele>
        <time>2012-03-18T09:19:35Z</time>
      </trkpt>
      <trkpt lat="49.15622" lon="-0.44127">
        <ele>80</ele>
        <time>2012-03-18T09:19:39Z</time>
      </trkpt>
      <trkpt lat="49.15619" lon="-0.44134">
        <ele>80</ele>
        <time>2012-03-18T09:19:43Z</time>
      </trkpt>
      <trkpt lat="49.15615" lon="-0.4414">
        <ele>80</ele>
        <time>2012-03-18T09:19:47Z</time>
      </trkpt>
      <trkpt lat="49.15611" lon="-0.44145">
        <ele>81</ele>
        <time>2012-03-18T09:19:50Z</time>
      </trkpt>
      <trkpt lat="49.15607" lon="-0.4415">
        <ele>82</ele>
        <time>2012-03-18T09:19:54Z</time>
      </trkpt>
      <trkpt lat="49.15604" lon="-0.44157">
        <ele>81</ele>
        <time>2012-03-18T09:20:00Z</time>
      </trkpt>
      <trkpt lat="49.156" lon="-0.44161">
        <ele>81</ele>
        <time>2012-03-18T09:20:03Z</time>
      </trkpt>
      <trkpt lat="49.15596" lon="-0.44165">
        <ele>78</ele>
        <time>2012-03-18T09:20:09Z</time>
      </trkpt>
      <trkpt lat="49.15592" lon="-0.44172">
        <ele>76</ele>
        <time>2012-03-18T09:20:15Z</time>
      </trkpt>
      <trkpt lat="49.15588" lon="-0.44179">
        <ele>75</ele>
        <time>2012-03-18T09:20:19Z</time>
      </trkpt>
      <trkpt lat="49.15585" lon="-0.44184">
        <ele>74</ele>
        <time>2012-03-18T09:20:23Z</time>
      </trkpt>
      <trkpt lat="49.15581" lon="-0.44189">
        <ele>74</ele>
        <time>2012-03-18T09:20:26Z</time>
      </trkpt>
      <trkpt lat="49.15577" lon="-0.44192">
        <ele>74</ele>
        <time>2012-03-18T09:20:29Z</time>
      </trkpt>
      <trkpt lat="49.15574" lon="-0.44198">
        <ele>73</ele>
        <time>2012-03-18T09:20:33Z</time>
      </trkpt>
      <trkpt lat="49.15568" lon="-0.44202">
        <ele>72</ele>
        <time>2012-03-18T09:20:37Z</time>
      </trkpt>
      <trkpt lat="49.15564" lon="-0.44207">
        <ele>72</ele>
        <time>2012-03-18T09:20:44Z</time>
      </trkpt>
      <trkpt lat="49.1556" lon="-0.44214">
        <ele>72</ele>
        <time>2012-03-18T09:20:48Z</time>
      </trkpt>
      <trkpt lat="49.15557" lon="-0.4422">
        <ele>71</ele>
        <time>2012-03-18T09:20:53Z</time>
      </trkpt>
      <trkpt lat="49.15555" lon="-0.44227">
        <ele>70</ele>
        <time>2012-03-18T09:20:57Z</time>
      </trkpt>
      <trkpt lat="49.1555" lon="-0.44233">
        <ele>72</ele>
        <time>2012-03-18T09:21:00Z</time>
      </trkpt>
      <trkpt lat="49.15546" lon="-0.4424">
        <ele>71</ele>
        <time>2012-03-18T09:21:05Z</time>
      </trkpt>
      <trkpt lat="49.15543" lon="-0.44248">
        <ele>72</ele>
        <time>2012-03-18T09:21:09Z</time>
      </trkpt>
      <trkpt lat="49.15537" lon="-0.44256">
        <ele>74</ele>
        <time>2012-03-18T09:21:13Z</time>
      </trkpt>
      <trkpt lat="49.15533" lon="-0.44263">
        <ele>75</ele>
        <time>2012-03-18T09:21:18Z</time>
      </trkpt>
      <trkpt lat="49.15529" lon="-0.44269">
        <ele>74</ele>
        <time>2012-03-18T09:21:23Z</time>
      </trkpt>
      <trkpt lat="49.15527" lon="-0.44277">
        <ele>76</ele>
        <time>2012-03-18T09:21:29Z</time>
      </trkpt>
      <trkpt lat="49.15523" lon="-0.44282">
        <ele>76</ele>
        <time>2012-03-18T09:21:31Z</time>
      </trkpt>
      <trkpt lat="49.1552" lon="-0.44289">
        <ele>78</ele>
        <time>2012-03-18T09:21:36Z</time>
      </trkpt>
      <trkpt lat="49.15518" lon="-0.44296">
        <ele>78</ele>
        <time>2012-03-18T09:21:41Z</time>
      </trkpt>
      <trkpt lat="49.15517" lon="-0.44304">
        <ele>78</ele>
        <time>2012-03-18T09:21:45Z</time>
      </trkpt>
      <trkpt lat="49.15512" lon="-0.44312">
        <ele>80</ele>
        <time>2012-03-18T09:21:50Z</time>
      </trkpt>
      <trkpt lat="49.15507" lon="-0.44316">
        <ele>79</ele>
        <time>2012-03-18T09:21:55Z</time>
      </trkpt>
      <trkpt lat="49.15504" lon="-0.44321">
        <ele>78</ele>
        <time>2012-03-18T09:21:58Z</time>
      </trkpt>
      <trkpt lat="49.15502" lon="-0.44329">
        <ele>78</ele>
        <time>2012-03-18T09:22:01Z</time>
      </trkpt>
      <trkpt lat="49.15499" lon="-0.44336">
        <ele>77</ele>
        <time>2012-03-18T09:22:05Z</time>
      </trkpt>
      <trkpt lat="49.15496" lon="-0.44343">
        <ele>77</ele>
        <time>2012-03-18T09:22:08Z</time>
      </trkpt>
      <trkpt lat="49.15494" lon="-0.44351">
        <ele>77</ele>
        <time>2012-03-18T09:22:14Z</time>
      </trkpt>
      <trkpt lat="49.15496" lon="-0.44358">
        <ele>74</ele>
        <time>2012-03-18T09:22:20Z</time>
      </trkpt>
      <trkpt lat="49.15493" lon="-0.44365">
        <ele>74</ele>
        <time>2012-03-18T09:22:24Z</time>
      </trkpt>
      <trkpt lat="49.1549" lon="-0.44372">
        <ele>74</ele>
        <time>2012-03-18T09:22:27Z</time>
      </trkpt>
      <trkpt lat="49.15486" lon="-0.4438">
        <ele>74</ele>
        <time>2012-03-18T09:22:33Z</time>
      </trkpt>
      <trkpt lat="49.15481" lon="-0.44381">
        <ele>74</ele>
        <time>2012-03-18T09:22:35Z</time>
      </trkpt>
      <trkpt lat="49.15476" lon="-0.44382">
        <ele>75</ele>
        <time>2012-03-18T09:22:37Z</time>
      </trkpt>
      <trkpt lat="49.15476" lon="-0.4439">
        <ele>75</ele>
        <time>2012-03-18T09:22:40Z</time>
      </trkpt>
      <trkpt lat="49.15477" lon="-0.44398">
        <ele>75</ele>
        <time>2012-03-18T09:22:43Z</time>
      </trkpt>
      <trkpt lat="49.15473" lon="-0.44408">
        <ele>76</ele>
        <time>2012-03-18T09:22:46Z</time>
      </trkpt>
      <trkpt lat="49.15472" lon="-0.44415">
        <ele>75</ele>
        <time>2012-03-18T09:22:50Z</time>
      </trkpt>
      <trkpt lat="49.15472" lon="-0.44424">
        <ele>73</ele>
        <time>2012-03-18T09:22:53Z</time>
      </trkpt>
      <trkpt lat="49.15472" lon="-0.44424">
        <ele>73</ele>
        <time>2012-03-18T09:22:53Z</time>
      </trkpt>
      <trkpt lat="49.15472" lon="-0.44424">
        <ele>73</ele>
        <time>2012-03-18T09:22:54Z</time>
      </trkpt>
      <trkpt lat="49.15475" lon="-0.4443">
        <ele>73</ele>
        <time>2012-03-18T09:22:58Z</time>
      </trkpt>
      <trkpt lat="49.15472" lon="-0.44438">
        <ele>73</ele>
        <time>2012-03-18T09:23:01Z</time>
      </trkpt>
      <trkpt lat="49.15469" lon="-0.44446">
        <ele>74</ele>
        <time>2012-03-18T09:23:05Z</time>
      </trkpt>
      <trkpt lat="49.15472" lon="-0.44453">
        <ele>71</ele>
        <time>2012-03-18T09:23:10Z</time>
      </trkpt>
      <trkpt lat="49.15472" lon="-0.44462">
        <ele>70</ele>
        <time>2012-03-18T09:23:15Z</time>
      </trkpt>
      <trkpt lat="49.15472" lon="-0.4447">
        <ele>71</ele>
        <time>2012-03-18T09:23:19Z</time>
      </trkpt>
      <trkpt lat="49.15469" lon="-0.44477">
        <ele>71</ele>
        <time>2012-03-18T09:23:23Z</time>
      </trkpt>
      <trkpt lat="49.1547" lon="-0.44484">
        <ele>70</ele>
        <time>2012-03-18T09:23:28Z</time>
      </trkpt>
      <trkpt lat="49.1547" lon="-0.44491">
        <ele>70</ele>
        <time>2012-03-18T09:23:31Z</time>
      </trkpt>
      <trkpt lat="49.1547" lon="-0.44498">
        <ele>67</ele>
        <time>2012-03-18T09:23:40Z</time>
      </trkpt>
      <trkpt lat="49.15467" lon="-0.44504">
        <ele>67</ele>
        <time>2012-03-18T09:23:44Z</time>
      </trkpt>
      <trkpt lat="49.15463" lon="-0.44508">
        <ele>68</ele>
        <time>2012-03-18T09:23:49Z</time>
      </trkpt>
      <trkpt lat="49.15459" lon="-0.44502">
        <ele>65</ele>
        <time>2012-03-18T09:23:57Z</time>
      </trkpt>
      <trkpt lat="49.15455" lon="-0.44499">
        <ele>65</ele>
        <time>2012-03-18T09:24:01Z</time>
      </trkpt>
      <trkpt lat="49.15451" lon="-0.44495">
        <ele>65</ele>
        <time>2012-03-18T09:24:05Z</time>
      </trkpt>
      <trkpt lat="49.15446" lon="-0.44494">
        <ele>66</ele>
        <time>2012-03-18T09:24:09Z</time>
      </trkpt>
      <trkpt lat="49.15442" lon="-0.44488">
        <ele>68</ele>
        <time>2012-03-18T09:24:13Z</time>
      </trkpt>
      <trkpt lat="49.15442" lon="-0.44478">
        <ele>68</ele>
        <time>2012-03-18T09:24:17Z</time>
      </trkpt>
      <trkpt lat="49.15439" lon="-0.44471">
        <ele>72</ele>
        <time>2012-03-18T09:24:24Z</time>
      </trkpt>
      <trkpt lat="49.15444" lon="-0.44475">
        <ele>67</ele>
        <time>2012-03-18T09:24:36Z</time>
      </trkpt>
      <trkpt lat="49.15447" lon="-0.44481">
        <ele>65</ele>
        <time>2012-03-18T09:24:39Z</time>
      </trkpt>
      <trkpt lat="49.15451" lon="-0.44487">
        <ele>64</ele>
        <time>2012-03-18T09:24:42Z</time>
      </trkpt>
      <trkpt lat="49.15456" lon="-0.44491">
        <ele>64</ele>
        <time>2012-03-18T09:24:45Z</time>
      </trkpt>
      <trkpt lat="49.1546" lon="-0.44497">
        <ele>65</ele>
        <time>2012-03-18T09:24:49Z</time>
      </trkpt>
      <trkpt lat="49.15462" lon="-0.44505">
        <ele>64</ele>
        <time>2012-03-18T09:24:52Z</time>
      </trkpt>
      <trkpt lat="49.15461" lon="-0.44512">
        <ele>65</ele>
        <time>2012-03-18T09:24:58Z</time>
      </trkpt>
      <trkpt lat="49.15459" lon="-0.44521">
        <ele>65</ele>
        <time>2012-03-18T09:25:04Z</time>
      </trkpt>
      <trkpt lat="49.15456" lon="-0.44527">
        <ele>65</ele>
        <time>2012-03-18T09:25:07Z</time>
      </trkpt>
      <trkpt lat="49.15453" lon="-0.44533">
        <ele>67</ele>
        <time>2012-03-18T09:25:10Z</time>
      </trkpt>
      <trkpt lat="49.15451" lon="-0.44545">
        <ele>67</ele>
        <time>2012-03-18T09:25:16Z</time>
      </trkpt>
      <trkpt lat="49.15448" lon="-0.44551">
        <ele>67</ele>
        <time>2012-03-18T09:25:20Z</time>
      </trkpt>
      <trkpt lat="49.15445" lon="-0.44556">
        <ele>68</ele>
        <time>2012-03-18T09:25:22Z</time>
      </trkpt>
      <trkpt lat="49.15445" lon="-0.44565">
        <ele>69</ele>
        <time>2012-03-18T09:25:27Z</time>
      </trkpt>
      <trkpt lat="49.15445" lon="-0.44565">
        <ele>69</ele>
        <time>2012-03-18T09:25:27Z</time>
      </trkpt>
      <trkpt lat="49.15445" lon="-0.44565">
        <ele>69</ele>
        <time>2012-03-18T09:25:28Z</time>
      </trkpt>
      <trkpt lat="49.15442" lon="-0.44572">
        <ele>69</ele>
        <time>2012-03-18T09:25:31Z</time>
      </trkpt>
      <trkpt lat="49.15439" lon="-0.44578">
        <ele>69</ele>
        <time>2012-03-18T09:25:35Z</time>
      </trkpt>
      <trkpt lat="49.15436" lon="-0.44584">
        <ele>71</ele>
        <time>2012-03-18T09:25:39Z</time>
      </trkpt>
      <trkpt lat="49.15432" lon="-0.4459">
        <ele>70</ele>
        <time>2012-03-18T09:25:45Z</time>
      </trkpt>
      <trkpt lat="49.15428" lon="-0.44599">
        <ele>69</ele>
        <time>2012-03-18T09:25:50Z</time>
      </trkpt>
      <trkpt lat="49.15428" lon="-0.44607">
        <ele>69</ele>
        <time>2012-03-18T09:25:53Z</time>
      </trkpt>
      <trkpt lat="49.15424" lon="-0.44612">
        <ele>70</ele>
        <time>2012-03-18T09:26:02Z</time>
      </trkpt>
      <trkpt lat="49.15421" lon="-0.44619">
        <ele>70</ele>
        <time>2012-03-18T09:26:05Z</time>
      </trkpt>
      <trkpt lat="49.15416" lon="-0.44622">
        <ele>70</ele>
        <time>2012-03-18T09:26:08Z</time>
      </trkpt>
      <trkpt lat="49.15416" lon="-0.44622">
        <ele>70</ele>
        <time>2012-03-18T09:26:08Z</time>
      </trkpt>
      <trkpt lat="49.15416" lon="-0.44622">
        <ele>68</ele>
        <time>2012-03-18T09:26:09Z</time>
      </trkpt>
      <trkpt lat="49.15412" lon="-0.44629">
        <ele>68</ele>
        <time>2012-03-18T09:26:15Z</time>
      </trkpt>
      <trkpt lat="49.15409" lon="-0.44635">
        <ele>69</ele>
        <time>2012-03-18T09:26:21Z</time>
      </trkpt>
      <trkpt lat="49.15408" lon="-0.44644">
        <ele>70</ele>
        <time>2012-03-18T09:26:25Z</time>
      </trkpt>
      <trkpt lat="49.15404" lon="-0.44652">
        <ele>70</ele>
        <time>2012-03-18T09:26:28Z</time>
      </trkpt>
      <trkpt lat="49.15389" lon="-0.44687">
        <ele>72</ele>
        <time>2012-03-18T09:26:49Z</time>
      </trkpt>
      <trkpt lat="49.15384" lon="-0.44683">
        <ele>69</ele>
        <time>2012-03-18T09:26:53Z</time>
      </trkpt>
      <trkpt lat="49.15379" lon="-0.44685">
        <ele>68</ele>
        <time>2012-03-18T09:26:57Z</time>
      </trkpt>
      <trkpt lat="49.15374" lon="-0.44688">
        <ele>68</ele>
        <time>2012-03-18T09:27:00Z</time>
      </trkpt>
      <trkpt lat="49.1537" lon="-0.44692">
        <ele>70</ele>
        <time>2012-03-18T09:27:02Z</time>
      </trkpt>
      <trkpt lat="49.15365" lon="-0.4469">
        <ele>70</ele>
        <time>2012-03-18T09:27:07Z</time>
      </trkpt>
      <trkpt lat="49.1536" lon="-0.44683">
        <ele>63</ele>
        <time>2012-03-18T09:27:16Z</time>
      </trkpt>
      <trkpt lat="49.15356" lon="-0.4468">
        <ele>63</ele>
        <time>2012-03-18T09:27:20Z</time>
      </trkpt>
      <trkpt lat="49.15352" lon="-0.44676">
        <ele>64</ele>
        <time>2012-03-18T09:27:24Z</time>
      </trkpt>
      <trkpt lat="49.15347" lon="-0.44676">
        <ele>66</ele>
        <time>2012-03-18T09:27:30Z</time>
      </trkpt>
      <trkpt lat="49.1534" lon="-0.44675">
        <ele>67</ele>
        <time>2012-03-18T09:27:33Z</time>
      </trkpt>
      <trkpt lat="49.15334" lon="-0.44675">
        <ele>68</ele>
        <time>2012-03-18T09:27:36Z</time>
      </trkpt>
      <trkpt lat="49.15329" lon="-0.44673">
        <ele>70</ele>
        <time>2012-03-18T09:27:40Z</time>
      </trkpt>
      <trkpt lat="49.15324" lon="-0.44674">
        <ele>72</ele>
        <time>2012-03-18T09:27:44Z</time>
      </trkpt>
      <trkpt lat="49.15319" lon="-0.44675">
        <ele>72</ele>
        <time>2012-03-18T09:27:46Z</time>
      </trkpt>
      <trkpt lat="49.15313" lon="-0.44675">
        <ele>74</ele>
        <time>2012-03-18T09:27:50Z</time>
      </trkpt>
      <trkpt lat="49.15308" lon="-0.44672">
        <ele>74</ele>
        <time>2012-03-18T09:27:55Z</time>
      </trkpt>
      <trkpt lat="49.15304" lon="-0.44669">
        <ele>74</ele>
        <time>2012-03-18T09:27:58Z</time>
      </trkpt>
      <trkpt lat="49.15299" lon="-0.44665">
        <ele>74</ele>
        <time>2012-03-18T09:28:02Z</time>
      </trkpt>
      <trkpt lat="49.15293" lon="-0.44661">
        <ele>75</ele>
        <time>2012-03-18T09:28:08Z</time>
      </trkpt>
      <trkpt lat="49.1529" lon="-0.44655">
        <ele>76</ele>
        <time>2012-03-18T09:28:14Z</time>
      </trkpt>
      <trkpt lat="49.15285" lon="-0.44652">
        <ele>75</ele>
        <time>2012-03-18T09:28:18Z</time>
      </trkpt>
      <trkpt lat="49.1528" lon="-0.4465">
        <ele>75</ele>
        <time>2012-03-18T09:28:22Z</time>
      </trkpt>
      <trkpt lat="49.15276" lon="-0.44644">
        <ele>76</ele>
        <time>2012-03-18T09:28:27Z</time>
      </trkpt>
      <trkpt lat="49.15271" lon="-0.4464">
        <ele>75</ele>
        <time>2012-03-18T09:28:32Z</time>
      </trkpt>
      <trkpt lat="49.15268" lon="-0.44636">
        <ele>75</ele>
        <time>2012-03-18T09:28:36Z</time>
      </trkpt>
      <trkpt lat="49.15264" lon="-0.44631">
        <ele>77</ele>
        <time>2012-03-18T09:28:40Z</time>
      </trkpt>
      <trkpt lat="49.1526" lon="-0.44627">
        <ele>76</ele>
        <time>2012-03-18T09:28:44Z</time>
      </trkpt>
      <trkpt lat="49.15256" lon="-0.44621">
        <ele>76</ele>
        <time>2012-03-18T09:28:49Z</time>
      </trkpt>
      <trkpt lat="49.15252" lon="-0.44616">
        <ele>75</ele>
        <time>2012-03-18T09:28:54Z</time>
      </trkpt>
      <trkpt lat="49.15247" lon="-0.44611">
        <ele>75</ele>
        <time>2012-03-18T09:28:59Z</time>
      </trkpt>
      <trkpt lat="49.15242" lon="-0.44608">
        <ele>73</ele>
        <time>2012-03-18T09:29:04Z</time>
      </trkpt>
      <trkpt lat="49.15236" lon="-0.44605">
        <ele>73</ele>
        <time>2012-03-18T09:29:09Z</time>
      </trkpt>
      <trkpt lat="49.15232" lon="-0.44609">
        <ele>72</ele>
        <time>2012-03-18T09:29:13Z</time>
      </trkpt>
      <trkpt lat="49.15228" lon="-0.44614">
        <ele>72</ele>
        <time>2012-03-18T09:29:15Z</time>
      </trkpt>
      <trkpt lat="49.15224" lon="-0.44607">
        <ele>71</ele>
        <time>2012-03-18T09:29:19Z</time>
      </trkpt>
      <trkpt lat="49.15217" lon="-0.44608">
        <ele>70</ele>
        <time>2012-03-18T09:29:23Z</time>
      </trkpt>
      <trkpt lat="49.15211" lon="-0.44608">
        <ele>70</ele>
        <time>2012-03-18T09:29:28Z</time>
      </trkpt>
      <trkpt lat="49.15208" lon="-0.44613">
        <ele>69</ele>
        <time>2012-03-18T09:29:32Z</time>
      </trkpt>
      <trkpt lat="49.15204" lon="-0.44617">
        <ele>67</ele>
        <time>2012-03-18T09:29:35Z</time>
      </trkpt>
      <trkpt lat="49.15198" lon="-0.4462">
        <ele>66</ele>
        <time>2012-03-18T09:29:40Z</time>
      </trkpt>
      <trkpt lat="49.15194" lon="-0.44625">
        <ele>66</ele>
        <time>2012-03-18T09:29:43Z</time>
      </trkpt>
      <trkpt lat="49.1519" lon="-0.4463">
        <ele>65</ele>
        <time>2012-03-18T09:29:46Z</time>
      </trkpt>
      <trkpt lat="49.15185" lon="-0.44635">
        <ele>64</ele>
        <time>2012-03-18T09:29:51Z</time>
      </trkpt>
      <trkpt lat="49.15181" lon="-0.44642">
        <ele>65</ele>
        <time>2012-03-18T09:29:55Z</time>
      </trkpt>
      <trkpt lat="49.15177" lon="-0.44645">
        <ele>66</ele>
        <time>2012-03-18T09:29:59Z</time>
      </trkpt>
      <trkpt lat="49.15177" lon="-0.44645">
        <ele>66</ele>
        <time>2012-03-18T09:29:59Z</time>
      </trkpt>
      <trkpt lat="49.15177" lon="-0.44645">
        <ele>66</ele>
        <time>2012-03-18T09:30:01Z</time>
      </trkpt>
      <trkpt lat="49.15172" lon="-0.44646">
        <ele>65</ele>
        <time>2012-03-18T09:30:05Z</time>
      </trkpt>
      <trkpt lat="49.15168" lon="-0.44652">
        <ele>66</ele>
        <time>2012-03-18T09:30:11Z</time>
      </trkpt>
      <trkpt lat="49.15165" lon="-0.44659">
        <ele>66</ele>
        <time>2012-03-18T09:30:15Z</time>
      </trkpt>
      <trkpt lat="49.15162" lon="-0.44666">
        <ele>65</ele>
        <time>2012-03-18T09:30:19Z</time>
      </trkpt>
      <trkpt lat="49.15159" lon="-0.44673">
        <ele>63</ele>
        <time>2012-03-18T09:30:24Z</time>
      </trkpt>
      <trkpt lat="49.15154" lon="-0.44679">
        <ele>62</ele>
        <time>2012-03-18T09:30:28Z</time>
      </trkpt>
      <trkpt lat="49.15151" lon="-0.44683">
        <ele>62</ele>
        <time>2012-03-18T09:30:30Z</time>
      </trkpt>
      <trkpt lat="49.15145" lon="-0.44688">
        <ele>62</ele>
        <time>2012-03-18T09:30:43Z</time>
      </trkpt>
      <trkpt lat="49.15138" lon="-0.44689">
        <ele>60</ele>
        <time>2012-03-18T09:30:52Z</time>
      </trkpt>
      <trkpt lat="49.15125" lon="-0.44697">
        <ele>63</ele>
        <time>2012-03-18T09:31:03Z</time>
      </trkpt>
      <trkpt lat="49.15121" lon="-0.44698">
        <ele>62</ele>
        <time>2012-03-18T09:31:07Z</time>
      </trkpt>
      <trkpt lat="49.15111" lon="-0.44699">
        <ele>63</ele>
        <time>2012-03-18T09:31:14Z</time>
      </trkpt>
      <trkpt lat="49.15107" lon="-0.44704">
        <ele>66</ele>
        <time>2012-03-18T09:31:18Z</time>
      </trkpt>
      <trkpt lat="49.15102" lon="-0.44706">
        <ele>70</ele>
        <time>2012-03-18T09:31:22Z</time>
      </trkpt>
      <trkpt lat="49.15096" lon="-0.44711">
        <ele>73</ele>
        <time>2012-03-18T09:31:27Z</time>
      </trkpt>
      <trkpt lat="49.15091" lon="-0.44709">
        <ele>74</ele>
        <time>2012-03-18T09:31:32Z</time>
      </trkpt>
      <trkpt lat="49.15086" lon="-0.4471">
        <ele>75</ele>
        <time>2012-03-18T09:31:38Z</time>
      </trkpt>
      <trkpt lat="49.1508" lon="-0.44714">
        <ele>74</ele>
        <time>2012-03-18T09:31:44Z</time>
      </trkpt>
      <trkpt lat="49.15077" lon="-0.44718">
        <ele>74</ele>
        <time>2012-03-18T09:31:46Z</time>
      </trkpt>
      <trkpt lat="49.1507" lon="-0.44717">
        <ele>73</ele>
        <time>2012-03-18T09:31:53Z</time>
      </trkpt>
      <trkpt lat="49.15065" lon="-0.44719">
        <ele>74</ele>
        <time>2012-03-18T09:31:59Z</time>
      </trkpt>
      <trkpt lat="49.15062" lon="-0.44724">
        <ele>74</ele>
        <time>2012-03-18T09:32:02Z</time>
      </trkpt>
      <trkpt lat="49.15056" lon="-0.44734">
        <ele>77</ele>
        <time>2012-03-18T09:32:04Z</time>
      </trkpt>
      <trkpt lat="49.15051" lon="-0.44739">
        <ele>78</ele>
        <time>2012-03-18T09:32:10Z</time>
      </trkpt>
      <trkpt lat="49.15047" lon="-0.44742">
        <ele>78</ele>
        <time>2012-03-18T09:32:15Z</time>
      </trkpt>
      <trkpt lat="49.15042" lon="-0.44745">
        <ele>74</ele>
        <time>2012-03-18T09:32:26Z</time>
      </trkpt>
      <trkpt lat="49.15039" lon="-0.44752">
        <ele>74</ele>
        <time>2012-03-18T09:32:31Z</time>
      </trkpt>
      <trkpt lat="49.15032" lon="-0.44757">
        <ele>74</ele>
        <time>2012-03-18T09:32:35Z</time>
      </trkpt>
      <trkpt lat="49.15027" lon="-0.44761">
        <ele>76</ele>
        <time>2012-03-18T09:32:41Z</time>
      </trkpt>
      <trkpt lat="49.15022" lon="-0.44766">
        <ele>78</ele>
        <time>2012-03-18T09:32:48Z</time>
      </trkpt>
      <trkpt lat="49.15025" lon="-0.44774">
        <ele>78</ele>
        <time>2012-03-18T09:32:52Z</time>
      </trkpt>
      <trkpt lat="49.15024" lon="-0.44781">
        <ele>78</ele>
        <time>2012-03-18T09:32:55Z</time>
      </trkpt>
      <trkpt lat="49.1502" lon="-0.44786">
        <ele>77</ele>
        <time>2012-03-18T09:32:59Z</time>
      </trkpt>
      <trkpt lat="49.15016" lon="-0.44793">
        <ele>77</ele>
        <time>2012-03-18T09:33:04Z</time>
      </trkpt>
      <trkpt lat="49.15013" lon="-0.448">
        <ele>80</ele>
        <time>2012-03-18T09:33:10Z</time>
      </trkpt>
      <trkpt lat="49.15007" lon="-0.44807">
        <ele>82</ele>
        <time>2012-03-18T09:33:16Z</time>
      </trkpt>
      <trkpt lat="49.15005" lon="-0.44816">
        <ele>82</ele>
        <time>2012-03-18T09:33:21Z</time>
      </trkpt>
      <trkpt lat="49.15003" lon="-0.44824">
        <ele>84</ele>
        <time>2012-03-18T09:33:24Z</time>
      </trkpt>
      <trkpt lat="49.14999" lon="-0.4483">
        <ele>86</ele>
        <time>2012-03-18T09:33:28Z</time>
      </trkpt>
      <trkpt lat="49.14995" lon="-0.44834">
        <ele>88</ele>
        <time>2012-03-18T09:33:30Z</time>
      </trkpt>
      <trkpt lat="49.14992" lon="-0.44842">
        <ele>89</ele>
        <time>2012-03-18T09:33:34Z</time>
      </trkpt>
      <trkpt lat="49.14989" lon="-0.44848">
        <ele>91</ele>
        <time>2012-03-18T09:33:38Z</time>
      </trkpt>
      <trkpt lat="49.14988" lon="-0.44855">
        <ele>93</ele>
        <time>2012-03-18T09:33:46Z</time>
      </trkpt>
      <trkpt lat="49.14986" lon="-0.44863">
        <ele>92</ele>
        <time>2012-03-18T09:33:52Z</time>
      </trkpt>
      <trkpt lat="49.14984" lon="-0.4487">
        <ele>91</ele>
        <time>2012-03-18T09:33:56Z</time>
      </trkpt>
      <trkpt lat="49.14982" lon="-0.44876">
        <ele>90</ele>
        <time>2012-03-18T09:34:00Z</time>
      </trkpt>
      <trkpt lat="49.14977" lon="-0.44882">
        <ele>91</ele>
        <time>2012-03-18T09:34:03Z</time>
      </trkpt>
      <trkpt lat="49.14974" lon="-0.4489">
        <ele>89</ele>
        <time>2012-03-18T09:34:07Z</time>
      </trkpt>
      <trkpt lat="49.14975" lon="-0.44897">
        <ele>87</ele>
        <time>2012-03-18T09:34:10Z</time>
      </trkpt>
      <trkpt lat="49.1497" lon="-0.44904">
        <ele>87</ele>
        <time>2012-03-18T09:34:13Z</time>
      </trkpt>
      <trkpt lat="49.14969" lon="-0.44911">
        <ele>88</ele>
        <time>2012-03-18T09:34:19Z</time>
      </trkpt>
      <trkpt lat="49.14969" lon="-0.44918">
        <ele>87</ele>
        <time>2012-03-18T09:34:29Z</time>
      </trkpt>
      <trkpt lat="49.14967" lon="-0.44925">
        <ele>88</ele>
        <time>2012-03-18T09:34:35Z</time>
      </trkpt>
      <trkpt lat="49.14965" lon="-0.44934">
        <ele>88</ele>
        <time>2012-03-18T09:34:38Z</time>
      </trkpt>
      <trkpt lat="49.14962" lon="-0.44941">
        <ele>88</ele>
        <time>2012-03-18T09:34:42Z</time>
      </trkpt>
      <trkpt lat="49.1496" lon="-0.44948">
        <ele>87</ele>
        <time>2012-03-18T09:34:46Z</time>
      </trkpt>
      <trkpt lat="49.14955" lon="-0.44956">
        <ele>93</ele>
        <time>2012-03-18T09:34:48Z</time>
      </trkpt>
      <trkpt lat="49.14954" lon="-0.44963">
        <ele>92</ele>
        <time>2012-03-18T09:34:54Z</time>
      </trkpt>
      <trkpt lat="49.1495" lon="-0.44969">
        <ele>94</ele>
        <time>2012-03-18T09:34:59Z</time>
      </trkpt>
      <trkpt lat="49.1495" lon="-0.44976">
        <ele>93</ele>
        <time>2012-03-18T09:35:04Z</time>
      </trkpt>
      <trkpt lat="49.14946" lon="-0.44981">
        <ele>90</ele>
        <time>2012-03-18T09:35:08Z</time>
      </trkpt>
      <trkpt lat="49.14943" lon="-0.44988">
        <ele>91</ele>
        <time>2012-03-18T09:35:11Z</time>
      </trkpt>
      <trkpt lat="49.1494" lon="-0.44994">
        <ele>90</ele>
        <time>2012-03-18T09:35:15Z</time>
      </trkpt>
      <trkpt lat="49.14936" lon="-0.45002">
        <ele>91</ele>
        <time>2012-03-18T09:35:19Z</time>
      </trkpt>
      <trkpt lat="49.14933" lon="-0.45009">
        <ele>92</ele>
        <time>2012-03-18T09:35:22Z</time>
      </trkpt>
      <trkpt lat="49.14929" lon="-0.45011">
        <ele>94</ele>
        <time>2012-03-18T09:35:25Z</time>
      </trkpt>
      <trkpt lat="49.14926" lon="-0.45018">
        <ele>92</ele>
        <time>2012-03-18T09:35:31Z</time>
      </trkpt>
      <trkpt lat="49.14922" lon="-0.45023">
        <ele>93</ele>
        <time>2012-03-18T09:35:33Z</time>
      </trkpt>
      <trkpt lat="49.14919" lon="-0.45029">
        <ele>93</ele>
        <time>2012-03-18T09:35:45Z</time>
      </trkpt>
      <trkpt lat="49.14914" lon="-0.45034">
        <ele>91</ele>
        <time>2012-03-18T09:35:49Z</time>
      </trkpt>
      <trkpt lat="49.14909" lon="-0.4504">
        <ele>89</ele>
        <time>2012-03-18T09:35:52Z</time>
      </trkpt>
      <trkpt lat="49.14904" lon="-0.45043">
        <ele>90</ele>
        <time>2012-03-18T09:35:55Z</time>
      </trkpt>
      <trkpt lat="49.14902" lon="-0.4505">
        <ele>91</ele>
        <time>2012-03-18T09:36:01Z</time>
      </trkpt>
      <trkpt lat="49.14897" lon="-0.45056">
        <ele>92</ele>
        <time>2012-03-18T09:36:06Z</time>
      </trkpt>
      <trkpt lat="49.14894" lon="-0.45062">
        <ele>92</ele>
        <time>2012-03-18T09:36:09Z</time>
      </trkpt>
      <trkpt lat="49.14892" lon="-0.45068">
        <ele>90</ele>
        <time>2012-03-18T09:36:13Z</time>
      </trkpt>
      <trkpt lat="49.1489" lon="-0.45077">
        <ele>89</ele>
        <time>2012-03-18T09:36:17Z</time>
      </trkpt>
      <trkpt lat="49.14887" lon="-0.45082">
        <ele>89</ele>
        <time>2012-03-18T09:36:20Z</time>
      </trkpt>
      <trkpt lat="49.14882" lon="-0.45082">
        <ele>89</ele>
        <time>2012-03-18T09:36:25Z</time>
      </trkpt>
      <trkpt lat="49.14879" lon="-0.45092">
        <ele>87</ele>
        <time>2012-03-18T09:36:30Z</time>
      </trkpt>
      <trkpt lat="49.14875" lon="-0.45099">
        <ele>86</ele>
        <time>2012-03-18T09:36:31Z</time>
      </trkpt>
      <trkpt lat="49.14869" lon="-0.45112">
        <ele>74</ele>
        <time>2012-03-18T09:36:41Z</time>
      </trkpt>
      <trkpt lat="49.14865" lon="-0.45117">
        <ele>67</ele>
        <time>2012-03-18T09:36:46Z</time>
      </trkpt>
      <trkpt lat="49.1486" lon="-0.45123">
        <ele>66</ele>
        <time>2012-03-18T09:36:51Z</time>
      </trkpt>
      <trkpt lat="49.14856" lon="-0.45128">
        <ele>73</ele>
        <time>2012-03-18T09:37:00Z</time>
      </trkpt>
      <trkpt lat="49.14853" lon="-0.45136">
        <ele>78</ele>
        <time>2012-03-18T09:37:05Z</time>
      </trkpt>
      <trkpt lat="49.14854" lon="-0.45143">
        <ele>82</ele>
        <time>2012-03-18T09:37:09Z</time>
      </trkpt>
      <trkpt lat="49.14843" lon="-0.45159">
        <ele>84</ele>
        <time>2012-03-18T09:37:19Z</time>
      </trkpt>
      <trkpt lat="49.1484" lon="-0.45165">
        <ele>85</ele>
        <time>2012-03-18T09:37:22Z</time>
      </trkpt>
      <trkpt lat="49.14838" lon="-0.45172">
        <ele>85</ele>
        <time>2012-03-18T09:37:28Z</time>
      </trkpt>
      <trkpt lat="49.14837" lon="-0.45178">
        <ele>85</ele>
        <time>2012-03-18T09:37:31Z</time>
      </trkpt>
      <trkpt lat="49.14835" lon="-0.45185">
        <ele>86</ele>
        <time>2012-03-18T09:37:33Z</time>
      </trkpt>
      <trkpt lat="49.14831" lon="-0.4519">
        <ele>85</ele>
        <time>2012-03-18T09:37:37Z</time>
      </trkpt>
      <trkpt lat="49.14829" lon="-0.452">
        <ele>86</ele>
        <time>2012-03-18T09:37:42Z</time>
      </trkpt>
      <trkpt lat="49.14827" lon="-0.45206">
        <ele>85</ele>
        <time>2012-03-18T09:37:47Z</time>
      </trkpt>
      <trkpt lat="49.14829" lon="-0.45212">
        <ele>87</ele>
        <time>2012-03-18T09:37:51Z</time>
      </trkpt>
      <trkpt lat="49.14829" lon="-0.45212">
        <ele>87</ele>
        <time>2012-03-18T09:37:51Z</time>
      </trkpt>
      <trkpt lat="49.14829" lon="-0.45212">
        <ele>86</ele>
        <time>2012-03-18T09:37:53Z</time>
      </trkpt>
      <trkpt lat="49.14826" lon="-0.45219">
        <ele>85</ele>
        <time>2012-03-18T09:38:01Z</time>
      </trkpt>
      <trkpt lat="49.14823" lon="-0.45225">
        <ele>84</ele>
        <time>2012-03-18T09:38:05Z</time>
      </trkpt>
      <trkpt lat="49.14821" lon="-0.45232">
        <ele>82</ele>
        <time>2012-03-18T09:38:09Z</time>
      </trkpt>
      <trkpt lat="49.14818" lon="-0.45238">
        <ele>82</ele>
        <time>2012-03-18T09:38:13Z</time>
      </trkpt>
      <trkpt lat="49.14815" lon="-0.45244">
        <ele>83</ele>
        <time>2012-03-18T09:38:17Z</time>
      </trkpt>
      <trkpt lat="49.14813" lon="-0.45251">
        <ele>83</ele>
        <time>2012-03-18T09:38:21Z</time>
      </trkpt>
      <trkpt lat="49.14811" lon="-0.45257">
        <ele>83</ele>
        <time>2012-03-18T09:38:24Z</time>
      </trkpt>
      <trkpt lat="49.1481" lon="-0.45264">
        <ele>84</ele>
        <time>2012-03-18T09:38:27Z</time>
      </trkpt>
      <trkpt lat="49.14807" lon="-0.4527">
        <ele>80</ele>
        <time>2012-03-18T09:38:35Z</time>
      </trkpt>
      <trkpt lat="49.14804" lon="-0.45276">
        <ele>80</ele>
        <time>2012-03-18T09:38:38Z</time>
      </trkpt>
      <trkpt lat="49.14801" lon="-0.45283">
        <ele>79</ele>
        <time>2012-03-18T09:38:42Z</time>
      </trkpt>
      <trkpt lat="49.14799" lon="-0.45291">
        <ele>80</ele>
        <time>2012-03-18T09:38:47Z</time>
      </trkpt>
      <trkpt lat="49.14798" lon="-0.45298">
        <ele>78</ele>
        <time>2012-03-18T09:38:50Z</time>
      </trkpt>
      <trkpt lat="49.14795" lon="-0.45306">
        <ele>79</ele>
        <time>2012-03-18T09:38:54Z</time>
      </trkpt>
      <trkpt lat="49.14794" lon="-0.45313">
        <ele>81</ele>
        <time>2012-03-18T09:38:58Z</time>
      </trkpt>
      <trkpt lat="49.14792" lon="-0.4532">
        <ele>83</ele>
        <time>2012-03-18T09:39:02Z</time>
      </trkpt>
      <trkpt lat="49.1479" lon="-0.45326">
        <ele>83</ele>
        <time>2012-03-18T09:39:06Z</time>
      </trkpt>
      <trkpt lat="49.14787" lon="-0.45332">
        <ele>84</ele>
        <time>2012-03-18T09:39:09Z</time>
      </trkpt>
      <trkpt lat="49.14785" lon="-0.45341">
        <ele>84</ele>
        <time>2012-03-18T09:39:14Z</time>
      </trkpt>
      <trkpt lat="49.14783" lon="-0.4535">
        <ele>83</ele>
        <time>2012-03-18T09:39:18Z</time>
      </trkpt>
      <trkpt lat="49.14781" lon="-0.45358">
        <ele>84</ele>
        <time>2012-03-18T09:39:23Z</time>
      </trkpt>
      <trkpt lat="49.14779" lon="-0.45366">
        <ele>84</ele>
        <time>2012-03-18T09:39:28Z</time>
      </trkpt>
      <trkpt lat="49.14778" lon="-0.45373">
        <ele>87</ele>
        <time>2012-03-18T09:39:31Z</time>
      </trkpt>
      <trkpt lat="49.14775" lon="-0.4538">
        <ele>87</ele>
        <time>2012-03-18T09:39:35Z</time>
      </trkpt>
      <trkpt lat="49.14772" lon="-0.45387">
        <ele>89</ele>
        <time>2012-03-18T09:39:38Z</time>
      </trkpt>
      <trkpt lat="49.1477" lon="-0.45393">
        <ele>93</ele>
        <time>2012-03-18T09:39:41Z</time>
      </trkpt>
      <trkpt lat="49.14768" lon="-0.454">
        <ele>97</ele>
        <time>2012-03-18T09:39:44Z</time>
      </trkpt>
      <trkpt lat="49.14767" lon="-0.45409">
        <ele>96</ele>
        <time>2012-03-18T09:39:52Z</time>
      </trkpt>
      <trkpt lat="49.1475" lon="-0.45429">
        <ele>97</ele>
        <time>2012-03-18T09:40:07Z</time>
      </trkpt>
      <trkpt lat="49.14747" lon="-0.45436">
        <ele>97</ele>
        <time>2012-03-18T09:40:18Z</time>
      </trkpt>
      <trkpt lat="49.14746" lon="-0.45445">
        <ele>95</ele>
        <time>2012-03-18T09:40:22Z</time>
      </trkpt>
      <trkpt lat="49.14746" lon="-0.45452">
        <ele>95</ele>
        <time>2012-03-18T09:40:28Z</time>
      </trkpt>
      <trkpt lat="49.14744" lon="-0.45461">
        <ele>96</ele>
        <time>2012-03-18T09:40:32Z</time>
      </trkpt>
      <trkpt lat="49.14741" lon="-0.45467">
        <ele>95</ele>
        <time>2012-03-18T09:40:36Z</time>
      </trkpt>
      <trkpt lat="49.14739" lon="-0.45474">
        <ele>94</ele>
        <time>2012-03-18T09:40:40Z</time>
      </trkpt>
      <trkpt lat="49.14738" lon="-0.45481">
        <ele>91</ele>
        <time>2012-03-18T09:40:44Z</time>
      </trkpt>
      <trkpt lat="49.14736" lon="-0.45489">
        <ele>93</ele>
        <time>2012-03-18T09:40:47Z</time>
      </trkpt>
      <trkpt lat="49.14734" lon="-0.45495">
        <ele>92</ele>
        <time>2012-03-18T09:40:50Z</time>
      </trkpt>
      <trkpt lat="49.14735" lon="-0.45506">
        <ele>91</ele>
        <time>2012-03-18T09:40:55Z</time>
      </trkpt>
      <trkpt lat="49.14731" lon="-0.45511">
        <ele>92</ele>
        <time>2012-03-18T09:41:00Z</time>
      </trkpt>
      <trkpt lat="49.14732" lon="-0.45518">
        <ele>90</ele>
        <time>2012-03-18T09:41:06Z</time>
      </trkpt>
      <trkpt lat="49.1473" lon="-0.45524">
        <ele>89</ele>
        <time>2012-03-18T09:41:11Z</time>
      </trkpt>
      <trkpt lat="49.1473" lon="-0.45524">
        <ele>89</ele>
        <time>2012-03-18T09:41:11Z</time>
      </trkpt>
      <trkpt lat="49.1473" lon="-0.45524">
        <ele>90</ele>
        <time>2012-03-18T09:41:13Z</time>
      </trkpt>
      <trkpt lat="49.14728" lon="-0.45533">
        <ele>92</ele>
        <time>2012-03-18T09:41:22Z</time>
      </trkpt>
      <trkpt lat="49.14725" lon="-0.45538">
        <ele>91</ele>
        <time>2012-03-18T09:41:26Z</time>
      </trkpt>
      <trkpt lat="49.14722" lon="-0.45544">
        <ele>90</ele>
        <time>2012-03-18T09:41:29Z</time>
      </trkpt>
      <trkpt lat="49.14723" lon="-0.45551">
        <ele>90</ele>
        <time>2012-03-18T09:41:32Z</time>
      </trkpt>
      <trkpt lat="49.14722" lon="-0.45558">
        <ele>90</ele>
        <time>2012-03-18T09:41:35Z</time>
      </trkpt>
      <trkpt lat="49.14719" lon="-0.45564">
        <ele>90</ele>
        <time>2012-03-18T09:41:39Z</time>
      </trkpt>
      <trkpt lat="49.14717" lon="-0.45572">
        <ele>89</ele>
        <time>2012-03-18T09:41:44Z</time>
      </trkpt>
      <trkpt lat="49.14714" lon="-0.45579">
        <ele>90</ele>
        <time>2012-03-18T09:41:49Z</time>
      </trkpt>
      <trkpt lat="49.1471" lon="-0.45586">
        <ele>89</ele>
        <time>2012-03-18T09:41:55Z</time>
      </trkpt>
      <trkpt lat="49.14707" lon="-0.45593">
        <ele>89</ele>
        <time>2012-03-18T09:41:59Z</time>
      </trkpt>
      <trkpt lat="49.14704" lon="-0.45601">
        <ele>90</ele>
        <time>2012-03-18T09:42:03Z</time>
      </trkpt>
      <trkpt lat="49.14701" lon="-0.45608">
        <ele>91</ele>
        <time>2012-03-18T09:42:06Z</time>
      </trkpt>
      <trkpt lat="49.14698" lon="-0.45615">
        <ele>90</ele>
        <time>2012-03-18T09:42:12Z</time>
      </trkpt>
      <trkpt lat="49.14695" lon="-0.45621">
        <ele>89</ele>
        <time>2012-03-18T09:42:18Z</time>
      </trkpt>
      <trkpt lat="49.14694" lon="-0.45628">
        <ele>87</ele>
        <time>2012-03-18T09:42:24Z</time>
      </trkpt>
      <trkpt lat="49.14692" lon="-0.45637">
        <ele>88</ele>
        <time>2012-03-18T09:42:28Z</time>
      </trkpt>
      <trkpt lat="49.14689" lon="-0.45643">
        <ele>90</ele>
        <time>2012-03-18T09:42:30Z</time>
      </trkpt>
      <trkpt lat="49.14684" lon="-0.45648">
        <ele>88</ele>
        <time>2012-03-18T09:42:34Z</time>
      </trkpt>
      <trkpt lat="49.14682" lon="-0.45654">
        <ele>89</ele>
        <time>2012-03-18T09:42:37Z</time>
      </trkpt>
      <trkpt lat="49.14678" lon="-0.45659">
        <ele>90</ele>
        <time>2012-03-18T09:42:40Z</time>
      </trkpt>
      <trkpt lat="49.14677" lon="-0.45666">
        <ele>92</ele>
        <time>2012-03-18T09:42:45Z</time>
      </trkpt>
      <trkpt lat="49.14672" lon="-0.45675">
        <ele>93</ele>
        <time>2012-03-18T09:42:50Z</time>
      </trkpt>
      <trkpt lat="49.14664" lon="-0.45692">
        <ele>91</ele>
        <time>2012-03-18T09:43:04Z</time>
      </trkpt>
      <trkpt lat="49.14661" lon="-0.45699">
        <ele>91</ele>
        <time>2012-03-18T09:43:08Z</time>
      </trkpt>
      <trkpt lat="49.14657" lon="-0.45704">
        <ele>91</ele>
        <time>2012-03-18T09:43:11Z</time>
      </trkpt>
      <trkpt lat="49.14653" lon="-0.45708">
        <ele>92</ele>
        <time>2012-03-18T09:43:14Z</time>
      </trkpt>
      <trkpt lat="49.14649" lon="-0.45712">
        <ele>94</ele>
        <time>2012-03-18T09:43:16Z</time>
      </trkpt>
      <trkpt lat="49.14644" lon="-0.45717">
        <ele>96</ele>
        <time>2012-03-18T09:43:18Z</time>
      </trkpt>
      <trkpt lat="49.14639" lon="-0.45722">
        <ele>98</ele>
        <time>2012-03-18T09:43:21Z</time>
      </trkpt>
      <trkpt lat="49.14639" lon="-0.4573">
        <ele>101</ele>
        <time>2012-03-18T09:43:26Z</time>
      </trkpt>
      <trkpt lat="49.14626" lon="-0.45749">
        <ele>101</ele>
        <time>2012-03-18T09:43:42Z</time>
      </trkpt>
      <trkpt lat="49.14622" lon="-0.45756">
        <ele>101</ele>
        <time>2012-03-18T09:43:45Z</time>
      </trkpt>
      <trkpt lat="49.14621" lon="-0.45762">
        <ele>101</ele>
        <time>2012-03-18T09:43:49Z</time>
      </trkpt>
      <trkpt lat="49.14623" lon="-0.45769">
        <ele>100</ele>
        <time>2012-03-18T09:43:54Z</time>
      </trkpt>
      <trkpt lat="49.14618" lon="-0.45774">
        <ele>100</ele>
        <time>2012-03-18T09:43:57Z</time>
      </trkpt>
      <trkpt lat="49.14615" lon="-0.45778">
        <ele>95</ele>
        <time>2012-03-18T09:44:03Z</time>
      </trkpt>
      <trkpt lat="49.14615" lon="-0.45785">
        <ele>96</ele>
        <time>2012-03-18T09:44:08Z</time>
      </trkpt>
      <trkpt lat="49.1461" lon="-0.45792">
        <ele>95</ele>
        <time>2012-03-18T09:44:11Z</time>
      </trkpt>
      <trkpt lat="49.14605" lon="-0.45795">
        <ele>95</ele>
        <time>2012-03-18T09:44:15Z</time>
      </trkpt>
      <trkpt lat="49.14602" lon="-0.45801">
        <ele>94</ele>
        <time>2012-03-18T09:44:19Z</time>
      </trkpt>
      <trkpt lat="49.146" lon="-0.45808">
        <ele>97</ele>
        <time>2012-03-18T09:44:25Z</time>
      </trkpt>
      <trkpt lat="49.14595" lon="-0.45813">
        <ele>95</ele>
        <time>2012-03-18T09:44:30Z</time>
      </trkpt>
      <trkpt lat="49.14591" lon="-0.45818">
        <ele>94</ele>
        <time>2012-03-18T09:44:35Z</time>
      </trkpt>
      <trkpt lat="49.14587" lon="-0.45824">
        <ele>94</ele>
        <time>2012-03-18T09:44:39Z</time>
      </trkpt>
      <trkpt lat="49.14583" lon="-0.45827">
        <ele>94</ele>
        <time>2012-03-18T09:44:40Z</time>
      </trkpt>
      <trkpt lat="49.14579" lon="-0.45835">
        <ele>92</ele>
        <time>2012-03-18T09:44:46Z</time>
      </trkpt>
      <trkpt lat="49.14576" lon="-0.45842">
        <ele>92</ele>
        <time>2012-03-18T09:44:52Z</time>
      </trkpt>
      <trkpt lat="49.14576" lon="-0.45842">
        <ele>92</ele>
        <time>2012-03-18T09:44:52Z</time>
      </trkpt>
      <trkpt lat="49.14576" lon="-0.45842">
        <ele>91</ele>
        <time>2012-03-18T09:44:55Z</time>
      </trkpt>
      <trkpt lat="49.14571" lon="-0.45847">
        <ele>90</ele>
        <time>2012-03-18T09:45:00Z</time>
      </trkpt>
      <trkpt lat="49.14568" lon="-0.45853">
        <ele>87</ele>
        <time>2012-03-18T09:45:05Z</time>
      </trkpt>
      <trkpt lat="49.14564" lon="-0.4586">
        <ele>85</ele>
        <time>2012-03-18T09:45:09Z</time>
      </trkpt>
      <trkpt lat="49.14564" lon="-0.45868">
        <ele>86</ele>
        <time>2012-03-18T09:45:13Z</time>
      </trkpt>
      <trkpt lat="49.14564" lon="-0.45875">
        <ele>87</ele>
        <time>2012-03-18T09:45:15Z</time>
      </trkpt>
      <trkpt lat="49.14564" lon="-0.45882">
        <ele>87</ele>
        <time>2012-03-18T09:45:20Z</time>
      </trkpt>
      <trkpt lat="49.14566" lon="-0.45888">
        <ele>87</ele>
        <time>2012-03-18T09:45:23Z</time>
      </trkpt>
      <trkpt lat="49.14566" lon="-0.45888">
        <ele>87</ele>
        <time>2012-03-18T09:45:23Z</time>
      </trkpt>
      <trkpt lat="49.14566" lon="-0.45888">
        <ele>88</ele>
        <time>2012-03-18T09:45:25Z</time>
      </trkpt>
      <trkpt lat="49.1457" lon="-0.45896">
        <ele>89</ele>
        <time>2012-03-18T09:45:30Z</time>
      </trkpt>
      <trkpt lat="49.14576" lon="-0.45938">
        <ele>85</ele>
        <time>2012-03-18T09:45:56Z</time>
      </trkpt>
      <trkpt lat="49.14577" lon="-0.45946">
        <ele>86</ele>
        <time>2012-03-18T09:45:59Z</time>
      </trkpt>
      <trkpt lat="49.14578" lon="-0.45953">
        <ele>85</ele>
        <time>2012-03-18T09:46:04Z</time>
      </trkpt>
      <trkpt lat="49.14578" lon="-0.4596">
        <ele>84</ele>
        <time>2012-03-18T09:46:08Z</time>
      </trkpt>
      <trkpt lat="49.1458" lon="-0.45974">
        <ele>88</ele>
        <time>2012-03-18T09:46:12Z</time>
      </trkpt>
      <trkpt lat="49.14582" lon="-0.4598">
        <ele>88</ele>
        <time>2012-03-18T09:46:18Z</time>
      </trkpt>
      <trkpt lat="49.14582" lon="-0.45988">
        <ele>91</ele>
        <time>2012-03-18T09:46:39Z</time>
      </trkpt>
      <trkpt lat="49.14583" lon="-0.45995">
        <ele>90</ele>
        <time>2012-03-18T09:46:43Z</time>
      </trkpt>
      <trkpt lat="49.14583" lon="-0.46003">
        <ele>89</ele>
        <time>2012-03-18T09:46:46Z</time>
      </trkpt>
      <trkpt lat="49.14585" lon="-0.46011">
        <ele>90</ele>
        <time>2012-03-18T09:46:53Z</time>
      </trkpt>
      <trkpt lat="49.14586" lon="-0.46018">
        <ele>91</ele>
        <time>2012-03-18T09:46:57Z</time>
      </trkpt>
      <trkpt lat="49.14587" lon="-0.46025">
        <ele>90</ele>
        <time>2012-03-18T09:47:01Z</time>
      </trkpt>
      <trkpt lat="49.14588" lon="-0.46033">
        <ele>92</ele>
        <time>2012-03-18T09:47:06Z</time>
      </trkpt>
      <trkpt lat="49.14587" lon="-0.46041">
        <ele>90</ele>
        <time>2012-03-18T09:47:10Z</time>
      </trkpt>
      <trkpt lat="49.14589" lon="-0.46048">
        <ele>87</ele>
        <time>2012-03-18T09:47:16Z</time>
      </trkpt>
      <trkpt lat="49.1459" lon="-0.46056">
        <ele>86</ele>
        <time>2012-03-18T09:47:22Z</time>
      </trkpt>
      <trkpt lat="49.14591" lon="-0.46065">
        <ele>86</ele>
        <time>2012-03-18T09:47:27Z</time>
      </trkpt>
      <trkpt lat="49.14591" lon="-0.46074">
        <ele>87</ele>
        <time>2012-03-18T09:47:32Z</time>
      </trkpt>
      <trkpt lat="49.14591" lon="-0.46081">
        <ele>88</ele>
        <time>2012-03-18T09:47:35Z</time>
      </trkpt>
      <trkpt lat="49.1459" lon="-0.46089">
        <ele>87</ele>
        <time>2012-03-18T09:47:39Z</time>
      </trkpt>
      <trkpt lat="49.14593" lon="-0.46096">
        <ele>87</ele>
        <time>2012-03-18T09:47:46Z</time>
      </trkpt>
      <trkpt lat="49.14593" lon="-0.46132">
        <ele>88</ele>
        <time>2012-03-18T09:48:03Z</time>
      </trkpt>
      <trkpt lat="49.14594" lon="-0.46139">
        <ele>89</ele>
        <time>2012-03-18T09:48:06Z</time>
      </trkpt>
      <trkpt lat="49.14593" lon="-0.46147">
        <ele>84</ele>
        <time>2012-03-18T09:48:10Z</time>
      </trkpt>
      <trkpt lat="49.14593" lon="-0.46154">
        <ele>85</ele>
        <time>2012-03-18T09:48:14Z</time>
      </trkpt>
      <trkpt lat="49.1459" lon="-0.46164">
        <ele>85</ele>
        <time>2012-03-18T09:48:21Z</time>
      </trkpt>
      <trkpt lat="49.1459" lon="-0.46173">
        <ele>86</ele>
        <time>2012-03-18T09:48:26Z</time>
      </trkpt>
      <trkpt lat="49.14591" lon="-0.4618">
        <ele>86</ele>
        <time>2012-03-18T09:48:31Z</time>
      </trkpt>
      <trkpt lat="49.14593" lon="-0.46186">
        <ele>87</ele>
        <time>2012-03-18T09:48:36Z</time>
      </trkpt>
      <trkpt lat="49.14593" lon="-0.46197">
        <ele>87</ele>
        <time>2012-03-18T09:48:41Z</time>
      </trkpt>
      <trkpt lat="49.14593" lon="-0.46205">
        <ele>91</ele>
        <time>2012-03-18T09:48:44Z</time>
      </trkpt>
      <trkpt lat="49.14591" lon="-0.46214">
        <ele>92</ele>
        <time>2012-03-18T09:48:48Z</time>
      </trkpt>
      <trkpt lat="49.14591" lon="-0.46221">
        <ele>92</ele>
        <time>2012-03-18T09:48:54Z</time>
      </trkpt>
      <trkpt lat="49.1459" lon="-0.46229">
        <ele>91</ele>
        <time>2012-03-18T09:48:59Z</time>
      </trkpt>
      <trkpt lat="49.14587" lon="-0.46236">
        <ele>89</ele>
        <time>2012-03-18T09:49:05Z</time>
      </trkpt>
      <trkpt lat="49.14587" lon="-0.46236">
        <ele>89</ele>
        <time>2012-03-18T09:49:05Z</time>
      </trkpt>
      <trkpt lat="49.14587" lon="-0.46236">
        <ele>89</ele>
        <time>2012-03-18T09:49:06Z</time>
      </trkpt>
      <trkpt lat="49.14586" lon="-0.46244">
        <ele>88</ele>
        <time>2012-03-18T09:49:09Z</time>
      </trkpt>
      <trkpt lat="49.14586" lon="-0.46253">
        <ele>89</ele>
        <time>2012-03-18T09:49:13Z</time>
      </trkpt>
      <trkpt lat="49.14586" lon="-0.4626">
        <ele>90</ele>
        <time>2012-03-18T09:49:16Z</time>
      </trkpt>
      <trkpt lat="49.14584" lon="-0.46268">
        <ele>89</ele>
        <time>2012-03-18T09:49:20Z</time>
      </trkpt>
      <trkpt lat="49.14584" lon="-0.46275">
        <ele>90</ele>
        <time>2012-03-18T09:49:24Z</time>
      </trkpt>
      <trkpt lat="49.14582" lon="-0.46283">
        <ele>91</ele>
        <time>2012-03-18T09:49:30Z</time>
      </trkpt>
      <trkpt lat="49.1458" lon="-0.46292">
        <ele>92</ele>
        <time>2012-03-18T09:49:34Z</time>
      </trkpt>
      <trkpt lat="49.14578" lon="-0.46299">
        <ele>90</ele>
        <time>2012-03-18T09:49:39Z</time>
      </trkpt>
      <trkpt lat="49.14577" lon="-0.46308">
        <ele>90</ele>
        <time>2012-03-18T09:49:42Z</time>
      </trkpt>
      <trkpt lat="49.14577" lon="-0.46315">
        <ele>89</ele>
        <time>2012-03-18T09:49:46Z</time>
      </trkpt>
      <trkpt lat="49.14581" lon="-0.4632">
        <ele>87</ele>
        <time>2012-03-18T09:49:52Z</time>
      </trkpt>
      <trkpt lat="49.14586" lon="-0.46322">
        <ele>87</ele>
        <time>2012-03-18T09:49:56Z</time>
      </trkpt>
      <trkpt lat="49.14592" lon="-0.46322">
        <ele>88</ele>
        <time>2012-03-18T09:50:01Z</time>
      </trkpt>
      <trkpt lat="49.14597" lon="-0.46323">
        <ele>88</ele>
        <time>2012-03-18T09:50:04Z</time>
      </trkpt>
      <trkpt lat="49.14602" lon="-0.46323">
        <ele>87</ele>
        <time>2012-03-18T09:50:09Z</time>
      </trkpt>
      <trkpt lat="49.14595" lon="-0.46323">
        <ele>87</ele>
        <time>2012-03-18T09:50:45Z</time>
      </trkpt>
      <trkpt lat="49.14591" lon="-0.46324">
        <ele>89</ele>
        <time>2012-03-18T09:50:48Z</time>
      </trkpt>
      <trkpt lat="49.14586" lon="-0.46322">
        <ele>89</ele>
        <time>2012-03-18T09:50:53Z</time>
      </trkpt>
      <trkpt lat="49.14581" lon="-0.4632">
        <ele>88</ele>
        <time>2012-03-18T09:50:58Z</time>
      </trkpt>
      <trkpt lat="49.14577" lon="-0.46324">
        <ele>87</ele>
        <time>2012-03-18T09:51:02Z</time>
      </trkpt>
      <trkpt lat="49.14574" lon="-0.46331">
        <ele>87</ele>
        <time>2012-03-18T09:51:08Z</time>
      </trkpt>
      <trkpt lat="49.14574" lon="-0.46339">
        <ele>86</ele>
        <time>2012-03-18T09:51:15Z</time>
      </trkpt>
      <trkpt lat="49.14572" lon="-0.46345">
        <ele>86</ele>
        <time>2012-03-18T09:51:21Z</time>
      </trkpt>
      <trkpt lat="49.1457" lon="-0.46352">
        <ele>87</ele>
        <time>2012-03-18T09:51:24Z</time>
      </trkpt>
      <trkpt lat="49.1457" lon="-0.46352">
        <ele>87</ele>
        <time>2012-03-18T09:51:24Z</time>
      </trkpt>
      <trkpt lat="49.1457" lon="-0.46352">
        <ele>86</ele>
        <time>2012-03-18T09:51:31Z</time>
      </trkpt>
      <trkpt lat="49.14572" lon="-0.4636">
        <ele>84</ele>
        <time>2012-03-18T09:52:19Z</time>
      </trkpt>
      <trkpt lat="49.1457" lon="-0.46367">
        <ele>84</ele>
        <time>2012-03-18T09:52:21Z</time>
      </trkpt>
      <trkpt lat="49.14569" lon="-0.46374">
        <ele>84</ele>
        <time>2012-03-18T09:52:25Z</time>
      </trkpt>
      <trkpt lat="49.1457" lon="-0.46383">
        <ele>84</ele>
        <time>2012-03-18T09:52:30Z</time>
      </trkpt>
      <trkpt lat="49.1457" lon="-0.46391">
        <ele>87</ele>
        <time>2012-03-18T09:52:33Z</time>
      </trkpt>
      <trkpt lat="49.1457" lon="-0.46398">
        <ele>84</ele>
        <time>2012-03-18T09:52:38Z</time>
      </trkpt>
      <trkpt lat="49.1457" lon="-0.46407">
        <ele>84</ele>
        <time>2012-03-18T09:52:43Z</time>
      </trkpt>
      <trkpt lat="49.14571" lon="-0.46416">
        <ele>87</ele>
        <time>2012-03-18T09:52:46Z</time>
      </trkpt>
      <trkpt lat="49.1457" lon="-0.46424">
        <ele>86</ele>
        <time>2012-03-18T09:52:50Z</time>
      </trkpt>
      <trkpt lat="49.14571" lon="-0.46433">
        <ele>87</ele>
        <time>2012-03-18T09:52:53Z</time>
      </trkpt>
      <trkpt lat="49.14572" lon="-0.4644">
        <ele>90</ele>
        <time>2012-03-18T09:52:56Z</time>
      </trkpt>
      <trkpt lat="49.14573" lon="-0.46447">
        <ele>89</ele>
        <time>2012-03-18T09:52:59Z</time>
      </trkpt>
      <trkpt lat="49.14571" lon="-0.46454">
        <ele>88</ele>
        <time>2012-03-18T09:53:04Z</time>
      </trkpt>
      <trkpt lat="49.1457" lon="-0.46461">
        <ele>89</ele>
        <time>2012-03-18T09:53:08Z</time>
      </trkpt>
      <trkpt lat="49.14572" lon="-0.4647">
        <ele>89</ele>
        <time>2012-03-18T09:53:13Z</time>
      </trkpt>
      <trkpt lat="49.14573" lon="-0.46476">
        <ele>90</ele>
        <time>2012-03-18T09:53:17Z</time>
      </trkpt>
      <trkpt lat="49.14574" lon="-0.46484">
        <ele>90</ele>
        <time>2012-03-18T09:53:22Z</time>
      </trkpt>
      <trkpt lat="49.14575" lon="-0.46491">
        <ele>90</ele>
        <time>2012-03-18T09:53:26Z</time>
      </trkpt>
      <trkpt lat="49.14574" lon="-0.46499">
        <ele>90</ele>
        <time>2012-03-18T09:53:30Z</time>
      </trkpt>
      <trkpt lat="49.14573" lon="-0.46507">
        <ele>91</ele>
        <time>2012-03-18T09:53:32Z</time>
      </trkpt>
      <trkpt lat="49.14577" lon="-0.46512">
        <ele>91</ele>
        <time>2012-03-18T09:53:34Z</time>
      </trkpt>
      <trkpt lat="49.14576" lon="-0.46519">
        <ele>91</ele>
        <time>2012-03-18T09:53:38Z</time>
      </trkpt>
      <trkpt lat="49.14578" lon="-0.46525">
        <ele>92</ele>
        <time>2012-03-18T09:53:41Z</time>
      </trkpt>
      <trkpt lat="49.14579" lon="-0.46532">
        <ele>92</ele>
        <time>2012-03-18T09:53:44Z</time>
      </trkpt>
      <trkpt lat="49.14576" lon="-0.46539">
        <ele>91</ele>
        <time>2012-03-18T09:53:48Z</time>
      </trkpt>
      <trkpt lat="49.14573" lon="-0.46546">
        <ele>91</ele>
        <time>2012-03-18T09:53:51Z</time>
      </trkpt>
      <trkpt lat="49.14574" lon="-0.46553">
        <ele>92</ele>
        <time>2012-03-18T09:53:54Z</time>
      </trkpt>
      <trkpt lat="49.14576" lon="-0.46563">
        <ele>92</ele>
        <time>2012-03-18T09:53:58Z</time>
      </trkpt>
      <trkpt lat="49.14576" lon="-0.46571">
        <ele>91</ele>
        <time>2012-03-18T09:54:02Z</time>
      </trkpt>
      <trkpt lat="49.14576" lon="-0.46578">
        <ele>89</ele>
        <time>2012-03-18T09:54:07Z</time>
      </trkpt>
      <trkpt lat="49.14575" lon="-0.46586">
        <ele>88</ele>
        <time>2012-03-18T09:54:12Z</time>
      </trkpt>
      <trkpt lat="49.14573" lon="-0.46592">
        <ele>88</ele>
        <time>2012-03-18T09:54:15Z</time>
      </trkpt>
      <trkpt lat="49.14575" lon="-0.466">
        <ele>89</ele>
        <time>2012-03-18T09:54:19Z</time>
      </trkpt>
      <trkpt lat="49.14576" lon="-0.46609">
        <ele>91</ele>
        <time>2012-03-18T09:54:23Z</time>
      </trkpt>
      <trkpt lat="49.14575" lon="-0.46617">
        <ele>89</ele>
        <time>2012-03-18T09:54:28Z</time>
      </trkpt>
      <trkpt lat="49.14578" lon="-0.46622">
        <ele>90</ele>
        <time>2012-03-18T09:54:32Z</time>
      </trkpt>
      <trkpt lat="49.1458" lon="-0.46629">
        <ele>91</ele>
        <time>2012-03-18T09:54:36Z</time>
      </trkpt>
      <trkpt lat="49.14582" lon="-0.46637">
        <ele>92</ele>
        <time>2012-03-18T09:54:41Z</time>
      </trkpt>
      <trkpt lat="49.14582" lon="-0.46645">
        <ele>92</ele>
        <time>2012-03-18T09:54:46Z</time>
      </trkpt>
      <trkpt lat="49.14584" lon="-0.46652">
        <ele>89</ele>
        <time>2012-03-18T09:54:51Z</time>
      </trkpt>
      <trkpt lat="49.14584" lon="-0.46661">
        <ele>91</ele>
        <time>2012-03-18T09:54:57Z</time>
      </trkpt>
      <trkpt lat="49.14583" lon="-0.46668">
        <ele>88</ele>
        <time>2012-03-18T09:55:01Z</time>
      </trkpt>
      <trkpt lat="49.14583" lon="-0.46676">
        <ele>87</ele>
        <time>2012-03-18T09:55:05Z</time>
      </trkpt>
      <trkpt lat="49.14585" lon="-0.46684">
        <ele>87</ele>
        <time>2012-03-18T09:55:08Z</time>
      </trkpt>
      <trkpt lat="49.14587" lon="-0.46691">
        <ele>85</ele>
        <time>2012-03-18T09:55:11Z</time>
      </trkpt>
      <trkpt lat="49.14585" lon="-0.467">
        <ele>84</ele>
        <time>2012-03-18T09:55:15Z</time>
      </trkpt>
      <trkpt lat="49.14583" lon="-0.46707">
        <ele>86</ele>
        <time>2012-03-18T09:55:16Z</time>
      </trkpt>
      <trkpt lat="49.14583" lon="-0.46714">
        <ele>85</ele>
        <time>2012-03-18T09:55:23Z</time>
      </trkpt>
      <trkpt lat="49.14581" lon="-0.46721">
        <ele>83</ele>
        <time>2012-03-18T09:55:26Z</time>
      </trkpt>
      <trkpt lat="49.14581" lon="-0.46729">
        <ele>82</ele>
        <time>2012-03-18T09:55:30Z</time>
      </trkpt>
      <trkpt lat="49.14579" lon="-0.46737">
        <ele>85</ele>
        <time>2012-03-18T09:55:35Z</time>
      </trkpt>
      <trkpt lat="49.14578" lon="-0.46745">
        <ele>86</ele>
        <time>2012-03-18T09:55:39Z</time>
      </trkpt>
      <trkpt lat="49.14577" lon="-0.46755">
        <ele>87</ele>
        <time>2012-03-18T09:55:43Z</time>
      </trkpt>
      <trkpt lat="49.14579" lon="-0.46764">
        <ele>87</ele>
        <time>2012-03-18T09:55:49Z</time>
      </trkpt>
      <trkpt lat="49.14579" lon="-0.46771">
        <ele>90</ele>
        <time>2012-03-18T09:55:51Z</time>
      </trkpt>
      <trkpt lat="49.14578" lon="-0.46777">
        <ele>90</ele>
        <time>2012-03-18T09:55:56Z</time>
      </trkpt>
      <trkpt lat="49.14574" lon="-0.46783">
        <ele>89</ele>
        <time>2012-03-18T09:56:02Z</time>
      </trkpt>
      <trkpt lat="49.14571" lon="-0.46789">
        <ele>88</ele>
        <time>2012-03-18T09:56:09Z</time>
      </trkpt>
      <trkpt lat="49.14568" lon="-0.46794">
        <ele>87</ele>
        <time>2012-03-18T09:56:12Z</time>
      </trkpt>
      <trkpt lat="49.14566" lon="-0.468">
        <ele>85</ele>
        <time>2012-03-18T09:56:17Z</time>
      </trkpt>
      <trkpt lat="49.14565" lon="-0.46809">
        <ele>85</ele>
        <time>2012-03-18T09:56:20Z</time>
      </trkpt>
      <trkpt lat="49.14565" lon="-0.46816">
        <ele>84</ele>
        <time>2012-03-18T09:56:23Z</time>
      </trkpt>
      <trkpt lat="49.14566" lon="-0.46825">
        <ele>85</ele>
        <time>2012-03-18T09:56:26Z</time>
      </trkpt>
      <trkpt lat="49.14566" lon="-0.46834">
        <ele>87</ele>
        <time>2012-03-18T09:56:29Z</time>
      </trkpt>
      <trkpt lat="49.14569" lon="-0.46843">
        <ele>86</ele>
        <time>2012-03-18T09:56:32Z</time>
      </trkpt>
      <trkpt lat="49.14566" lon="-0.46851">
        <ele>86</ele>
        <time>2012-03-18T09:56:36Z</time>
      </trkpt>
      <trkpt lat="49.14566" lon="-0.46858">
        <ele>83</ele>
        <time>2012-03-18T09:56:40Z</time>
      </trkpt>
      <trkpt lat="49.14563" lon="-0.46865">
        <ele>83</ele>
        <time>2012-03-18T09:56:43Z</time>
      </trkpt>
      <trkpt lat="49.14562" lon="-0.46873">
        <ele>85</ele>
        <time>2012-03-18T09:56:48Z</time>
      </trkpt>
      <trkpt lat="49.14562" lon="-0.4688">
        <ele>87</ele>
        <time>2012-03-18T09:56:52Z</time>
      </trkpt>
      <trkpt lat="49.14561" lon="-0.46888">
        <ele>88</ele>
        <time>2012-03-18T09:56:57Z</time>
      </trkpt>
      <trkpt lat="49.14562" lon="-0.46897">
        <ele>87</ele>
        <time>2012-03-18T09:57:01Z</time>
      </trkpt>
      <trkpt lat="49.14564" lon="-0.46906">
        <ele>88</ele>
        <time>2012-03-18T09:57:06Z</time>
      </trkpt>
      <trkpt lat="49.14563" lon="-0.46913">
        <ele>86</ele>
        <time>2012-03-18T09:57:10Z</time>
      </trkpt>
      <trkpt lat="49.14562" lon="-0.4692">
        <ele>85</ele>
        <time>2012-03-18T09:57:14Z</time>
      </trkpt>
      <trkpt lat="49.14562" lon="-0.4693">
        <ele>84</ele>
        <time>2012-03-18T09:57:20Z</time>
      </trkpt>
      <trkpt lat="49.14557" lon="-0.46927">
        <ele>82</ele>
        <time>2012-03-18T09:57:54Z</time>
      </trkpt>
      <trkpt lat="49.14551" lon="-0.46921">
        <ele>77</ele>
        <time>2012-03-18T09:58:25Z</time>
      </trkpt>
      <trkpt lat="49.14555" lon="-0.46924">
        <ele>78</ele>
        <time>2012-03-18T10:02:15Z</time>
      </trkpt>
      <trkpt lat="49.14556" lon="-0.46932">
        <ele>83</ele>
        <time>2012-03-18T10:03:31Z</time>
      </trkpt>
      <trkpt lat="49.14558" lon="-0.46939">
        <ele>81</ele>
        <time>2012-03-18T10:03:35Z</time>
      </trkpt>
      <trkpt lat="49.1456" lon="-0.46946">
        <ele>80</ele>
        <time>2012-03-18T10:03:39Z</time>
      </trkpt>
      <trkpt lat="49.14561" lon="-0.46952">
        <ele>81</ele>
        <time>2012-03-18T10:03:42Z</time>
      </trkpt>
      <trkpt lat="49.14562" lon="-0.4696">
        <ele>80</ele>
        <time>2012-03-18T10:03:47Z</time>
      </trkpt>
      <trkpt lat="49.14557" lon="-0.46965">
        <ele>79</ele>
        <time>2012-03-18T10:03:52Z</time>
      </trkpt>
      <trkpt lat="49.14557" lon="-0.46972">
        <ele>78</ele>
        <time>2012-03-18T10:03:57Z</time>
      </trkpt>
      <trkpt lat="49.14557" lon="-0.46979">
        <ele>79</ele>
        <time>2012-03-18T10:04:00Z</time>
      </trkpt>
      <trkpt lat="49.14555" lon="-0.46986">
        <ele>77</ele>
        <time>2012-03-18T10:04:08Z</time>
      </trkpt>
      <trkpt lat="49.14555" lon="-0.46993">
        <ele>79</ele>
        <time>2012-03-18T10:04:14Z</time>
      </trkpt>
      <trkpt lat="49.14555" lon="-0.47001">
        <ele>81</ele>
        <time>2012-03-18T10:04:18Z</time>
      </trkpt>
      <trkpt lat="49.14555" lon="-0.47009">
        <ele>79</ele>
        <time>2012-03-18T10:04:24Z</time>
      </trkpt>
      <trkpt lat="49.14552" lon="-0.47016">
        <ele>79</ele>
        <time>2012-03-18T10:04:28Z</time>
      </trkpt>
      <trkpt lat="49.14552" lon="-0.47023">
        <ele>79</ele>
        <time>2012-03-18T10:04:33Z</time>
      </trkpt>
      <trkpt lat="49.14552" lon="-0.47031">
        <ele>80</ele>
        <time>2012-03-18T10:04:37Z</time>
      </trkpt>
      <trkpt lat="49.14552" lon="-0.4704">
        <ele>79</ele>
        <time>2012-03-18T10:04:42Z</time>
      </trkpt>
      <trkpt lat="49.14553" lon="-0.47048">
        <ele>79</ele>
        <time>2012-03-18T10:04:48Z</time>
      </trkpt>
      <trkpt lat="49.1455" lon="-0.47055">
        <ele>81</ele>
        <time>2012-03-18T10:04:53Z</time>
      </trkpt>
      <trkpt lat="49.1455" lon="-0.47063">
        <ele>83</ele>
        <time>2012-03-18T10:04:58Z</time>
      </trkpt>
      <trkpt lat="49.14546" lon="-0.47068">
        <ele>85</ele>
        <time>2012-03-18T10:05:04Z</time>
      </trkpt>
      <trkpt lat="49.14547" lon="-0.47078">
        <ele>84</ele>
        <time>2012-03-18T10:05:08Z</time>
      </trkpt>
      <trkpt lat="49.14544" lon="-0.47084">
        <ele>84</ele>
        <time>2012-03-18T10:05:11Z</time>
      </trkpt>
      <trkpt lat="49.14544" lon="-0.47091">
        <ele>84</ele>
        <time>2012-03-18T10:05:14Z</time>
      </trkpt>
      <trkpt lat="49.14542" lon="-0.47098">
        <ele>85</ele>
        <time>2012-03-18T10:05:17Z</time>
      </trkpt>
      <trkpt lat="49.1454" lon="-0.47105">
        <ele>86</ele>
        <time>2012-03-18T10:05:35Z</time>
      </trkpt>
      <trkpt lat="49.14539" lon="-0.47113">
        <ele>85</ele>
        <time>2012-03-18T10:05:39Z</time>
      </trkpt>
      <trkpt lat="49.14538" lon="-0.4712">
        <ele>85</ele>
        <time>2012-03-18T10:05:42Z</time>
      </trkpt>
      <trkpt lat="49.14538" lon="-0.47131">
        <ele>87</ele>
        <time>2012-03-18T10:05:48Z</time>
      </trkpt>
      <trkpt lat="49.14534" lon="-0.47138">
        <ele>90</ele>
        <time>2012-03-18T10:05:52Z</time>
      </trkpt>
      <trkpt lat="49.14536" lon="-0.47145">
        <ele>88</ele>
        <time>2012-03-18T10:05:55Z</time>
      </trkpt>
      <trkpt lat="49.14536" lon="-0.47152">
        <ele>84</ele>
        <time>2012-03-18T10:06:08Z</time>
      </trkpt>
      <trkpt lat="49.14536" lon="-0.47159">
        <ele>86</ele>
        <time>2012-03-18T10:06:11Z</time>
      </trkpt>
      <trkpt lat="49.14539" lon="-0.47166">
        <ele>85</ele>
        <time>2012-03-18T10:06:16Z</time>
      </trkpt>
      <trkpt lat="49.14539" lon="-0.47174">
        <ele>86</ele>
        <time>2012-03-18T10:06:21Z</time>
      </trkpt>
      <trkpt lat="49.14539" lon="-0.47182">
        <ele>87</ele>
        <time>2012-03-18T10:06:26Z</time>
      </trkpt>
      <trkpt lat="49.14539" lon="-0.4719">
        <ele>87</ele>
        <time>2012-03-18T10:06:31Z</time>
      </trkpt>
      <trkpt lat="49.14539" lon="-0.47198">
        <ele>87</ele>
        <time>2012-03-18T10:06:34Z</time>
      </trkpt>
      <trkpt lat="49.14537" lon="-0.47205">
        <ele>87</ele>
        <time>2012-03-18T10:06:38Z</time>
      </trkpt>
      <trkpt lat="49.14536" lon="-0.47213">
        <ele>87</ele>
        <time>2012-03-18T10:06:42Z</time>
      </trkpt>
      <trkpt lat="49.14536" lon="-0.47221">
        <ele>87</ele>
        <time>2012-03-18T10:06:45Z</time>
      </trkpt>
      <trkpt lat="49.14536" lon="-0.47228">
        <ele>88</ele>
        <time>2012-03-18T10:06:50Z</time>
      </trkpt>
      <trkpt lat="49.14535" lon="-0.47234">
        <ele>88</ele>
        <time>2012-03-18T10:06:53Z</time>
      </trkpt>
      <trkpt lat="49.14534" lon="-0.47241">
        <ele>87</ele>
        <time>2012-03-18T10:06:56Z</time>
      </trkpt>
      <trkpt lat="49.1453" lon="-0.47248">
        <ele>86</ele>
        <time>2012-03-18T10:07:02Z</time>
      </trkpt>
      <trkpt lat="49.14526" lon="-0.47254">
        <ele>88</ele>
        <time>2012-03-18T10:07:07Z</time>
      </trkpt>
      <trkpt lat="49.14521" lon="-0.4726">
        <ele>88</ele>
        <time>2012-03-18T10:07:11Z</time>
      </trkpt>
      <trkpt lat="49.14522" lon="-0.47268">
        <ele>89</ele>
        <time>2012-03-18T10:07:14Z</time>
      </trkpt>
      <trkpt lat="49.14525" lon="-0.47278">
        <ele>89</ele>
        <time>2012-03-18T10:07:17Z</time>
      </trkpt>
      <trkpt lat="49.14529" lon="-0.47285">
        <ele>90</ele>
        <time>2012-03-18T10:07:21Z</time>
      </trkpt>
      <trkpt lat="49.14532" lon="-0.4729">
        <ele>90</ele>
        <time>2012-03-18T10:07:23Z</time>
      </trkpt>
      <trkpt lat="49.14536" lon="-0.47297">
        <ele>90</ele>
        <time>2012-03-18T10:07:26Z</time>
      </trkpt>
      <trkpt lat="49.14538" lon="-0.47304">
        <ele>88</ele>
        <time>2012-03-18T10:07:32Z</time>
      </trkpt>
      <trkpt lat="49.14535" lon="-0.47313">
        <ele>88</ele>
        <time>2012-03-18T10:07:37Z</time>
      </trkpt>
      <trkpt lat="49.14532" lon="-0.47318">
        <ele>87</ele>
        <time>2012-03-18T10:07:41Z</time>
      </trkpt>
      <trkpt lat="49.14525" lon="-0.4732">
        <ele>87</ele>
        <time>2012-03-18T10:07:45Z</time>
      </trkpt>
      <trkpt lat="49.14518" lon="-0.4732">
        <ele>88</ele>
        <time>2012-03-18T10:07:49Z</time>
      </trkpt>
      <trkpt lat="49.14512" lon="-0.4732">
        <ele>89</ele>
        <time>2012-03-18T10:07:53Z</time>
      </trkpt>
      <trkpt lat="49.14512" lon="-0.4732">
        <ele>89</ele>
        <time>2012-03-18T10:07:53Z</time>
      </trkpt>
      <trkpt lat="49.14512" lon="-0.4732">
        <ele>89</ele>
        <time>2012-03-18T10:07:54Z</time>
      </trkpt>
      <trkpt lat="49.14507" lon="-0.47319">
        <ele>90</ele>
        <time>2012-03-18T10:07:57Z</time>
      </trkpt>
      <trkpt lat="49.14502" lon="-0.47318">
        <ele>90</ele>
        <time>2012-03-18T10:08:00Z</time>
      </trkpt>
      <trkpt lat="49.14498" lon="-0.47324">
        <ele>87</ele>
        <time>2012-03-18T10:08:06Z</time>
      </trkpt>
      <trkpt lat="49.14493" lon="-0.47325">
        <ele>85</ele>
        <time>2012-03-18T10:08:13Z</time>
      </trkpt>
      <trkpt lat="49.14488" lon="-0.47332">
        <ele>85</ele>
        <time>2012-03-18T10:08:17Z</time>
      </trkpt>
      <trkpt lat="49.14485" lon="-0.47338">
        <ele>87</ele>
        <time>2012-03-18T10:08:20Z</time>
      </trkpt>
      <trkpt lat="49.14482" lon="-0.47345">
        <ele>89</ele>
        <time>2012-03-18T10:08:23Z</time>
      </trkpt>
      <trkpt lat="49.14481" lon="-0.47354">
        <ele>92</ele>
        <time>2012-03-18T10:08:28Z</time>
      </trkpt>
      <trkpt lat="49.14481" lon="-0.47354">
        <ele>92</ele>
        <time>2012-03-18T10:08:28Z</time>
      </trkpt>
      <trkpt lat="49.14481" lon="-0.47354">
        <ele>92</ele>
        <time>2012-03-18T10:08:29Z</time>
      </trkpt>
      <trkpt lat="49.1448" lon="-0.47362">
        <ele>94</ele>
        <time>2012-03-18T10:08:32Z</time>
      </trkpt>
      <trkpt lat="49.14477" lon="-0.4737">
        <ele>96</ele>
        <time>2012-03-18T10:08:36Z</time>
      </trkpt>
      <trkpt lat="49.14475" lon="-0.47377">
        <ele>95</ele>
        <time>2012-03-18T10:08:43Z</time>
      </trkpt>
      <trkpt lat="49.14475" lon="-0.47377">
        <ele>95</ele>
        <time>2012-03-18T10:08:43Z</time>
      </trkpt>
      <trkpt lat="49.14475" lon="-0.47377">
        <ele>95</ele>
        <time>2012-03-18T10:08:44Z</time>
      </trkpt>
      <trkpt lat="49.14473" lon="-0.47383">
        <ele>94</ele>
        <time>2012-03-18T10:08:48Z</time>
      </trkpt>
      <trkpt lat="49.14473" lon="-0.47383">
        <ele>94</ele>
        <time>2012-03-18T10:08:48Z</time>
      </trkpt>
      <trkpt lat="49.14473" lon="-0.47383">
        <ele>94</ele>
        <time>2012-03-18T10:08:49Z</time>
      </trkpt>
      <trkpt lat="49.14469" lon="-0.47389">
        <ele>93</ele>
        <time>2012-03-18T10:08:52Z</time>
      </trkpt>
      <trkpt lat="49.14466" lon="-0.47394">
        <ele>90</ele>
        <time>2012-03-18T10:08:55Z</time>
      </trkpt>
      <trkpt lat="49.14464" lon="-0.47403">
        <ele>89</ele>
        <time>2012-03-18T10:08:58Z</time>
      </trkpt>
      <trkpt lat="49.14461" lon="-0.4741">
        <ele>90</ele>
        <time>2012-03-18T10:09:01Z</time>
      </trkpt>
      <trkpt lat="49.14459" lon="-0.47417">
        <ele>93</ele>
        <time>2012-03-18T10:09:04Z</time>
      </trkpt>
      <trkpt lat="49.14454" lon="-0.47421">
        <ele>92</ele>
        <time>2012-03-18T10:09:09Z</time>
      </trkpt>
      <trkpt lat="49.14448" lon="-0.47425">
        <ele>93</ele>
        <time>2012-03-18T10:09:13Z</time>
      </trkpt>
      <trkpt lat="49.14443" lon="-0.47431">
        <ele>92</ele>
        <time>2012-03-18T10:09:18Z</time>
      </trkpt>
      <trkpt lat="49.1444" lon="-0.47437">
        <ele>92</ele>
        <time>2012-03-18T10:09:21Z</time>
      </trkpt>
      <trkpt lat="49.1444" lon="-0.47446">
        <ele>94</ele>
        <time>2012-03-18T10:09:28Z</time>
      </trkpt>
      <trkpt lat="49.14439" lon="-0.47455">
        <ele>94</ele>
        <time>2012-03-18T10:09:38Z</time>
      </trkpt>
      <trkpt lat="49.14437" lon="-0.47463">
        <ele>95</ele>
        <time>2012-03-18T10:09:42Z</time>
      </trkpt>
      <trkpt lat="49.14437" lon="-0.47472">
        <ele>93</ele>
        <time>2012-03-18T10:09:47Z</time>
      </trkpt>
      <trkpt lat="49.14437" lon="-0.47479">
        <ele>91</ele>
        <time>2012-03-18T10:09:50Z</time>
      </trkpt>
      <trkpt lat="49.14433" lon="-0.47485">
        <ele>90</ele>
        <time>2012-03-18T10:09:53Z</time>
      </trkpt>
      <trkpt lat="49.14428" lon="-0.47489">
        <ele>92</ele>
        <time>2012-03-18T10:09:58Z</time>
      </trkpt>
      <trkpt lat="49.14425" lon="-0.47496">
        <ele>94</ele>
        <time>2012-03-18T10:10:03Z</time>
      </trkpt>
      <trkpt lat="49.14428" lon="-0.47503">
        <ele>93</ele>
        <time>2012-03-18T10:10:08Z</time>
      </trkpt>
      <trkpt lat="49.14428" lon="-0.47503">
        <ele>93</ele>
        <time>2012-03-18T10:10:08Z</time>
      </trkpt>
      <trkpt lat="49.14428" lon="-0.47503">
        <ele>93</ele>
        <time>2012-03-18T10:10:09Z</time>
      </trkpt>
      <trkpt lat="49.14432" lon="-0.47504">
        <ele>93</ele>
        <time>2012-03-18T10:10:19Z</time>
      </trkpt>
      <trkpt lat="49.14432" lon="-0.47504">
        <ele>93</ele>
        <time>2012-03-18T10:10:19Z</time>
      </trkpt>
      <trkpt lat="49.14432" lon="-0.47504">
        <ele>93</ele>
        <time>2012-03-18T10:10:21Z</time>
      </trkpt>
      <trkpt lat="49.14431" lon="-0.47511">
        <ele>95</ele>
        <time>2012-03-18T10:10:29Z</time>
      </trkpt>
      <trkpt lat="49.1443" lon="-0.4752">
        <ele>95</ele>
        <time>2012-03-18T10:10:33Z</time>
      </trkpt>
      <trkpt lat="49.14429" lon="-0.47526">
        <ele>94</ele>
        <time>2012-03-18T10:10:35Z</time>
      </trkpt>
      <trkpt lat="49.14428" lon="-0.47535">
        <ele>95</ele>
        <time>2012-03-18T10:10:41Z</time>
      </trkpt>
      <trkpt lat="49.14428" lon="-0.47544">
        <ele>93</ele>
        <time>2012-03-18T10:10:44Z</time>
      </trkpt>
      <trkpt lat="49.14429" lon="-0.47551">
        <ele>92</ele>
        <time>2012-03-18T10:10:47Z</time>
      </trkpt>
      <trkpt lat="49.14424" lon="-0.47555">
        <ele>91</ele>
        <time>2012-03-18T10:10:51Z</time>
      </trkpt>
      <trkpt lat="49.1442" lon="-0.47561">
        <ele>90</ele>
        <time>2012-03-18T10:10:56Z</time>
      </trkpt>
      <trkpt lat="49.1442" lon="-0.47561">
        <ele>90</ele>
        <time>2012-03-18T10:10:56Z</time>
      </trkpt>
      <trkpt lat="49.1442" lon="-0.47561">
        <ele>90</ele>
        <time>2012-03-18T10:10:57Z</time>
      </trkpt>
      <trkpt lat="49.14418" lon="-0.4757">
        <ele>92</ele>
        <time>2012-03-18T10:11:01Z</time>
      </trkpt>
      <trkpt lat="49.14415" lon="-0.47577">
        <ele>89</ele>
        <time>2012-03-18T10:11:05Z</time>
      </trkpt>
      <trkpt lat="49.14414" lon="-0.47583">
        <ele>88</ele>
        <time>2012-03-18T10:11:12Z</time>
      </trkpt>
      <trkpt lat="49.14411" lon="-0.4759">
        <ele>84</ele>
        <time>2012-03-18T10:11:19Z</time>
      </trkpt>
      <trkpt lat="49.14408" lon="-0.47597">
        <ele>84</ele>
        <time>2012-03-18T10:11:29Z</time>
      </trkpt>
      <trkpt lat="49.14406" lon="-0.47604">
        <ele>83</ele>
        <time>2012-03-18T10:11:36Z</time>
      </trkpt>
      <trkpt lat="49.14404" lon="-0.47611">
        <ele>83</ele>
        <time>2012-03-18T10:11:38Z</time>
      </trkpt>
      <trkpt lat="49.14406" lon="-0.47619">
        <ele>84</ele>
        <time>2012-03-18T10:11:41Z</time>
      </trkpt>
      <trkpt lat="49.14404" lon="-0.47626">
        <ele>85</ele>
        <time>2012-03-18T10:11:45Z</time>
      </trkpt>
      <trkpt lat="49.14401" lon="-0.47633">
        <ele>88</ele>
        <time>2012-03-18T10:11:47Z</time>
      </trkpt>
      <trkpt lat="49.14396" lon="-0.47636">
        <ele>89</ele>
        <time>2012-03-18T10:11:50Z</time>
      </trkpt>
      <trkpt lat="49.14392" lon="-0.47639">
        <ele>90</ele>
        <time>2012-03-18T10:11:55Z</time>
      </trkpt>
      <trkpt lat="49.14388" lon="-0.47643">
        <ele>94</ele>
        <time>2012-03-18T10:12:00Z</time>
      </trkpt>
      <trkpt lat="49.14388" lon="-0.47651">
        <ele>95</ele>
        <time>2012-03-18T10:12:07Z</time>
      </trkpt>
      <trkpt lat="49.14385" lon="-0.47657">
        <ele>95</ele>
        <time>2012-03-18T10:12:15Z</time>
      </trkpt>
      <trkpt lat="49.14384" lon="-0.47667">
        <ele>95</ele>
        <time>2012-03-18T10:12:18Z</time>
      </trkpt>
      <trkpt lat="49.14384" lon="-0.47675">
        <ele>96</ele>
        <time>2012-03-18T10:12:21Z</time>
      </trkpt>
      <trkpt lat="49.14382" lon="-0.47682">
        <ele>97</ele>
        <time>2012-03-18T10:12:25Z</time>
      </trkpt>
      <trkpt lat="49.14381" lon="-0.47689">
        <ele>95</ele>
        <time>2012-03-18T10:12:28Z</time>
      </trkpt>
      <trkpt lat="49.14381" lon="-0.47697">
        <ele>93</ele>
        <time>2012-03-18T10:12:32Z</time>
      </trkpt>
      <trkpt lat="49.14381" lon="-0.47697">
        <ele>93</ele>
        <time>2012-03-18T10:12:32Z</time>
      </trkpt>
      <trkpt lat="49.14381" lon="-0.47697">
        <ele>93</ele>
        <time>2012-03-18T10:12:33Z</time>
      </trkpt>
      <trkpt lat="49.14379" lon="-0.47703">
        <ele>90</ele>
        <time>2012-03-18T10:12:37Z</time>
      </trkpt>
      <trkpt lat="49.14379" lon="-0.4771">
        <ele>90</ele>
        <time>2012-03-18T10:12:41Z</time>
      </trkpt>
      <trkpt lat="49.14376" lon="-0.47717">
        <ele>89</ele>
        <time>2012-03-18T10:12:44Z</time>
      </trkpt>
      <trkpt lat="49.14376" lon="-0.47717">
        <ele>89</ele>
        <time>2012-03-18T10:12:44Z</time>
      </trkpt>
      <trkpt lat="49.14376" lon="-0.47717">
        <ele>89</ele>
        <time>2012-03-18T10:12:45Z</time>
      </trkpt>
      <trkpt lat="49.14372" lon="-0.47724">
        <ele>89</ele>
        <time>2012-03-18T10:12:48Z</time>
      </trkpt>
      <trkpt lat="49.1437" lon="-0.47732">
        <ele>90</ele>
        <time>2012-03-18T10:12:54Z</time>
      </trkpt>
      <trkpt lat="49.14374" lon="-0.47736">
        <ele>90</ele>
        <time>2012-03-18T10:13:02Z</time>
      </trkpt>
      <trkpt lat="49.14373" lon="-0.47784">
        <ele>91</ele>
        <time>2012-03-18T10:13:22Z</time>
      </trkpt>
      <trkpt lat="49.14368" lon="-0.47788">
        <ele>90</ele>
        <time>2012-03-18T10:13:27Z</time>
      </trkpt>
      <trkpt lat="49.14366" lon="-0.47795">
        <ele>87</ele>
        <time>2012-03-18T10:13:34Z</time>
      </trkpt>
      <trkpt lat="49.14366" lon="-0.47795">
        <ele>87</ele>
        <time>2012-03-18T10:13:34Z</time>
      </trkpt>
      <trkpt lat="49.14366" lon="-0.47795">
        <ele>87</ele>
        <time>2012-03-18T10:13:35Z</time>
      </trkpt>
      <trkpt lat="49.14363" lon="-0.478">
        <ele>87</ele>
        <time>2012-03-18T10:13:39Z</time>
      </trkpt>
      <trkpt lat="49.14364" lon="-0.47807">
        <ele>86</ele>
        <time>2012-03-18T10:13:45Z</time>
      </trkpt>
      <trkpt lat="49.14364" lon="-0.47815">
        <ele>82</ele>
        <time>2012-03-18T10:13:52Z</time>
      </trkpt>
      <trkpt lat="49.14363" lon="-0.47822">
        <ele>81</ele>
        <time>2012-03-18T10:13:56Z</time>
      </trkpt>
      <trkpt lat="49.14363" lon="-0.47831">
        <ele>83</ele>
        <time>2012-03-18T10:14:01Z</time>
      </trkpt>
      <trkpt lat="49.14362" lon="-0.47838">
        <ele>85</ele>
        <time>2012-03-18T10:14:04Z</time>
      </trkpt>
      <trkpt lat="49.14359" lon="-0.47844">
        <ele>87</ele>
        <time>2012-03-18T10:14:16Z</time>
      </trkpt>
      <trkpt lat="49.14355" lon="-0.47848">
        <ele>89</ele>
        <time>2012-03-18T10:14:20Z</time>
      </trkpt>
      <trkpt lat="49.14354" lon="-0.47855">
        <ele>90</ele>
        <time>2012-03-18T10:14:22Z</time>
      </trkpt>
      <trkpt lat="49.14351" lon="-0.47861">
        <ele>90</ele>
        <time>2012-03-18T10:14:25Z</time>
      </trkpt>
      <trkpt lat="49.1435" lon="-0.47869">
        <ele>91</ele>
        <time>2012-03-18T10:14:29Z</time>
      </trkpt>
      <trkpt lat="49.14346" lon="-0.47874">
        <ele>91</ele>
        <time>2012-03-18T10:14:34Z</time>
      </trkpt>
      <trkpt lat="49.14343" lon="-0.4788">
        <ele>91</ele>
        <time>2012-03-18T10:14:43Z</time>
      </trkpt>
      <trkpt lat="49.14339" lon="-0.47884">
        <ele>92</ele>
        <time>2012-03-18T10:14:50Z</time>
      </trkpt>
      <trkpt lat="49.14341" lon="-0.47891">
        <ele>93</ele>
        <time>2012-03-18T10:15:03Z</time>
      </trkpt>
      <trkpt lat="49.14341" lon="-0.47891">
        <ele>93</ele>
        <time>2012-03-18T10:15:03Z</time>
      </trkpt>
      <trkpt lat="49.14341" lon="-0.47891">
        <ele>93</ele>
        <time>2012-03-18T10:15:06Z</time>
      </trkpt>
      <trkpt lat="49.14337" lon="-0.47895">
        <ele>91</ele>
        <time>2012-03-18T10:15:08Z</time>
      </trkpt>
      <trkpt lat="49.14333" lon="-0.47902">
        <ele>89</ele>
        <time>2012-03-18T10:15:12Z</time>
      </trkpt>
      <trkpt lat="49.14329" lon="-0.47905">
        <ele>91</ele>
        <time>2012-03-18T10:15:14Z</time>
      </trkpt>
      <trkpt lat="49.14324" lon="-0.47911">
        <ele>92</ele>
        <time>2012-03-18T10:15:19Z</time>
      </trkpt>
      <trkpt lat="49.14321" lon="-0.47918">
        <ele>93</ele>
        <time>2012-03-18T10:15:22Z</time>
      </trkpt>
      <trkpt lat="49.14318" lon="-0.47922">
        <ele>93</ele>
        <time>2012-03-18T10:15:26Z</time>
      </trkpt>
      <trkpt lat="49.14315" lon="-0.4793">
        <ele>94</ele>
        <time>2012-03-18T10:15:31Z</time>
      </trkpt>
      <trkpt lat="49.14311" lon="-0.47934">
        <ele>95</ele>
        <time>2012-03-18T10:15:34Z</time>
      </trkpt>
      <trkpt lat="49.14306" lon="-0.47936">
        <ele>95</ele>
        <time>2012-03-18T10:15:39Z</time>
      </trkpt>
      <trkpt lat="49.14301" lon="-0.47938">
        <ele>95</ele>
        <time>2012-03-18T10:15:43Z</time>
      </trkpt>
      <trkpt lat="49.14296" lon="-0.47938">
        <ele>95</ele>
        <time>2012-03-18T10:15:46Z</time>
      </trkpt>
      <trkpt lat="49.14292" lon="-0.47942">
        <ele>97</ele>
        <time>2012-03-18T10:15:50Z</time>
      </trkpt>
      <trkpt lat="49.14287" lon="-0.47941">
        <ele>100</ele>
        <time>2012-03-18T10:15:53Z</time>
      </trkpt>
      <trkpt lat="49.14282" lon="-0.4794">
        <ele>103</ele>
        <time>2012-03-18T10:16:00Z</time>
      </trkpt>
      <trkpt lat="49.14283" lon="-0.47932">
        <ele>100</ele>
        <time>2012-03-18T10:16:03Z</time>
      </trkpt>
      <trkpt lat="49.14279" lon="-0.47927">
        <ele>102</ele>
        <time>2012-03-18T10:16:12Z</time>
      </trkpt>
      <trkpt lat="49.14276" lon="-0.47921">
        <ele>103</ele>
        <time>2012-03-18T10:16:26Z</time>
      </trkpt>
      <trkpt lat="49.14276" lon="-0.47921">
        <ele>103</ele>
        <time>2012-03-18T10:16:26Z</time>
      </trkpt>
      <trkpt lat="49.14276" lon="-0.47921">
        <ele>103</ele>
        <time>2012-03-18T10:16:27Z</time>
      </trkpt>
      <trkpt lat="49.14275" lon="-0.47913">
        <ele>103</ele>
        <time>2012-03-18T10:16:31Z</time>
      </trkpt>
      <trkpt lat="49.14274" lon="-0.47905">
        <ele>104</ele>
        <time>2012-03-18T10:16:36Z</time>
      </trkpt>
      <trkpt lat="49.14271" lon="-0.47899">
        <ele>105</ele>
        <time>2012-03-18T10:16:38Z</time>
      </trkpt>
      <trkpt lat="49.14267" lon="-0.47894">
        <ele>105</ele>
        <time>2012-03-18T10:16:40Z</time>
      </trkpt>
      <trkpt lat="49.14262" lon="-0.47889">
        <ele>105</ele>
        <time>2012-03-18T10:16:44Z</time>
      </trkpt>
      <trkpt lat="49.1426" lon="-0.47881">
        <ele>106</ele>
        <time>2012-03-18T10:16:49Z</time>
      </trkpt>
      <trkpt lat="49.14256" lon="-0.47876">
        <ele>107</ele>
        <time>2012-03-18T10:16:51Z</time>
      </trkpt>
      <trkpt lat="49.14252" lon="-0.4787">
        <ele>107</ele>
        <time>2012-03-18T10:16:55Z</time>
      </trkpt>
      <trkpt lat="49.14248" lon="-0.47864">
        <ele>109</ele>
        <time>2012-03-18T10:16:59Z</time>
      </trkpt>
      <trkpt lat="49.14246" lon="-0.47858">
        <ele>112</ele>
        <time>2012-03-18T10:17:04Z</time>
      </trkpt>
      <trkpt lat="49.14241" lon="-0.47854">
        <ele>112</ele>
        <time>2012-03-18T10:17:07Z</time>
      </trkpt>
      <trkpt lat="49.14238" lon="-0.47846">
        <ele>113</ele>
        <time>2012-03-18T10:17:15Z</time>
      </trkpt>
      <trkpt lat="49.14239" lon="-0.47839">
        <ele>113</ele>
        <time>2012-03-18T10:17:24Z</time>
      </trkpt>
      <trkpt lat="49.14234" lon="-0.47833">
        <ele>115</ele>
        <time>2012-03-18T10:17:28Z</time>
      </trkpt>
      <trkpt lat="49.14237" lon="-0.47827">
        <ele>115</ele>
        <time>2012-03-18T10:17:32Z</time>
      </trkpt>
      <trkpt lat="49.14235" lon="-0.47818">
        <ele>114</ele>
        <time>2012-03-18T10:17:38Z</time>
      </trkpt>
      <trkpt lat="49.14237" lon="-0.47811">
        <ele>114</ele>
        <time>2012-03-18T10:17:41Z</time>
      </trkpt>
      <trkpt lat="49.14237" lon="-0.47803">
        <ele>112</ele>
        <time>2012-03-18T10:17:44Z</time>
      </trkpt>
      <trkpt lat="49.14237" lon="-0.47795">
        <ele>108</ele>
        <time>2012-03-18T10:17:50Z</time>
      </trkpt>
      <trkpt lat="49.14238" lon="-0.47787">
        <ele>108</ele>
        <time>2012-03-18T10:17:54Z</time>
      </trkpt>
      <trkpt lat="49.14238" lon="-0.47779">
        <ele>111</ele>
        <time>2012-03-18T10:18:00Z</time>
      </trkpt>
      <trkpt lat="49.14239" lon="-0.47772">
        <ele>112</ele>
        <time>2012-03-18T10:18:06Z</time>
      </trkpt>
      <trkpt lat="49.1424" lon="-0.47764">
        <ele>108</ele>
        <time>2012-03-18T10:18:10Z</time>
      </trkpt>
      <trkpt lat="49.14236" lon="-0.47759">
        <ele>109</ele>
        <time>2012-03-18T10:18:16Z</time>
      </trkpt>
      <trkpt lat="49.14231" lon="-0.4776">
        <ele>110</ele>
        <time>2012-03-18T10:18:23Z</time>
      </trkpt>
      <trkpt lat="49.14227" lon="-0.47764">
        <ele>110</ele>
        <time>2012-03-18T10:18:35Z</time>
      </trkpt>
      <trkpt lat="49.14222" lon="-0.47764">
        <ele>112</ele>
        <time>2012-03-18T10:18:42Z</time>
      </trkpt>
      <trkpt lat="49.14217" lon="-0.47761">
        <ele>116</ele>
        <time>2012-03-18T10:18:59Z</time>
      </trkpt>
      <trkpt lat="49.14215" lon="-0.47754">
        <ele>115</ele>
        <time>2012-03-18T10:19:08Z</time>
      </trkpt>
      <trkpt lat="49.14207" lon="-0.47756">
        <ele>114</ele>
        <time>2012-03-18T10:19:13Z</time>
      </trkpt>
      <trkpt lat="49.142" lon="-0.47757">
        <ele>114</ele>
        <time>2012-03-18T10:19:15Z</time>
      </trkpt>
      <trkpt lat="49.14196" lon="-0.47751">
        <ele>115</ele>
        <time>2012-03-18T10:19:33Z</time>
      </trkpt>
      <trkpt lat="49.14191" lon="-0.47752">
        <ele>115</ele>
        <time>2012-03-18T10:19:38Z</time>
      </trkpt>
      <trkpt lat="49.14184" lon="-0.4775">
        <ele>117</ele>
        <time>2012-03-18T10:19:47Z</time>
      </trkpt>
      <trkpt lat="49.14179" lon="-0.47748">
        <ele>118</ele>
        <time>2012-03-18T10:19:51Z</time>
      </trkpt>
      <trkpt lat="49.14173" lon="-0.47744">
        <ele>121</ele>
        <time>2012-03-18T10:19:56Z</time>
      </trkpt>
      <trkpt lat="49.14168" lon="-0.47742">
        <ele>122</ele>
        <time>2012-03-18T10:19:59Z</time>
      </trkpt>
      <trkpt lat="49.14166" lon="-0.47736">
        <ele>121</ele>
        <time>2012-03-18T10:20:03Z</time>
      </trkpt>
      <trkpt lat="49.14161" lon="-0.47735">
        <ele>123</ele>
        <time>2012-03-18T10:20:10Z</time>
      </trkpt>
      <trkpt lat="49.14156" lon="-0.47732">
        <ele>124</ele>
        <time>2012-03-18T10:20:29Z</time>
      </trkpt>
      <trkpt lat="49.1415" lon="-0.47733">
        <ele>123</ele>
        <time>2012-03-18T10:20:32Z</time>
      </trkpt>
      <trkpt lat="49.14145" lon="-0.47732">
        <ele>123</ele>
        <time>2012-03-18T10:20:36Z</time>
      </trkpt>
      <trkpt lat="49.14145" lon="-0.47732">
        <ele>123</ele>
        <time>2012-03-18T10:20:36Z</time>
      </trkpt>
      <trkpt lat="49.14145" lon="-0.47732">
        <ele>123</ele>
        <time>2012-03-18T10:20:37Z</time>
      </trkpt>
      <trkpt lat="49.14141" lon="-0.47729">
        <ele>127</ele>
        <time>2012-03-18T10:20:46Z</time>
      </trkpt>
      <trkpt lat="49.14136" lon="-0.47723">
        <ele>127</ele>
        <time>2012-03-18T10:20:52Z</time>
      </trkpt>
      <trkpt lat="49.14131" lon="-0.47721">
        <ele>129</ele>
        <time>2012-03-18T10:20:59Z</time>
      </trkpt>
      <trkpt lat="49.14128" lon="-0.47726">
        <ele>131</ele>
        <time>2012-03-18T10:21:11Z</time>
      </trkpt>
      <trkpt lat="49.14123" lon="-0.47721">
        <ele>130</ele>
        <time>2012-03-18T10:21:53Z</time>
      </trkpt>
      <trkpt lat="49.14117" lon="-0.47721">
        <ele>129</ele>
        <time>2012-03-18T10:21:59Z</time>
      </trkpt>
      <trkpt lat="49.14117" lon="-0.47721">
        <ele>129</ele>
        <time>2012-03-18T10:21:59Z</time>
      </trkpt>
      <trkpt lat="49.14117" lon="-0.47721">
        <ele>130</ele>
        <time>2012-03-18T10:22:00Z</time>
      </trkpt>
      <trkpt lat="49.14109" lon="-0.47719">
        <ele>127</ele>
        <time>2012-03-18T10:22:08Z</time>
      </trkpt>
      <trkpt lat="49.14105" lon="-0.47718">
        <ele>129</ele>
        <time>2012-03-18T10:22:10Z</time>
      </trkpt>
      <trkpt lat="49.141" lon="-0.47716">
        <ele>128</ele>
        <time>2012-03-18T10:22:12Z</time>
      </trkpt>
      <trkpt lat="49.141" lon="-0.47716">
        <ele>128</ele>
        <time>2012-03-18T10:22:12Z</time>
      </trkpt>
      <trkpt lat="49.141" lon="-0.47716">
        <ele>128</ele>
        <time>2012-03-18T10:22:13Z</time>
      </trkpt>
      <trkpt lat="49.14095" lon="-0.47715">
        <ele>129</ele>
        <time>2012-03-18T10:22:17Z</time>
      </trkpt>
      <trkpt lat="49.1409" lon="-0.47713">
        <ele>131</ele>
        <time>2012-03-18T10:22:19Z</time>
      </trkpt>
      <trkpt lat="49.14085" lon="-0.4771">
        <ele>130</ele>
        <time>2012-03-18T10:22:22Z</time>
      </trkpt>
      <trkpt lat="49.14079" lon="-0.47708">
        <ele>130</ele>
        <time>2012-03-18T10:22:28Z</time>
      </trkpt>
      <trkpt lat="49.14076" lon="-0.47704">
        <ele>131</ele>
        <time>2012-03-18T10:22:30Z</time>
      </trkpt>
      <trkpt lat="49.14071" lon="-0.47702">
        <ele>132</ele>
        <time>2012-03-18T10:22:34Z</time>
      </trkpt>
      <trkpt lat="49.14065" lon="-0.47701">
        <ele>133</ele>
        <time>2012-03-18T10:22:36Z</time>
      </trkpt>
      <trkpt lat="49.14061" lon="-0.47699">
        <ele>133</ele>
        <time>2012-03-18T10:22:39Z</time>
      </trkpt>
      <trkpt lat="49.14056" lon="-0.47696">
        <ele>132</ele>
        <time>2012-03-18T10:22:44Z</time>
      </trkpt>
      <trkpt lat="49.14052" lon="-0.47691">
        <ele>134</ele>
        <time>2012-03-18T10:22:52Z</time>
      </trkpt>
      <trkpt lat="49.14048" lon="-0.47685">
        <ele>135</ele>
        <time>2012-03-18T10:22:59Z</time>
      </trkpt>
      <trkpt lat="49.14042" lon="-0.47683">
        <ele>132</ele>
        <time>2012-03-18T10:23:04Z</time>
      </trkpt>
      <trkpt lat="49.14038" lon="-0.47684">
        <ele>134</ele>
        <time>2012-03-18T10:23:09Z</time>
      </trkpt>
      <trkpt lat="49.14033" lon="-0.47685">
        <ele>134</ele>
        <time>2012-03-18T10:23:15Z</time>
      </trkpt>
      <trkpt lat="49.14027" lon="-0.4769">
        <ele>134</ele>
        <time>2012-03-18T10:23:20Z</time>
      </trkpt>
      <trkpt lat="49.14022" lon="-0.47692">
        <ele>135</ele>
        <time>2012-03-18T10:23:22Z</time>
      </trkpt>
      <trkpt lat="49.14016" lon="-0.47692">
        <ele>134</ele>
        <time>2012-03-18T10:23:25Z</time>
      </trkpt>
      <trkpt lat="49.1401" lon="-0.47696">
        <ele>135</ele>
        <time>2012-03-18T10:23:29Z</time>
      </trkpt>
      <trkpt lat="49.14005" lon="-0.47699">
        <ele>135</ele>
        <time>2012-03-18T10:23:32Z</time>
      </trkpt>
      <trkpt lat="49.14001" lon="-0.47704">
        <ele>134</ele>
        <time>2012-03-18T10:23:35Z</time>
      </trkpt>
      <trkpt lat="49.13996" lon="-0.47707">
        <ele>135</ele>
        <time>2012-03-18T10:23:44Z</time>
      </trkpt>
      <trkpt lat="49.13991" lon="-0.4771">
        <ele>134</ele>
        <time>2012-03-18T10:23:48Z</time>
      </trkpt>
      <trkpt lat="49.13987" lon="-0.47715">
        <ele>136</ele>
        <time>2012-03-18T10:23:52Z</time>
      </trkpt>
      <trkpt lat="49.13985" lon="-0.47721">
        <ele>136</ele>
        <time>2012-03-18T10:23:56Z</time>
      </trkpt>
      <trkpt lat="49.13981" lon="-0.47716">
        <ele>137</ele>
        <time>2012-03-18T10:24:30Z</time>
      </trkpt>
      <trkpt lat="49.13976" lon="-0.47718">
        <ele>136</ele>
        <time>2012-03-18T10:24:44Z</time>
      </trkpt>
      <trkpt lat="49.13976" lon="-0.47718">
        <ele>136</ele>
        <time>2012-03-18T10:24:44Z</time>
      </trkpt>
      <trkpt lat="49.13976" lon="-0.47718">
        <ele>136</ele>
        <time>2012-03-18T10:24:45Z</time>
      </trkpt>
      <trkpt lat="49.1397" lon="-0.4772">
        <ele>139</ele>
        <time>2012-03-18T10:24:50Z</time>
      </trkpt>
      <trkpt lat="49.13965" lon="-0.47724">
        <ele>138</ele>
        <time>2012-03-18T10:24:53Z</time>
      </trkpt>
      <trkpt lat="49.13961" lon="-0.47729">
        <ele>139</ele>
        <time>2012-03-18T10:24:55Z</time>
      </trkpt>
      <trkpt lat="49.13956" lon="-0.4773">
        <ele>141</ele>
        <time>2012-03-18T10:25:01Z</time>
      </trkpt>
      <trkpt lat="49.13956" lon="-0.4773">
        <ele>141</ele>
        <time>2012-03-18T10:25:01Z</time>
      </trkpt>
      <trkpt lat="49.13956" lon="-0.4773">
        <ele>142</ele>
        <time>2012-03-18T10:25:02Z</time>
      </trkpt>
      <trkpt lat="49.13949" lon="-0.47738">
        <ele>140</ele>
        <time>2012-03-18T10:25:09Z</time>
      </trkpt>
      <trkpt lat="49.13943" lon="-0.47741">
        <ele>140</ele>
        <time>2012-03-18T10:25:11Z</time>
      </trkpt>
      <trkpt lat="49.13939" lon="-0.47745">
        <ele>137</ele>
        <time>2012-03-18T10:25:19Z</time>
      </trkpt>
      <trkpt lat="49.13934" lon="-0.47748">
        <ele>139</ele>
        <time>2012-03-18T10:25:30Z</time>
      </trkpt>
      <trkpt lat="49.13934" lon="-0.47748">
        <ele>139</ele>
        <time>2012-03-18T10:25:30Z</time>
      </trkpt>
      <trkpt lat="49.13934" lon="-0.47748">
        <ele>140</ele>
        <time>2012-03-18T10:25:33Z</time>
      </trkpt>
      <trkpt lat="49.13929" lon="-0.4775">
        <ele>143</ele>
        <time>2012-03-18T10:25:37Z</time>
      </trkpt>
      <trkpt lat="49.13924" lon="-0.47751">
        <ele>145</ele>
        <time>2012-03-18T10:25:41Z</time>
      </trkpt>
      <trkpt lat="49.13919" lon="-0.47754">
        <ele>147</ele>
        <time>2012-03-18T10:25:47Z</time>
      </trkpt>
      <trkpt lat="49.13913" lon="-0.47754">
        <ele>148</ele>
        <time>2012-03-18T10:25:49Z</time>
      </trkpt>
      <trkpt lat="49.13907" lon="-0.47757">
        <ele>147</ele>
        <time>2012-03-18T10:25:53Z</time>
      </trkpt>
      <trkpt lat="49.13902" lon="-0.47756">
        <ele>145</ele>
        <time>2012-03-18T10:25:56Z</time>
      </trkpt>
      <trkpt lat="49.13897" lon="-0.47757">
        <ele>142</ele>
        <time>2012-03-18T10:25:58Z</time>
      </trkpt>
      <trkpt lat="49.13892" lon="-0.47758">
        <ele>142</ele>
        <time>2012-03-18T10:26:02Z</time>
      </trkpt>
      <trkpt lat="49.13888" lon="-0.47762">
        <ele>141</ele>
        <time>2012-03-18T10:26:08Z</time>
      </trkpt>
      <trkpt lat="49.13884" lon="-0.47768">
        <ele>139</ele>
        <time>2012-03-18T10:26:16Z</time>
      </trkpt>
      <trkpt lat="49.1388" lon="-0.47772">
        <ele>138</ele>
        <time>2012-03-18T10:26:28Z</time>
      </trkpt>
      <trkpt lat="49.1388" lon="-0.47772">
        <ele>138</ele>
        <time>2012-03-18T10:26:28Z</time>
      </trkpt>
      <trkpt lat="49.1388" lon="-0.47772">
        <ele>139</ele>
        <time>2012-03-18T10:26:29Z</time>
      </trkpt>
      <trkpt lat="49.13874" lon="-0.47776">
        <ele>138</ele>
        <time>2012-03-18T10:26:35Z</time>
      </trkpt>
      <trkpt lat="49.13866" lon="-0.4778">
        <ele>139</ele>
        <time>2012-03-18T10:26:40Z</time>
      </trkpt>
      <trkpt lat="49.13861" lon="-0.4778">
        <ele>140</ele>
        <time>2012-03-18T10:26:42Z</time>
      </trkpt>
      <trkpt lat="49.13857" lon="-0.47783">
        <ele>141</ele>
        <time>2012-03-18T10:26:47Z</time>
      </trkpt>
      <trkpt lat="49.1385" lon="-0.47788">
        <ele>142</ele>
        <time>2012-03-18T10:26:51Z</time>
      </trkpt>
      <trkpt lat="49.13844" lon="-0.47792">
        <ele>140</ele>
        <time>2012-03-18T10:26:54Z</time>
      </trkpt>
      <trkpt lat="49.1384" lon="-0.47794">
        <ele>140</ele>
        <time>2012-03-18T10:26:57Z</time>
      </trkpt>
      <trkpt lat="49.13835" lon="-0.47796">
        <ele>139</ele>
        <time>2012-03-18T10:27:00Z</time>
      </trkpt>
      <trkpt lat="49.1383" lon="-0.478">
        <ele>138</ele>
        <time>2012-03-18T10:27:05Z</time>
      </trkpt>
      <trkpt lat="49.13826" lon="-0.47805">
        <ele>138</ele>
        <time>2012-03-18T10:27:09Z</time>
      </trkpt>
      <trkpt lat="49.13826" lon="-0.47805">
        <ele>138</ele>
        <time>2012-03-18T10:27:09Z</time>
      </trkpt>
      <trkpt lat="49.13826" lon="-0.47805">
        <ele>138</ele>
        <time>2012-03-18T10:27:10Z</time>
      </trkpt>
      <trkpt lat="49.1382" lon="-0.47807">
        <ele>136</ele>
        <time>2012-03-18T10:27:18Z</time>
      </trkpt>
      <trkpt lat="49.13816" lon="-0.4781">
        <ele>135</ele>
        <time>2012-03-18T10:27:23Z</time>
      </trkpt>
      <trkpt lat="49.13812" lon="-0.47813">
        <ele>136</ele>
        <time>2012-03-18T10:27:26Z</time>
      </trkpt>
      <trkpt lat="49.13807" lon="-0.47815">
        <ele>139</ele>
        <time>2012-03-18T10:27:29Z</time>
      </trkpt>
      <trkpt lat="49.138" lon="-0.47818">
        <ele>139</ele>
        <time>2012-03-18T10:27:32Z</time>
      </trkpt>
      <trkpt lat="49.13796" lon="-0.4782">
        <ele>138</ele>
        <time>2012-03-18T10:27:35Z</time>
      </trkpt>
      <trkpt lat="49.13791" lon="-0.47825">
        <ele>136</ele>
        <time>2012-03-18T10:27:39Z</time>
      </trkpt>
      <trkpt lat="49.13786" lon="-0.4783">
        <ele>136</ele>
        <time>2012-03-18T10:27:47Z</time>
      </trkpt>
      <trkpt lat="49.13782" lon="-0.47834">
        <ele>138</ele>
        <time>2012-03-18T10:27:57Z</time>
      </trkpt>
      <trkpt lat="49.13777" lon="-0.47835">
        <ele>140</ele>
        <time>2012-03-18T10:28:05Z</time>
      </trkpt>
      <trkpt lat="49.13772" lon="-0.47838">
        <ele>140</ele>
        <time>2012-03-18T10:28:12Z</time>
      </trkpt>
      <trkpt lat="49.13772" lon="-0.47838">
        <ele>140</ele>
        <time>2012-03-18T10:28:12Z</time>
      </trkpt>
      <trkpt lat="49.13772" lon="-0.47838">
        <ele>140</ele>
        <time>2012-03-18T10:28:13Z</time>
      </trkpt>
      <trkpt lat="49.13767" lon="-0.47839">
        <ele>135</ele>
        <time>2012-03-18T10:28:16Z</time>
      </trkpt>
      <trkpt lat="49.1376" lon="-0.47842">
        <ele>136</ele>
        <time>2012-03-18T10:28:19Z</time>
      </trkpt>
      <trkpt lat="49.13756" lon="-0.47845">
        <ele>136</ele>
        <time>2012-03-18T10:28:21Z</time>
      </trkpt>
      <trkpt lat="49.1375" lon="-0.47848">
        <ele>135</ele>
        <time>2012-03-18T10:28:23Z</time>
      </trkpt>
      <trkpt lat="49.13743" lon="-0.47852">
        <ele>135</ele>
        <time>2012-03-18T10:28:26Z</time>
      </trkpt>
      <trkpt lat="49.13738" lon="-0.47855">
        <ele>135</ele>
        <time>2012-03-18T10:28:29Z</time>
      </trkpt>
      <trkpt lat="49.13733" lon="-0.47858">
        <ele>136</ele>
        <time>2012-03-18T10:28:34Z</time>
      </trkpt>
      <trkpt lat="49.13733" lon="-0.47858">
        <ele>136</ele>
        <time>2012-03-18T10:28:34Z</time>
      </trkpt>
      <trkpt lat="49.13733" lon="-0.47858">
        <ele>136</ele>
        <time>2012-03-18T10:28:35Z</time>
      </trkpt>
      <trkpt lat="49.13728" lon="-0.4786">
        <ele>136</ele>
        <time>2012-03-18T10:28:37Z</time>
      </trkpt>
      <trkpt lat="49.13723" lon="-0.47863">
        <ele>136</ele>
        <time>2012-03-18T10:28:44Z</time>
      </trkpt>
      <trkpt lat="49.13718" lon="-0.47866">
        <ele>135</ele>
        <time>2012-03-18T10:28:49Z</time>
      </trkpt>
      <trkpt lat="49.13713" lon="-0.4787">
        <ele>135</ele>
        <time>2012-03-18T10:28:53Z</time>
      </trkpt>
      <trkpt lat="49.13708" lon="-0.47875">
        <ele>135</ele>
        <time>2012-03-18T10:28:57Z</time>
      </trkpt>
      <trkpt lat="49.13702" lon="-0.47878">
        <ele>134</ele>
        <time>2012-03-18T10:29:03Z</time>
      </trkpt>
      <trkpt lat="49.13697" lon="-0.47881">
        <ele>134</ele>
        <time>2012-03-18T10:29:08Z</time>
      </trkpt>
      <trkpt lat="49.13693" lon="-0.47884">
        <ele>129</ele>
        <time>2012-03-18T10:29:14Z</time>
      </trkpt>
      <trkpt lat="49.13688" lon="-0.47886">
        <ele>127</ele>
        <time>2012-03-18T10:29:20Z</time>
      </trkpt>
      <trkpt lat="49.13682" lon="-0.47889">
        <ele>128</ele>
        <time>2012-03-18T10:29:25Z</time>
      </trkpt>
      <trkpt lat="49.13678" lon="-0.47892">
        <ele>131</ele>
        <time>2012-03-18T10:29:30Z</time>
      </trkpt>
      <trkpt lat="49.13674" lon="-0.47896">
        <ele>131</ele>
        <time>2012-03-18T10:29:34Z</time>
      </trkpt>
      <trkpt lat="49.1367" lon="-0.479">
        <ele>133</ele>
        <time>2012-03-18T10:29:39Z</time>
      </trkpt>
      <trkpt lat="49.1367" lon="-0.479">
        <ele>133</ele>
        <time>2012-03-18T10:29:39Z</time>
      </trkpt>
      <trkpt lat="49.1367" lon="-0.479">
        <ele>133</ele>
        <time>2012-03-18T10:29:40Z</time>
      </trkpt>
      <trkpt lat="49.13664" lon="-0.47904">
        <ele>132</ele>
        <time>2012-03-18T10:29:42Z</time>
      </trkpt>
      <trkpt lat="49.13659" lon="-0.47908">
        <ele>133</ele>
        <time>2012-03-18T10:29:44Z</time>
      </trkpt>
      <trkpt lat="49.13655" lon="-0.47913">
        <ele>133</ele>
        <time>2012-03-18T10:29:47Z</time>
      </trkpt>
      <trkpt lat="49.1365" lon="-0.47918">
        <ele>133</ele>
        <time>2012-03-18T10:29:51Z</time>
      </trkpt>
      <trkpt lat="49.13645" lon="-0.47921">
        <ele>135</ele>
        <time>2012-03-18T10:29:53Z</time>
      </trkpt>
      <trkpt lat="49.1364" lon="-0.47923">
        <ele>136</ele>
        <time>2012-03-18T10:29:55Z</time>
      </trkpt>
      <trkpt lat="49.13634" lon="-0.47922">
        <ele>137</ele>
        <time>2012-03-18T10:29:58Z</time>
      </trkpt>
      <trkpt lat="49.1363" lon="-0.47927">
        <ele>139</ele>
        <time>2012-03-18T10:30:02Z</time>
      </trkpt>
      <trkpt lat="49.13624" lon="-0.47928">
        <ele>139</ele>
        <time>2012-03-18T10:30:05Z</time>
      </trkpt>
      <trkpt lat="49.1362" lon="-0.47929">
        <ele>140</ele>
        <time>2012-03-18T10:30:09Z</time>
      </trkpt>
      <trkpt lat="49.13616" lon="-0.47936">
        <ele>138</ele>
        <time>2012-03-18T10:30:14Z</time>
      </trkpt>
      <trkpt lat="49.13616" lon="-0.47936">
        <ele>138</ele>
        <time>2012-03-18T10:30:14Z</time>
      </trkpt>
      <trkpt lat="49.13616" lon="-0.47936">
        <ele>139</ele>
        <time>2012-03-18T10:30:15Z</time>
      </trkpt>
      <trkpt lat="49.13616" lon="-0.47945">
        <ele>140</ele>
        <time>2012-03-18T10:30:19Z</time>
      </trkpt>
      <trkpt lat="49.1362" lon="-0.47951">
        <ele>138</ele>
        <time>2012-03-18T10:30:22Z</time>
      </trkpt>
      <trkpt lat="49.13623" lon="-0.47955">
        <ele>136</ele>
        <time>2012-03-18T10:30:26Z</time>
      </trkpt>
      <trkpt lat="49.13628" lon="-0.47961">
        <ele>136</ele>
        <time>2012-03-18T10:30:30Z</time>
      </trkpt>
      <trkpt lat="49.13628" lon="-0.47969">
        <ele>135</ele>
        <time>2012-03-18T10:30:33Z</time>
      </trkpt>
      <trkpt lat="49.13637" lon="-0.47987">
        <ele>133</ele>
        <time>2012-03-18T10:30:46Z</time>
      </trkpt>
      <trkpt lat="49.13638" lon="-0.47994">
        <ele>133</ele>
        <time>2012-03-18T10:30:48Z</time>
      </trkpt>
      <trkpt lat="49.13641" lon="-0.48001">
        <ele>135</ele>
        <time>2012-03-18T10:30:52Z</time>
      </trkpt>
      <trkpt lat="49.13644" lon="-0.48006">
        <ele>134</ele>
        <time>2012-03-18T10:30:59Z</time>
      </trkpt>
      <trkpt lat="49.13646" lon="-0.48013">
        <ele>134</ele>
        <time>2012-03-18T10:31:02Z</time>
      </trkpt>
      <trkpt lat="49.13649" lon="-0.48019">
        <ele>134</ele>
        <time>2012-03-18T10:31:07Z</time>
      </trkpt>
      <trkpt lat="49.13651" lon="-0.48025">
        <ele>135</ele>
        <time>2012-03-18T10:31:11Z</time>
      </trkpt>
      <trkpt lat="49.13656" lon="-0.48031">
        <ele>134</ele>
        <time>2012-03-18T10:31:14Z</time>
      </trkpt>
      <trkpt lat="49.13658" lon="-0.48037">
        <ele>132</ele>
        <time>2012-03-18T10:31:19Z</time>
      </trkpt>
      <trkpt lat="49.13659" lon="-0.48045">
        <ele>134</ele>
        <time>2012-03-18T10:31:23Z</time>
      </trkpt>
      <trkpt lat="49.13666" lon="-0.48059">
        <ele>137</ele>
        <time>2012-03-18T10:31:32Z</time>
      </trkpt>
      <trkpt lat="49.13667" lon="-0.48068">
        <ele>138</ele>
        <time>2012-03-18T10:31:35Z</time>
      </trkpt>
      <trkpt lat="49.13672" lon="-0.48071">
        <ele>137</ele>
        <time>2012-03-18T10:31:40Z</time>
      </trkpt>
      <trkpt lat="49.1367" lon="-0.48078">
        <ele>133</ele>
        <time>2012-03-18T10:31:43Z</time>
      </trkpt>
      <trkpt lat="49.13669" lon="-0.48085">
        <ele>135</ele>
        <time>2012-03-18T10:31:47Z</time>
      </trkpt>
      <trkpt lat="49.13669" lon="-0.48085">
        <ele>135</ele>
        <time>2012-03-18T10:31:47Z</time>
      </trkpt>
      <trkpt lat="49.13669" lon="-0.48085">
        <ele>135</ele>
        <time>2012-03-18T10:31:48Z</time>
      </trkpt>
      <trkpt lat="49.13663" lon="-0.48083">
        <ele>135</ele>
        <time>2012-03-18T10:31:58Z</time>
      </trkpt>
      <trkpt lat="49.13658" lon="-0.48087">
        <ele>136</ele>
        <time>2012-03-18T10:32:01Z</time>
      </trkpt>
      <trkpt lat="49.13654" lon="-0.4809">
        <ele>135</ele>
        <time>2012-03-18T10:32:04Z</time>
      </trkpt>
      <trkpt lat="49.1365" lon="-0.48094">
        <ele>133</ele>
        <time>2012-03-18T10:32:08Z</time>
      </trkpt>
      <trkpt lat="49.13645" lon="-0.48099">
        <ele>132</ele>
        <time>2012-03-18T10:32:14Z</time>
      </trkpt>
      <trkpt lat="49.13641" lon="-0.48103">
        <ele>130</ele>
        <time>2012-03-18T10:32:17Z</time>
      </trkpt>
      <trkpt lat="49.13636" lon="-0.48106">
        <ele>130</ele>
        <time>2012-03-18T10:32:29Z</time>
      </trkpt>
      <trkpt lat="49.13636" lon="-0.48106">
        <ele>130</ele>
        <time>2012-03-18T10:32:29Z</time>
      </trkpt>
      <trkpt lat="49.13636" lon="-0.48106">
        <ele>130</ele>
        <time>2012-03-18T10:32:30Z</time>
      </trkpt>
      <trkpt lat="49.1363" lon="-0.48107">
        <ele>127</ele>
        <time>2012-03-18T10:32:36Z</time>
      </trkpt>
      <trkpt lat="49.13624" lon="-0.48105">
        <ele>127</ele>
        <time>2012-03-18T10:32:41Z</time>
      </trkpt>
      <trkpt lat="49.1362" lon="-0.48104">
        <ele>129</ele>
        <time>2012-03-18T10:32:49Z</time>
      </trkpt>
      <trkpt lat="49.13615" lon="-0.48105">
        <ele>128</ele>
        <time>2012-03-18T10:32:56Z</time>
      </trkpt>
      <trkpt lat="49.1361" lon="-0.48107">
        <ele>129</ele>
        <time>2012-03-18T10:33:02Z</time>
      </trkpt>
      <trkpt lat="49.1361" lon="-0.48114">
        <ele>127</ele>
        <time>2012-03-18T10:33:10Z</time>
      </trkpt>
      <trkpt lat="49.13609" lon="-0.48121">
        <ele>125</ele>
        <time>2012-03-18T10:33:14Z</time>
      </trkpt>
      <trkpt lat="49.13608" lon="-0.48132">
        <ele>124</ele>
        <time>2012-03-18T10:33:32Z</time>
      </trkpt>
      <trkpt lat="49.13608" lon="-0.4814">
        <ele>123</ele>
        <time>2012-03-18T10:33:34Z</time>
      </trkpt>
      <trkpt lat="49.13608" lon="-0.48147">
        <ele>123</ele>
        <time>2012-03-18T10:33:36Z</time>
      </trkpt>
      <trkpt lat="49.13609" lon="-0.48155">
        <ele>122</ele>
        <time>2012-03-18T10:33:42Z</time>
      </trkpt>
      <trkpt lat="49.13606" lon="-0.48161">
        <ele>120</ele>
        <time>2012-03-18T10:33:55Z</time>
      </trkpt>
      <trkpt lat="49.13606" lon="-0.48161">
        <ele>120</ele>
        <time>2012-03-18T10:33:55Z</time>
      </trkpt>
      <trkpt lat="49.13606" lon="-0.48161">
        <ele>120</ele>
        <time>2012-03-18T10:33:56Z</time>
      </trkpt>
      <trkpt lat="49.13601" lon="-0.48158">
        <ele>120</ele>
        <time>2012-03-18T10:34:02Z</time>
      </trkpt>
      <trkpt lat="49.13597" lon="-0.48165">
        <ele>116</ele>
        <time>2012-03-18T10:34:14Z</time>
      </trkpt>
      <trkpt lat="49.13593" lon="-0.4817">
        <ele>114</ele>
        <time>2012-03-18T10:34:18Z</time>
      </trkpt>
      <trkpt lat="49.13593" lon="-0.48177">
        <ele>110</ele>
        <time>2012-03-18T10:34:26Z</time>
      </trkpt>
      <trkpt lat="49.13592" lon="-0.48184">
        <ele>110</ele>
        <time>2012-03-18T10:34:32Z</time>
      </trkpt>
      <trkpt lat="49.13589" lon="-0.48188">
        <ele>109</ele>
        <time>2012-03-18T10:34:40Z</time>
      </trkpt>
      <trkpt lat="49.13588" lon="-0.48195">
        <ele>110</ele>
        <time>2012-03-18T10:34:49Z</time>
      </trkpt>
      <trkpt lat="49.13584" lon="-0.482">
        <ele>111</ele>
        <time>2012-03-18T10:34:57Z</time>
      </trkpt>
      <trkpt lat="49.13579" lon="-0.48201">
        <ele>110</ele>
        <time>2012-03-18T10:35:01Z</time>
      </trkpt>
      <trkpt lat="49.13575" lon="-0.48204">
        <ele>110</ele>
        <time>2012-03-18T10:35:11Z</time>
      </trkpt>
      <trkpt lat="49.13575" lon="-0.48204">
        <ele>110</ele>
        <time>2012-03-18T10:35:11Z</time>
      </trkpt>
      <trkpt lat="49.13575" lon="-0.48204">
        <ele>110</ele>
        <time>2012-03-18T10:35:12Z</time>
      </trkpt>
      <trkpt lat="49.1357" lon="-0.48208">
        <ele>107</ele>
        <time>2012-03-18T10:35:17Z</time>
      </trkpt>
      <trkpt lat="49.13566" lon="-0.48212">
        <ele>106</ele>
        <time>2012-03-18T10:35:24Z</time>
      </trkpt>
      <trkpt lat="49.13562" lon="-0.48216">
        <ele>107</ele>
        <time>2012-03-18T10:35:29Z</time>
      </trkpt>
      <trkpt lat="49.13559" lon="-0.48222">
        <ele>109</ele>
        <time>2012-03-18T10:35:39Z</time>
      </trkpt>
      <trkpt lat="49.13559" lon="-0.48222">
        <ele>109</ele>
        <time>2012-03-18T10:35:39Z</time>
      </trkpt>
      <trkpt lat="49.13559" lon="-0.48222">
        <ele>109</ele>
        <time>2012-03-18T10:35:40Z</time>
      </trkpt>
      <trkpt lat="49.13554" lon="-0.48223">
        <ele>113</ele>
        <time>2012-03-18T10:35:46Z</time>
      </trkpt>
      <trkpt lat="49.13549" lon="-0.48225">
        <ele>115</ele>
        <time>2012-03-18T10:35:49Z</time>
      </trkpt>
      <trkpt lat="49.13544" lon="-0.48227">
        <ele>116</ele>
        <time>2012-03-18T10:35:53Z</time>
      </trkpt>
      <trkpt lat="49.13541" lon="-0.48233">
        <ele>117</ele>
        <time>2012-03-18T10:35:57Z</time>
      </trkpt>
      <trkpt lat="49.13541" lon="-0.48233">
        <ele>117</ele>
        <time>2012-03-18T10:35:57Z</time>
      </trkpt>
      <trkpt lat="49.13541" lon="-0.48233">
        <ele>117</ele>
        <time>2012-03-18T10:35:58Z</time>
      </trkpt>
      <trkpt lat="49.13536" lon="-0.48236">
        <ele>121</ele>
        <time>2012-03-18T10:36:07Z</time>
      </trkpt>
      <trkpt lat="49.13531" lon="-0.4823">
        <ele>122</ele>
        <time>2012-03-18T10:36:15Z</time>
      </trkpt>
      <trkpt lat="49.13529" lon="-0.48237">
        <ele>123</ele>
        <time>2012-03-18T10:36:34Z</time>
      </trkpt>
      <trkpt lat="49.13526" lon="-0.48243">
        <ele>125</ele>
        <time>2012-03-18T10:36:44Z</time>
      </trkpt>
      <trkpt lat="49.13527" lon="-0.4825">
        <ele>124</ele>
        <time>2012-03-18T10:36:48Z</time>
      </trkpt>
      <trkpt lat="49.13524" lon="-0.48256">
        <ele>124</ele>
        <time>2012-03-18T10:36:54Z</time>
      </trkpt>
      <trkpt lat="49.13522" lon="-0.48264">
        <ele>123</ele>
        <time>2012-03-18T10:36:58Z</time>
      </trkpt>
      <trkpt lat="49.13518" lon="-0.4827">
        <ele>123</ele>
        <time>2012-03-18T10:37:05Z</time>
      </trkpt>
      <trkpt lat="49.13516" lon="-0.48276">
        <ele>123</ele>
        <time>2012-03-18T10:37:09Z</time>
      </trkpt>
      <trkpt lat="49.13514" lon="-0.48283">
        <ele>124</ele>
        <time>2012-03-18T10:37:12Z</time>
      </trkpt>
      <trkpt lat="49.13512" lon="-0.48292">
        <ele>124</ele>
        <time>2012-03-18T10:37:17Z</time>
      </trkpt>
      <trkpt lat="49.13511" lon="-0.48301">
        <ele>125</ele>
        <time>2012-03-18T10:37:20Z</time>
      </trkpt>
      <trkpt lat="49.13509" lon="-0.48309">
        <ele>121</ele>
        <time>2012-03-18T10:37:28Z</time>
      </trkpt>
      <trkpt lat="49.13509" lon="-0.48318">
        <ele>123</ele>
        <time>2012-03-18T10:37:32Z</time>
      </trkpt>
      <trkpt lat="49.13507" lon="-0.48332">
        <ele>125</ele>
        <time>2012-03-18T10:37:40Z</time>
      </trkpt>
      <trkpt lat="49.13505" lon="-0.4834">
        <ele>123</ele>
        <time>2012-03-18T10:37:46Z</time>
      </trkpt>
      <trkpt lat="49.13506" lon="-0.48347">
        <ele>123</ele>
        <time>2012-03-18T10:37:53Z</time>
      </trkpt>
      <trkpt lat="49.13507" lon="-0.48356">
        <ele>122</ele>
        <time>2012-03-18T10:37:56Z</time>
      </trkpt>
      <trkpt lat="49.13508" lon="-0.48364">
        <ele>124</ele>
        <time>2012-03-18T10:37:59Z</time>
      </trkpt>
      <trkpt lat="49.13509" lon="-0.48373">
        <ele>125</ele>
        <time>2012-03-18T10:38:10Z</time>
      </trkpt>
      <trkpt lat="49.1351" lon="-0.48382">
        <ele>125</ele>
        <time>2012-03-18T10:38:13Z</time>
      </trkpt>
      <trkpt lat="49.1351" lon="-0.4839">
        <ele>124</ele>
        <time>2012-03-18T10:38:17Z</time>
      </trkpt>
      <trkpt lat="49.1351" lon="-0.48397">
        <ele>123</ele>
        <time>2012-03-18T10:38:19Z</time>
      </trkpt>
      <trkpt lat="49.13514" lon="-0.48402">
        <ele>125</ele>
        <time>2012-03-18T10:38:23Z</time>
      </trkpt>
      <trkpt lat="49.1352" lon="-0.48403">
        <ele>124</ele>
        <time>2012-03-18T10:38:29Z</time>
      </trkpt>
      <trkpt lat="49.13525" lon="-0.48402">
        <ele>126</ele>
        <time>2012-03-18T10:38:34Z</time>
      </trkpt>
      <trkpt lat="49.1353" lon="-0.48403">
        <ele>126</ele>
        <time>2012-03-18T10:38:41Z</time>
      </trkpt>
      <trkpt lat="49.13532" lon="-0.48409">
        <ele>125</ele>
        <time>2012-03-18T10:39:00Z</time>
      </trkpt>
      <trkpt lat="49.13536" lon="-0.48409">
        <ele>127</ele>
        <time>2012-03-18T10:39:21Z</time>
      </trkpt>
      <trkpt lat="49.1354" lon="-0.48414">
        <ele>125</ele>
        <time>2012-03-18T10:39:31Z</time>
      </trkpt>
      <trkpt lat="49.13539" lon="-0.48421">
        <ele>121</ele>
        <time>2012-03-18T10:39:40Z</time>
      </trkpt>
      <trkpt lat="49.13534" lon="-0.48428">
        <ele>120</ele>
        <time>2012-03-18T10:40:01Z</time>
      </trkpt>
      <trkpt lat="49.13528" lon="-0.4843">
        <ele>120</ele>
        <time>2012-03-18T10:40:04Z</time>
      </trkpt>
      <trkpt lat="49.13524" lon="-0.48434">
        <ele>120</ele>
        <time>2012-03-18T10:40:10Z</time>
      </trkpt>
      <trkpt lat="49.1352" lon="-0.4844">
        <ele>119</ele>
        <time>2012-03-18T10:40:15Z</time>
      </trkpt>
      <trkpt lat="49.13517" lon="-0.48445">
        <ele>120</ele>
        <time>2012-03-18T10:40:22Z</time>
      </trkpt>
      <trkpt lat="49.13517" lon="-0.48445">
        <ele>120</ele>
        <time>2012-03-18T10:40:22Z</time>
      </trkpt>
      <trkpt lat="49.13517" lon="-0.48445">
        <ele>120</ele>
        <time>2012-03-18T10:40:23Z</time>
      </trkpt>
      <trkpt lat="49.13513" lon="-0.4845">
        <ele>120</ele>
        <time>2012-03-18T10:40:26Z</time>
      </trkpt>
      <trkpt lat="49.13508" lon="-0.48453">
        <ele>119</ele>
        <time>2012-03-18T10:40:28Z</time>
      </trkpt>
      <trkpt lat="49.13504" lon="-0.48456">
        <ele>115</ele>
        <time>2012-03-18T10:40:31Z</time>
      </trkpt>
      <trkpt lat="49.13501" lon="-0.4846">
        <ele>116</ele>
        <time>2012-03-18T10:40:33Z</time>
      </trkpt>
      <trkpt lat="49.13496" lon="-0.48462">
        <ele>117</ele>
        <time>2012-03-18T10:40:36Z</time>
      </trkpt>
      <trkpt lat="49.1349" lon="-0.48465">
        <ele>117</ele>
        <time>2012-03-18T10:40:40Z</time>
      </trkpt>
      <trkpt lat="49.13483" lon="-0.48468">
        <ele>114</ele>
        <time>2012-03-18T10:40:44Z</time>
      </trkpt>
      <trkpt lat="49.13478" lon="-0.48468">
        <ele>113</ele>
        <time>2012-03-18T10:40:47Z</time>
      </trkpt>
      <trkpt lat="49.13473" lon="-0.48469">
        <ele>111</ele>
        <time>2012-03-18T10:40:51Z</time>
      </trkpt>
      <trkpt lat="49.13468" lon="-0.48472">
        <ele>112</ele>
        <time>2012-03-18T10:40:55Z</time>
      </trkpt>
      <trkpt lat="49.13463" lon="-0.48473">
        <ele>113</ele>
        <time>2012-03-18T10:40:58Z</time>
      </trkpt>
      <trkpt lat="49.13459" lon="-0.48469">
        <ele>113</ele>
        <time>2012-03-18T10:41:02Z</time>
      </trkpt>
      <trkpt lat="49.13453" lon="-0.48467">
        <ele>114</ele>
        <time>2012-03-18T10:41:07Z</time>
      </trkpt>
      <trkpt lat="49.13448" lon="-0.48464">
        <ele>114</ele>
        <time>2012-03-18T10:41:12Z</time>
      </trkpt>
      <trkpt lat="49.13443" lon="-0.48463">
        <ele>114</ele>
        <time>2012-03-18T10:41:17Z</time>
      </trkpt>
      <trkpt lat="49.13438" lon="-0.4846">
        <ele>114</ele>
        <time>2012-03-18T10:41:24Z</time>
      </trkpt>
      <trkpt lat="49.13432" lon="-0.48457">
        <ele>112</ele>
        <time>2012-03-18T10:41:34Z</time>
      </trkpt>
      <trkpt lat="49.13428" lon="-0.48454">
        <ele>112</ele>
        <time>2012-03-18T10:41:37Z</time>
      </trkpt>
      <trkpt lat="49.13422" lon="-0.48452">
        <ele>111</ele>
        <time>2012-03-18T10:41:41Z</time>
      </trkpt>
      <trkpt lat="49.13416" lon="-0.4845">
        <ele>111</ele>
        <time>2012-03-18T10:41:45Z</time>
      </trkpt>
      <trkpt lat="49.1341" lon="-0.48446">
        <ele>112</ele>
        <time>2012-03-18T10:41:49Z</time>
      </trkpt>
      <trkpt lat="49.13405" lon="-0.48444">
        <ele>111</ele>
        <time>2012-03-18T10:41:52Z</time>
      </trkpt>
      <trkpt lat="49.134" lon="-0.48443">
        <ele>110</ele>
        <time>2012-03-18T10:41:55Z</time>
      </trkpt>
      <trkpt lat="49.13395" lon="-0.4844">
        <ele>110</ele>
        <time>2012-03-18T10:42:00Z</time>
      </trkpt>
      <trkpt lat="49.13391" lon="-0.4844">
        <ele>111</ele>
        <time>2012-03-18T10:42:05Z</time>
      </trkpt>
      <trkpt lat="49.13386" lon="-0.48438">
        <ele>113</ele>
        <time>2012-03-18T10:42:10Z</time>
      </trkpt>
      <trkpt lat="49.1338" lon="-0.48436">
        <ele>111</ele>
        <time>2012-03-18T10:42:17Z</time>
      </trkpt>
      <trkpt lat="49.13376" lon="-0.48438">
        <ele>109</ele>
        <time>2012-03-18T10:42:23Z</time>
      </trkpt>
      <trkpt lat="49.13369" lon="-0.48439">
        <ele>107</ele>
        <time>2012-03-18T10:42:26Z</time>
      </trkpt>
      <trkpt lat="49.13364" lon="-0.4844">
        <ele>106</ele>
        <time>2012-03-18T10:42:28Z</time>
      </trkpt>
      <trkpt lat="49.1336" lon="-0.48444">
        <ele>106</ele>
        <time>2012-03-18T10:42:33Z</time>
      </trkpt>
      <trkpt lat="49.1336" lon="-0.48451">
        <ele>103</ele>
        <time>2012-03-18T10:42:39Z</time>
      </trkpt>
      <trkpt lat="49.13358" lon="-0.48459">
        <ele>102</ele>
        <time>2012-03-18T10:42:42Z</time>
      </trkpt>
      <trkpt lat="49.13355" lon="-0.48466">
        <ele>102</ele>
        <time>2012-03-18T10:42:46Z</time>
      </trkpt>
      <trkpt lat="49.13354" lon="-0.48472">
        <ele>103</ele>
        <time>2012-03-18T10:42:50Z</time>
      </trkpt>
      <trkpt lat="49.13354" lon="-0.48472">
        <ele>103</ele>
        <time>2012-03-18T10:42:50Z</time>
      </trkpt>
      <trkpt lat="49.13354" lon="-0.48472">
        <ele>102</ele>
        <time>2012-03-18T10:42:51Z</time>
      </trkpt>
      <trkpt lat="49.13349" lon="-0.48477">
        <ele>100</ele>
        <time>2012-03-18T10:43:14Z</time>
      </trkpt>
      <trkpt lat="49.13346" lon="-0.48482">
        <ele>99</ele>
        <time>2012-03-18T10:43:20Z</time>
      </trkpt>
      <trkpt lat="49.13343" lon="-0.48487">
        <ele>99</ele>
        <time>2012-03-18T10:43:24Z</time>
      </trkpt>
      <trkpt lat="49.13338" lon="-0.48495">
        <ele>98</ele>
        <time>2012-03-18T10:43:28Z</time>
      </trkpt>
      <trkpt lat="49.13334" lon="-0.48504">
        <ele>100</ele>
        <time>2012-03-18T10:43:30Z</time>
      </trkpt>
      <trkpt lat="49.13331" lon="-0.48511">
        <ele>100</ele>
        <time>2012-03-18T10:43:32Z</time>
      </trkpt>
      <trkpt lat="49.13328" lon="-0.48517">
        <ele>102</ele>
        <time>2012-03-18T10:43:35Z</time>
      </trkpt>
      <trkpt lat="49.1333" lon="-0.48524">
        <ele>103</ele>
        <time>2012-03-18T10:43:43Z</time>
      </trkpt>
      <trkpt lat="49.13332" lon="-0.48532">
        <ele>103</ele>
        <time>2012-03-18T10:43:49Z</time>
      </trkpt>
      <trkpt lat="49.13332" lon="-0.48542">
        <ele>103</ele>
        <time>2012-03-18T10:43:54Z</time>
      </trkpt>
      <trkpt lat="49.13334" lon="-0.48548">
        <ele>104</ele>
        <time>2012-03-18T10:44:00Z</time>
      </trkpt>
      <trkpt lat="49.13337" lon="-0.48553">
        <ele>107</ele>
        <time>2012-03-18T10:44:06Z</time>
      </trkpt>
      <trkpt lat="49.1334" lon="-0.4856">
        <ele>107</ele>
        <time>2012-03-18T10:44:10Z</time>
      </trkpt>
      <trkpt lat="49.13342" lon="-0.48566">
        <ele>105</ele>
        <time>2012-03-18T10:44:15Z</time>
      </trkpt>
      <trkpt lat="49.13344" lon="-0.48573">
        <ele>107</ele>
        <time>2012-03-18T10:44:24Z</time>
      </trkpt>
      <trkpt lat="49.13347" lon="-0.4858">
        <ele>107</ele>
        <time>2012-03-18T10:44:28Z</time>
      </trkpt>
      <trkpt lat="49.13349" lon="-0.48588">
        <ele>108</ele>
        <time>2012-03-18T10:44:32Z</time>
      </trkpt>
      <trkpt lat="49.13349" lon="-0.48595">
        <ele>108</ele>
        <time>2012-03-18T10:44:35Z</time>
      </trkpt>
      <trkpt lat="49.1335" lon="-0.48602">
        <ele>107</ele>
        <time>2012-03-18T10:44:39Z</time>
      </trkpt>
      <trkpt lat="49.13386" lon="-0.49264">
        <ele>88</ele>
        <time>2012-03-18T10:52:01Z</time>
      </trkpt>
      <trkpt lat="49.13391" lon="-0.4927">
        <ele>86</ele>
        <time>2012-03-18T10:52:05Z</time>
      </trkpt>
      <trkpt lat="49.13391" lon="-0.49278">
        <ele>85</ele>
        <time>2012-03-18T10:52:09Z</time>
      </trkpt>
      <trkpt lat="49.13392" lon="-0.49285">
        <ele>86</ele>
        <time>2012-03-18T10:52:14Z</time>
      </trkpt>
      <trkpt lat="49.13394" lon="-0.49292">
        <ele>89</ele>
        <time>2012-03-18T10:52:19Z</time>
      </trkpt>
      <trkpt lat="49.13395" lon="-0.49302">
        <ele>90</ele>
        <time>2012-03-18T10:52:24Z</time>
      </trkpt>
      <trkpt lat="49.13392" lon="-0.49308">
        <ele>89</ele>
        <time>2012-03-18T10:52:32Z</time>
      </trkpt>
      <trkpt lat="49.13392" lon="-0.49308">
        <ele>89</ele>
        <time>2012-03-18T10:52:32Z</time>
      </trkpt>
      <trkpt lat="49.13392" lon="-0.49308">
        <ele>89</ele>
        <time>2012-03-18T10:52:33Z</time>
      </trkpt>
      <trkpt lat="49.13391" lon="-0.49315">
        <ele>88</ele>
        <time>2012-03-18T10:52:38Z</time>
      </trkpt>
      <trkpt lat="49.13391" lon="-0.49315">
        <ele>88</ele>
        <time>2012-03-18T10:52:38Z</time>
      </trkpt>
      <trkpt lat="49.13391" lon="-0.49315">
        <ele>88</ele>
        <time>2012-03-18T10:52:39Z</time>
      </trkpt>
      <trkpt lat="49.13387" lon="-0.49322">
        <ele>87</ele>
        <time>2012-03-18T10:52:41Z</time>
      </trkpt>
      <trkpt lat="49.13385" lon="-0.49329">
        <ele>87</ele>
        <time>2012-03-18T10:52:47Z</time>
      </trkpt>
      <trkpt lat="49.13382" lon="-0.49335">
        <ele>86</ele>
        <time>2012-03-18T10:52:53Z</time>
      </trkpt>
      <trkpt lat="49.13382" lon="-0.49335">
        <ele>86</ele>
        <time>2012-03-18T10:52:53Z</time>
      </trkpt>
      <trkpt lat="49.13382" lon="-0.49335">
        <ele>86</ele>
        <time>2012-03-18T10:52:54Z</time>
      </trkpt>
      <trkpt lat="49.13379" lon="-0.49346">
        <ele>86</ele>
        <time>2012-03-18T10:53:00Z</time>
      </trkpt>
      <trkpt lat="49.13379" lon="-0.49346">
        <ele>86</ele>
        <time>2012-03-18T10:53:00Z</time>
      </trkpt>
      <trkpt lat="49.13379" lon="-0.49346">
        <ele>86</ele>
        <time>2012-03-18T10:53:01Z</time>
      </trkpt>
      <trkpt lat="49.13377" lon="-0.49354">
        <ele>87</ele>
        <time>2012-03-18T10:53:05Z</time>
      </trkpt>
      <trkpt lat="49.13374" lon="-0.49362">
        <ele>86</ele>
        <time>2012-03-18T10:53:07Z</time>
      </trkpt>
      <trkpt lat="49.13371" lon="-0.49369">
        <ele>85</ele>
        <time>2012-03-18T10:53:09Z</time>
      </trkpt>
      <trkpt lat="49.13369" lon="-0.49376">
        <ele>87</ele>
        <time>2012-03-18T10:53:13Z</time>
      </trkpt>
      <trkpt lat="49.13368" lon="-0.49383">
        <ele>86</ele>
        <time>2012-03-18T10:53:20Z</time>
      </trkpt>
      <trkpt lat="49.13365" lon="-0.4939">
        <ele>87</ele>
        <time>2012-03-18T10:53:23Z</time>
      </trkpt>
      <trkpt lat="49.13364" lon="-0.49397">
        <ele>87</ele>
        <time>2012-03-18T10:53:26Z</time>
      </trkpt>
      <trkpt lat="49.13361" lon="-0.49402">
        <ele>89</ele>
        <time>2012-03-18T10:53:29Z</time>
      </trkpt>
      <trkpt lat="49.1336" lon="-0.4941">
        <ele>89</ele>
        <time>2012-03-18T10:53:32Z</time>
      </trkpt>
      <trkpt lat="49.1336" lon="-0.49419">
        <ele>88</ele>
        <time>2012-03-18T10:53:36Z</time>
      </trkpt>
      <trkpt lat="49.13362" lon="-0.49426">
        <ele>88</ele>
        <time>2012-03-18T10:53:43Z</time>
      </trkpt>
      <trkpt lat="49.13359" lon="-0.49434">
        <ele>90</ele>
        <time>2012-03-18T10:53:49Z</time>
      </trkpt>
      <trkpt lat="49.13363" lon="-0.4944">
        <ele>89</ele>
        <time>2012-03-18T10:53:51Z</time>
      </trkpt>
      <trkpt lat="49.13369" lon="-0.49443">
        <ele>88</ele>
        <time>2012-03-18T10:53:54Z</time>
      </trkpt>
      <trkpt lat="49.13374" lon="-0.49445">
        <ele>90</ele>
        <time>2012-03-18T10:53:59Z</time>
      </trkpt>
      <trkpt lat="49.13379" lon="-0.49446">
        <ele>89</ele>
        <time>2012-03-18T10:54:03Z</time>
      </trkpt>
      <trkpt lat="49.13385" lon="-0.49449">
        <ele>89</ele>
        <time>2012-03-18T10:54:09Z</time>
      </trkpt>
      <trkpt lat="49.1339" lon="-0.4945">
        <ele>90</ele>
        <time>2012-03-18T10:54:12Z</time>
      </trkpt>
      <trkpt lat="49.13393" lon="-0.49456">
        <ele>88</ele>
        <time>2012-03-18T10:54:17Z</time>
      </trkpt>
      <trkpt lat="49.13398" lon="-0.49459">
        <ele>86</ele>
        <time>2012-03-18T10:54:22Z</time>
      </trkpt>
      <trkpt lat="49.13402" lon="-0.49465">
        <ele>87</ele>
        <time>2012-03-18T10:54:29Z</time>
      </trkpt>
      <trkpt lat="49.13404" lon="-0.49472">
        <ele>85</ele>
        <time>2012-03-18T10:54:32Z</time>
      </trkpt>
      <trkpt lat="49.13407" lon="-0.49479">
        <ele>84</ele>
        <time>2012-03-18T10:54:36Z</time>
      </trkpt>
      <trkpt lat="49.13407" lon="-0.49489">
        <ele>85</ele>
        <time>2012-03-18T10:54:41Z</time>
      </trkpt>
      <trkpt lat="49.13406" lon="-0.49497">
        <ele>84</ele>
        <time>2012-03-18T10:54:44Z</time>
      </trkpt>
      <trkpt lat="49.13408" lon="-0.49506">
        <ele>87</ele>
        <time>2012-03-18T10:54:51Z</time>
      </trkpt>
      <trkpt lat="49.13407" lon="-0.49514">
        <ele>86</ele>
        <time>2012-03-18T10:54:54Z</time>
      </trkpt>
      <trkpt lat="49.13404" lon="-0.49532">
        <ele>89</ele>
        <time>2012-03-18T10:55:05Z</time>
      </trkpt>
      <trkpt lat="49.13408" lon="-0.49536">
        <ele>93</ele>
        <time>2012-03-18T10:55:12Z</time>
      </trkpt>
      <trkpt lat="49.13407" lon="-0.49543">
        <ele>92</ele>
        <time>2012-03-18T10:55:16Z</time>
      </trkpt>
      <trkpt lat="49.13408" lon="-0.49552">
        <ele>93</ele>
        <time>2012-03-18T10:55:20Z</time>
      </trkpt>
      <trkpt lat="49.13408" lon="-0.49559">
        <ele>91</ele>
        <time>2012-03-18T10:55:26Z</time>
      </trkpt>
      <trkpt lat="49.13413" lon="-0.49565">
        <ele>93</ele>
        <time>2012-03-18T10:55:30Z</time>
      </trkpt>
      <trkpt lat="49.13417" lon="-0.49569">
        <ele>98</ele>
        <time>2012-03-18T10:55:34Z</time>
      </trkpt>
      <trkpt lat="49.13418" lon="-0.49578">
        <ele>100</ele>
        <time>2012-03-18T10:55:41Z</time>
      </trkpt>
      <trkpt lat="49.1342" lon="-0.49584">
        <ele>99</ele>
        <time>2012-03-18T10:55:46Z</time>
      </trkpt>
      <trkpt lat="49.1342" lon="-0.49591">
        <ele>98</ele>
        <time>2012-03-18T10:55:50Z</time>
      </trkpt>
      <trkpt lat="49.13421" lon="-0.49598">
        <ele>97</ele>
        <time>2012-03-18T10:55:56Z</time>
      </trkpt>
      <trkpt lat="49.13426" lon="-0.496">
        <ele>97</ele>
        <time>2012-03-18T10:56:01Z</time>
      </trkpt>
      <trkpt lat="49.13428" lon="-0.49607">
        <ele>96</ele>
        <time>2012-03-18T10:56:07Z</time>
      </trkpt>
      <trkpt lat="49.13426" lon="-0.49616">
        <ele>97</ele>
        <time>2012-03-18T10:56:12Z</time>
      </trkpt>
      <trkpt lat="49.13424" lon="-0.49622">
        <ele>98</ele>
        <time>2012-03-18T10:56:15Z</time>
      </trkpt>
      <trkpt lat="49.13424" lon="-0.49629">
        <ele>98</ele>
        <time>2012-03-18T10:56:19Z</time>
      </trkpt>
      <trkpt lat="49.13423" lon="-0.49636">
        <ele>99</ele>
        <time>2012-03-18T10:56:23Z</time>
      </trkpt>
      <trkpt lat="49.13426" lon="-0.49643">
        <ele>98</ele>
        <time>2012-03-18T10:56:30Z</time>
      </trkpt>
      <trkpt lat="49.13425" lon="-0.49661">
        <ele>102</ele>
        <time>2012-03-18T10:56:38Z</time>
      </trkpt>
      <trkpt lat="49.13426" lon="-0.49669">
        <ele>103</ele>
        <time>2012-03-18T10:56:42Z</time>
      </trkpt>
      <trkpt lat="49.13425" lon="-0.49676">
        <ele>103</ele>
        <time>2012-03-18T10:56:47Z</time>
      </trkpt>
      <trkpt lat="49.13423" lon="-0.49682">
        <ele>102</ele>
        <time>2012-03-18T10:56:54Z</time>
      </trkpt>
      <trkpt lat="49.13426" lon="-0.49689">
        <ele>105</ele>
        <time>2012-03-18T10:56:57Z</time>
      </trkpt>
      <trkpt lat="49.13427" lon="-0.49696">
        <ele>107</ele>
        <time>2012-03-18T10:57:05Z</time>
      </trkpt>
      <trkpt lat="49.13427" lon="-0.49704">
        <ele>107</ele>
        <time>2012-03-18T10:57:09Z</time>
      </trkpt>
      <trkpt lat="49.13429" lon="-0.49712">
        <ele>109</ele>
        <time>2012-03-18T10:57:18Z</time>
      </trkpt>
      <trkpt lat="49.13426" lon="-0.49717">
        <ele>109</ele>
        <time>2012-03-18T10:57:29Z</time>
      </trkpt>
      <trkpt lat="49.13426" lon="-0.49725">
        <ele>109</ele>
        <time>2012-03-18T10:57:33Z</time>
      </trkpt>
      <trkpt lat="49.13427" lon="-0.49733">
        <ele>110</ele>
        <time>2012-03-18T10:57:38Z</time>
      </trkpt>
      <trkpt lat="49.13428" lon="-0.49742">
        <ele>111</ele>
        <time>2012-03-18T10:57:43Z</time>
      </trkpt>
      <trkpt lat="49.13429" lon="-0.4975">
        <ele>112</ele>
        <time>2012-03-18T10:57:48Z</time>
      </trkpt>
      <trkpt lat="49.13431" lon="-0.49756">
        <ele>113</ele>
        <time>2012-03-18T10:57:54Z</time>
      </trkpt>
      <trkpt lat="49.13435" lon="-0.49765">
        <ele>112</ele>
        <time>2012-03-18T10:57:59Z</time>
      </trkpt>
      <trkpt lat="49.13436" lon="-0.49772">
        <ele>113</ele>
        <time>2012-03-18T10:58:04Z</time>
      </trkpt>
      <trkpt lat="49.13437" lon="-0.49782">
        <ele>114</ele>
        <time>2012-03-18T10:58:10Z</time>
      </trkpt>
      <trkpt lat="49.13438" lon="-0.49789">
        <ele>114</ele>
        <time>2012-03-18T10:58:13Z</time>
      </trkpt>
      <trkpt lat="49.13438" lon="-0.49797">
        <ele>115</ele>
        <time>2012-03-18T10:58:16Z</time>
      </trkpt>
      <trkpt lat="49.13439" lon="-0.49804">
        <ele>115</ele>
        <time>2012-03-18T10:58:21Z</time>
      </trkpt>
      <trkpt lat="49.13442" lon="-0.49811">
        <ele>115</ele>
        <time>2012-03-18T10:58:26Z</time>
      </trkpt>
      <trkpt lat="49.13442" lon="-0.49818">
        <ele>114</ele>
        <time>2012-03-18T10:58:31Z</time>
      </trkpt>
      <trkpt lat="49.13441" lon="-0.49826">
        <ele>115</ele>
        <time>2012-03-18T10:59:19Z</time>
      </trkpt>
      <trkpt lat="49.13442" lon="-0.49833">
        <ele>116</ele>
        <time>2012-03-18T10:59:23Z</time>
      </trkpt>
      <trkpt lat="49.13443" lon="-0.49841">
        <ele>117</ele>
        <time>2012-03-18T10:59:28Z</time>
      </trkpt>
      <trkpt lat="49.13444" lon="-0.49848">
        <ele>117</ele>
        <time>2012-03-18T10:59:32Z</time>
      </trkpt>
      <trkpt lat="49.13445" lon="-0.49855">
        <ele>117</ele>
        <time>2012-03-18T10:59:36Z</time>
      </trkpt>
      <trkpt lat="49.13446" lon="-0.49863">
        <ele>117</ele>
        <time>2012-03-18T10:59:40Z</time>
      </trkpt>
      <trkpt lat="49.13446" lon="-0.49871">
        <ele>116</ele>
        <time>2012-03-18T10:59:44Z</time>
      </trkpt>
      <trkpt lat="49.13448" lon="-0.49878">
        <ele>116</ele>
        <time>2012-03-18T10:59:48Z</time>
      </trkpt>
      <trkpt lat="49.13449" lon="-0.49885">
        <ele>118</ele>
        <time>2012-03-18T11:00:28Z</time>
      </trkpt>
      <trkpt lat="49.13448" lon="-0.49892">
        <ele>118</ele>
        <time>2012-03-18T11:01:10Z</time>
      </trkpt>
      <trkpt lat="49.13445" lon="-0.49899">
        <ele>118</ele>
        <time>2012-03-18T11:01:18Z</time>
      </trkpt>
      <trkpt lat="49.13442" lon="-0.49904">
        <ele>118</ele>
        <time>2012-03-18T11:01:22Z</time>
      </trkpt>
      <trkpt lat="49.13439" lon="-0.49908">
        <ele>117</ele>
        <time>2012-03-18T11:01:25Z</time>
      </trkpt>
      <trkpt lat="49.13436" lon="-0.49915">
        <ele>116</ele>
        <time>2012-03-18T11:01:29Z</time>
      </trkpt>
      <trkpt lat="49.13434" lon="-0.49921">
        <ele>116</ele>
        <time>2012-03-18T11:01:33Z</time>
      </trkpt>
      <trkpt lat="49.1343" lon="-0.49928">
        <ele>115</ele>
        <time>2012-03-18T11:01:38Z</time>
      </trkpt>
      <trkpt lat="49.13427" lon="-0.49934">
        <ele>114</ele>
        <time>2012-03-18T11:01:42Z</time>
      </trkpt>
      <trkpt lat="49.13423" lon="-0.49938">
        <ele>115</ele>
        <time>2012-03-18T11:01:46Z</time>
      </trkpt>
      <trkpt lat="49.1342" lon="-0.49944">
        <ele>114</ele>
        <time>2012-03-18T11:01:51Z</time>
      </trkpt>
      <trkpt lat="49.13417" lon="-0.4995">
        <ele>114</ele>
        <time>2012-03-18T11:01:55Z</time>
      </trkpt>
      <trkpt lat="49.13414" lon="-0.49956">
        <ele>115</ele>
        <time>2012-03-18T11:01:59Z</time>
      </trkpt>
      <trkpt lat="49.1341" lon="-0.49962">
        <ele>115</ele>
        <time>2012-03-18T11:02:03Z</time>
      </trkpt>
      <trkpt lat="49.13406" lon="-0.49967">
        <ele>115</ele>
        <time>2012-03-18T11:02:09Z</time>
      </trkpt>
      <trkpt lat="49.13402" lon="-0.49974">
        <ele>115</ele>
        <time>2012-03-18T11:02:13Z</time>
      </trkpt>
      <trkpt lat="49.13398" lon="-0.49979">
        <ele>114</ele>
        <time>2012-03-18T11:02:17Z</time>
      </trkpt>
      <trkpt lat="49.13394" lon="-0.49984">
        <ele>114</ele>
        <time>2012-03-18T11:02:21Z</time>
      </trkpt>
      <trkpt lat="49.13388" lon="-0.49984">
        <ele>114</ele>
        <time>2012-03-18T11:02:26Z</time>
      </trkpt>
      <trkpt lat="49.13384" lon="-0.49984">
        <ele>114</ele>
        <time>2012-03-18T11:02:30Z</time>
      </trkpt>
      <trkpt lat="49.13378" lon="-0.49984">
        <ele>114</ele>
        <time>2012-03-18T11:02:35Z</time>
      </trkpt>
      <trkpt lat="49.13373" lon="-0.49984">
        <ele>114</ele>
        <time>2012-03-18T11:02:40Z</time>
      </trkpt>
      <trkpt lat="49.13368" lon="-0.49986">
        <ele>114</ele>
        <time>2012-03-18T11:02:44Z</time>
      </trkpt>
      <trkpt lat="49.13363" lon="-0.49987">
        <ele>113</ele>
        <time>2012-03-18T11:02:49Z</time>
      </trkpt>
      <trkpt lat="49.13357" lon="-0.49986">
        <ele>113</ele>
        <time>2012-03-18T11:02:54Z</time>
      </trkpt>
      <trkpt lat="49.13352" lon="-0.49987">
        <ele>113</ele>
        <time>2012-03-18T11:02:59Z</time>
      </trkpt>
      <trkpt lat="49.13347" lon="-0.49986">
        <ele>114</ele>
        <time>2012-03-18T11:03:08Z</time>
      </trkpt>
      <trkpt lat="49.13342" lon="-0.49988">
        <ele>113</ele>
        <time>2012-03-18T11:03:12Z</time>
      </trkpt>
      <trkpt lat="49.13337" lon="-0.49988">
        <ele>113</ele>
        <time>2012-03-18T11:03:16Z</time>
      </trkpt>
      <trkpt lat="49.13332" lon="-0.49988">
        <ele>113</ele>
        <time>2012-03-18T11:03:20Z</time>
      </trkpt>
      <trkpt lat="49.13326" lon="-0.49989">
        <ele>112</ele>
        <time>2012-03-18T11:03:25Z</time>
      </trkpt>
      <trkpt lat="49.13321" lon="-0.49987">
        <ele>112</ele>
        <time>2012-03-18T11:03:29Z</time>
      </trkpt>
      <trkpt lat="49.13316" lon="-0.49986">
        <ele>112</ele>
        <time>2012-03-18T11:03:33Z</time>
      </trkpt>
      <trkpt lat="49.1331" lon="-0.49985">
        <ele>113</ele>
        <time>2012-03-18T11:03:38Z</time>
      </trkpt>
      <trkpt lat="49.13305" lon="-0.49982">
        <ele>113</ele>
        <time>2012-03-18T11:03:42Z</time>
      </trkpt>
      <trkpt lat="49.133" lon="-0.4998">
        <ele>112</ele>
        <time>2012-03-18T11:03:46Z</time>
      </trkpt>
      <trkpt lat="49.13295" lon="-0.49978">
        <ele>112</ele>
        <time>2012-03-18T11:03:50Z</time>
      </trkpt>
      <trkpt lat="49.1329" lon="-0.49975">
        <ele>111</ele>
        <time>2012-03-18T11:03:54Z</time>
      </trkpt>
      <trkpt lat="49.13285" lon="-0.49972">
        <ele>111</ele>
        <time>2012-03-18T11:03:58Z</time>
      </trkpt>
      <trkpt lat="49.13281" lon="-0.4997">
        <ele>111</ele>
        <time>2012-03-18T11:04:02Z</time>
      </trkpt>
      <trkpt lat="49.13276" lon="-0.49967">
        <ele>110</ele>
        <time>2012-03-18T11:04:06Z</time>
      </trkpt>
      <trkpt lat="49.13271" lon="-0.49963">
        <ele>111</ele>
        <time>2012-03-18T11:04:11Z</time>
      </trkpt>
      <trkpt lat="49.13268" lon="-0.49957">
        <ele>113</ele>
        <time>2012-03-18T11:04:16Z</time>
      </trkpt>
      <trkpt lat="49.13264" lon="-0.49954">
        <ele>113</ele>
        <time>2012-03-18T11:04:20Z</time>
      </trkpt>
      <trkpt lat="49.1326" lon="-0.49951">
        <ele>113</ele>
        <time>2012-03-18T11:04:25Z</time>
      </trkpt>
      <trkpt lat="49.13255" lon="-0.49946">
        <ele>113</ele>
        <time>2012-03-18T11:04:30Z</time>
      </trkpt>
      <trkpt lat="49.13251" lon="-0.49943">
        <ele>112</ele>
        <time>2012-03-18T11:04:34Z</time>
      </trkpt>
      <trkpt lat="49.13246" lon="-0.4994">
        <ele>112</ele>
        <time>2012-03-18T11:04:37Z</time>
      </trkpt>
      <trkpt lat="49.13242" lon="-0.49935">
        <ele>112</ele>
        <time>2012-03-18T11:04:42Z</time>
      </trkpt>
      <trkpt lat="49.13237" lon="-0.49932">
        <ele>112</ele>
        <time>2012-03-18T11:04:46Z</time>
      </trkpt>
      <trkpt lat="49.13232" lon="-0.49929">
        <ele>111</ele>
        <time>2012-03-18T11:04:51Z</time>
      </trkpt>
      <trkpt lat="49.13228" lon="-0.49926">
        <ele>110</ele>
        <time>2012-03-18T11:04:55Z</time>
      </trkpt>
      <trkpt lat="49.13223" lon="-0.49922">
        <ele>109</ele>
        <time>2012-03-18T11:05:00Z</time>
      </trkpt>
      <trkpt lat="49.13219" lon="-0.49918">
        <ele>109</ele>
        <time>2012-03-18T11:05:05Z</time>
      </trkpt>
      <trkpt lat="49.13214" lon="-0.49915">
        <ele>109</ele>
        <time>2012-03-18T11:05:10Z</time>
      </trkpt>
      <trkpt lat="49.13209" lon="-0.49913">
        <ele>109</ele>
        <time>2012-03-18T11:05:14Z</time>
      </trkpt>
      <trkpt lat="49.13204" lon="-0.49911">
        <ele>110</ele>
        <time>2012-03-18T11:05:18Z</time>
      </trkpt>
      <trkpt lat="49.13199" lon="-0.4991">
        <ele>109</ele>
        <time>2012-03-18T11:05:23Z</time>
      </trkpt>
      <trkpt lat="49.13194" lon="-0.49909">
        <ele>108</ele>
        <time>2012-03-18T11:05:28Z</time>
      </trkpt>
      <trkpt lat="49.13189" lon="-0.49909">
        <ele>109</ele>
        <time>2012-03-18T11:05:33Z</time>
      </trkpt>
      <trkpt lat="49.13184" lon="-0.49909">
        <ele>108</ele>
        <time>2012-03-18T11:05:37Z</time>
      </trkpt>
      <trkpt lat="49.13178" lon="-0.4991">
        <ele>108</ele>
        <time>2012-03-18T11:05:41Z</time>
      </trkpt>
      <trkpt lat="49.13173" lon="-0.49912">
        <ele>109</ele>
        <time>2012-03-18T11:05:46Z</time>
      </trkpt>
      <trkpt lat="49.13168" lon="-0.49915">
        <ele>109</ele>
        <time>2012-03-18T11:05:50Z</time>
      </trkpt>
      <trkpt lat="49.13164" lon="-0.49918">
        <ele>108</ele>
        <time>2012-03-18T11:05:54Z</time>
      </trkpt>
      <trkpt lat="49.13164" lon="-0.49918">
        <ele>108</ele>
        <time>2012-03-18T11:05:54Z</time>
      </trkpt>
      <trkpt lat="49.13164" lon="-0.49918">
        <ele>108</ele>
        <time>2012-03-18T11:05:55Z</time>
      </trkpt>
      <trkpt lat="49.1316" lon="-0.49921">
        <ele>108</ele>
        <time>2012-03-18T11:05:59Z</time>
      </trkpt>
      <trkpt lat="49.13155" lon="-0.49922">
        <ele>109</ele>
        <time>2012-03-18T11:06:04Z</time>
      </trkpt>
      <trkpt lat="49.1315" lon="-0.49924">
        <ele>109</ele>
        <time>2012-03-18T11:06:07Z</time>
      </trkpt>
      <trkpt lat="49.13146" lon="-0.49927">
        <ele>109</ele>
        <time>2012-03-18T11:06:11Z</time>
      </trkpt>
      <trkpt lat="49.1314" lon="-0.4993">
        <ele>108</ele>
        <time>2012-03-18T11:06:15Z</time>
      </trkpt>
      <trkpt lat="49.13135" lon="-0.49936">
        <ele>107</ele>
        <time>2012-03-18T11:06:18Z</time>
      </trkpt>
      <trkpt lat="49.1313" lon="-0.49941">
        <ele>105</ele>
        <time>2012-03-18T11:06:28Z</time>
      </trkpt>
      <trkpt lat="49.13125" lon="-0.49944">
        <ele>106</ele>
        <time>2012-03-18T11:06:31Z</time>
      </trkpt>
      <trkpt lat="49.13119" lon="-0.49946">
        <ele>107</ele>
        <time>2012-03-18T11:06:38Z</time>
      </trkpt>
      <trkpt lat="49.13113" lon="-0.49948">
        <ele>107</ele>
        <time>2012-03-18T11:06:41Z</time>
      </trkpt>
      <trkpt lat="49.13109" lon="-0.49951">
        <ele>106</ele>
        <time>2012-03-18T11:06:45Z</time>
      </trkpt>
      <trkpt lat="49.13104" lon="-0.49954">
        <ele>107</ele>
        <time>2012-03-18T11:06:49Z</time>
      </trkpt>
      <trkpt lat="49.13101" lon="-0.4996">
        <ele>105</ele>
        <time>2012-03-18T11:06:53Z</time>
      </trkpt>
      <trkpt lat="49.13097" lon="-0.49964">
        <ele>104</ele>
        <time>2012-03-18T11:06:57Z</time>
      </trkpt>
      <trkpt lat="49.13092" lon="-0.49969">
        <ele>104</ele>
        <time>2012-03-18T11:07:00Z</time>
      </trkpt>
      <trkpt lat="49.13088" lon="-0.49972">
        <ele>105</ele>
        <time>2012-03-18T11:07:05Z</time>
      </trkpt>
      <trkpt lat="49.13083" lon="-0.49977">
        <ele>105</ele>
        <time>2012-03-18T11:07:11Z</time>
      </trkpt>
      <trkpt lat="49.13078" lon="-0.4998">
        <ele>107</ele>
        <time>2012-03-18T11:07:16Z</time>
      </trkpt>
      <trkpt lat="49.13072" lon="-0.4998">
        <ele>107</ele>
        <time>2012-03-18T11:07:19Z</time>
      </trkpt>
      <trkpt lat="49.13068" lon="-0.49982">
        <ele>105</ele>
        <time>2012-03-18T11:07:22Z</time>
      </trkpt>
      <trkpt lat="49.13063" lon="-0.49984">
        <ele>105</ele>
        <time>2012-03-18T11:07:26Z</time>
      </trkpt>
      <trkpt lat="49.13059" lon="-0.4999">
        <ele>105</ele>
        <time>2012-03-18T11:07:32Z</time>
      </trkpt>
      <trkpt lat="49.13053" lon="-0.49991">
        <ele>107</ele>
        <time>2012-03-18T11:07:36Z</time>
      </trkpt>
      <trkpt lat="49.13048" lon="-0.49992">
        <ele>106</ele>
        <time>2012-03-18T11:07:39Z</time>
      </trkpt>
      <trkpt lat="49.13043" lon="-0.49994">
        <ele>108</ele>
        <time>2012-03-18T11:07:43Z</time>
      </trkpt>
      <trkpt lat="49.13038" lon="-0.49998">
        <ele>106</ele>
        <time>2012-03-18T11:07:49Z</time>
      </trkpt>
      <trkpt lat="49.13033" lon="-0.5">
        <ele>105</ele>
        <time>2012-03-18T11:07:52Z</time>
      </trkpt>
      <trkpt lat="49.1303" lon="-0.50004">
        <ele>103</ele>
        <time>2012-03-18T11:07:56Z</time>
      </trkpt>
      <trkpt lat="49.13024" lon="-0.50006">
        <ele>101</ele>
        <time>2012-03-18T11:08:00Z</time>
      </trkpt>
      <trkpt lat="49.13019" lon="-0.50008">
        <ele>99</ele>
        <time>2012-03-18T11:08:05Z</time>
      </trkpt>
      <trkpt lat="49.13014" lon="-0.50009">
        <ele>98</ele>
        <time>2012-03-18T11:08:10Z</time>
      </trkpt>
      <trkpt lat="49.13008" lon="-0.5001">
        <ele>97</ele>
        <time>2012-03-18T11:08:15Z</time>
      </trkpt>
      <trkpt lat="49.13004" lon="-0.50007">
        <ele>96</ele>
        <time>2012-03-18T11:08:21Z</time>
      </trkpt>
      <trkpt lat="49.12999" lon="-0.50003">
        <ele>97</ele>
        <time>2012-03-18T11:08:26Z</time>
      </trkpt>
      <trkpt lat="49.12996" lon="-0.49998">
        <ele>96</ele>
        <time>2012-03-18T11:08:29Z</time>
      </trkpt>
      <trkpt lat="49.12994" lon="-0.4999">
        <ele>95</ele>
        <time>2012-03-18T11:08:34Z</time>
      </trkpt>
      <trkpt lat="49.12995" lon="-0.49983">
        <ele>95</ele>
        <time>2012-03-18T11:08:39Z</time>
      </trkpt>
      <trkpt lat="49.12996" lon="-0.49975">
        <ele>95</ele>
        <time>2012-03-18T11:08:44Z</time>
      </trkpt>
      <trkpt lat="49.13" lon="-0.49971">
        <ele>96</ele>
        <time>2012-03-18T11:08:48Z</time>
      </trkpt>
      <trkpt lat="49.13004" lon="-0.49965">
        <ele>99</ele>
        <time>2012-03-18T11:08:55Z</time>
      </trkpt>
      <trkpt lat="49.13009" lon="-0.49962">
        <ele>100</ele>
        <time>2012-03-18T11:08:59Z</time>
      </trkpt>
      <trkpt lat="49.13012" lon="-0.49957">
        <ele>98</ele>
        <time>2012-03-18T11:09:04Z</time>
      </trkpt>
      <trkpt lat="49.13017" lon="-0.49954">
        <ele>99</ele>
        <time>2012-03-18T11:09:12Z</time>
      </trkpt>
      <trkpt lat="49.1302" lon="-0.49948">
        <ele>98</ele>
        <time>2012-03-18T11:09:14Z</time>
      </trkpt>
      <trkpt lat="49.13025" lon="-0.49943">
        <ele>97</ele>
        <time>2012-03-18T11:09:19Z</time>
      </trkpt>
      <trkpt lat="49.1303" lon="-0.49937">
        <ele>99</ele>
        <time>2012-03-18T11:09:22Z</time>
      </trkpt>
      <trkpt lat="49.13032" lon="-0.49931">
        <ele>100</ele>
        <time>2012-03-18T11:09:24Z</time>
      </trkpt>
      <trkpt lat="49.13036" lon="-0.49924">
        <ele>101</ele>
        <time>2012-03-18T11:09:27Z</time>
      </trkpt>
      <trkpt lat="49.1304" lon="-0.49918">
        <ele>101</ele>
        <time>2012-03-18T11:09:30Z</time>
      </trkpt>
      <trkpt lat="49.13044" lon="-0.49913">
        <ele>101</ele>
        <time>2012-03-18T11:09:34Z</time>
      </trkpt>
      <trkpt lat="49.13048" lon="-0.49908">
        <ele>102</ele>
        <time>2012-03-18T11:09:38Z</time>
      </trkpt>
      <trkpt lat="49.13048" lon="-0.49901">
        <ele>104</ele>
        <time>2012-03-18T11:09:42Z</time>
      </trkpt>
      <trkpt lat="49.13048" lon="-0.49894">
        <ele>104</ele>
        <time>2012-03-18T11:09:47Z</time>
      </trkpt>
      <trkpt lat="49.13048" lon="-0.49894">
        <ele>104</ele>
        <time>2012-03-18T11:09:47Z</time>
      </trkpt>
      <trkpt lat="49.13048" lon="-0.49894">
        <ele>104</ele>
        <time>2012-03-18T11:09:48Z</time>
      </trkpt>
      <trkpt lat="49.13044" lon="-0.4989">
        <ele>104</ele>
        <time>2012-03-18T11:09:56Z</time>
      </trkpt>
      <trkpt lat="49.13038" lon="-0.49891">
        <ele>104</ele>
        <time>2012-03-18T11:09:59Z</time>
      </trkpt>
      <trkpt lat="49.13033" lon="-0.49893">
        <ele>102</ele>
        <time>2012-03-18T11:10:02Z</time>
      </trkpt>
      <trkpt lat="49.13028" lon="-0.49897">
        <ele>100</ele>
        <time>2012-03-18T11:10:08Z</time>
      </trkpt>
      <trkpt lat="49.13023" lon="-0.49897">
        <ele>101</ele>
        <time>2012-03-18T11:10:16Z</time>
      </trkpt>
      <trkpt lat="49.13018" lon="-0.49898">
        <ele>100</ele>
        <time>2012-03-18T11:10:20Z</time>
      </trkpt>
      <trkpt lat="49.13012" lon="-0.499">
        <ele>101</ele>
        <time>2012-03-18T11:10:23Z</time>
      </trkpt>
      <trkpt lat="49.13006" lon="-0.49902">
        <ele>102</ele>
        <time>2012-03-18T11:10:26Z</time>
      </trkpt>
      <trkpt lat="49.13001" lon="-0.49905">
        <ele>102</ele>
        <time>2012-03-18T11:10:28Z</time>
      </trkpt>
      <trkpt lat="49.12996" lon="-0.49909">
        <ele>99</ele>
        <time>2012-03-18T11:10:34Z</time>
      </trkpt>
      <trkpt lat="49.12992" lon="-0.49911">
        <ele>101</ele>
        <time>2012-03-18T11:10:39Z</time>
      </trkpt>
      <trkpt lat="49.1299" lon="-0.49918">
        <ele>102</ele>
        <time>2012-03-18T11:10:47Z</time>
      </trkpt>
      <trkpt lat="49.12986" lon="-0.49922">
        <ele>107</ele>
        <time>2012-03-18T11:10:56Z</time>
      </trkpt>
      <trkpt lat="49.12982" lon="-0.49927">
        <ele>109</ele>
        <time>2012-03-18T11:11:02Z</time>
      </trkpt>
      <trkpt lat="49.12977" lon="-0.49927">
        <ele>109</ele>
        <time>2012-03-18T11:11:09Z</time>
      </trkpt>
      <trkpt lat="49.12972" lon="-0.49928">
        <ele>110</ele>
        <time>2012-03-18T11:11:13Z</time>
      </trkpt>
      <trkpt lat="49.12967" lon="-0.49929">
        <ele>110</ele>
        <time>2012-03-18T11:11:20Z</time>
      </trkpt>
      <trkpt lat="49.12962" lon="-0.49929">
        <ele>111</ele>
        <time>2012-03-18T11:11:26Z</time>
      </trkpt>
      <trkpt lat="49.12958" lon="-0.49932">
        <ele>114</ele>
        <time>2012-03-18T11:11:33Z</time>
      </trkpt>
      <trkpt lat="49.12952" lon="-0.49932">
        <ele>113</ele>
        <time>2012-03-18T11:11:37Z</time>
      </trkpt>
      <trkpt lat="49.12948" lon="-0.49935">
        <ele>114</ele>
        <time>2012-03-18T11:11:41Z</time>
      </trkpt>
      <trkpt lat="49.12944" lon="-0.49937">
        <ele>114</ele>
        <time>2012-03-18T11:11:43Z</time>
      </trkpt>
      <trkpt lat="49.12939" lon="-0.4994">
        <ele>112</ele>
        <time>2012-03-18T11:11:50Z</time>
      </trkpt>
      <trkpt lat="49.12934" lon="-0.4994">
        <ele>116</ele>
        <time>2012-03-18T11:11:57Z</time>
      </trkpt>
      <trkpt lat="49.12934" lon="-0.4994">
        <ele>116</ele>
        <time>2012-03-18T11:11:57Z</time>
      </trkpt>
      <trkpt lat="49.12934" lon="-0.4994">
        <ele>116</ele>
        <time>2012-03-18T11:11:58Z</time>
      </trkpt>
      <trkpt lat="49.1293" lon="-0.49937">
        <ele>112</ele>
        <time>2012-03-18T11:12:04Z</time>
      </trkpt>
      <trkpt lat="49.12925" lon="-0.49936">
        <ele>104</ele>
        <time>2012-03-18T11:12:27Z</time>
      </trkpt>
      <trkpt lat="49.12925" lon="-0.49936">
        <ele>104</ele>
        <time>2012-03-18T11:12:27Z</time>
      </trkpt>
      <trkpt lat="49.12925" lon="-0.49936">
        <ele>104</ele>
        <time>2012-03-18T11:12:30Z</time>
      </trkpt>
      <trkpt lat="49.12924" lon="-0.49943">
        <ele>104</ele>
        <time>2012-03-18T11:12:49Z</time>
      </trkpt>
      <trkpt lat="49.12922" lon="-0.49952">
        <ele>103</ele>
        <time>2012-03-18T11:13:16Z</time>
      </trkpt>
      <trkpt lat="49.12917" lon="-0.4995">
        <ele>107</ele>
        <time>2012-03-18T11:15:20Z</time>
      </trkpt>
      <trkpt lat="49.12917" lon="-0.4995">
        <ele>107</ele>
        <time>2012-03-18T11:15:20Z</time>
      </trkpt>
      <trkpt lat="49.12917" lon="-0.4995">
        <ele>106</ele>
        <time>2012-03-18T11:21:03Z</time>
      </trkpt>
      <trkpt lat="49.12914" lon="-0.49956">
        <ele>103</ele>
        <time>2012-03-18T11:37:35Z</time>
      </trkpt>
      <trkpt lat="49.12909" lon="-0.4996">
        <ele>100</ele>
        <time>2012-03-18T11:37:53Z</time>
      </trkpt>
      <trkpt lat="49.12914" lon="-0.49954">
        <ele>93</ele>
        <time>2012-03-18T11:41:29Z</time>
      </trkpt>
      <trkpt lat="49.12916" lon="-0.49948">
        <ele>94</ele>
        <time>2012-03-18T11:41:40Z</time>
      </trkpt>
      <trkpt lat="49.1292" lon="-0.49944">
        <ele>94</ele>
        <time>2012-03-18T11:41:45Z</time>
      </trkpt>
      <trkpt lat="49.12915" lon="-0.49942">
        <ele>93</ele>
        <time>2012-03-18T11:42:10Z</time>
      </trkpt>
      <trkpt lat="49.12915" lon="-0.49942">
        <ele>93</ele>
        <time>2012-03-18T11:42:10Z</time>
      </trkpt>
      <trkpt lat="49.12915" lon="-0.49942">
        <ele>92</ele>
        <time>2012-03-18T11:42:18Z</time>
      </trkpt>
      <trkpt lat="49.1291" lon="-0.49944">
        <ele>93</ele>
        <time>2012-03-18T11:42:28Z</time>
      </trkpt>
      <trkpt lat="49.12906" lon="-0.49948">
        <ele>92</ele>
        <time>2012-03-18T11:42:41Z</time>
      </trkpt>
      <trkpt lat="49.12906" lon="-0.49948">
        <ele>92</ele>
        <time>2012-03-18T11:42:41Z</time>
      </trkpt>
      <trkpt lat="49.12906" lon="-0.49948">
        <ele>92</ele>
        <time>2012-03-18T11:42:42Z</time>
      </trkpt>
      <trkpt lat="49.12901" lon="-0.4995">
        <ele>92</ele>
        <time>2012-03-18T11:42:46Z</time>
      </trkpt>
      <trkpt lat="49.12896" lon="-0.49953">
        <ele>92</ele>
        <time>2012-03-18T11:42:55Z</time>
      </trkpt>
      <trkpt lat="49.12892" lon="-0.49958">
        <ele>93</ele>
        <time>2012-03-18T11:43:04Z</time>
      </trkpt>
      <trkpt lat="49.12892" lon="-0.49958">
        <ele>93</ele>
        <time>2012-03-18T11:43:04Z</time>
      </trkpt>
      <trkpt lat="49.12892" lon="-0.49958">
        <ele>93</ele>
        <time>2012-03-18T11:43:05Z</time>
      </trkpt>
      <trkpt lat="49.12886" lon="-0.49962">
        <ele>92</ele>
        <time>2012-03-18T11:43:11Z</time>
      </trkpt>
      <trkpt lat="49.12881" lon="-0.49967">
        <ele>93</ele>
        <time>2012-03-18T11:43:14Z</time>
      </trkpt>
      <trkpt lat="49.12876" lon="-0.49971">
        <ele>94</ele>
        <time>2012-03-18T11:43:17Z</time>
      </trkpt>
      <trkpt lat="49.12872" lon="-0.49974">
        <ele>95</ele>
        <time>2012-03-18T11:43:31Z</time>
      </trkpt>
      <trkpt lat="49.1287" lon="-0.49981">
        <ele>93</ele>
        <time>2012-03-18T11:43:35Z</time>
      </trkpt>
      <trkpt lat="49.12866" lon="-0.49986">
        <ele>94</ele>
        <time>2012-03-18T11:43:39Z</time>
      </trkpt>
      <trkpt lat="49.12864" lon="-0.49993">
        <ele>93</ele>
        <time>2012-03-18T11:43:44Z</time>
      </trkpt>
      <trkpt lat="49.12862" lon="-0.50001">
        <ele>93</ele>
        <time>2012-03-18T11:43:49Z</time>
      </trkpt>
      <trkpt lat="49.12859" lon="-0.50005">
        <ele>93</ele>
        <time>2012-03-18T11:43:53Z</time>
      </trkpt>
      <trkpt lat="49.12856" lon="-0.50012">
        <ele>94</ele>
        <time>2012-03-18T11:43:58Z</time>
      </trkpt>
      <trkpt lat="49.12854" lon="-0.50019">
        <ele>96</ele>
        <time>2012-03-18T11:44:02Z</time>
      </trkpt>
      <trkpt lat="49.12851" lon="-0.50025">
        <ele>96</ele>
        <time>2012-03-18T11:44:06Z</time>
      </trkpt>
      <trkpt lat="49.12849" lon="-0.50033">
        <ele>95</ele>
        <time>2012-03-18T11:44:10Z</time>
      </trkpt>
      <trkpt lat="49.12847" lon="-0.5004">
        <ele>95</ele>
        <time>2012-03-18T11:44:15Z</time>
      </trkpt>
      <trkpt lat="49.12844" lon="-0.50046">
        <ele>93</ele>
        <time>2012-03-18T11:44:21Z</time>
      </trkpt>
      <trkpt lat="49.12843" lon="-0.50054">
        <ele>92</ele>
        <time>2012-03-18T11:44:24Z</time>
      </trkpt>
      <trkpt lat="49.12841" lon="-0.50061">
        <ele>92</ele>
        <time>2012-03-18T11:44:27Z</time>
      </trkpt>
      <trkpt lat="49.12838" lon="-0.50067">
        <ele>93</ele>
        <time>2012-03-18T11:44:31Z</time>
      </trkpt>
      <trkpt lat="49.12835" lon="-0.50072">
        <ele>95</ele>
        <time>2012-03-18T11:44:36Z</time>
      </trkpt>
      <trkpt lat="49.12835" lon="-0.5008">
        <ele>96</ele>
        <time>2012-03-18T11:44:41Z</time>
      </trkpt>
      <trkpt lat="49.12833" lon="-0.50086">
        <ele>93</ele>
        <time>2012-03-18T11:44:45Z</time>
      </trkpt>
      <trkpt lat="49.1283" lon="-0.50093">
        <ele>91</ele>
        <time>2012-03-18T11:44:50Z</time>
      </trkpt>
      <trkpt lat="49.1283" lon="-0.50102">
        <ele>91</ele>
        <time>2012-03-18T11:44:55Z</time>
      </trkpt>
      <trkpt lat="49.12827" lon="-0.50107">
        <ele>92</ele>
        <time>2012-03-18T11:44:59Z</time>
      </trkpt>
      <trkpt lat="49.12821" lon="-0.50112">
        <ele>92</ele>
        <time>2012-03-18T11:45:01Z</time>
      </trkpt>
      <trkpt lat="49.12819" lon="-0.50118">
        <ele>93</ele>
        <time>2012-03-18T11:45:07Z</time>
      </trkpt>
      <trkpt lat="49.12818" lon="-0.50126">
        <ele>94</ele>
        <time>2012-03-18T11:45:11Z</time>
      </trkpt>
      <trkpt lat="49.12816" lon="-0.50132">
        <ele>96</ele>
        <time>2012-03-18T11:45:16Z</time>
      </trkpt>
      <trkpt lat="49.12813" lon="-0.5014">
        <ele>98</ele>
        <time>2012-03-18T11:45:20Z</time>
      </trkpt>
      <trkpt lat="49.12811" lon="-0.50146">
        <ele>98</ele>
        <time>2012-03-18T11:45:24Z</time>
      </trkpt>
      <trkpt lat="49.12809" lon="-0.50154">
        <ele>99</ele>
        <time>2012-03-18T11:45:27Z</time>
      </trkpt>
      <trkpt lat="49.12806" lon="-0.50158">
        <ele>96</ele>
        <time>2012-03-18T11:45:31Z</time>
      </trkpt>
      <trkpt lat="49.12803" lon="-0.50164">
        <ele>96</ele>
        <time>2012-03-18T11:45:35Z</time>
      </trkpt>
      <trkpt lat="49.12802" lon="-0.50172">
        <ele>94</ele>
        <time>2012-03-18T11:45:38Z</time>
      </trkpt>
      <trkpt lat="49.12798" lon="-0.50178">
        <ele>92</ele>
        <time>2012-03-18T11:45:42Z</time>
      </trkpt>
      <trkpt lat="49.12799" lon="-0.50186">
        <ele>90</ele>
        <time>2012-03-18T11:45:49Z</time>
      </trkpt>
      <trkpt lat="49.128" lon="-0.50195">
        <ele>91</ele>
        <time>2012-03-18T11:45:54Z</time>
      </trkpt>
      <trkpt lat="49.12799" lon="-0.50202">
        <ele>92</ele>
        <time>2012-03-18T11:45:58Z</time>
      </trkpt>
      <trkpt lat="49.12801" lon="-0.5021">
        <ele>90</ele>
        <time>2012-03-18T11:46:04Z</time>
      </trkpt>
      <trkpt lat="49.12804" lon="-0.50218">
        <ele>92</ele>
        <time>2012-03-18T11:46:08Z</time>
      </trkpt>
      <trkpt lat="49.12803" lon="-0.50224">
        <ele>95</ele>
        <time>2012-03-18T11:46:12Z</time>
      </trkpt>
      <trkpt lat="49.12802" lon="-0.50232">
        <ele>96</ele>
        <time>2012-03-18T11:46:16Z</time>
      </trkpt>
      <trkpt lat="49.128" lon="-0.50239">
        <ele>94</ele>
        <time>2012-03-18T11:46:20Z</time>
      </trkpt>
      <trkpt lat="49.12799" lon="-0.50246">
        <ele>92</ele>
        <time>2012-03-18T11:46:23Z</time>
      </trkpt>
      <trkpt lat="49.12799" lon="-0.50254">
        <ele>93</ele>
        <time>2012-03-18T11:46:30Z</time>
      </trkpt>
      <trkpt lat="49.12796" lon="-0.5026">
        <ele>93</ele>
        <time>2012-03-18T11:46:36Z</time>
      </trkpt>
      <trkpt lat="49.12792" lon="-0.50264">
        <ele>91</ele>
        <time>2012-03-18T11:46:39Z</time>
      </trkpt>
      <trkpt lat="49.12794" lon="-0.50272">
        <ele>91</ele>
        <time>2012-03-18T11:46:42Z</time>
      </trkpt>
      <trkpt lat="49.12791" lon="-0.50279">
        <ele>89</ele>
        <time>2012-03-18T11:46:47Z</time>
      </trkpt>
      <trkpt lat="49.12791" lon="-0.50286">
        <ele>91</ele>
        <time>2012-03-18T11:46:51Z</time>
      </trkpt>
      <trkpt lat="49.12794" lon="-0.50292">
        <ele>93</ele>
        <time>2012-03-18T11:46:54Z</time>
      </trkpt>
      <trkpt lat="49.1279" lon="-0.50299">
        <ele>94</ele>
        <time>2012-03-18T11:47:01Z</time>
      </trkpt>
      <trkpt lat="49.12788" lon="-0.50305">
        <ele>94</ele>
        <time>2012-03-18T11:47:05Z</time>
      </trkpt>
      <trkpt lat="49.12784" lon="-0.50311">
        <ele>93</ele>
        <time>2012-03-18T11:47:16Z</time>
      </trkpt>
      <trkpt lat="49.12781" lon="-0.50317">
        <ele>94</ele>
        <time>2012-03-18T11:47:21Z</time>
      </trkpt>
      <trkpt lat="49.12781" lon="-0.50324">
        <ele>92</ele>
        <time>2012-03-18T11:47:24Z</time>
      </trkpt>
      <trkpt lat="49.12778" lon="-0.5033">
        <ele>92</ele>
        <time>2012-03-18T11:47:28Z</time>
      </trkpt>
      <trkpt lat="49.12776" lon="-0.50338">
        <ele>91</ele>
        <time>2012-03-18T11:47:34Z</time>
      </trkpt>
      <trkpt lat="49.12778" lon="-0.50344">
        <ele>91</ele>
        <time>2012-03-18T11:47:40Z</time>
      </trkpt>
      <trkpt lat="49.12779" lon="-0.50353">
        <ele>93</ele>
        <time>2012-03-18T11:47:44Z</time>
      </trkpt>
      <trkpt lat="49.12781" lon="-0.5036">
        <ele>91</ele>
        <time>2012-03-18T11:47:49Z</time>
      </trkpt>
      <trkpt lat="49.12777" lon="-0.50364">
        <ele>91</ele>
        <time>2012-03-18T11:48:03Z</time>
      </trkpt>
      <trkpt lat="49.12777" lon="-0.50364">
        <ele>91</ele>
        <time>2012-03-18T11:48:03Z</time>
      </trkpt>
      <trkpt lat="49.12777" lon="-0.50364">
        <ele>91</ele>
        <time>2012-03-18T11:48:04Z</time>
      </trkpt>
      <trkpt lat="49.12781" lon="-0.50372">
        <ele>92</ele>
        <time>2012-03-18T11:48:19Z</time>
      </trkpt>
      <trkpt lat="49.12786" lon="-0.5038">
        <ele>95</ele>
        <time>2012-03-18T11:48:21Z</time>
      </trkpt>
      <trkpt lat="49.12789" lon="-0.50386">
        <ele>98</ele>
        <time>2012-03-18T11:48:24Z</time>
      </trkpt>
      <trkpt lat="49.12794" lon="-0.50393">
        <ele>97</ele>
        <time>2012-03-18T11:48:29Z</time>
      </trkpt>
      <trkpt lat="49.12795" lon="-0.50399">
        <ele>94</ele>
        <time>2012-03-18T11:48:38Z</time>
      </trkpt>
      <trkpt lat="49.128" lon="-0.50401">
        <ele>95</ele>
        <time>2012-03-18T11:48:41Z</time>
      </trkpt>
      <trkpt lat="49.12805" lon="-0.50402">
        <ele>98</ele>
        <time>2012-03-18T11:48:45Z</time>
      </trkpt>
      <trkpt lat="49.12809" lon="-0.504">
        <ele>101</ele>
        <time>2012-03-18T11:49:00Z</time>
      </trkpt>
      <trkpt lat="49.12813" lon="-0.50404">
        <ele>102</ele>
        <time>2012-03-18T11:49:13Z</time>
      </trkpt>
      <trkpt lat="49.12813" lon="-0.50404">
        <ele>102</ele>
        <time>2012-03-18T11:49:13Z</time>
      </trkpt>
      <trkpt lat="49.12813" lon="-0.50404">
        <ele>102</ele>
        <time>2012-03-18T11:49:14Z</time>
      </trkpt>
      <trkpt lat="49.1281" lon="-0.50413">
        <ele>101</ele>
        <time>2012-03-18T11:49:21Z</time>
      </trkpt>
      <trkpt lat="49.12808" lon="-0.5042">
        <ele>101</ele>
        <time>2012-03-18T11:49:23Z</time>
      </trkpt>
      <trkpt lat="49.12806" lon="-0.50427">
        <ele>101</ele>
        <time>2012-03-18T11:49:25Z</time>
      </trkpt>
      <trkpt lat="49.12803" lon="-0.50435">
        <ele>99</ele>
        <time>2012-03-18T11:49:28Z</time>
      </trkpt>
      <trkpt lat="49.128" lon="-0.50441">
        <ele>100</ele>
        <time>2012-03-18T11:49:31Z</time>
      </trkpt>
      <trkpt lat="49.128" lon="-0.50441">
        <ele>100</ele>
        <time>2012-03-18T11:49:31Z</time>
      </trkpt>
      <trkpt lat="49.128" lon="-0.50441">
        <ele>100</ele>
        <time>2012-03-18T11:49:32Z</time>
      </trkpt>
      <trkpt lat="49.12798" lon="-0.5045">
        <ele>100</ele>
        <time>2012-03-18T11:49:38Z</time>
      </trkpt>
      <trkpt lat="49.12798" lon="-0.5045">
        <ele>100</ele>
        <time>2012-03-18T11:49:38Z</time>
      </trkpt>
      <trkpt lat="49.12798" lon="-0.5045">
        <ele>100</ele>
        <time>2012-03-18T11:49:39Z</time>
      </trkpt>
      <trkpt lat="49.128" lon="-0.50459">
        <ele>102</ele>
        <time>2012-03-18T11:49:44Z</time>
      </trkpt>
      <trkpt lat="49.12797" lon="-0.50465">
        <ele>98</ele>
        <time>2012-03-18T11:49:47Z</time>
      </trkpt>
      <trkpt lat="49.12795" lon="-0.50472">
        <ele>97</ele>
        <time>2012-03-18T11:49:53Z</time>
      </trkpt>
      <trkpt lat="49.12792" lon="-0.50478">
        <ele>97</ele>
        <time>2012-03-18T11:49:58Z</time>
      </trkpt>
      <trkpt lat="49.12793" lon="-0.50484">
        <ele>94</ele>
        <time>2012-03-18T11:50:02Z</time>
      </trkpt>
      <trkpt lat="49.12791" lon="-0.50493">
        <ele>95</ele>
        <time>2012-03-18T11:50:14Z</time>
      </trkpt>
      <trkpt lat="49.12789" lon="-0.50503">
        <ele>95</ele>
        <time>2012-03-18T11:50:16Z</time>
      </trkpt>
      <trkpt lat="49.12788" lon="-0.50511">
        <ele>95</ele>
        <time>2012-03-18T11:50:17Z</time>
      </trkpt>
      <trkpt lat="49.12784" lon="-0.50515">
        <ele>97</ele>
        <time>2012-03-18T11:50:22Z</time>
      </trkpt>
      <trkpt lat="49.12784" lon="-0.50523">
        <ele>96</ele>
        <time>2012-03-18T11:50:28Z</time>
      </trkpt>
      <trkpt lat="49.12783" lon="-0.50531">
        <ele>97</ele>
        <time>2012-03-18T11:50:33Z</time>
      </trkpt>
      <trkpt lat="49.12785" lon="-0.50538">
        <ele>96</ele>
        <time>2012-03-18T11:50:36Z</time>
      </trkpt>
      <trkpt lat="49.12784" lon="-0.50545">
        <ele>96</ele>
        <time>2012-03-18T11:50:38Z</time>
      </trkpt>
      <trkpt lat="49.12784" lon="-0.50553">
        <ele>96</ele>
        <time>2012-03-18T11:50:40Z</time>
      </trkpt>
      <trkpt lat="49.12788" lon="-0.50559">
        <ele>95</ele>
        <time>2012-03-18T11:50:44Z</time>
      </trkpt>
      <trkpt lat="49.1279" lon="-0.50568">
        <ele>98</ele>
        <time>2012-03-18T11:50:49Z</time>
      </trkpt>
      <trkpt lat="49.12789" lon="-0.50576">
        <ele>98</ele>
        <time>2012-03-18T11:50:52Z</time>
      </trkpt>
      <trkpt lat="49.12789" lon="-0.50576">
        <ele>98</ele>
        <time>2012-03-18T11:50:52Z</time>
      </trkpt>
      <trkpt lat="49.12789" lon="-0.50576">
        <ele>98</ele>
        <time>2012-03-18T11:50:54Z</time>
      </trkpt>
      <trkpt lat="49.12791" lon="-0.50583">
        <ele>98</ele>
        <time>2012-03-18T11:50:58Z</time>
      </trkpt>
      <trkpt lat="49.12795" lon="-0.50586">
        <ele>99</ele>
        <time>2012-03-18T11:51:03Z</time>
      </trkpt>
      <trkpt lat="49.128" lon="-0.50593">
        <ele>100</ele>
        <time>2012-03-18T11:51:10Z</time>
      </trkpt>
      <trkpt lat="49.12804" lon="-0.50597">
        <ele>100</ele>
        <time>2012-03-18T11:51:13Z</time>
      </trkpt>
      <trkpt lat="49.1281" lon="-0.506">
        <ele>99</ele>
        <time>2012-03-18T11:51:20Z</time>
      </trkpt>
      <trkpt lat="49.12814" lon="-0.50605">
        <ele>99</ele>
        <time>2012-03-18T11:51:29Z</time>
      </trkpt>
      <trkpt lat="49.12818" lon="-0.5061">
        <ele>99</ele>
        <time>2012-03-18T11:51:37Z</time>
      </trkpt>
      <trkpt lat="49.12822" lon="-0.50619">
        <ele>99</ele>
        <time>2012-03-18T11:51:41Z</time>
      </trkpt>
      <trkpt lat="49.12826" lon="-0.50626">
        <ele>99</ele>
        <time>2012-03-18T11:51:43Z</time>
      </trkpt>
      <trkpt lat="49.12829" lon="-0.50634">
        <ele>100</ele>
        <time>2012-03-18T11:51:49Z</time>
      </trkpt>
      <trkpt lat="49.12831" lon="-0.50641">
        <ele>100</ele>
        <time>2012-03-18T11:51:54Z</time>
      </trkpt>
      <trkpt lat="49.12833" lon="-0.50648">
        <ele>102</ele>
        <time>2012-03-18T11:51:57Z</time>
      </trkpt>
      <trkpt lat="49.12835" lon="-0.50655">
        <ele>104</ele>
        <time>2012-03-18T11:52:01Z</time>
      </trkpt>
      <trkpt lat="49.1285" lon="-0.5069">
        <ele>105</ele>
        <time>2012-03-18T11:52:21Z</time>
      </trkpt>
      <trkpt lat="49.12852" lon="-0.50697">
        <ele>107</ele>
        <time>2012-03-18T11:52:24Z</time>
      </trkpt>
      <trkpt lat="49.12851" lon="-0.50704">
        <ele>109</ele>
        <time>2012-03-18T11:52:30Z</time>
      </trkpt>
      <trkpt lat="49.12851" lon="-0.50712">
        <ele>108</ele>
        <time>2012-03-18T11:52:37Z</time>
      </trkpt>
      <trkpt lat="49.1285" lon="-0.5072">
        <ele>105</ele>
        <time>2012-03-18T11:52:42Z</time>
      </trkpt>
      <trkpt lat="49.12849" lon="-0.50728">
        <ele>105</ele>
        <time>2012-03-18T11:52:46Z</time>
      </trkpt>
      <trkpt lat="49.1285" lon="-0.50737">
        <ele>109</ele>
        <time>2012-03-18T11:52:54Z</time>
      </trkpt>
      <trkpt lat="49.12854" lon="-0.50744">
        <ele>110</ele>
        <time>2012-03-18T11:52:58Z</time>
      </trkpt>
      <trkpt lat="49.1285" lon="-0.50751">
        <ele>110</ele>
        <time>2012-03-18T11:53:02Z</time>
      </trkpt>
      <trkpt lat="49.12852" lon="-0.50758">
        <ele>111</ele>
        <time>2012-03-18T11:53:12Z</time>
      </trkpt>
      <trkpt lat="49.12852" lon="-0.50758">
        <ele>111</ele>
        <time>2012-03-18T11:53:12Z</time>
      </trkpt>
      <trkpt lat="49.12852" lon="-0.50758">
        <ele>111</ele>
        <time>2012-03-18T11:53:13Z</time>
      </trkpt>
      <trkpt lat="49.12852" lon="-0.50767">
        <ele>114</ele>
        <time>2012-03-18T11:53:15Z</time>
      </trkpt>
      <trkpt lat="49.12852" lon="-0.50775">
        <ele>113</ele>
        <time>2012-03-18T11:53:17Z</time>
      </trkpt>
      <trkpt lat="49.12854" lon="-0.50783">
        <ele>114</ele>
        <time>2012-03-18T11:53:20Z</time>
      </trkpt>
      <trkpt lat="49.12854" lon="-0.50783">
        <ele>114</ele>
        <time>2012-03-18T11:53:20Z</time>
      </trkpt>
      <trkpt lat="49.12854" lon="-0.50783">
        <ele>114</ele>
        <time>2012-03-18T11:53:21Z</time>
      </trkpt>
      <trkpt lat="49.12852" lon="-0.5079">
        <ele>114</ele>
        <time>2012-03-18T11:53:32Z</time>
      </trkpt>
      <trkpt lat="49.12852" lon="-0.5079">
        <ele>114</ele>
        <time>2012-03-18T11:53:32Z</time>
      </trkpt>
      <trkpt lat="49.12852" lon="-0.5079">
        <ele>114</ele>
        <time>2012-03-18T11:53:33Z</time>
      </trkpt>
      <trkpt lat="49.1285" lon="-0.50799">
        <ele>114</ele>
        <time>2012-03-18T11:53:36Z</time>
      </trkpt>
      <trkpt lat="49.12849" lon="-0.50806">
        <ele>115</ele>
        <time>2012-03-18T11:53:41Z</time>
      </trkpt>
      <trkpt lat="49.12848" lon="-0.50814">
        <ele>117</ele>
        <time>2012-03-18T11:53:48Z</time>
      </trkpt>
      <trkpt lat="49.12844" lon="-0.50818">
        <ele>118</ele>
        <time>2012-03-18T11:53:57Z</time>
      </trkpt>
      <trkpt lat="49.1284" lon="-0.50822">
        <ele>119</ele>
        <time>2012-03-18T11:54:07Z</time>
      </trkpt>
      <trkpt lat="49.1284" lon="-0.50822">
        <ele>119</ele>
        <time>2012-03-18T11:54:07Z</time>
      </trkpt>
      <trkpt lat="49.1284" lon="-0.50822">
        <ele>119</ele>
        <time>2012-03-18T11:54:12Z</time>
      </trkpt>
      <trkpt lat="49.12835" lon="-0.50827">
        <ele>118</ele>
        <time>2012-03-18T11:54:14Z</time>
      </trkpt>
      <trkpt lat="49.1283" lon="-0.50833">
        <ele>117</ele>
        <time>2012-03-18T11:54:18Z</time>
      </trkpt>
      <trkpt lat="49.12827" lon="-0.50838">
        <ele>117</ele>
        <time>2012-03-18T11:54:22Z</time>
      </trkpt>
      <trkpt lat="49.12788" lon="-0.50888">
        <ele>114</ele>
        <time>2012-03-18T11:54:47Z</time>
      </trkpt>
      <trkpt lat="49.12784" lon="-0.50893">
        <ele>113</ele>
        <time>2012-03-18T11:54:49Z</time>
      </trkpt>
      <trkpt lat="49.12777" lon="-0.50894">
        <ele>114</ele>
        <time>2012-03-18T11:54:54Z</time>
      </trkpt>
      <trkpt lat="49.12773" lon="-0.50888">
        <ele>115</ele>
        <time>2012-03-18T11:55:04Z</time>
      </trkpt>
      <trkpt lat="49.12768" lon="-0.50885">
        <ele>117</ele>
        <time>2012-03-18T11:55:08Z</time>
      </trkpt>
      <trkpt lat="49.12768" lon="-0.50885">
        <ele>117</ele>
        <time>2012-03-18T11:55:08Z</time>
      </trkpt>
      <trkpt lat="49.12768" lon="-0.50885">
        <ele>117</ele>
        <time>2012-03-18T11:55:10Z</time>
      </trkpt>
      <trkpt lat="49.12764" lon="-0.50882">
        <ele>117</ele>
        <time>2012-03-18T11:55:12Z</time>
      </trkpt>
      <trkpt lat="49.12759" lon="-0.50885">
        <ele>116</ele>
        <time>2012-03-18T11:55:18Z</time>
      </trkpt>
      <trkpt lat="49.12754" lon="-0.50892">
        <ele>115</ele>
        <time>2012-03-18T11:55:27Z</time>
      </trkpt>
      <trkpt lat="49.12746" lon="-0.50898">
        <ele>115</ele>
        <time>2012-03-18T11:55:29Z</time>
      </trkpt>
      <trkpt lat="49.12741" lon="-0.50905">
        <ele>116</ele>
        <time>2012-03-18T11:55:32Z</time>
      </trkpt>
      <trkpt lat="49.12736" lon="-0.50913">
        <ele>116</ele>
        <time>2012-03-18T11:55:41Z</time>
      </trkpt>
      <trkpt lat="49.12732" lon="-0.50918">
        <ele>116</ele>
        <time>2012-03-18T11:55:45Z</time>
      </trkpt>
      <trkpt lat="49.12732" lon="-0.50925">
        <ele>116</ele>
        <time>2012-03-18T11:55:56Z</time>
      </trkpt>
      <trkpt lat="49.12729" lon="-0.50929">
        <ele>115</ele>
        <time>2012-03-18T11:55:58Z</time>
      </trkpt>
      <trkpt lat="49.12726" lon="-0.50937">
        <ele>116</ele>
        <time>2012-03-18T11:56:03Z</time>
      </trkpt>
      <trkpt lat="49.12722" lon="-0.50944">
        <ele>116</ele>
        <time>2012-03-18T11:56:06Z</time>
      </trkpt>
      <trkpt lat="49.12719" lon="-0.50952">
        <ele>118</ele>
        <time>2012-03-18T11:56:10Z</time>
      </trkpt>
      <trkpt lat="49.12715" lon="-0.50956">
        <ele>117</ele>
        <time>2012-03-18T11:56:12Z</time>
      </trkpt>
      <trkpt lat="49.1271" lon="-0.50959">
        <ele>118</ele>
        <time>2012-03-18T11:56:16Z</time>
      </trkpt>
      <trkpt lat="49.12703" lon="-0.5097">
        <ele>118</ele>
        <time>2012-03-18T11:56:23Z</time>
      </trkpt>
      <trkpt lat="49.12698" lon="-0.5097">
        <ele>117</ele>
        <time>2012-03-18T11:56:31Z</time>
      </trkpt>
      <trkpt lat="49.12694" lon="-0.50974">
        <ele>118</ele>
        <time>2012-03-18T11:56:36Z</time>
      </trkpt>
      <trkpt lat="49.12689" lon="-0.50975">
        <ele>117</ele>
        <time>2012-03-18T11:56:40Z</time>
      </trkpt>
      <trkpt lat="49.12689" lon="-0.50975">
        <ele>117</ele>
        <time>2012-03-18T11:56:40Z</time>
      </trkpt>
      <trkpt lat="49.12689" lon="-0.50975">
        <ele>117</ele>
        <time>2012-03-18T11:56:41Z</time>
      </trkpt>
      <trkpt lat="49.12685" lon="-0.5098">
        <ele>117</ele>
        <time>2012-03-18T11:56:46Z</time>
      </trkpt>
      <trkpt lat="49.12679" lon="-0.50981">
        <ele>118</ele>
        <time>2012-03-18T11:56:50Z</time>
      </trkpt>
      <trkpt lat="49.12672" lon="-0.50986">
        <ele>120</ele>
        <time>2012-03-18T11:56:53Z</time>
      </trkpt>
      <trkpt lat="49.12667" lon="-0.5099">
        <ele>122</ele>
        <time>2012-03-18T11:56:57Z</time>
      </trkpt>
      <trkpt lat="49.12663" lon="-0.50994">
        <ele>122</ele>
        <time>2012-03-18T11:57:00Z</time>
      </trkpt>
      <trkpt lat="49.12662" lon="-0.51002">
        <ele>122</ele>
        <time>2012-03-18T11:57:05Z</time>
      </trkpt>
      <trkpt lat="49.12662" lon="-0.51009">
        <ele>119</ele>
        <time>2012-03-18T11:57:09Z</time>
      </trkpt>
      <trkpt lat="49.12666" lon="-0.51016">
        <ele>119</ele>
        <time>2012-03-18T11:57:12Z</time>
      </trkpt>
      <trkpt lat="49.1267" lon="-0.5102">
        <ele>117</ele>
        <time>2012-03-18T11:57:15Z</time>
      </trkpt>
      <trkpt lat="49.1267" lon="-0.51029">
        <ele>116</ele>
        <time>2012-03-18T11:57:19Z</time>
      </trkpt>
      <trkpt lat="49.12673" lon="-0.51035">
        <ele>117</ele>
        <time>2012-03-18T11:57:22Z</time>
      </trkpt>
      <trkpt lat="49.12674" lon="-0.51044">
        <ele>116</ele>
        <time>2012-03-18T11:57:26Z</time>
      </trkpt>
      <trkpt lat="49.12677" lon="-0.5105">
        <ele>115</ele>
        <time>2012-03-18T11:57:31Z</time>
      </trkpt>
      <trkpt lat="49.12676" lon="-0.51059">
        <ele>115</ele>
        <time>2012-03-18T11:57:36Z</time>
      </trkpt>
      <trkpt lat="49.12678" lon="-0.51067">
        <ele>115</ele>
        <time>2012-03-18T11:57:40Z</time>
      </trkpt>
      <trkpt lat="49.12678" lon="-0.51075">
        <ele>113</ele>
        <time>2012-03-18T11:57:44Z</time>
      </trkpt>
      <trkpt lat="49.12682" lon="-0.51082">
        <ele>114</ele>
        <time>2012-03-18T11:57:49Z</time>
      </trkpt>
      <trkpt lat="49.12687" lon="-0.51085">
        <ele>113</ele>
        <time>2012-03-18T11:57:51Z</time>
      </trkpt>
      <trkpt lat="49.12689" lon="-0.51091">
        <ele>114</ele>
        <time>2012-03-18T11:57:56Z</time>
      </trkpt>
      <trkpt lat="49.12686" lon="-0.511">
        <ele>114</ele>
        <time>2012-03-18T11:58:00Z</time>
      </trkpt>
      <trkpt lat="49.12684" lon="-0.5111">
        <ele>112</ele>
        <time>2012-03-18T11:58:04Z</time>
      </trkpt>
      <trkpt lat="49.12688" lon="-0.51114">
        <ele>111</ele>
        <time>2012-03-18T11:58:08Z</time>
      </trkpt>
      <trkpt lat="49.1269" lon="-0.5112">
        <ele>113</ele>
        <time>2012-03-18T11:58:10Z</time>
      </trkpt>
      <trkpt lat="49.12688" lon="-0.51127">
        <ele>115</ele>
        <time>2012-03-18T11:58:13Z</time>
      </trkpt>
      <trkpt lat="49.12688" lon="-0.51135">
        <ele>116</ele>
        <time>2012-03-18T11:58:16Z</time>
      </trkpt>
      <trkpt lat="49.12692" lon="-0.5114">
        <ele>114</ele>
        <time>2012-03-18T11:58:20Z</time>
      </trkpt>
      <trkpt lat="49.12691" lon="-0.51148">
        <ele>114</ele>
        <time>2012-03-18T11:58:24Z</time>
      </trkpt>
      <trkpt lat="49.12693" lon="-0.51154">
        <ele>115</ele>
        <time>2012-03-18T11:58:26Z</time>
      </trkpt>
      <trkpt lat="49.12688" lon="-0.51157">
        <ele>113</ele>
        <time>2012-03-18T11:58:34Z</time>
      </trkpt>
      <trkpt lat="49.12696" lon="-0.51143">
        <ele>112</ele>
        <time>2012-03-18T11:59:24Z</time>
      </trkpt>
      <trkpt lat="49.12702" lon="-0.51145">
        <ele>114</ele>
        <time>2012-03-18T11:59:26Z</time>
      </trkpt>
      <trkpt lat="49.12707" lon="-0.51146">
        <ele>116</ele>
        <time>2012-03-18T11:59:31Z</time>
      </trkpt>
      <trkpt lat="49.12712" lon="-0.51148">
        <ele>118</ele>
        <time>2012-03-18T11:59:34Z</time>
      </trkpt>
      <trkpt lat="49.12716" lon="-0.51152">
        <ele>120</ele>
        <time>2012-03-18T11:59:39Z</time>
      </trkpt>
      <trkpt lat="49.12716" lon="-0.51152">
        <ele>120</ele>
        <time>2012-03-18T11:59:39Z</time>
      </trkpt>
      <trkpt lat="49.12716" lon="-0.51152">
        <ele>120</ele>
        <time>2012-03-18T11:59:40Z</time>
      </trkpt>
      <trkpt lat="49.12721" lon="-0.51152">
        <ele>121</ele>
        <time>2012-03-18T11:59:43Z</time>
      </trkpt>
      <trkpt lat="49.12728" lon="-0.51151">
        <ele>122</ele>
        <time>2012-03-18T11:59:51Z</time>
      </trkpt>
      <trkpt lat="49.12732" lon="-0.51153">
        <ele>122</ele>
        <time>2012-03-18T11:59:55Z</time>
      </trkpt>
      <trkpt lat="49.12737" lon="-0.51152">
        <ele>122</ele>
        <time>2012-03-18T12:00:00Z</time>
      </trkpt>
      <trkpt lat="49.12744" lon="-0.51153">
        <ele>124</ele>
        <time>2012-03-18T12:00:07Z</time>
      </trkpt>
      <trkpt lat="49.1275" lon="-0.51153">
        <ele>125</ele>
        <time>2012-03-18T12:00:10Z</time>
      </trkpt>
      <trkpt lat="49.12754" lon="-0.51156">
        <ele>126</ele>
        <time>2012-03-18T12:00:15Z</time>
      </trkpt>
      <trkpt lat="49.12754" lon="-0.51156">
        <ele>126</ele>
        <time>2012-03-18T12:00:15Z</time>
      </trkpt>
      <trkpt lat="49.12754" lon="-0.51156">
        <ele>126</ele>
        <time>2012-03-18T12:00:16Z</time>
      </trkpt>
      <trkpt lat="49.12761" lon="-0.51159">
        <ele>124</ele>
        <time>2012-03-18T12:00:23Z</time>
      </trkpt>
      <trkpt lat="49.12766" lon="-0.51161">
        <ele>124</ele>
        <time>2012-03-18T12:00:25Z</time>
      </trkpt>
      <trkpt lat="49.12771" lon="-0.5116">
        <ele>124</ele>
        <time>2012-03-18T12:00:28Z</time>
      </trkpt>
      <trkpt lat="49.12776" lon="-0.51162">
        <ele>124</ele>
        <time>2012-03-18T12:00:32Z</time>
      </trkpt>
      <trkpt lat="49.12776" lon="-0.51162">
        <ele>124</ele>
        <time>2012-03-18T12:00:32Z</time>
      </trkpt>
      <trkpt lat="49.12776" lon="-0.51162">
        <ele>124</ele>
        <time>2012-03-18T12:00:33Z</time>
      </trkpt>
      <trkpt lat="49.12781" lon="-0.51163">
        <ele>124</ele>
        <time>2012-03-18T12:00:35Z</time>
      </trkpt>
      <trkpt lat="49.12781" lon="-0.51163">
        <ele>124</ele>
        <time>2012-03-18T12:00:35Z</time>
      </trkpt>
      <trkpt lat="49.12781" lon="-0.51163">
        <ele>124</ele>
        <time>2012-03-18T12:00:37Z</time>
      </trkpt>
      <trkpt lat="49.12786" lon="-0.51163">
        <ele>123</ele>
        <time>2012-03-18T12:00:40Z</time>
      </trkpt>
      <trkpt lat="49.12792" lon="-0.51164">
        <ele>123</ele>
        <time>2012-03-18T12:00:43Z</time>
      </trkpt>
      <trkpt lat="49.12797" lon="-0.51162">
        <ele>123</ele>
        <time>2012-03-18T12:00:47Z</time>
      </trkpt>
      <trkpt lat="49.12797" lon="-0.51162">
        <ele>123</ele>
        <time>2012-03-18T12:00:47Z</time>
      </trkpt>
      <trkpt lat="49.12797" lon="-0.51162">
        <ele>123</ele>
        <time>2012-03-18T12:00:48Z</time>
      </trkpt>
      <trkpt lat="49.12802" lon="-0.51162">
        <ele>123</ele>
        <time>2012-03-18T12:00:50Z</time>
      </trkpt>
      <trkpt lat="49.12808" lon="-0.51164">
        <ele>124</ele>
        <time>2012-03-18T12:00:52Z</time>
      </trkpt>
      <trkpt lat="49.12813" lon="-0.51165">
        <ele>124</ele>
        <time>2012-03-18T12:00:55Z</time>
      </trkpt>
      <trkpt lat="49.12818" lon="-0.51167">
        <ele>124</ele>
        <time>2012-03-18T12:00:57Z</time>
      </trkpt>
      <trkpt lat="49.12818" lon="-0.51167">
        <ele>124</ele>
        <time>2012-03-18T12:00:57Z</time>
      </trkpt>
      <trkpt lat="49.12818" lon="-0.51167">
        <ele>124</ele>
        <time>2012-03-18T12:00:58Z</time>
      </trkpt>
      <trkpt lat="49.12824" lon="-0.51171">
        <ele>124</ele>
        <time>2012-03-18T12:01:01Z</time>
      </trkpt>
      <trkpt lat="49.12829" lon="-0.51173">
        <ele>124</ele>
        <time>2012-03-18T12:01:09Z</time>
      </trkpt>
      <trkpt lat="49.12834" lon="-0.51175">
        <ele>125</ele>
        <time>2012-03-18T12:01:12Z</time>
      </trkpt>
      <trkpt lat="49.12841" lon="-0.51174">
        <ele>127</ele>
        <time>2012-03-18T12:01:16Z</time>
      </trkpt>
      <trkpt lat="49.12847" lon="-0.51176">
        <ele>126</ele>
        <time>2012-03-18T12:01:25Z</time>
      </trkpt>
      <trkpt lat="49.12851" lon="-0.51178">
        <ele>127</ele>
        <time>2012-03-18T12:01:32Z</time>
      </trkpt>
      <trkpt lat="49.12857" lon="-0.51179">
        <ele>126</ele>
        <time>2012-03-18T12:01:39Z</time>
      </trkpt>
      <trkpt lat="49.12862" lon="-0.51179">
        <ele>126</ele>
        <time>2012-03-18T12:01:43Z</time>
      </trkpt>
      <trkpt lat="49.12862" lon="-0.51179">
        <ele>126</ele>
        <time>2012-03-18T12:01:43Z</time>
      </trkpt>
      <trkpt lat="49.12862" lon="-0.51179">
        <ele>126</ele>
        <time>2012-03-18T12:01:44Z</time>
      </trkpt>
      <trkpt lat="49.12868" lon="-0.51177">
        <ele>127</ele>
        <time>2012-03-18T12:01:47Z</time>
      </trkpt>
      <trkpt lat="49.12873" lon="-0.5118">
        <ele>128</ele>
        <time>2012-03-18T12:01:49Z</time>
      </trkpt>
      <trkpt lat="49.12873" lon="-0.5118">
        <ele>128</ele>
        <time>2012-03-18T12:01:49Z</time>
      </trkpt>
      <trkpt lat="49.12873" lon="-0.5118">
        <ele>128</ele>
        <time>2012-03-18T12:01:50Z</time>
      </trkpt>
      <trkpt lat="49.12877" lon="-0.51184">
        <ele>128</ele>
        <time>2012-03-18T12:01:55Z</time>
      </trkpt>
      <trkpt lat="49.12883" lon="-0.51184">
        <ele>128</ele>
        <time>2012-03-18T12:02:00Z</time>
      </trkpt>
      <trkpt lat="49.12888" lon="-0.51184">
        <ele>127</ele>
        <time>2012-03-18T12:02:03Z</time>
      </trkpt>
      <trkpt lat="49.12888" lon="-0.51184">
        <ele>127</ele>
        <time>2012-03-18T12:02:03Z</time>
      </trkpt>
      <trkpt lat="49.12888" lon="-0.51184">
        <ele>127</ele>
        <time>2012-03-18T12:02:04Z</time>
      </trkpt>
      <trkpt lat="49.12894" lon="-0.51186">
        <ele>128</ele>
        <time>2012-03-18T12:02:07Z</time>
      </trkpt>
      <trkpt lat="49.129" lon="-0.51186">
        <ele>126</ele>
        <time>2012-03-18T12:02:10Z</time>
      </trkpt>
      <trkpt lat="49.12905" lon="-0.51184">
        <ele>124</ele>
        <time>2012-03-18T12:02:13Z</time>
      </trkpt>
      <trkpt lat="49.12909" lon="-0.51187">
        <ele>124</ele>
        <time>2012-03-18T12:02:16Z</time>
      </trkpt>
      <trkpt lat="49.12913" lon="-0.51192">
        <ele>125</ele>
        <time>2012-03-18T12:02:19Z</time>
      </trkpt>
      <trkpt lat="49.12918" lon="-0.51195">
        <ele>125</ele>
        <time>2012-03-18T12:02:22Z</time>
      </trkpt>
      <trkpt lat="49.12924" lon="-0.51196">
        <ele>126</ele>
        <time>2012-03-18T12:02:25Z</time>
      </trkpt>
      <trkpt lat="49.12929" lon="-0.51196">
        <ele>127</ele>
        <time>2012-03-18T12:02:28Z</time>
      </trkpt>
      <trkpt lat="49.12934" lon="-0.51197">
        <ele>127</ele>
        <time>2012-03-18T12:02:32Z</time>
      </trkpt>
      <trkpt lat="49.12939" lon="-0.51198">
        <ele>123</ele>
        <time>2012-03-18T12:02:40Z</time>
      </trkpt>
      <trkpt lat="49.12944" lon="-0.512">
        <ele>125</ele>
        <time>2012-03-18T12:02:48Z</time>
      </trkpt>
      <trkpt lat="49.1295" lon="-0.51201">
        <ele>126</ele>
        <time>2012-03-18T12:02:53Z</time>
      </trkpt>
      <trkpt lat="49.12956" lon="-0.51203">
        <ele>127</ele>
        <time>2012-03-18T12:02:56Z</time>
      </trkpt>
      <trkpt lat="49.12961" lon="-0.51203">
        <ele>129</ele>
        <time>2012-03-18T12:02:59Z</time>
      </trkpt>
      <trkpt lat="49.12966" lon="-0.51204">
        <ele>129</ele>
        <time>2012-03-18T12:03:01Z</time>
      </trkpt>
      <trkpt lat="49.12971" lon="-0.51206">
        <ele>130</ele>
        <time>2012-03-18T12:03:05Z</time>
      </trkpt>
      <trkpt lat="49.12976" lon="-0.51204">
        <ele>129</ele>
        <time>2012-03-18T12:03:10Z</time>
      </trkpt>
      <trkpt lat="49.12981" lon="-0.51204">
        <ele>129</ele>
        <time>2012-03-18T12:03:16Z</time>
      </trkpt>
      <trkpt lat="49.12987" lon="-0.51205">
        <ele>131</ele>
        <time>2012-03-18T12:03:22Z</time>
      </trkpt>
      <trkpt lat="49.12992" lon="-0.51208">
        <ele>129</ele>
        <time>2012-03-18T12:03:28Z</time>
      </trkpt>
      <trkpt lat="49.12997" lon="-0.51209">
        <ele>129</ele>
        <time>2012-03-18T12:03:30Z</time>
      </trkpt>
      <trkpt lat="49.13002" lon="-0.51211">
        <ele>129</ele>
        <time>2012-03-18T12:03:33Z</time>
      </trkpt>
      <trkpt lat="49.13007" lon="-0.51214">
        <ele>129</ele>
        <time>2012-03-18T12:03:35Z</time>
      </trkpt>
      <trkpt lat="49.13014" lon="-0.51214">
        <ele>129</ele>
        <time>2012-03-18T12:03:39Z</time>
      </trkpt>
      <trkpt lat="49.13019" lon="-0.51215">
        <ele>130</ele>
        <time>2012-03-18T12:03:42Z</time>
      </trkpt>
      <trkpt lat="49.13024" lon="-0.51217">
        <ele>129</ele>
        <time>2012-03-18T12:03:46Z</time>
      </trkpt>
      <trkpt lat="49.13029" lon="-0.51218">
        <ele>128</ele>
        <time>2012-03-18T12:03:50Z</time>
      </trkpt>
      <trkpt lat="49.13036" lon="-0.51219">
        <ele>126</ele>
        <time>2012-03-18T12:03:55Z</time>
      </trkpt>
      <trkpt lat="49.13041" lon="-0.51219">
        <ele>128</ele>
        <time>2012-03-18T12:03:58Z</time>
      </trkpt>
      <trkpt lat="49.13046" lon="-0.5122">
        <ele>128</ele>
        <time>2012-03-18T12:04:03Z</time>
      </trkpt>
      <trkpt lat="49.1305" lon="-0.51223">
        <ele>128</ele>
        <time>2012-03-18T12:04:08Z</time>
      </trkpt>
      <trkpt lat="49.1305" lon="-0.51223">
        <ele>128</ele>
        <time>2012-03-18T12:04:08Z</time>
      </trkpt>
      <trkpt lat="49.1305" lon="-0.51223">
        <ele>128</ele>
        <time>2012-03-18T12:04:09Z</time>
      </trkpt>
      <trkpt lat="49.13055" lon="-0.51224">
        <ele>127</ele>
        <time>2012-03-18T12:04:14Z</time>
      </trkpt>
      <trkpt lat="49.13055" lon="-0.51224">
        <ele>127</ele>
        <time>2012-03-18T12:04:14Z</time>
      </trkpt>
      <trkpt lat="49.13055" lon="-0.51224">
        <ele>127</ele>
        <time>2012-03-18T12:04:15Z</time>
      </trkpt>
      <trkpt lat="49.1306" lon="-0.51226">
        <ele>127</ele>
        <time>2012-03-18T12:04:17Z</time>
      </trkpt>
      <trkpt lat="49.13066" lon="-0.51228">
        <ele>127</ele>
        <time>2012-03-18T12:04:20Z</time>
      </trkpt>
      <trkpt lat="49.13071" lon="-0.51228">
        <ele>127</ele>
        <time>2012-03-18T12:04:23Z</time>
      </trkpt>
      <trkpt lat="49.13076" lon="-0.5123">
        <ele>128</ele>
        <time>2012-03-18T12:04:26Z</time>
      </trkpt>
      <trkpt lat="49.1308" lon="-0.51231">
        <ele>126</ele>
        <time>2012-03-18T12:04:32Z</time>
      </trkpt>
      <trkpt lat="49.13086" lon="-0.51232">
        <ele>125</ele>
        <time>2012-03-18T12:04:42Z</time>
      </trkpt>
      <trkpt lat="49.13092" lon="-0.51231">
        <ele>124</ele>
        <time>2012-03-18T12:04:45Z</time>
      </trkpt>
      <trkpt lat="49.13097" lon="-0.51232">
        <ele>124</ele>
        <time>2012-03-18T12:04:48Z</time>
      </trkpt>
      <trkpt lat="49.13102" lon="-0.51232">
        <ele>124</ele>
        <time>2012-03-18T12:04:52Z</time>
      </trkpt>
      <trkpt lat="49.13108" lon="-0.51232">
        <ele>125</ele>
        <time>2012-03-18T12:04:59Z</time>
      </trkpt>
      <trkpt lat="49.13115" lon="-0.51235">
        <ele>126</ele>
        <time>2012-03-18T12:05:03Z</time>
      </trkpt>
      <trkpt lat="49.1312" lon="-0.51238">
        <ele>128</ele>
        <time>2012-03-18T12:05:06Z</time>
      </trkpt>
      <trkpt lat="49.13125" lon="-0.51238">
        <ele>129</ele>
        <time>2012-03-18T12:05:08Z</time>
      </trkpt>
      <trkpt lat="49.13131" lon="-0.51238">
        <ele>131</ele>
        <time>2012-03-18T12:05:11Z</time>
      </trkpt>
      <trkpt lat="49.13135" lon="-0.51239">
        <ele>127</ele>
        <time>2012-03-18T12:05:17Z</time>
      </trkpt>
      <trkpt lat="49.1314" lon="-0.51242">
        <ele>125</ele>
        <time>2012-03-18T12:05:22Z</time>
      </trkpt>
      <trkpt lat="49.13145" lon="-0.51244">
        <ele>125</ele>
        <time>2012-03-18T12:05:26Z</time>
      </trkpt>
      <trkpt lat="49.13151" lon="-0.51245">
        <ele>125</ele>
        <time>2012-03-18T12:05:32Z</time>
      </trkpt>
      <trkpt lat="49.13155" lon="-0.51243">
        <ele>125</ele>
        <time>2012-03-18T12:05:36Z</time>
      </trkpt>
      <trkpt lat="49.13159" lon="-0.51245">
        <ele>126</ele>
        <time>2012-03-18T12:05:38Z</time>
      </trkpt>
      <trkpt lat="49.13165" lon="-0.51246">
        <ele>127</ele>
        <time>2012-03-18T12:05:44Z</time>
      </trkpt>
      <trkpt lat="49.1317" lon="-0.51247">
        <ele>127</ele>
        <time>2012-03-18T12:05:47Z</time>
      </trkpt>
      <trkpt lat="49.13176" lon="-0.51247">
        <ele>127</ele>
        <time>2012-03-18T12:05:50Z</time>
      </trkpt>
      <trkpt lat="49.1318" lon="-0.51248">
        <ele>127</ele>
        <time>2012-03-18T12:05:53Z</time>
      </trkpt>
      <trkpt lat="49.13186" lon="-0.51247">
        <ele>127</ele>
        <time>2012-03-18T12:05:59Z</time>
      </trkpt>
      <trkpt lat="49.1319" lon="-0.51248">
        <ele>127</ele>
        <time>2012-03-18T12:06:02Z</time>
      </trkpt>
      <trkpt lat="49.13196" lon="-0.5125">
        <ele>125</ele>
        <time>2012-03-18T12:06:08Z</time>
      </trkpt>
      <trkpt lat="49.132" lon="-0.51252">
        <ele>125</ele>
        <time>2012-03-18T12:06:11Z</time>
      </trkpt>
      <trkpt lat="49.13206" lon="-0.51253">
        <ele>126</ele>
        <time>2012-03-18T12:06:18Z</time>
      </trkpt>
      <trkpt lat="49.13212" lon="-0.51253">
        <ele>127</ele>
        <time>2012-03-18T12:06:22Z</time>
      </trkpt>
      <trkpt lat="49.13217" lon="-0.51255">
        <ele>126</ele>
        <time>2012-03-18T12:06:26Z</time>
      </trkpt>
      <trkpt lat="49.13222" lon="-0.51257">
        <ele>127</ele>
        <time>2012-03-18T12:06:31Z</time>
      </trkpt>
      <trkpt lat="49.13227" lon="-0.51258">
        <ele>127</ele>
        <time>2012-03-18T12:06:34Z</time>
      </trkpt>
      <trkpt lat="49.13232" lon="-0.51259">
        <ele>129</ele>
        <time>2012-03-18T12:06:36Z</time>
      </trkpt>
      <trkpt lat="49.13237" lon="-0.51259">
        <ele>130</ele>
        <time>2012-03-18T12:06:40Z</time>
      </trkpt>
      <trkpt lat="49.13237" lon="-0.51259">
        <ele>130</ele>
        <time>2012-03-18T12:06:40Z</time>
      </trkpt>
      <trkpt lat="49.13237" lon="-0.51259">
        <ele>130</ele>
        <time>2012-03-18T12:06:41Z</time>
      </trkpt>
      <trkpt lat="49.13242" lon="-0.5126">
        <ele>128</ele>
        <time>2012-03-18T12:06:45Z</time>
      </trkpt>
      <trkpt lat="49.13248" lon="-0.51259">
        <ele>129</ele>
        <time>2012-03-18T12:06:49Z</time>
      </trkpt>
      <trkpt lat="49.13252" lon="-0.51262">
        <ele>129</ele>
        <time>2012-03-18T12:06:52Z</time>
      </trkpt>
      <trkpt lat="49.13257" lon="-0.51264">
        <ele>129</ele>
        <time>2012-03-18T12:06:54Z</time>
      </trkpt>
      <trkpt lat="49.13262" lon="-0.51265">
        <ele>130</ele>
        <time>2012-03-18T12:06:57Z</time>
      </trkpt>
      <trkpt lat="49.13267" lon="-0.51266">
        <ele>132</ele>
        <time>2012-03-18T12:06:58Z</time>
      </trkpt>
      <trkpt lat="49.13272" lon="-0.51267">
        <ele>131</ele>
        <time>2012-03-18T12:07:02Z</time>
      </trkpt>
      <trkpt lat="49.13277" lon="-0.51268">
        <ele>130</ele>
        <time>2012-03-18T12:07:06Z</time>
      </trkpt>
      <trkpt lat="49.13282" lon="-0.51271">
        <ele>130</ele>
        <time>2012-03-18T12:07:15Z</time>
      </trkpt>
      <trkpt lat="49.13286" lon="-0.51274">
        <ele>131</ele>
        <time>2012-03-18T12:07:17Z</time>
      </trkpt>
      <trkpt lat="49.13291" lon="-0.51275">
        <ele>131</ele>
        <time>2012-03-18T12:07:20Z</time>
      </trkpt>
      <trkpt lat="49.13297" lon="-0.51276">
        <ele>131</ele>
        <time>2012-03-18T12:07:27Z</time>
      </trkpt>
      <trkpt lat="49.13302" lon="-0.51275">
        <ele>133</ele>
        <time>2012-03-18T12:07:30Z</time>
      </trkpt>
      <trkpt lat="49.13306" lon="-0.51273">
        <ele>132</ele>
        <time>2012-03-18T12:07:35Z</time>
      </trkpt>
      <trkpt lat="49.13312" lon="-0.51272">
        <ele>132</ele>
        <time>2012-03-18T12:07:40Z</time>
      </trkpt>
      <trkpt lat="49.13317" lon="-0.51273">
        <ele>131</ele>
        <time>2012-03-18T12:07:43Z</time>
      </trkpt>
      <trkpt lat="49.13322" lon="-0.51274">
        <ele>131</ele>
        <time>2012-03-18T12:07:45Z</time>
      </trkpt>
      <trkpt lat="49.13327" lon="-0.51276">
        <ele>131</ele>
        <time>2012-03-18T12:07:48Z</time>
      </trkpt>
      <trkpt lat="49.1333" lon="-0.5128">
        <ele>132</ele>
        <time>2012-03-18T12:07:51Z</time>
      </trkpt>
      <trkpt lat="49.13334" lon="-0.51287">
        <ele>131</ele>
        <time>2012-03-18T12:07:55Z</time>
      </trkpt>
      <trkpt lat="49.13336" lon="-0.51294">
        <ele>129</ele>
        <time>2012-03-18T12:07:58Z</time>
      </trkpt>
      <trkpt lat="49.13337" lon="-0.51302">
        <ele>128</ele>
        <time>2012-03-18T12:08:02Z</time>
      </trkpt>
      <trkpt lat="49.13336" lon="-0.5131">
        <ele>128</ele>
        <time>2012-03-18T12:08:08Z</time>
      </trkpt>
      <trkpt lat="49.13336" lon="-0.5131">
        <ele>128</ele>
        <time>2012-03-18T12:08:08Z</time>
      </trkpt>
      <trkpt lat="49.13336" lon="-0.5131">
        <ele>129</ele>
        <time>2012-03-18T12:08:13Z</time>
      </trkpt>
      <trkpt lat="49.13334" lon="-0.51302">
        <ele>129</ele>
        <time>2012-03-18T12:08:49Z</time>
      </trkpt>
      <trkpt lat="49.13338" lon="-0.51296">
        <ele>127</ele>
        <time>2012-03-18T12:08:52Z</time>
      </trkpt>
      <trkpt lat="49.1334" lon="-0.51289">
        <ele>126</ele>
        <time>2012-03-18T12:08:55Z</time>
      </trkpt>
      <trkpt lat="49.13343" lon="-0.51283">
        <ele>126</ele>
        <time>2012-03-18T12:08:58Z</time>
      </trkpt>
      <trkpt lat="49.13344" lon="-0.51274">
        <ele>126</ele>
        <time>2012-03-18T12:09:01Z</time>
      </trkpt>
      <trkpt lat="49.1335" lon="-0.51277">
        <ele>126</ele>
        <time>2012-03-18T12:09:04Z</time>
      </trkpt>
      <trkpt lat="49.13355" lon="-0.5128">
        <ele>128</ele>
        <time>2012-03-18T12:09:08Z</time>
      </trkpt>
      <trkpt lat="49.1336" lon="-0.51283">
        <ele>131</ele>
        <time>2012-03-18T12:09:11Z</time>
      </trkpt>
      <trkpt lat="49.13364" lon="-0.51287">
        <ele>132</ele>
        <time>2012-03-18T12:09:14Z</time>
      </trkpt>
      <trkpt lat="49.13369" lon="-0.51288">
        <ele>131</ele>
        <time>2012-03-18T12:09:19Z</time>
      </trkpt>
      <trkpt lat="49.13375" lon="-0.5129">
        <ele>132</ele>
        <time>2012-03-18T12:09:23Z</time>
      </trkpt>
      <trkpt lat="49.13382" lon="-0.51291">
        <ele>135</ele>
        <time>2012-03-18T12:09:26Z</time>
      </trkpt>
      <trkpt lat="49.13387" lon="-0.51292">
        <ele>137</ele>
        <time>2012-03-18T12:09:29Z</time>
      </trkpt>
      <trkpt lat="49.13393" lon="-0.51293">
        <ele>137</ele>
        <time>2012-03-18T12:09:33Z</time>
      </trkpt>
      <trkpt lat="49.13398" lon="-0.51293">
        <ele>136</ele>
        <time>2012-03-18T12:09:38Z</time>
      </trkpt>
      <trkpt lat="49.13402" lon="-0.51294">
        <ele>136</ele>
        <time>2012-03-18T12:09:42Z</time>
      </trkpt>
      <trkpt lat="49.13408" lon="-0.51296">
        <ele>137</ele>
        <time>2012-03-18T12:09:47Z</time>
      </trkpt>
      <trkpt lat="49.13413" lon="-0.51296">
        <ele>138</ele>
        <time>2012-03-18T12:09:51Z</time>
      </trkpt>
      <trkpt lat="49.13418" lon="-0.51296">
        <ele>138</ele>
        <time>2012-03-18T12:09:57Z</time>
      </trkpt>
      <trkpt lat="49.13423" lon="-0.51298">
        <ele>137</ele>
        <time>2012-03-18T12:10:01Z</time>
      </trkpt>
      <trkpt lat="49.13429" lon="-0.51299">
        <ele>136</ele>
        <time>2012-03-18T12:10:07Z</time>
      </trkpt>
      <trkpt lat="49.13435" lon="-0.51302">
        <ele>136</ele>
        <time>2012-03-18T12:10:11Z</time>
      </trkpt>
      <trkpt lat="49.13439" lon="-0.51302">
        <ele>135</ele>
        <time>2012-03-18T12:10:16Z</time>
      </trkpt>
      <trkpt lat="49.13444" lon="-0.51303">
        <ele>135</ele>
        <time>2012-03-18T12:10:19Z</time>
      </trkpt>
      <trkpt lat="49.13448" lon="-0.51304">
        <ele>135</ele>
        <time>2012-03-18T12:10:22Z</time>
      </trkpt>
      <trkpt lat="49.13454" lon="-0.51305">
        <ele>135</ele>
        <time>2012-03-18T12:10:26Z</time>
      </trkpt>
      <trkpt lat="49.13459" lon="-0.51306">
        <ele>134</ele>
        <time>2012-03-18T12:10:30Z</time>
      </trkpt>
      <trkpt lat="49.13465" lon="-0.51307">
        <ele>136</ele>
        <time>2012-03-18T12:10:34Z</time>
      </trkpt>
      <trkpt lat="49.1347" lon="-0.51309">
        <ele>135</ele>
        <time>2012-03-18T12:10:39Z</time>
      </trkpt>
      <trkpt lat="49.13475" lon="-0.51309">
        <ele>135</ele>
        <time>2012-03-18T12:10:42Z</time>
      </trkpt>
      <trkpt lat="49.1348" lon="-0.51309">
        <ele>134</ele>
        <time>2012-03-18T12:10:46Z</time>
      </trkpt>
      <trkpt lat="49.13486" lon="-0.5131">
        <ele>132</ele>
        <time>2012-03-18T12:10:51Z</time>
      </trkpt>
      <trkpt lat="49.1349" lon="-0.5131">
        <ele>133</ele>
        <time>2012-03-18T12:10:54Z</time>
      </trkpt>
      <trkpt lat="49.13496" lon="-0.51311">
        <ele>134</ele>
        <time>2012-03-18T12:10:58Z</time>
      </trkpt>
      <trkpt lat="49.13501" lon="-0.51312">
        <ele>133</ele>
        <time>2012-03-18T12:11:02Z</time>
      </trkpt>
      <trkpt lat="49.13506" lon="-0.51313">
        <ele>134</ele>
        <time>2012-03-18T12:11:06Z</time>
      </trkpt>
      <trkpt lat="49.13511" lon="-0.51314">
        <ele>133</ele>
        <time>2012-03-18T12:11:11Z</time>
      </trkpt>
      <trkpt lat="49.13517" lon="-0.51317">
        <ele>131</ele>
        <time>2012-03-18T12:11:17Z</time>
      </trkpt>
      <trkpt lat="49.13522" lon="-0.51318">
        <ele>132</ele>
        <time>2012-03-18T12:11:21Z</time>
      </trkpt>
      <trkpt lat="49.13527" lon="-0.51319">
        <ele>133</ele>
        <time>2012-03-18T12:11:26Z</time>
      </trkpt>
      <trkpt lat="49.13532" lon="-0.5132">
        <ele>133</ele>
        <time>2012-03-18T12:11:31Z</time>
      </trkpt>
      <trkpt lat="49.13537" lon="-0.51321">
        <ele>135</ele>
        <time>2012-03-18T12:11:34Z</time>
      </trkpt>
      <trkpt lat="49.13542" lon="-0.51322">
        <ele>135</ele>
        <time>2012-03-18T12:11:38Z</time>
      </trkpt>
      <trkpt lat="49.13547" lon="-0.51324">
        <ele>134</ele>
        <time>2012-03-18T12:11:42Z</time>
      </trkpt>
      <trkpt lat="49.13552" lon="-0.51324">
        <ele>135</ele>
        <time>2012-03-18T12:11:46Z</time>
      </trkpt>
      <trkpt lat="49.13557" lon="-0.51326">
        <ele>135</ele>
        <time>2012-03-18T12:11:51Z</time>
      </trkpt>
      <trkpt lat="49.13562" lon="-0.51327">
        <ele>135</ele>
        <time>2012-03-18T12:11:56Z</time>
      </trkpt>
      <trkpt lat="49.13568" lon="-0.51327">
        <ele>133</ele>
        <time>2012-03-18T12:12:03Z</time>
      </trkpt>
      <trkpt lat="49.13572" lon="-0.51328">
        <ele>135</ele>
        <time>2012-03-18T12:12:05Z</time>
      </trkpt>
      <trkpt lat="49.13578" lon="-0.5133">
        <ele>136</ele>
        <time>2012-03-18T12:12:09Z</time>
      </trkpt>
      <trkpt lat="49.13584" lon="-0.51332">
        <ele>136</ele>
        <time>2012-03-18T12:12:15Z</time>
      </trkpt>
      <trkpt lat="49.1359" lon="-0.51333">
        <ele>135</ele>
        <time>2012-03-18T12:12:19Z</time>
      </trkpt>
      <trkpt lat="49.13594" lon="-0.51333">
        <ele>134</ele>
        <time>2012-03-18T12:12:24Z</time>
      </trkpt>
      <trkpt lat="49.136" lon="-0.51335">
        <ele>136</ele>
        <time>2012-03-18T12:12:28Z</time>
      </trkpt>
      <trkpt lat="49.13606" lon="-0.51336">
        <ele>137</ele>
        <time>2012-03-18T12:12:32Z</time>
      </trkpt>
      <trkpt lat="49.1361" lon="-0.51337">
        <ele>136</ele>
        <time>2012-03-18T12:12:36Z</time>
      </trkpt>
      <trkpt lat="49.13615" lon="-0.51338">
        <ele>136</ele>
        <time>2012-03-18T12:12:39Z</time>
      </trkpt>
      <trkpt lat="49.13621" lon="-0.51338">
        <ele>136</ele>
        <time>2012-03-18T12:12:44Z</time>
      </trkpt>
      <trkpt lat="49.13626" lon="-0.51338">
        <ele>135</ele>
        <time>2012-03-18T12:12:49Z</time>
      </trkpt>
      <trkpt lat="49.13631" lon="-0.5134">
        <ele>131</ele>
        <time>2012-03-18T12:12:56Z</time>
      </trkpt>
      <trkpt lat="49.13636" lon="-0.51342">
        <ele>131</ele>
        <time>2012-03-18T12:13:00Z</time>
      </trkpt>
      <trkpt lat="49.13641" lon="-0.51343">
        <ele>133</ele>
        <time>2012-03-18T12:13:04Z</time>
      </trkpt>
      <trkpt lat="49.13646" lon="-0.51343">
        <ele>131</ele>
        <time>2012-03-18T12:13:09Z</time>
      </trkpt>
      <trkpt lat="49.1365" lon="-0.51345">
        <ele>129</ele>
        <time>2012-03-18T12:13:13Z</time>
      </trkpt>
      <trkpt lat="49.13656" lon="-0.51346">
        <ele>127</ele>
        <time>2012-03-18T12:13:18Z</time>
      </trkpt>
      <trkpt lat="49.13661" lon="-0.51347">
        <ele>126</ele>
        <time>2012-03-18T12:13:23Z</time>
      </trkpt>
      <trkpt lat="49.13666" lon="-0.51346">
        <ele>125</ele>
        <time>2012-03-18T12:13:27Z</time>
      </trkpt>
      <trkpt lat="49.13671" lon="-0.51347">
        <ele>126</ele>
        <time>2012-03-18T12:13:31Z</time>
      </trkpt>
      <trkpt lat="49.13675" lon="-0.51349">
        <ele>128</ele>
        <time>2012-03-18T12:13:34Z</time>
      </trkpt>
      <trkpt lat="49.13681" lon="-0.51351">
        <ele>130</ele>
        <time>2012-03-18T12:13:37Z</time>
      </trkpt>
      <trkpt lat="49.13686" lon="-0.51353">
        <ele>131</ele>
        <time>2012-03-18T12:13:40Z</time>
      </trkpt>
      <trkpt lat="49.13691" lon="-0.51354">
        <ele>134</ele>
        <time>2012-03-18T12:13:44Z</time>
      </trkpt>
      <trkpt lat="49.13697" lon="-0.51354">
        <ele>135</ele>
        <time>2012-03-18T12:13:48Z</time>
      </trkpt>
      <trkpt lat="49.13703" lon="-0.51355">
        <ele>135</ele>
        <time>2012-03-18T12:13:53Z</time>
      </trkpt>
      <trkpt lat="49.13708" lon="-0.51356">
        <ele>133</ele>
        <time>2012-03-18T12:13:58Z</time>
      </trkpt>
      <trkpt lat="49.13713" lon="-0.51355">
        <ele>133</ele>
        <time>2012-03-18T12:14:02Z</time>
      </trkpt>
      <trkpt lat="49.13719" lon="-0.51356">
        <ele>135</ele>
        <time>2012-03-18T12:14:05Z</time>
      </trkpt>
      <trkpt lat="49.13724" lon="-0.51358">
        <ele>135</ele>
        <time>2012-03-18T12:14:09Z</time>
      </trkpt>
      <trkpt lat="49.1373" lon="-0.51359">
        <ele>135</ele>
        <time>2012-03-18T12:14:14Z</time>
      </trkpt>
      <trkpt lat="49.1373" lon="-0.51359">
        <ele>135</ele>
        <time>2012-03-18T12:14:14Z</time>
      </trkpt>
      <trkpt lat="49.1373" lon="-0.51359">
        <ele>135</ele>
        <time>2012-03-18T12:14:15Z</time>
      </trkpt>
      <trkpt lat="49.13734" lon="-0.5136">
        <ele>135</ele>
        <time>2012-03-18T12:14:18Z</time>
      </trkpt>
      <trkpt lat="49.13739" lon="-0.51362">
        <ele>135</ele>
        <time>2012-03-18T12:14:21Z</time>
      </trkpt>
      <trkpt lat="49.13744" lon="-0.51363">
        <ele>134</ele>
        <time>2012-03-18T12:14:24Z</time>
      </trkpt>
      <trkpt lat="49.13748" lon="-0.51363">
        <ele>135</ele>
        <time>2012-03-18T12:14:28Z</time>
      </trkpt>
      <trkpt lat="49.13753" lon="-0.51364">
        <ele>136</ele>
        <time>2012-03-18T12:14:32Z</time>
      </trkpt>
      <trkpt lat="49.13759" lon="-0.51366">
        <ele>138</ele>
        <time>2012-03-18T12:14:35Z</time>
      </trkpt>
      <trkpt lat="49.13764" lon="-0.51368">
        <ele>140</ele>
        <time>2012-03-18T12:14:39Z</time>
      </trkpt>
      <trkpt lat="49.13769" lon="-0.51369">
        <ele>140</ele>
        <time>2012-03-18T12:14:44Z</time>
      </trkpt>
      <trkpt lat="49.13774" lon="-0.51367">
        <ele>139</ele>
        <time>2012-03-18T12:14:48Z</time>
      </trkpt>
      <trkpt lat="49.13778" lon="-0.51368">
        <ele>138</ele>
        <time>2012-03-18T12:14:54Z</time>
      </trkpt>
      <trkpt lat="49.13784" lon="-0.51367">
        <ele>137</ele>
        <time>2012-03-18T12:14:59Z</time>
      </trkpt>
      <trkpt lat="49.13789" lon="-0.51367">
        <ele>138</ele>
        <time>2012-03-18T12:15:04Z</time>
      </trkpt>
      <trkpt lat="49.13792" lon="-0.51371">
        <ele>137</ele>
        <time>2012-03-18T12:15:08Z</time>
      </trkpt>
      <trkpt lat="49.13798" lon="-0.51369">
        <ele>136</ele>
        <time>2012-03-18T12:15:16Z</time>
      </trkpt>
      <trkpt lat="49.13803" lon="-0.5137">
        <ele>136</ele>
        <time>2012-03-18T12:15:21Z</time>
      </trkpt>
      <trkpt lat="49.13808" lon="-0.51372">
        <ele>135</ele>
        <time>2012-03-18T12:15:25Z</time>
      </trkpt>
      <trkpt lat="49.13813" lon="-0.51373">
        <ele>134</ele>
        <time>2012-03-18T12:15:30Z</time>
      </trkpt>
      <trkpt lat="49.13818" lon="-0.51375">
        <ele>136</ele>
        <time>2012-03-18T12:15:35Z</time>
      </trkpt>
      <trkpt lat="49.13824" lon="-0.51377">
        <ele>135</ele>
        <time>2012-03-18T12:15:40Z</time>
      </trkpt>
      <trkpt lat="49.13828" lon="-0.51379">
        <ele>138</ele>
        <time>2012-03-18T12:15:51Z</time>
      </trkpt>
      <trkpt lat="49.13828" lon="-0.51379">
        <ele>138</ele>
        <time>2012-03-18T12:15:51Z</time>
      </trkpt>
      <trkpt lat="49.13828" lon="-0.51379">
        <ele>138</ele>
        <time>2012-03-18T12:15:53Z</time>
      </trkpt>
      <trkpt lat="49.13832" lon="-0.51382">
        <ele>137</ele>
        <time>2012-03-18T12:16:27Z</time>
      </trkpt>
      <trkpt lat="49.13835" lon="-0.5139">
        <ele>136</ele>
        <time>2012-03-18T12:16:31Z</time>
      </trkpt>
      <trkpt lat="49.13837" lon="-0.51398">
        <ele>135</ele>
        <time>2012-03-18T12:16:35Z</time>
      </trkpt>
      <trkpt lat="49.13836" lon="-0.51406">
        <ele>134</ele>
        <time>2012-03-18T12:16:41Z</time>
      </trkpt>
      <trkpt lat="49.13836" lon="-0.51421">
        <ele>135</ele>
        <time>2012-03-18T12:16:49Z</time>
      </trkpt>
      <trkpt lat="49.13838" lon="-0.5143">
        <ele>135</ele>
        <time>2012-03-18T12:16:53Z</time>
      </trkpt>
      <trkpt lat="49.13842" lon="-0.51434">
        <ele>137</ele>
        <time>2012-03-18T12:16:58Z</time>
      </trkpt>
      <trkpt lat="49.13847" lon="-0.51431">
        <ele>138</ele>
        <time>2012-03-18T12:17:02Z</time>
      </trkpt>
      <trkpt lat="49.13853" lon="-0.51433">
        <ele>137</ele>
        <time>2012-03-18T12:17:08Z</time>
      </trkpt>
      <trkpt lat="49.13857" lon="-0.51436">
        <ele>136</ele>
        <time>2012-03-18T12:17:11Z</time>
      </trkpt>
      <trkpt lat="49.13864" lon="-0.51435">
        <ele>139</ele>
        <time>2012-03-18T12:17:14Z</time>
      </trkpt>
      <trkpt lat="49.13869" lon="-0.51434">
        <ele>140</ele>
        <time>2012-03-18T12:17:17Z</time>
      </trkpt>
      <trkpt lat="49.13874" lon="-0.51436">
        <ele>140</ele>
        <time>2012-03-18T12:17:21Z</time>
      </trkpt>
      <trkpt lat="49.13879" lon="-0.51438">
        <ele>140</ele>
        <time>2012-03-18T12:17:25Z</time>
      </trkpt>
      <trkpt lat="49.13884" lon="-0.5144">
        <ele>138</ele>
        <time>2012-03-18T12:17:31Z</time>
      </trkpt>
      <trkpt lat="49.13888" lon="-0.51442">
        <ele>136</ele>
        <time>2012-03-18T12:17:35Z</time>
      </trkpt>
      <trkpt lat="49.13894" lon="-0.51442">
        <ele>136</ele>
        <time>2012-03-18T12:17:39Z</time>
      </trkpt>
      <trkpt lat="49.13899" lon="-0.51444">
        <ele>135</ele>
        <time>2012-03-18T12:17:44Z</time>
      </trkpt>
      <trkpt lat="49.13903" lon="-0.51448">
        <ele>134</ele>
        <time>2012-03-18T12:17:47Z</time>
      </trkpt>
      <trkpt lat="49.13908" lon="-0.5145">
        <ele>133</ele>
        <time>2012-03-18T12:17:50Z</time>
      </trkpt>
      <trkpt lat="49.13912" lon="-0.51454">
        <ele>133</ele>
        <time>2012-03-18T12:17:54Z</time>
      </trkpt>
      <trkpt lat="49.13916" lon="-0.51456">
        <ele>132</ele>
        <time>2012-03-18T12:17:59Z</time>
      </trkpt>
      <trkpt lat="49.13921" lon="-0.51459">
        <ele>132</ele>
        <time>2012-03-18T12:18:05Z</time>
      </trkpt>
      <trkpt lat="49.13925" lon="-0.5146">
        <ele>130</ele>
        <time>2012-03-18T12:18:08Z</time>
      </trkpt>
      <trkpt lat="49.1393" lon="-0.51462">
        <ele>129</ele>
        <time>2012-03-18T12:18:12Z</time>
      </trkpt>
      <trkpt lat="49.13934" lon="-0.51467">
        <ele>130</ele>
        <time>2012-03-18T12:18:17Z</time>
      </trkpt>
      <trkpt lat="49.13938" lon="-0.5147">
        <ele>133</ele>
        <time>2012-03-18T12:18:21Z</time>
      </trkpt>
      <trkpt lat="49.13942" lon="-0.51474">
        <ele>135</ele>
        <time>2012-03-18T12:18:25Z</time>
      </trkpt>
      <trkpt lat="49.13947" lon="-0.51475">
        <ele>138</ele>
        <time>2012-03-18T12:18:28Z</time>
      </trkpt>
      <trkpt lat="49.13952" lon="-0.51475">
        <ele>139</ele>
        <time>2012-03-18T12:18:32Z</time>
      </trkpt>
      <trkpt lat="49.13957" lon="-0.51478">
        <ele>140</ele>
        <time>2012-03-18T12:18:41Z</time>
      </trkpt>
      <trkpt lat="49.13962" lon="-0.51481">
        <ele>141</ele>
        <time>2012-03-18T12:18:44Z</time>
      </trkpt>
      <trkpt lat="49.13967" lon="-0.51484">
        <ele>141</ele>
        <time>2012-03-18T12:18:48Z</time>
      </trkpt>
      <trkpt lat="49.13971" lon="-0.51488">
        <ele>141</ele>
        <time>2012-03-18T12:18:51Z</time>
      </trkpt>
      <trkpt lat="49.13975" lon="-0.51492">
        <ele>141</ele>
        <time>2012-03-18T12:18:55Z</time>
      </trkpt>
      <trkpt lat="49.1398" lon="-0.51495">
        <ele>141</ele>
        <time>2012-03-18T12:18:59Z</time>
      </trkpt>
      <trkpt lat="49.13984" lon="-0.51498">
        <ele>141</ele>
        <time>2012-03-18T12:19:04Z</time>
      </trkpt>
      <trkpt lat="49.13988" lon="-0.51504">
        <ele>141</ele>
        <time>2012-03-18T12:19:10Z</time>
      </trkpt>
      <trkpt lat="49.13992" lon="-0.51508">
        <ele>142</ele>
        <time>2012-03-18T12:19:14Z</time>
      </trkpt>
      <trkpt lat="49.13996" lon="-0.51513">
        <ele>142</ele>
        <time>2012-03-18T12:19:18Z</time>
      </trkpt>
      <trkpt lat="49.14002" lon="-0.51515">
        <ele>144</ele>
        <time>2012-03-18T12:19:22Z</time>
      </trkpt>
      <trkpt lat="49.14005" lon="-0.51519">
        <ele>144</ele>
        <time>2012-03-18T12:19:26Z</time>
      </trkpt>
      <trkpt lat="49.1401" lon="-0.51521">
        <ele>145</ele>
        <time>2012-03-18T12:19:29Z</time>
      </trkpt>
      <trkpt lat="49.14014" lon="-0.51525">
        <ele>144</ele>
        <time>2012-03-18T12:19:33Z</time>
      </trkpt>
      <trkpt lat="49.14019" lon="-0.51529">
        <ele>144</ele>
        <time>2012-03-18T12:19:38Z</time>
      </trkpt>
      <trkpt lat="49.14023" lon="-0.51533">
        <ele>144</ele>
        <time>2012-03-18T12:19:43Z</time>
      </trkpt>
      <trkpt lat="49.14028" lon="-0.51535">
        <ele>145</ele>
        <time>2012-03-18T12:19:48Z</time>
      </trkpt>
      <trkpt lat="49.14033" lon="-0.51536">
        <ele>144</ele>
        <time>2012-03-18T12:19:52Z</time>
      </trkpt>
      <trkpt lat="49.14038" lon="-0.5154">
        <ele>144</ele>
        <time>2012-03-18T12:19:56Z</time>
      </trkpt>
      <trkpt lat="49.14042" lon="-0.51544">
        <ele>143</ele>
        <time>2012-03-18T12:20:01Z</time>
      </trkpt>
      <trkpt lat="49.14046" lon="-0.5155">
        <ele>142</ele>
        <time>2012-03-18T12:20:05Z</time>
      </trkpt>
      <trkpt lat="49.14052" lon="-0.51552">
        <ele>144</ele>
        <time>2012-03-18T12:20:10Z</time>
      </trkpt>
      <trkpt lat="49.14058" lon="-0.5155">
        <ele>144</ele>
        <time>2012-03-18T12:20:14Z</time>
      </trkpt>
      <trkpt lat="49.14062" lon="-0.51554">
        <ele>144</ele>
        <time>2012-03-18T12:20:19Z</time>
      </trkpt>
      <trkpt lat="49.14066" lon="-0.51557">
        <ele>144</ele>
        <time>2012-03-18T12:20:22Z</time>
      </trkpt>
      <trkpt lat="49.14071" lon="-0.51562">
        <ele>144</ele>
        <time>2012-03-18T12:20:28Z</time>
      </trkpt>
      <trkpt lat="49.14076" lon="-0.51565">
        <ele>142</ele>
        <time>2012-03-18T12:20:33Z</time>
      </trkpt>
      <trkpt lat="49.14081" lon="-0.51562">
        <ele>142</ele>
        <time>2012-03-18T12:20:37Z</time>
      </trkpt>
      <trkpt lat="49.14081" lon="-0.51562">
        <ele>142</ele>
        <time>2012-03-18T12:20:37Z</time>
      </trkpt>
      <trkpt lat="49.14081" lon="-0.51562">
        <ele>142</ele>
        <time>2012-03-18T12:20:38Z</time>
      </trkpt>
      <trkpt lat="49.14087" lon="-0.51561">
        <ele>142</ele>
        <time>2012-03-18T12:20:43Z</time>
      </trkpt>
      <trkpt lat="49.14092" lon="-0.5156">
        <ele>142</ele>
        <time>2012-03-18T12:20:48Z</time>
      </trkpt>
      <trkpt lat="49.14098" lon="-0.51558">
        <ele>142</ele>
        <time>2012-03-18T12:20:52Z</time>
      </trkpt>
      <trkpt lat="49.14103" lon="-0.51559">
        <ele>144</ele>
        <time>2012-03-18T12:20:57Z</time>
      </trkpt>
      <trkpt lat="49.14108" lon="-0.51559">
        <ele>145</ele>
        <time>2012-03-18T12:21:03Z</time>
      </trkpt>
      <trkpt lat="49.14113" lon="-0.51557">
        <ele>144</ele>
        <time>2012-03-18T12:21:09Z</time>
      </trkpt>
      <trkpt lat="49.14118" lon="-0.51557">
        <ele>144</ele>
        <time>2012-03-18T12:21:14Z</time>
      </trkpt>
      <trkpt lat="49.14123" lon="-0.51554">
        <ele>143</ele>
        <time>2012-03-18T12:21:18Z</time>
      </trkpt>
      <trkpt lat="49.14128" lon="-0.51555">
        <ele>143</ele>
        <time>2012-03-18T12:21:22Z</time>
      </trkpt>
      <trkpt lat="49.14133" lon="-0.51554">
        <ele>144</ele>
        <time>2012-03-18T12:21:26Z</time>
      </trkpt>
      <trkpt lat="49.14138" lon="-0.51555">
        <ele>146</ele>
        <time>2012-03-18T12:21:32Z</time>
      </trkpt>
      <trkpt lat="49.14143" lon="-0.51552">
        <ele>147</ele>
        <time>2012-03-18T12:21:38Z</time>
      </trkpt>
      <trkpt lat="49.14148" lon="-0.51552">
        <ele>146</ele>
        <time>2012-03-18T12:21:41Z</time>
      </trkpt>
      <trkpt lat="49.14153" lon="-0.51551">
        <ele>146</ele>
        <time>2012-03-18T12:21:45Z</time>
      </trkpt>
      <trkpt lat="49.14158" lon="-0.51549">
        <ele>146</ele>
        <time>2012-03-18T12:21:48Z</time>
      </trkpt>
      <trkpt lat="49.14164" lon="-0.51548">
        <ele>148</ele>
        <time>2012-03-18T12:21:52Z</time>
      </trkpt>
      <trkpt lat="49.14168" lon="-0.51546">
        <ele>147</ele>
        <time>2012-03-18T12:21:56Z</time>
      </trkpt>
      <trkpt lat="49.14174" lon="-0.51546">
        <ele>147</ele>
        <time>2012-03-18T12:22:00Z</time>
      </trkpt>
      <trkpt lat="49.1418" lon="-0.51546">
        <ele>149</ele>
        <time>2012-03-18T12:22:04Z</time>
      </trkpt>
      <trkpt lat="49.14184" lon="-0.51546">
        <ele>148</ele>
        <time>2012-03-18T12:22:08Z</time>
      </trkpt>
      <trkpt lat="49.1419" lon="-0.51544">
        <ele>149</ele>
        <time>2012-03-18T12:22:13Z</time>
      </trkpt>
      <trkpt lat="49.14195" lon="-0.51544">
        <ele>150</ele>
        <time>2012-03-18T12:22:17Z</time>
      </trkpt>
      <trkpt lat="49.14201" lon="-0.51543">
        <ele>152</ele>
        <time>2012-03-18T12:22:22Z</time>
      </trkpt>
      <trkpt lat="49.14207" lon="-0.51542">
        <ele>154</ele>
        <time>2012-03-18T12:22:26Z</time>
      </trkpt>
      <trkpt lat="49.14212" lon="-0.5154">
        <ele>153</ele>
        <time>2012-03-18T12:22:31Z</time>
      </trkpt>
      <trkpt lat="49.14217" lon="-0.51538">
        <ele>150</ele>
        <time>2012-03-18T12:22:37Z</time>
      </trkpt>
      <trkpt lat="49.14222" lon="-0.51535">
        <ele>150</ele>
        <time>2012-03-18T12:22:41Z</time>
      </trkpt>
      <trkpt lat="49.14227" lon="-0.51533">
        <ele>149</ele>
        <time>2012-03-18T12:22:45Z</time>
      </trkpt>
      <trkpt lat="49.14232" lon="-0.5153">
        <ele>148</ele>
        <time>2012-03-18T12:22:50Z</time>
      </trkpt>
      <trkpt lat="49.14237" lon="-0.51526">
        <ele>146</ele>
        <time>2012-03-18T12:22:55Z</time>
      </trkpt>
      <trkpt lat="49.14242" lon="-0.51522">
        <ele>145</ele>
        <time>2012-03-18T12:23:00Z</time>
      </trkpt>
      <trkpt lat="49.14246" lon="-0.5152">
        <ele>145</ele>
        <time>2012-03-18T12:23:04Z</time>
      </trkpt>
      <trkpt lat="49.1425" lon="-0.51517">
        <ele>144</ele>
        <time>2012-03-18T12:23:07Z</time>
      </trkpt>
      <trkpt lat="49.14253" lon="-0.51511">
        <ele>144</ele>
        <time>2012-03-18T12:23:12Z</time>
      </trkpt>
      <trkpt lat="49.14258" lon="-0.51506">
        <ele>145</ele>
        <time>2012-03-18T12:23:15Z</time>
      </trkpt>
      <trkpt lat="49.14262" lon="-0.51502">
        <ele>147</ele>
        <time>2012-03-18T12:23:19Z</time>
      </trkpt>
      <trkpt lat="49.14267" lon="-0.515">
        <ele>147</ele>
        <time>2012-03-18T12:23:23Z</time>
      </trkpt>
      <trkpt lat="49.14271" lon="-0.51497">
        <ele>146</ele>
        <time>2012-03-18T12:23:28Z</time>
      </trkpt>
      <trkpt lat="49.14274" lon="-0.51492">
        <ele>144</ele>
        <time>2012-03-18T12:23:33Z</time>
      </trkpt>
      <trkpt lat="49.14278" lon="-0.51488">
        <ele>143</ele>
        <time>2012-03-18T12:23:38Z</time>
      </trkpt>
      <trkpt lat="49.14283" lon="-0.51484">
        <ele>141</ele>
        <time>2012-03-18T12:23:43Z</time>
      </trkpt>
      <trkpt lat="49.14288" lon="-0.51481">
        <ele>142</ele>
        <time>2012-03-18T12:23:46Z</time>
      </trkpt>
      <trkpt lat="49.14292" lon="-0.51478">
        <ele>144</ele>
        <time>2012-03-18T12:23:49Z</time>
      </trkpt>
      <trkpt lat="49.14297" lon="-0.51474">
        <ele>139</ele>
        <time>2012-03-18T12:23:55Z</time>
      </trkpt>
      <trkpt lat="49.14301" lon="-0.51472">
        <ele>138</ele>
        <time>2012-03-18T12:23:59Z</time>
      </trkpt>
      <trkpt lat="49.14305" lon="-0.5147">
        <ele>139</ele>
        <time>2012-03-18T12:24:02Z</time>
      </trkpt>
      <trkpt lat="49.1431" lon="-0.51467">
        <ele>140</ele>
        <time>2012-03-18T12:24:05Z</time>
      </trkpt>
      <trkpt lat="49.14314" lon="-0.51464">
        <ele>142</ele>
        <time>2012-03-18T12:24:08Z</time>
      </trkpt>
      <trkpt lat="49.14318" lon="-0.51461">
        <ele>142</ele>
        <time>2012-03-18T12:24:12Z</time>
      </trkpt>
      <trkpt lat="49.14323" lon="-0.5146">
        <ele>143</ele>
        <time>2012-03-18T12:24:14Z</time>
      </trkpt>
      <trkpt lat="49.14328" lon="-0.51458">
        <ele>144</ele>
        <time>2012-03-18T12:24:18Z</time>
      </trkpt>
      <trkpt lat="49.14333" lon="-0.51455">
        <ele>144</ele>
        <time>2012-03-18T12:24:22Z</time>
      </trkpt>
      <trkpt lat="49.14337" lon="-0.51452">
        <ele>143</ele>
        <time>2012-03-18T12:24:26Z</time>
      </trkpt>
      <trkpt lat="49.14341" lon="-0.5145">
        <ele>141</ele>
        <time>2012-03-18T12:24:30Z</time>
      </trkpt>
      <trkpt lat="49.14346" lon="-0.51447">
        <ele>142</ele>
        <time>2012-03-18T12:24:35Z</time>
      </trkpt>
      <trkpt lat="49.14352" lon="-0.51445">
        <ele>142</ele>
        <time>2012-03-18T12:24:39Z</time>
      </trkpt>
      <trkpt lat="49.14356" lon="-0.51443">
        <ele>142</ele>
        <time>2012-03-18T12:24:42Z</time>
      </trkpt>
      <trkpt lat="49.14361" lon="-0.5144">
        <ele>144</ele>
        <time>2012-03-18T12:24:45Z</time>
      </trkpt>
      <trkpt lat="49.14365" lon="-0.51437">
        <ele>143</ele>
        <time>2012-03-18T12:24:49Z</time>
      </trkpt>
      <trkpt lat="49.1437" lon="-0.51432">
        <ele>141</ele>
        <time>2012-03-18T12:24:54Z</time>
      </trkpt>
      <trkpt lat="49.14374" lon="-0.51429">
        <ele>141</ele>
        <time>2012-03-18T12:24:58Z</time>
      </trkpt>
      <trkpt lat="49.14379" lon="-0.51426">
        <ele>141</ele>
        <time>2012-03-18T12:25:02Z</time>
      </trkpt>
      <trkpt lat="49.14384" lon="-0.51422">
        <ele>141</ele>
        <time>2012-03-18T12:25:06Z</time>
      </trkpt>
      <trkpt lat="49.1439" lon="-0.5142">
        <ele>140</ele>
        <time>2012-03-18T12:25:10Z</time>
      </trkpt>
      <trkpt lat="49.14395" lon="-0.51417">
        <ele>140</ele>
        <time>2012-03-18T12:25:13Z</time>
      </trkpt>
      <trkpt lat="49.144" lon="-0.51415">
        <ele>141</ele>
        <time>2012-03-18T12:25:15Z</time>
      </trkpt>
      <trkpt lat="49.14405" lon="-0.51412">
        <ele>144</ele>
        <time>2012-03-18T12:25:18Z</time>
      </trkpt>
      <trkpt lat="49.14409" lon="-0.51408">
        <ele>144</ele>
        <time>2012-03-18T12:25:22Z</time>
      </trkpt>
      <trkpt lat="49.14414" lon="-0.51406">
        <ele>144</ele>
        <time>2012-03-18T12:25:25Z</time>
      </trkpt>
      <trkpt lat="49.14418" lon="-0.51401">
        <ele>143</ele>
        <time>2012-03-18T12:25:30Z</time>
      </trkpt>
      <trkpt lat="49.14423" lon="-0.51396">
        <ele>143</ele>
        <time>2012-03-18T12:25:35Z</time>
      </trkpt>
      <trkpt lat="49.14427" lon="-0.51393">
        <ele>143</ele>
        <time>2012-03-18T12:25:39Z</time>
      </trkpt>
      <trkpt lat="49.14431" lon="-0.5139">
        <ele>142</ele>
        <time>2012-03-18T12:25:42Z</time>
      </trkpt>
      <trkpt lat="49.14436" lon="-0.51379">
        <ele>142</ele>
        <time>2012-03-18T12:25:51Z</time>
      </trkpt>
      <trkpt lat="49.1444" lon="-0.51375">
        <ele>141</ele>
        <time>2012-03-18T12:25:54Z</time>
      </trkpt>
      <trkpt lat="49.14445" lon="-0.51373">
        <ele>140</ele>
        <time>2012-03-18T12:25:56Z</time>
      </trkpt>
      <trkpt lat="49.14598" lon="-0.51193">
        <ele>138</ele>
        <time>2012-03-18T12:28:28Z</time>
      </trkpt>
      <trkpt lat="49.14601" lon="-0.51188">
        <ele>138</ele>
        <time>2012-03-18T12:28:32Z</time>
      </trkpt>
      <trkpt lat="49.14605" lon="-0.51181">
        <ele>138</ele>
        <time>2012-03-18T12:28:37Z</time>
      </trkpt>
      <trkpt lat="49.14609" lon="-0.51174">
        <ele>138</ele>
        <time>2012-03-18T12:28:41Z</time>
      </trkpt>
      <trkpt lat="49.14613" lon="-0.51171">
        <ele>139</ele>
        <time>2012-03-18T12:28:43Z</time>
      </trkpt>
      <trkpt lat="49.14616" lon="-0.51164">
        <ele>138</ele>
        <time>2012-03-18T12:28:47Z</time>
      </trkpt>
      <trkpt lat="49.14618" lon="-0.51158">
        <ele>136</ele>
        <time>2012-03-18T12:28:50Z</time>
      </trkpt>
      <trkpt lat="49.14622" lon="-0.51151">
        <ele>135</ele>
        <time>2012-03-18T12:28:55Z</time>
      </trkpt>
      <trkpt lat="49.14627" lon="-0.51138">
        <ele>134</ele>
        <time>2012-03-18T12:29:05Z</time>
      </trkpt>
      <trkpt lat="49.14628" lon="-0.51131">
        <ele>134</ele>
        <time>2012-03-18T12:29:08Z</time>
      </trkpt>
      <trkpt lat="49.14634" lon="-0.51128">
        <ele>134</ele>
        <time>2012-03-18T12:29:10Z</time>
      </trkpt>
      <trkpt lat="49.14638" lon="-0.51126">
        <ele>135</ele>
        <time>2012-03-18T12:29:12Z</time>
      </trkpt>
      <trkpt lat="49.14645" lon="-0.51118">
        <ele>137</ele>
        <time>2012-03-18T12:29:17Z</time>
      </trkpt>
      <trkpt lat="49.1465" lon="-0.51112">
        <ele>136</ele>
        <time>2012-03-18T12:29:22Z</time>
      </trkpt>
      <trkpt lat="49.14653" lon="-0.51107">
        <ele>137</ele>
        <time>2012-03-18T12:29:25Z</time>
      </trkpt>
      <trkpt lat="49.14658" lon="-0.51097">
        <ele>139</ele>
        <time>2012-03-18T12:29:30Z</time>
      </trkpt>
      <trkpt lat="49.14662" lon="-0.51092">
        <ele>140</ele>
        <time>2012-03-18T12:29:34Z</time>
      </trkpt>
      <trkpt lat="49.14667" lon="-0.5109">
        <ele>141</ele>
        <time>2012-03-18T12:29:38Z</time>
      </trkpt>
      <trkpt lat="49.14671" lon="-0.51085">
        <ele>143</ele>
        <time>2012-03-18T12:29:41Z</time>
      </trkpt>
      <trkpt lat="49.14675" lon="-0.51082">
        <ele>144</ele>
        <time>2012-03-18T12:29:45Z</time>
      </trkpt>
      <trkpt lat="49.14679" lon="-0.51076">
        <ele>143</ele>
        <time>2012-03-18T12:29:50Z</time>
      </trkpt>
      <trkpt lat="49.14683" lon="-0.51073">
        <ele>146</ele>
        <time>2012-03-18T12:29:53Z</time>
      </trkpt>
      <trkpt lat="49.14687" lon="-0.51066">
        <ele>145</ele>
        <time>2012-03-18T12:29:57Z</time>
      </trkpt>
      <trkpt lat="49.14689" lon="-0.51058">
        <ele>145</ele>
        <time>2012-03-18T12:30:01Z</time>
      </trkpt>
      <trkpt lat="49.14692" lon="-0.51054">
        <ele>144</ele>
        <time>2012-03-18T12:30:05Z</time>
      </trkpt>
      <trkpt lat="49.14695" lon="-0.51045">
        <ele>145</ele>
        <time>2012-03-18T12:30:09Z</time>
      </trkpt>
      <trkpt lat="49.14696" lon="-0.51038">
        <ele>145</ele>
        <time>2012-03-18T12:30:12Z</time>
      </trkpt>
      <trkpt lat="49.147" lon="-0.51033">
        <ele>144</ele>
        <time>2012-03-18T12:30:17Z</time>
      </trkpt>
      <trkpt lat="49.14704" lon="-0.51028">
        <ele>146</ele>
        <time>2012-03-18T12:30:20Z</time>
      </trkpt>
      <trkpt lat="49.14706" lon="-0.51022">
        <ele>145</ele>
        <time>2012-03-18T12:30:25Z</time>
      </trkpt>
      <trkpt lat="49.14709" lon="-0.51015">
        <ele>145</ele>
        <time>2012-03-18T12:30:29Z</time>
      </trkpt>
      <trkpt lat="49.14712" lon="-0.51009">
        <ele>145</ele>
        <time>2012-03-18T12:30:32Z</time>
      </trkpt>
      <trkpt lat="49.14715" lon="-0.51003">
        <ele>146</ele>
        <time>2012-03-18T12:30:34Z</time>
      </trkpt>
      <trkpt lat="49.14714" lon="-0.50994">
        <ele>146</ele>
        <time>2012-03-18T12:30:38Z</time>
      </trkpt>
      <trkpt lat="49.14712" lon="-0.50984">
        <ele>148</ele>
        <time>2012-03-18T12:30:40Z</time>
      </trkpt>
      <trkpt lat="49.14711" lon="-0.50977">
        <ele>150</ele>
        <time>2012-03-18T12:30:42Z</time>
      </trkpt>
      <trkpt lat="49.14706" lon="-0.50974">
        <ele>149</ele>
        <time>2012-03-18T12:30:46Z</time>
      </trkpt>
      <trkpt lat="49.14701" lon="-0.50971">
        <ele>148</ele>
        <time>2012-03-18T12:30:53Z</time>
      </trkpt>
      <trkpt lat="49.14697" lon="-0.50965">
        <ele>149</ele>
        <time>2012-03-18T12:30:55Z</time>
      </trkpt>
      <trkpt lat="49.14695" lon="-0.50959">
        <ele>150</ele>
        <time>2012-03-18T12:30:58Z</time>
      </trkpt>
      <trkpt lat="49.14692" lon="-0.50952">
        <ele>151</ele>
        <time>2012-03-18T12:31:01Z</time>
      </trkpt>
      <trkpt lat="49.14685" lon="-0.50944">
        <ele>151</ele>
        <time>2012-03-18T12:31:06Z</time>
      </trkpt>
      <trkpt lat="49.14683" lon="-0.50936">
        <ele>152</ele>
        <time>2012-03-18T12:31:12Z</time>
      </trkpt>
      <trkpt lat="49.14686" lon="-0.50926">
        <ele>153</ele>
        <time>2012-03-18T12:31:18Z</time>
      </trkpt>
      <trkpt lat="49.14682" lon="-0.50918">
        <ele>149</ele>
        <time>2012-03-18T12:31:25Z</time>
      </trkpt>
      <trkpt lat="49.14685" lon="-0.50912">
        <ele>148</ele>
        <time>2012-03-18T12:31:28Z</time>
      </trkpt>
      <trkpt lat="49.14726" lon="-0.50769">
        <ele>136</ele>
        <time>2012-03-18T12:32:53Z</time>
      </trkpt>
      <trkpt lat="49.14724" lon="-0.50761">
        <ele>138</ele>
        <time>2012-03-18T12:32:55Z</time>
      </trkpt>
      <trkpt lat="49.14722" lon="-0.50753">
        <ele>140</ele>
        <time>2012-03-18T12:32:56Z</time>
      </trkpt>
      <trkpt lat="49.14718" lon="-0.50744">
        <ele>142</ele>
        <time>2012-03-18T12:32:58Z</time>
      </trkpt>
      <trkpt lat="49.14716" lon="-0.50738">
        <ele>141</ele>
        <time>2012-03-18T12:33:03Z</time>
      </trkpt>
      <trkpt lat="49.14714" lon="-0.5073">
        <ele>141</ele>
        <time>2012-03-18T12:33:07Z</time>
      </trkpt>
      <trkpt lat="49.14714" lon="-0.5073">
        <ele>141</ele>
        <time>2012-03-18T12:33:07Z</time>
      </trkpt>
      <trkpt lat="49.14714" lon="-0.5073">
        <ele>139</ele>
        <time>2012-03-18T12:33:12Z</time>
      </trkpt>
      <trkpt lat="49.14712" lon="-0.50723">
        <ele>137</ele>
        <time>2012-03-18T12:33:18Z</time>
      </trkpt>
      <trkpt lat="49.14711" lon="-0.50715">
        <ele>135</ele>
        <time>2012-03-18T12:33:26Z</time>
      </trkpt>
      <trkpt lat="49.14709" lon="-0.50708">
        <ele>136</ele>
        <time>2012-03-18T12:33:31Z</time>
      </trkpt>
      <trkpt lat="49.14707" lon="-0.507">
        <ele>136</ele>
        <time>2012-03-18T12:33:35Z</time>
      </trkpt>
      <trkpt lat="49.14705" lon="-0.50694">
        <ele>136</ele>
        <time>2012-03-18T12:33:39Z</time>
      </trkpt>
      <trkpt lat="49.14701" lon="-0.50687">
        <ele>135</ele>
        <time>2012-03-18T12:33:43Z</time>
      </trkpt>
      <trkpt lat="49.14698" lon="-0.5068">
        <ele>134</ele>
        <time>2012-03-18T12:33:47Z</time>
      </trkpt>
      <trkpt lat="49.14695" lon="-0.50674">
        <ele>134</ele>
        <time>2012-03-18T12:33:50Z</time>
      </trkpt>
      <trkpt lat="49.14692" lon="-0.50667">
        <ele>134</ele>
        <time>2012-03-18T12:33:54Z</time>
      </trkpt>
      <trkpt lat="49.14687" lon="-0.50662">
        <ele>133</ele>
        <time>2012-03-18T12:33:59Z</time>
      </trkpt>
      <trkpt lat="49.14683" lon="-0.50656">
        <ele>132</ele>
        <time>2012-03-18T12:34:03Z</time>
      </trkpt>
      <trkpt lat="49.14679" lon="-0.5065">
        <ele>133</ele>
        <time>2012-03-18T12:34:07Z</time>
      </trkpt>
      <trkpt lat="49.14675" lon="-0.50645">
        <ele>134</ele>
        <time>2012-03-18T12:34:13Z</time>
      </trkpt>
      <trkpt lat="49.14672" lon="-0.50638">
        <ele>134</ele>
        <time>2012-03-18T12:34:16Z</time>
      </trkpt>
      <trkpt lat="49.14668" lon="-0.50632">
        <ele>135</ele>
        <time>2012-03-18T12:34:20Z</time>
      </trkpt>
      <trkpt lat="49.14664" lon="-0.50627">
        <ele>135</ele>
        <time>2012-03-18T12:34:24Z</time>
      </trkpt>
      <trkpt lat="49.1466" lon="-0.50623">
        <ele>134</ele>
        <time>2012-03-18T12:34:29Z</time>
      </trkpt>
      <trkpt lat="49.14656" lon="-0.50618">
        <ele>133</ele>
        <time>2012-03-18T12:34:34Z</time>
      </trkpt>
      <trkpt lat="49.14652" lon="-0.50613">
        <ele>133</ele>
        <time>2012-03-18T12:34:37Z</time>
      </trkpt>
      <trkpt lat="49.14647" lon="-0.5061">
        <ele>132</ele>
        <time>2012-03-18T12:34:41Z</time>
      </trkpt>
      <trkpt lat="49.14642" lon="-0.50606">
        <ele>131</ele>
        <time>2012-03-18T12:34:46Z</time>
      </trkpt>
      <trkpt lat="49.14637" lon="-0.50606">
        <ele>131</ele>
        <time>2012-03-18T12:34:51Z</time>
      </trkpt>
      <trkpt lat="49.14631" lon="-0.50602">
        <ele>132</ele>
        <time>2012-03-18T12:34:55Z</time>
      </trkpt>
      <trkpt lat="49.14626" lon="-0.50599">
        <ele>131</ele>
        <time>2012-03-18T12:34:59Z</time>
      </trkpt>
      <trkpt lat="49.14621" lon="-0.50597">
        <ele>132</ele>
        <time>2012-03-18T12:35:03Z</time>
      </trkpt>
      <trkpt lat="49.14616" lon="-0.50594">
        <ele>132</ele>
        <time>2012-03-18T12:35:07Z</time>
      </trkpt>
      <trkpt lat="49.1461" lon="-0.50592">
        <ele>132</ele>
        <time>2012-03-18T12:35:13Z</time>
      </trkpt>
      <trkpt lat="49.14606" lon="-0.50589">
        <ele>132</ele>
        <time>2012-03-18T12:35:17Z</time>
      </trkpt>
      <trkpt lat="49.14602" lon="-0.50585">
        <ele>132</ele>
        <time>2012-03-18T12:35:20Z</time>
      </trkpt>
      <trkpt lat="49.14598" lon="-0.5058">
        <ele>132</ele>
        <time>2012-03-18T12:35:23Z</time>
      </trkpt>
      <trkpt lat="49.14593" lon="-0.50578">
        <ele>131</ele>
        <time>2012-03-18T12:35:28Z</time>
      </trkpt>
      <trkpt lat="49.14588" lon="-0.50579">
        <ele>130</ele>
        <time>2012-03-18T12:35:32Z</time>
      </trkpt>
      <trkpt lat="49.14583" lon="-0.50578">
        <ele>130</ele>
        <time>2012-03-18T12:35:37Z</time>
      </trkpt>
      <trkpt lat="49.14583" lon="-0.50578">
        <ele>130</ele>
        <time>2012-03-18T12:35:37Z</time>
      </trkpt>
      <trkpt lat="49.14583" lon="-0.50578">
        <ele>132</ele>
        <time>2012-03-18T12:35:43Z</time>
      </trkpt>
      <trkpt lat="49.14582" lon="-0.50571">
        <ele>131</ele>
        <time>2012-03-18T12:35:53Z</time>
      </trkpt>
      <trkpt lat="49.14583" lon="-0.50564">
        <ele>133</ele>
        <time>2012-03-18T12:35:56Z</time>
      </trkpt>
      <trkpt lat="49.1458" lon="-0.50558">
        <ele>133</ele>
        <time>2012-03-18T12:35:57Z</time>
      </trkpt>
      <trkpt lat="49.14576" lon="-0.50554">
        <ele>134</ele>
        <time>2012-03-18T12:36:01Z</time>
      </trkpt>
      <trkpt lat="49.14572" lon="-0.50548">
        <ele>132</ele>
        <time>2012-03-18T12:36:05Z</time>
      </trkpt>
      <trkpt lat="49.14568" lon="-0.50542">
        <ele>133</ele>
        <time>2012-03-18T12:36:09Z</time>
      </trkpt>
      <trkpt lat="49.14564" lon="-0.50536">
        <ele>132</ele>
        <time>2012-03-18T12:36:13Z</time>
      </trkpt>
      <trkpt lat="49.14561" lon="-0.50531">
        <ele>131</ele>
        <time>2012-03-18T12:36:17Z</time>
      </trkpt>
      <trkpt lat="49.14557" lon="-0.50527">
        <ele>131</ele>
        <time>2012-03-18T12:36:21Z</time>
      </trkpt>
      <trkpt lat="49.14553" lon="-0.50522">
        <ele>132</ele>
        <time>2012-03-18T12:36:26Z</time>
      </trkpt>
      <trkpt lat="49.1455" lon="-0.50517">
        <ele>132</ele>
        <time>2012-03-18T12:36:33Z</time>
      </trkpt>
      <trkpt lat="49.14547" lon="-0.5051">
        <ele>132</ele>
        <time>2012-03-18T12:36:39Z</time>
      </trkpt>
      <trkpt lat="49.14544" lon="-0.50504">
        <ele>132</ele>
        <time>2012-03-18T12:36:43Z</time>
      </trkpt>
      <trkpt lat="49.14541" lon="-0.50499">
        <ele>132</ele>
        <time>2012-03-18T12:36:46Z</time>
      </trkpt>
      <trkpt lat="49.14541" lon="-0.50499">
        <ele>132</ele>
        <time>2012-03-18T12:36:46Z</time>
      </trkpt>
      <trkpt lat="49.14541" lon="-0.50499">
        <ele>132</ele>
        <time>2012-03-18T12:36:47Z</time>
      </trkpt>
      <trkpt lat="49.14537" lon="-0.50494">
        <ele>131</ele>
        <time>2012-03-18T12:36:53Z</time>
      </trkpt>
      <trkpt lat="49.14534" lon="-0.50488">
        <ele>131</ele>
        <time>2012-03-18T12:36:57Z</time>
      </trkpt>
      <trkpt lat="49.14531" lon="-0.50482">
        <ele>131</ele>
        <time>2012-03-18T12:37:00Z</time>
      </trkpt>
      <trkpt lat="49.14528" lon="-0.50475">
        <ele>132</ele>
        <time>2012-03-18T12:37:05Z</time>
      </trkpt>
      <trkpt lat="49.14525" lon="-0.5047">
        <ele>130</ele>
        <time>2012-03-18T12:37:08Z</time>
      </trkpt>
      <trkpt lat="49.14522" lon="-0.50463">
        <ele>130</ele>
        <time>2012-03-18T12:37:11Z</time>
      </trkpt>
      <trkpt lat="49.14519" lon="-0.50457">
        <ele>130</ele>
        <time>2012-03-18T12:37:22Z</time>
      </trkpt>
      <trkpt lat="49.14516" lon="-0.50451">
        <ele>130</ele>
        <time>2012-03-18T12:37:26Z</time>
      </trkpt>
      <trkpt lat="49.14516" lon="-0.50451">
        <ele>130</ele>
        <time>2012-03-18T12:37:26Z</time>
      </trkpt>
      <trkpt lat="49.14516" lon="-0.50451">
        <ele>130</ele>
        <time>2012-03-18T12:37:27Z</time>
      </trkpt>
      <trkpt lat="49.14513" lon="-0.50439">
        <ele>130</ele>
        <time>2012-03-18T12:37:30Z</time>
      </trkpt>
      <trkpt lat="49.14508" lon="-0.50433">
        <ele>131</ele>
        <time>2012-03-18T12:37:33Z</time>
      </trkpt>
      <trkpt lat="49.14506" lon="-0.50427">
        <ele>131</ele>
        <time>2012-03-18T12:37:38Z</time>
      </trkpt>
      <trkpt lat="49.145" lon="-0.50422">
        <ele>131</ele>
        <time>2012-03-18T12:37:41Z</time>
      </trkpt>
      <trkpt lat="49.14497" lon="-0.50417">
        <ele>132</ele>
        <time>2012-03-18T12:37:46Z</time>
      </trkpt>
      <trkpt lat="49.14493" lon="-0.50408">
        <ele>133</ele>
        <time>2012-03-18T12:37:49Z</time>
      </trkpt>
      <trkpt lat="49.14489" lon="-0.50402">
        <ele>134</ele>
        <time>2012-03-18T12:37:51Z</time>
      </trkpt>
      <trkpt lat="49.14486" lon="-0.50397">
        <ele>134</ele>
        <time>2012-03-18T12:37:54Z</time>
      </trkpt>
      <trkpt lat="49.14482" lon="-0.50392">
        <ele>135</ele>
        <time>2012-03-18T12:37:58Z</time>
      </trkpt>
      <trkpt lat="49.14476" lon="-0.50388">
        <ele>134</ele>
        <time>2012-03-18T12:38:04Z</time>
      </trkpt>
      <trkpt lat="49.14472" lon="-0.50383">
        <ele>132</ele>
        <time>2012-03-18T12:38:08Z</time>
      </trkpt>
      <trkpt lat="49.14468" lon="-0.50378">
        <ele>132</ele>
        <time>2012-03-18T12:38:11Z</time>
      </trkpt>
      <trkpt lat="49.14464" lon="-0.50373">
        <ele>132</ele>
        <time>2012-03-18T12:38:15Z</time>
      </trkpt>
      <trkpt lat="49.1446" lon="-0.50368">
        <ele>133</ele>
        <time>2012-03-18T12:38:18Z</time>
      </trkpt>
      <trkpt lat="49.14456" lon="-0.50362">
        <ele>134</ele>
        <time>2012-03-18T12:38:23Z</time>
      </trkpt>
      <trkpt lat="49.14453" lon="-0.50356">
        <ele>135</ele>
        <time>2012-03-18T12:38:28Z</time>
      </trkpt>
      <trkpt lat="49.14449" lon="-0.50352">
        <ele>135</ele>
        <time>2012-03-18T12:38:31Z</time>
      </trkpt>
      <trkpt lat="49.14447" lon="-0.50341">
        <ele>133</ele>
        <time>2012-03-18T12:38:41Z</time>
      </trkpt>
      <trkpt lat="49.1445" lon="-0.50334">
        <ele>132</ele>
        <time>2012-03-18T12:38:49Z</time>
      </trkpt>
      <trkpt lat="49.14455" lon="-0.5033">
        <ele>132</ele>
        <time>2012-03-18T12:38:53Z</time>
      </trkpt>
      <trkpt lat="49.14457" lon="-0.50305">
        <ele>133</ele>
        <time>2012-03-18T12:39:03Z</time>
      </trkpt>
      <trkpt lat="49.14458" lon="-0.50297">
        <ele>133</ele>
        <time>2012-03-18T12:39:06Z</time>
      </trkpt>
      <trkpt lat="49.14461" lon="-0.50291">
        <ele>134</ele>
        <time>2012-03-18T12:39:11Z</time>
      </trkpt>
      <trkpt lat="49.14466" lon="-0.50286">
        <ele>133</ele>
        <time>2012-03-18T12:39:17Z</time>
      </trkpt>
      <trkpt lat="49.14484" lon="-0.50266">
        <ele>132</ele>
        <time>2012-03-18T12:39:35Z</time>
      </trkpt>
      <trkpt lat="49.14484" lon="-0.50259">
        <ele>132</ele>
        <time>2012-03-18T12:39:38Z</time>
      </trkpt>
      <trkpt lat="49.14489" lon="-0.50255">
        <ele>131</ele>
        <time>2012-03-18T12:39:41Z</time>
      </trkpt>
      <trkpt lat="49.14492" lon="-0.50249">
        <ele>131</ele>
        <time>2012-03-18T12:39:46Z</time>
      </trkpt>
      <trkpt lat="49.14495" lon="-0.50242">
        <ele>131</ele>
        <time>2012-03-18T12:39:50Z</time>
      </trkpt>
      <trkpt lat="49.14498" lon="-0.50235">
        <ele>132</ele>
        <time>2012-03-18T12:39:54Z</time>
      </trkpt>
      <trkpt lat="49.1452" lon="-0.50218">
        <ele>132</ele>
        <time>2012-03-18T12:40:13Z</time>
      </trkpt>
      <trkpt lat="49.14523" lon="-0.50212">
        <ele>132</ele>
        <time>2012-03-18T12:40:16Z</time>
      </trkpt>
      <trkpt lat="49.14526" lon="-0.50205">
        <ele>132</ele>
        <time>2012-03-18T12:40:19Z</time>
      </trkpt>
      <trkpt lat="49.1453" lon="-0.50198">
        <ele>132</ele>
        <time>2012-03-18T12:40:23Z</time>
      </trkpt>
      <trkpt lat="49.14532" lon="-0.5019">
        <ele>132</ele>
        <time>2012-03-18T12:40:27Z</time>
      </trkpt>
      <trkpt lat="49.1453" lon="-0.50182">
        <ele>130</ele>
        <time>2012-03-18T12:40:32Z</time>
      </trkpt>
      <trkpt lat="49.14526" lon="-0.50175">
        <ele>130</ele>
        <time>2012-03-18T12:40:35Z</time>
      </trkpt>
      <trkpt lat="49.14525" lon="-0.50168">
        <ele>130</ele>
        <time>2012-03-18T12:40:39Z</time>
      </trkpt>
      <trkpt lat="49.14521" lon="-0.5016">
        <ele>130</ele>
        <time>2012-03-18T12:40:43Z</time>
      </trkpt>
      <trkpt lat="49.1452" lon="-0.50149">
        <ele>128</ele>
        <time>2012-03-18T12:40:52Z</time>
      </trkpt>
      <trkpt lat="49.14518" lon="-0.50141">
        <ele>128</ele>
        <time>2012-03-18T12:40:56Z</time>
      </trkpt>
      <trkpt lat="49.14516" lon="-0.50134">
        <ele>127</ele>
        <time>2012-03-18T12:41:00Z</time>
      </trkpt>
      <trkpt lat="49.14516" lon="-0.50126">
        <ele>127</ele>
        <time>2012-03-18T12:41:03Z</time>
      </trkpt>
      <trkpt lat="49.14514" lon="-0.50119">
        <ele>126</ele>
        <time>2012-03-18T12:41:06Z</time>
      </trkpt>
      <trkpt lat="49.14512" lon="-0.50112">
        <ele>127</ele>
        <time>2012-03-18T12:41:09Z</time>
      </trkpt>
      <trkpt lat="49.1451" lon="-0.50105">
        <ele>127</ele>
        <time>2012-03-18T12:41:12Z</time>
      </trkpt>
      <trkpt lat="49.14508" lon="-0.50098">
        <ele>126</ele>
        <time>2012-03-18T12:41:16Z</time>
      </trkpt>
      <trkpt lat="49.14508" lon="-0.50079">
        <ele>130</ele>
        <time>2012-03-18T12:41:27Z</time>
      </trkpt>
      <trkpt lat="49.14508" lon="-0.50072">
        <ele>133</ele>
        <time>2012-03-18T12:41:35Z</time>
      </trkpt>
      <trkpt lat="49.14504" lon="-0.50065">
        <ele>131</ele>
        <time>2012-03-18T12:41:46Z</time>
      </trkpt>
      <trkpt lat="49.14504" lon="-0.50065">
        <ele>131</ele>
        <time>2012-03-18T12:41:46Z</time>
      </trkpt>
      <trkpt lat="49.14504" lon="-0.50065">
        <ele>130</ele>
        <time>2012-03-18T12:41:47Z</time>
      </trkpt>
      <trkpt lat="49.14504" lon="-0.50057">
        <ele>126</ele>
        <time>2012-03-18T12:41:54Z</time>
      </trkpt>
      <trkpt lat="49.14501" lon="-0.50046">
        <ele>127</ele>
        <time>2012-03-18T12:41:57Z</time>
      </trkpt>
      <trkpt lat="49.14501" lon="-0.50038">
        <ele>128</ele>
        <time>2012-03-18T12:41:59Z</time>
      </trkpt>
      <trkpt lat="49.14502" lon="-0.50022">
        <ele>131</ele>
        <time>2012-03-18T12:42:09Z</time>
      </trkpt>
      <trkpt lat="49.14499" lon="-0.50015">
        <ele>131</ele>
        <time>2012-03-18T12:42:19Z</time>
      </trkpt>
      <trkpt lat="49.14499" lon="-0.50008">
        <ele>130</ele>
        <time>2012-03-18T12:42:23Z</time>
      </trkpt>
      <trkpt lat="49.14497" lon="-0.50001">
        <ele>128</ele>
        <time>2012-03-18T12:42:29Z</time>
      </trkpt>
      <trkpt lat="49.14497" lon="-0.50001">
        <ele>128</ele>
        <time>2012-03-18T12:42:29Z</time>
      </trkpt>
      <trkpt lat="49.14497" lon="-0.50001">
        <ele>128</ele>
        <time>2012-03-18T12:42:30Z</time>
      </trkpt>
      <trkpt lat="49.14493" lon="-0.49994">
        <ele>128</ele>
        <time>2012-03-18T12:42:36Z</time>
      </trkpt>
      <trkpt lat="49.14488" lon="-0.49989">
        <ele>127</ele>
        <time>2012-03-18T12:42:40Z</time>
      </trkpt>
      <trkpt lat="49.14484" lon="-0.49983">
        <ele>125</ele>
        <time>2012-03-18T12:42:49Z</time>
      </trkpt>
      <trkpt lat="49.14481" lon="-0.49976">
        <ele>125</ele>
        <time>2012-03-18T12:42:56Z</time>
      </trkpt>
      <trkpt lat="49.14477" lon="-0.49972">
        <ele>128</ele>
        <time>2012-03-18T12:43:02Z</time>
      </trkpt>
      <trkpt lat="49.14474" lon="-0.49966">
        <ele>127</ele>
        <time>2012-03-18T12:43:09Z</time>
      </trkpt>
      <trkpt lat="49.14474" lon="-0.49966">
        <ele>127</ele>
        <time>2012-03-18T12:43:09Z</time>
      </trkpt>
      <trkpt lat="49.14474" lon="-0.49966">
        <ele>127</ele>
        <time>2012-03-18T12:43:10Z</time>
      </trkpt>
      <trkpt lat="49.14471" lon="-0.49959">
        <ele>127</ele>
        <time>2012-03-18T12:43:11Z</time>
      </trkpt>
      <trkpt lat="49.14468" lon="-0.4995">
        <ele>124</ele>
        <time>2012-03-18T12:43:15Z</time>
      </trkpt>
      <trkpt lat="49.14462" lon="-0.49912">
        <ele>126</ele>
        <time>2012-03-18T12:43:32Z</time>
      </trkpt>
      <trkpt lat="49.14466" lon="-0.49907">
        <ele>125</ele>
        <time>2012-03-18T12:45:30Z</time>
      </trkpt>
      <trkpt lat="49.14495" lon="-0.49772">
        <ele>130</ele>
        <time>2012-03-18T12:46:52Z</time>
      </trkpt>
      <trkpt lat="49.14495" lon="-0.49772">
        <ele>130</ele>
        <time>2012-03-18T12:46:52Z</time>
      </trkpt>
      <trkpt lat="49.14495" lon="-0.49772">
        <ele>130</ele>
        <time>2012-03-18T12:46:53Z</time>
      </trkpt>
      <trkpt lat="49.14495" lon="-0.49765">
        <ele>130</ele>
        <time>2012-03-18T12:46:59Z</time>
      </trkpt>
      <trkpt lat="49.14497" lon="-0.49746">
        <ele>129</ele>
        <time>2012-03-18T12:47:10Z</time>
      </trkpt>
      <trkpt lat="49.14499" lon="-0.4974">
        <ele>129</ele>
        <time>2012-03-18T12:47:15Z</time>
      </trkpt>
      <trkpt lat="49.14503" lon="-0.49734">
        <ele>129</ele>
        <time>2012-03-18T12:47:20Z</time>
      </trkpt>
      <trkpt lat="49.14503" lon="-0.49727">
        <ele>126</ele>
        <time>2012-03-18T12:47:26Z</time>
      </trkpt>
      <trkpt lat="49.14506" lon="-0.49721">
        <ele>126</ele>
        <time>2012-03-18T12:47:30Z</time>
      </trkpt>
      <trkpt lat="49.14506" lon="-0.49713">
        <ele>126</ele>
        <time>2012-03-18T12:47:34Z</time>
      </trkpt>
      <trkpt lat="49.14512" lon="-0.49698">
        <ele>130</ele>
        <time>2012-03-18T12:47:43Z</time>
      </trkpt>
      <trkpt lat="49.14517" lon="-0.49697">
        <ele>128</ele>
        <time>2012-03-18T12:47:51Z</time>
      </trkpt>
      <trkpt lat="49.14521" lon="-0.497">
        <ele>128</ele>
        <time>2012-03-18T12:47:55Z</time>
      </trkpt>
      <trkpt lat="49.14526" lon="-0.49703">
        <ele>129</ele>
        <time>2012-03-18T12:47:58Z</time>
      </trkpt>
      <trkpt lat="49.1453" lon="-0.49708">
        <ele>129</ele>
        <time>2012-03-18T12:48:02Z</time>
      </trkpt>
      <trkpt lat="49.14534" lon="-0.4971">
        <ele>128</ele>
        <time>2012-03-18T12:48:05Z</time>
      </trkpt>
      <trkpt lat="49.14539" lon="-0.49712">
        <ele>128</ele>
        <time>2012-03-18T12:48:09Z</time>
      </trkpt>
      <trkpt lat="49.14543" lon="-0.49715">
        <ele>127</ele>
        <time>2012-03-18T12:48:16Z</time>
      </trkpt>
      <trkpt lat="49.14547" lon="-0.4972">
        <ele>127</ele>
        <time>2012-03-18T12:48:21Z</time>
      </trkpt>
      <trkpt lat="49.14551" lon="-0.49723">
        <ele>128</ele>
        <time>2012-03-18T12:48:25Z</time>
      </trkpt>
      <trkpt lat="49.14555" lon="-0.49726">
        <ele>127</ele>
        <time>2012-03-18T12:48:29Z</time>
      </trkpt>
      <trkpt lat="49.1456" lon="-0.4973">
        <ele>128</ele>
        <time>2012-03-18T12:48:34Z</time>
      </trkpt>
      <trkpt lat="49.14563" lon="-0.49734">
        <ele>129</ele>
        <time>2012-03-18T12:48:38Z</time>
      </trkpt>
      <trkpt lat="49.1457" lon="-0.49735">
        <ele>130</ele>
        <time>2012-03-18T12:48:42Z</time>
      </trkpt>
      <trkpt lat="49.14574" lon="-0.49739">
        <ele>131</ele>
        <time>2012-03-18T12:48:46Z</time>
      </trkpt>
      <trkpt lat="49.14579" lon="-0.4974">
        <ele>132</ele>
        <time>2012-03-18T12:48:50Z</time>
      </trkpt>
      <trkpt lat="49.14584" lon="-0.49738">
        <ele>132</ele>
        <time>2012-03-18T12:48:53Z</time>
      </trkpt>
      <trkpt lat="49.14587" lon="-0.49745">
        <ele>131</ele>
        <time>2012-03-18T12:48:58Z</time>
      </trkpt>
      <trkpt lat="49.14591" lon="-0.49748">
        <ele>131</ele>
        <time>2012-03-18T12:49:03Z</time>
      </trkpt>
      <trkpt lat="49.14596" lon="-0.49752">
        <ele>132</ele>
        <time>2012-03-18T12:49:07Z</time>
      </trkpt>
      <trkpt lat="49.14601" lon="-0.49754">
        <ele>132</ele>
        <time>2012-03-18T12:49:12Z</time>
      </trkpt>
      <trkpt lat="49.14605" lon="-0.49758">
        <ele>133</ele>
        <time>2012-03-18T12:49:17Z</time>
      </trkpt>
      <trkpt lat="49.1461" lon="-0.49761">
        <ele>134</ele>
        <time>2012-03-18T12:49:20Z</time>
      </trkpt>
      <trkpt lat="49.14614" lon="-0.49766">
        <ele>133</ele>
        <time>2012-03-18T12:49:24Z</time>
      </trkpt>
      <trkpt lat="49.14617" lon="-0.49771">
        <ele>131</ele>
        <time>2012-03-18T12:49:28Z</time>
      </trkpt>
      <trkpt lat="49.14622" lon="-0.49775">
        <ele>131</ele>
        <time>2012-03-18T12:49:32Z</time>
      </trkpt>
      <trkpt lat="49.14626" lon="-0.49781">
        <ele>130</ele>
        <time>2012-03-18T12:49:36Z</time>
      </trkpt>
      <trkpt lat="49.14631" lon="-0.49781">
        <ele>132</ele>
        <time>2012-03-18T12:49:42Z</time>
      </trkpt>
      <trkpt lat="49.14638" lon="-0.49781">
        <ele>134</ele>
        <time>2012-03-18T12:49:46Z</time>
      </trkpt>
      <trkpt lat="49.14642" lon="-0.49785">
        <ele>133</ele>
        <time>2012-03-18T12:49:51Z</time>
      </trkpt>
      <trkpt lat="49.14646" lon="-0.49788">
        <ele>134</ele>
        <time>2012-03-18T12:49:55Z</time>
      </trkpt>
      <trkpt lat="49.14652" lon="-0.49787">
        <ele>135</ele>
        <time>2012-03-18T12:49:59Z</time>
      </trkpt>
      <trkpt lat="49.14655" lon="-0.49791">
        <ele>135</ele>
        <time>2012-03-18T12:50:04Z</time>
      </trkpt>
      <trkpt lat="49.14659" lon="-0.49796">
        <ele>136</ele>
        <time>2012-03-18T12:50:10Z</time>
      </trkpt>
      <trkpt lat="49.14663" lon="-0.49798">
        <ele>135</ele>
        <time>2012-03-18T12:50:12Z</time>
      </trkpt>
      <trkpt lat="49.14667" lon="-0.49802">
        <ele>136</ele>
        <time>2012-03-18T12:50:15Z</time>
      </trkpt>
      <trkpt lat="49.14672" lon="-0.49808">
        <ele>136</ele>
        <time>2012-03-18T12:50:19Z</time>
      </trkpt>
      <trkpt lat="49.14676" lon="-0.49813">
        <ele>137</ele>
        <time>2012-03-18T12:50:26Z</time>
      </trkpt>
      <trkpt lat="49.1468" lon="-0.49816">
        <ele>136</ele>
        <time>2012-03-18T12:50:29Z</time>
      </trkpt>
      <trkpt lat="49.14686" lon="-0.49818">
        <ele>136</ele>
        <time>2012-03-18T12:50:33Z</time>
      </trkpt>
      <trkpt lat="49.14689" lon="-0.49822">
        <ele>135</ele>
        <time>2012-03-18T12:50:38Z</time>
      </trkpt>
      <trkpt lat="49.14694" lon="-0.49827">
        <ele>135</ele>
        <time>2012-03-18T12:50:41Z</time>
      </trkpt>
      <trkpt lat="49.147" lon="-0.49827">
        <ele>136</ele>
        <time>2012-03-18T12:50:46Z</time>
      </trkpt>
      <trkpt lat="49.14703" lon="-0.49831">
        <ele>136</ele>
        <time>2012-03-18T12:50:52Z</time>
      </trkpt>
      <trkpt lat="49.14707" lon="-0.49835">
        <ele>135</ele>
        <time>2012-03-18T12:50:55Z</time>
      </trkpt>
      <trkpt lat="49.14711" lon="-0.49842">
        <ele>132</ele>
        <time>2012-03-18T12:51:00Z</time>
      </trkpt>
      <trkpt lat="49.14716" lon="-0.49846">
        <ele>131</ele>
        <time>2012-03-18T12:51:05Z</time>
      </trkpt>
      <trkpt lat="49.1472" lon="-0.4985">
        <ele>132</ele>
        <time>2012-03-18T12:51:09Z</time>
      </trkpt>
      <trkpt lat="49.14724" lon="-0.49853">
        <ele>132</ele>
        <time>2012-03-18T12:51:13Z</time>
      </trkpt>
      <trkpt lat="49.14731" lon="-0.49857">
        <ele>134</ele>
        <time>2012-03-18T12:51:18Z</time>
      </trkpt>
      <trkpt lat="49.14735" lon="-0.49859">
        <ele>135</ele>
        <time>2012-03-18T12:51:21Z</time>
      </trkpt>
      <trkpt lat="49.1474" lon="-0.49862">
        <ele>136</ele>
        <time>2012-03-18T12:51:25Z</time>
      </trkpt>
      <trkpt lat="49.14744" lon="-0.49866">
        <ele>137</ele>
        <time>2012-03-18T12:51:29Z</time>
      </trkpt>
      <trkpt lat="49.14748" lon="-0.4987">
        <ele>137</ele>
        <time>2012-03-18T12:51:34Z</time>
      </trkpt>
      <trkpt lat="49.14753" lon="-0.49874">
        <ele>138</ele>
        <time>2012-03-18T12:51:38Z</time>
      </trkpt>
      <trkpt lat="49.14758" lon="-0.49878">
        <ele>139</ele>
        <time>2012-03-18T12:51:42Z</time>
      </trkpt>
      <trkpt lat="49.14762" lon="-0.49882">
        <ele>139</ele>
        <time>2012-03-18T12:51:48Z</time>
      </trkpt>
      <trkpt lat="49.14767" lon="-0.49884">
        <ele>138</ele>
        <time>2012-03-18T12:51:52Z</time>
      </trkpt>
      <trkpt lat="49.1477" lon="-0.49887">
        <ele>136</ele>
        <time>2012-03-18T12:51:57Z</time>
      </trkpt>
      <trkpt lat="49.14775" lon="-0.49891">
        <ele>136</ele>
        <time>2012-03-18T12:52:02Z</time>
      </trkpt>
      <trkpt lat="49.1478" lon="-0.49894">
        <ele>135</ele>
        <time>2012-03-18T12:52:07Z</time>
      </trkpt>
      <trkpt lat="49.14785" lon="-0.49896">
        <ele>136</ele>
        <time>2012-03-18T12:52:11Z</time>
      </trkpt>
      <trkpt lat="49.14789" lon="-0.499">
        <ele>135</ele>
        <time>2012-03-18T12:52:15Z</time>
      </trkpt>
      <trkpt lat="49.14793" lon="-0.49905">
        <ele>134</ele>
        <time>2012-03-18T12:52:20Z</time>
      </trkpt>
      <trkpt lat="49.14798" lon="-0.49908">
        <ele>132</ele>
        <time>2012-03-18T12:52:25Z</time>
      </trkpt>
      <trkpt lat="49.14803" lon="-0.49911">
        <ele>132</ele>
        <time>2012-03-18T12:52:29Z</time>
      </trkpt>
      <trkpt lat="49.14807" lon="-0.49913">
        <ele>132</ele>
        <time>2012-03-18T12:52:32Z</time>
      </trkpt>
      <trkpt lat="49.14812" lon="-0.49915">
        <ele>133</ele>
        <time>2012-03-18T12:52:36Z</time>
      </trkpt>
      <trkpt lat="49.14816" lon="-0.49918">
        <ele>134</ele>
        <time>2012-03-18T12:52:40Z</time>
      </trkpt>
      <trkpt lat="49.14821" lon="-0.4992">
        <ele>133</ele>
        <time>2012-03-18T12:52:44Z</time>
      </trkpt>
      <trkpt lat="49.14826" lon="-0.49923">
        <ele>133</ele>
        <time>2012-03-18T12:52:49Z</time>
      </trkpt>
      <trkpt lat="49.14832" lon="-0.49926">
        <ele>133</ele>
        <time>2012-03-18T12:52:52Z</time>
      </trkpt>
      <trkpt lat="49.14836" lon="-0.49927">
        <ele>134</ele>
        <time>2012-03-18T12:52:56Z</time>
      </trkpt>
      <trkpt lat="49.14841" lon="-0.4993">
        <ele>134</ele>
        <time>2012-03-18T12:53:04Z</time>
      </trkpt>
      <trkpt lat="49.14846" lon="-0.49933">
        <ele>133</ele>
        <time>2012-03-18T12:53:08Z</time>
      </trkpt>
      <trkpt lat="49.14851" lon="-0.49937">
        <ele>132</ele>
        <time>2012-03-18T12:53:13Z</time>
      </trkpt>
      <trkpt lat="49.14856" lon="-0.49938">
        <ele>133</ele>
        <time>2012-03-18T12:53:17Z</time>
      </trkpt>
      <trkpt lat="49.14861" lon="-0.4994">
        <ele>133</ele>
        <time>2012-03-18T12:53:21Z</time>
      </trkpt>
      <trkpt lat="49.14866" lon="-0.4994">
        <ele>132</ele>
        <time>2012-03-18T12:53:26Z</time>
      </trkpt>
      <trkpt lat="49.1487" lon="-0.49942">
        <ele>130</ele>
        <time>2012-03-18T12:53:30Z</time>
      </trkpt>
      <trkpt lat="49.14876" lon="-0.49943">
        <ele>130</ele>
        <time>2012-03-18T12:53:34Z</time>
      </trkpt>
      <trkpt lat="49.1488" lon="-0.49945">
        <ele>130</ele>
        <time>2012-03-18T12:53:38Z</time>
      </trkpt>
      <trkpt lat="49.14886" lon="-0.49946">
        <ele>128</ele>
        <time>2012-03-18T12:53:45Z</time>
      </trkpt>
      <trkpt lat="49.1489" lon="-0.49947">
        <ele>128</ele>
        <time>2012-03-18T12:53:49Z</time>
      </trkpt>
      <trkpt lat="49.14896" lon="-0.49949">
        <ele>128</ele>
        <time>2012-03-18T12:53:53Z</time>
      </trkpt>
      <trkpt lat="49.14901" lon="-0.49949">
        <ele>129</ele>
        <time>2012-03-18T12:53:57Z</time>
      </trkpt>
      <trkpt lat="49.14906" lon="-0.49949">
        <ele>130</ele>
        <time>2012-03-18T12:54:01Z</time>
      </trkpt>
      <trkpt lat="49.14911" lon="-0.49951">
        <ele>130</ele>
        <time>2012-03-18T12:54:06Z</time>
      </trkpt>
      <trkpt lat="49.14916" lon="-0.49951">
        <ele>131</ele>
        <time>2012-03-18T12:54:10Z</time>
      </trkpt>
      <trkpt lat="49.14922" lon="-0.49952">
        <ele>131</ele>
        <time>2012-03-18T12:54:14Z</time>
      </trkpt>
      <trkpt lat="49.14926" lon="-0.49953">
        <ele>131</ele>
        <time>2012-03-18T12:54:19Z</time>
      </trkpt>
      <trkpt lat="49.14931" lon="-0.49955">
        <ele>132</ele>
        <time>2012-03-18T12:54:23Z</time>
      </trkpt>
      <trkpt lat="49.14936" lon="-0.49956">
        <ele>133</ele>
        <time>2012-03-18T12:54:28Z</time>
      </trkpt>
      <trkpt lat="49.1494" lon="-0.49956">
        <ele>133</ele>
        <time>2012-03-18T12:54:31Z</time>
      </trkpt>
      <trkpt lat="49.14945" lon="-0.49953">
        <ele>133</ele>
        <time>2012-03-18T12:54:46Z</time>
      </trkpt>
      <trkpt lat="49.1495" lon="-0.49955">
        <ele>133</ele>
        <time>2012-03-18T12:54:49Z</time>
      </trkpt>
      <trkpt lat="49.14954" lon="-0.49958">
        <ele>133</ele>
        <time>2012-03-18T12:54:54Z</time>
      </trkpt>
      <trkpt lat="49.14959" lon="-0.49959">
        <ele>132</ele>
        <time>2012-03-18T12:54:58Z</time>
      </trkpt>
      <trkpt lat="49.14964" lon="-0.49962">
        <ele>132</ele>
        <time>2012-03-18T12:55:02Z</time>
      </trkpt>
      <trkpt lat="49.1497" lon="-0.49962">
        <ele>133</ele>
        <time>2012-03-18T12:55:06Z</time>
      </trkpt>
      <trkpt lat="49.14975" lon="-0.49964">
        <ele>133</ele>
        <time>2012-03-18T12:55:10Z</time>
      </trkpt>
      <trkpt lat="49.1498" lon="-0.49966">
        <ele>133</ele>
        <time>2012-03-18T12:55:15Z</time>
      </trkpt>
      <trkpt lat="49.14985" lon="-0.49968">
        <ele>133</ele>
        <time>2012-03-18T12:55:19Z</time>
      </trkpt>
      <trkpt lat="49.1499" lon="-0.49969">
        <ele>134</ele>
        <time>2012-03-18T12:55:23Z</time>
      </trkpt>
      <trkpt lat="49.14996" lon="-0.49971">
        <ele>133</ele>
        <time>2012-03-18T12:55:28Z</time>
      </trkpt>
      <trkpt lat="49.15001" lon="-0.49971">
        <ele>134</ele>
        <time>2012-03-18T12:55:32Z</time>
      </trkpt>
      <trkpt lat="49.15006" lon="-0.49972">
        <ele>133</ele>
        <time>2012-03-18T12:55:36Z</time>
      </trkpt>
      <trkpt lat="49.15011" lon="-0.49973">
        <ele>133</ele>
        <time>2012-03-18T12:55:40Z</time>
      </trkpt>
      <trkpt lat="49.15017" lon="-0.49975">
        <ele>134</ele>
        <time>2012-03-18T12:55:45Z</time>
      </trkpt>
      <trkpt lat="49.15022" lon="-0.49974">
        <ele>134</ele>
        <time>2012-03-18T12:55:50Z</time>
      </trkpt>
      <trkpt lat="49.15027" lon="-0.49971">
        <ele>134</ele>
        <time>2012-03-18T12:55:55Z</time>
      </trkpt>
      <trkpt lat="49.15031" lon="-0.49966">
        <ele>134</ele>
        <time>2012-03-18T12:55:58Z</time>
      </trkpt>
      <trkpt lat="49.15032" lon="-0.49959">
        <ele>135</ele>
        <time>2012-03-18T12:56:00Z</time>
      </trkpt>
      <trkpt lat="49.15035" lon="-0.49952">
        <ele>136</ele>
        <time>2012-03-18T12:56:04Z</time>
      </trkpt>
      <trkpt lat="49.15039" lon="-0.49948">
        <ele>137</ele>
        <time>2012-03-18T12:56:08Z</time>
      </trkpt>
      <trkpt lat="49.15041" lon="-0.4994">
        <ele>136</ele>
        <time>2012-03-18T12:56:12Z</time>
      </trkpt>
      <trkpt lat="49.15042" lon="-0.49932">
        <ele>137</ele>
        <time>2012-03-18T12:56:16Z</time>
      </trkpt>
      <trkpt lat="49.15045" lon="-0.49924">
        <ele>137</ele>
        <time>2012-03-18T12:56:21Z</time>
      </trkpt>
      <trkpt lat="49.15045" lon="-0.49916">
        <ele>136</ele>
        <time>2012-03-18T12:56:24Z</time>
      </trkpt>
      <trkpt lat="49.15047" lon="-0.4991">
        <ele>136</ele>
        <time>2012-03-18T12:56:28Z</time>
      </trkpt>
      <trkpt lat="49.1505" lon="-0.49904">
        <ele>135</ele>
        <time>2012-03-18T12:56:32Z</time>
      </trkpt>
      <trkpt lat="49.15055" lon="-0.49899">
        <ele>135</ele>
        <time>2012-03-18T12:56:36Z</time>
      </trkpt>
      <trkpt lat="49.15063" lon="-0.49852">
        <ele>136</ele>
        <time>2012-03-18T12:56:57Z</time>
      </trkpt>
      <trkpt lat="49.15065" lon="-0.49841">
        <ele>136</ele>
        <time>2012-03-18T12:57:02Z</time>
      </trkpt>
      <trkpt lat="49.15066" lon="-0.49834">
        <ele>136</ele>
        <time>2012-03-18T12:57:06Z</time>
      </trkpt>
      <trkpt lat="49.15069" lon="-0.49828">
        <ele>136</ele>
        <time>2012-03-18T12:57:11Z</time>
      </trkpt>
      <trkpt lat="49.15073" lon="-0.49824">
        <ele>136</ele>
        <time>2012-03-18T12:57:16Z</time>
      </trkpt>
      <trkpt lat="49.15083" lon="-0.4978">
        <ele>136</ele>
        <time>2012-03-18T12:57:37Z</time>
      </trkpt>
      <trkpt lat="49.15095" lon="-0.49771">
        <ele>135</ele>
        <time>2012-03-18T12:57:47Z</time>
      </trkpt>
      <trkpt lat="49.15099" lon="-0.49756">
        <ele>137</ele>
        <time>2012-03-18T12:57:54Z</time>
      </trkpt>
      <trkpt lat="49.15103" lon="-0.4975">
        <ele>136</ele>
        <time>2012-03-18T12:58:00Z</time>
      </trkpt>
      <trkpt lat="49.15109" lon="-0.49739">
        <ele>137</ele>
        <time>2012-03-18T12:58:06Z</time>
      </trkpt>
      <trkpt lat="49.15109" lon="-0.49739">
        <ele>137</ele>
        <time>2012-03-18T12:58:06Z</time>
      </trkpt>
      <trkpt lat="49.15109" lon="-0.49739">
        <ele>138</ele>
        <time>2012-03-18T12:58:07Z</time>
      </trkpt>
      <trkpt lat="49.15114" lon="-0.49735">
        <ele>137</ele>
        <time>2012-03-18T12:58:12Z</time>
      </trkpt>
      <trkpt lat="49.15116" lon="-0.49728">
        <ele>138</ele>
        <time>2012-03-18T12:58:14Z</time>
      </trkpt>
      <trkpt lat="49.1512" lon="-0.4972">
        <ele>140</ele>
        <time>2012-03-18T12:58:18Z</time>
      </trkpt>
      <trkpt lat="49.1512" lon="-0.49712">
        <ele>140</ele>
        <time>2012-03-18T12:58:23Z</time>
      </trkpt>
      <trkpt lat="49.15121" lon="-0.49704">
        <ele>140</ele>
        <time>2012-03-18T12:58:28Z</time>
      </trkpt>
      <trkpt lat="49.15125" lon="-0.49699">
        <ele>137</ele>
        <time>2012-03-18T12:58:32Z</time>
      </trkpt>
      <trkpt lat="49.15129" lon="-0.49693">
        <ele>137</ele>
        <time>2012-03-18T12:58:36Z</time>
      </trkpt>
      <trkpt lat="49.15132" lon="-0.49687">
        <ele>137</ele>
        <time>2012-03-18T12:58:41Z</time>
      </trkpt>
      <trkpt lat="49.15135" lon="-0.49679">
        <ele>136</ele>
        <time>2012-03-18T12:58:46Z</time>
      </trkpt>
      <trkpt lat="49.15137" lon="-0.49671">
        <ele>137</ele>
        <time>2012-03-18T12:58:50Z</time>
      </trkpt>
      <trkpt lat="49.15139" lon="-0.49663">
        <ele>137</ele>
        <time>2012-03-18T12:58:52Z</time>
      </trkpt>
      <trkpt lat="49.1514" lon="-0.49655">
        <ele>137</ele>
        <time>2012-03-18T12:58:56Z</time>
      </trkpt>
      <trkpt lat="49.1515" lon="-0.49582">
        <ele>133</ele>
        <time>2012-03-18T12:59:33Z</time>
      </trkpt>
      <trkpt lat="49.15147" lon="-0.49484">
        <ele>131</ele>
        <time>2012-03-18T13:00:25Z</time>
      </trkpt>
      <trkpt lat="49.15147" lon="-0.49476">
        <ele>131</ele>
        <time>2012-03-18T13:00:29Z</time>
      </trkpt>
      <trkpt lat="49.1515" lon="-0.49467">
        <ele>130</ele>
        <time>2012-03-18T13:00:35Z</time>
      </trkpt>
      <trkpt lat="49.15152" lon="-0.49446">
        <ele>133</ele>
        <time>2012-03-18T13:00:48Z</time>
      </trkpt>
      <trkpt lat="49.15151" lon="-0.49438">
        <ele>134</ele>
        <time>2012-03-18T13:00:52Z</time>
      </trkpt>
      <trkpt lat="49.15148" lon="-0.49429">
        <ele>134</ele>
        <time>2012-03-18T13:00:55Z</time>
      </trkpt>
      <trkpt lat="49.15146" lon="-0.49422">
        <ele>133</ele>
        <time>2012-03-18T13:00:58Z</time>
      </trkpt>
      <trkpt lat="49.15145" lon="-0.49415">
        <ele>133</ele>
        <time>2012-03-18T13:01:02Z</time>
      </trkpt>
      <trkpt lat="49.15148" lon="-0.4941">
        <ele>134</ele>
        <time>2012-03-18T13:01:09Z</time>
      </trkpt>
      <trkpt lat="49.15153" lon="-0.49413">
        <ele>134</ele>
        <time>2012-03-18T13:01:11Z</time>
      </trkpt>
      <trkpt lat="49.15158" lon="-0.49414">
        <ele>135</ele>
        <time>2012-03-18T13:01:15Z</time>
      </trkpt>
      <trkpt lat="49.15162" lon="-0.49413">
        <ele>136</ele>
        <time>2012-03-18T13:01:19Z</time>
      </trkpt>
      <trkpt lat="49.15157" lon="-0.49412">
        <ele>133</ele>
        <time>2012-03-18T13:01:32Z</time>
      </trkpt>
      <trkpt lat="49.15153" lon="-0.49416">
        <ele>133</ele>
        <time>2012-03-18T13:01:37Z</time>
      </trkpt>
      <trkpt lat="49.15148" lon="-0.49416">
        <ele>132</ele>
        <time>2012-03-18T13:01:41Z</time>
      </trkpt>
      <trkpt lat="49.15148" lon="-0.49416">
        <ele>132</ele>
        <time>2012-03-18T13:01:41Z</time>
      </trkpt>
      <trkpt lat="49.15148" lon="-0.49416">
        <ele>131</ele>
        <time>2012-03-18T13:01:49Z</time>
      </trkpt>
      <trkpt lat="49.15147" lon="-0.49407">
        <ele>131</ele>
        <time>2012-03-18T13:01:53Z</time>
      </trkpt>
      <trkpt lat="49.15144" lon="-0.494">
        <ele>130</ele>
        <time>2012-03-18T13:01:56Z</time>
      </trkpt>
      <trkpt lat="49.15144" lon="-0.49393">
        <ele>131</ele>
        <time>2012-03-18T13:01:59Z</time>
      </trkpt>
      <trkpt lat="49.15143" lon="-0.49384">
        <ele>130</ele>
        <time>2012-03-18T13:02:04Z</time>
      </trkpt>
      <trkpt lat="49.15143" lon="-0.49377">
        <ele>131</ele>
        <time>2012-03-18T13:02:08Z</time>
      </trkpt>
      <trkpt lat="49.15145" lon="-0.49371">
        <ele>132</ele>
        <time>2012-03-18T13:02:14Z</time>
      </trkpt>
      <trkpt lat="49.15145" lon="-0.49364">
        <ele>131</ele>
        <time>2012-03-18T13:02:19Z</time>
      </trkpt>
      <trkpt lat="49.15146" lon="-0.49356">
        <ele>133</ele>
        <time>2012-03-18T13:02:24Z</time>
      </trkpt>
      <trkpt lat="49.15144" lon="-0.49348">
        <ele>132</ele>
        <time>2012-03-18T13:02:27Z</time>
      </trkpt>
      <trkpt lat="49.15143" lon="-0.49341">
        <ele>133</ele>
        <time>2012-03-18T13:02:32Z</time>
      </trkpt>
      <trkpt lat="49.15143" lon="-0.49333">
        <ele>132</ele>
        <time>2012-03-18T13:02:40Z</time>
      </trkpt>
      <trkpt lat="49.15142" lon="-0.49325">
        <ele>130</ele>
        <time>2012-03-18T13:02:44Z</time>
      </trkpt>
      <trkpt lat="49.15146" lon="-0.49322">
        <ele>133</ele>
        <time>2012-03-18T13:02:50Z</time>
      </trkpt>
      <trkpt lat="49.15151" lon="-0.49327">
        <ele>135</ele>
        <time>2012-03-18T13:02:54Z</time>
      </trkpt>
      <trkpt lat="49.15146" lon="-0.49327">
        <ele>133</ele>
        <time>2012-03-18T13:03:12Z</time>
      </trkpt>
      <trkpt lat="49.15143" lon="-0.49322">
        <ele>134</ele>
        <time>2012-03-18T13:03:16Z</time>
      </trkpt>
      <trkpt lat="49.15143" lon="-0.49315">
        <ele>131</ele>
        <time>2012-03-18T13:03:18Z</time>
      </trkpt>
      <trkpt lat="49.15142" lon="-0.49306">
        <ele>130</ele>
        <time>2012-03-18T13:03:22Z</time>
      </trkpt>
      <trkpt lat="49.15142" lon="-0.493">
        <ele>130</ele>
        <time>2012-03-18T13:03:25Z</time>
      </trkpt>
      <trkpt lat="49.1514" lon="-0.4928">
        <ele>134</ele>
        <time>2012-03-18T13:03:34Z</time>
      </trkpt>
      <trkpt lat="49.15141" lon="-0.49268">
        <ele>132</ele>
        <time>2012-03-18T13:03:41Z</time>
      </trkpt>
      <trkpt lat="49.15142" lon="-0.4926">
        <ele>133</ele>
        <time>2012-03-18T13:03:45Z</time>
      </trkpt>
      <trkpt lat="49.15141" lon="-0.49252">
        <ele>132</ele>
        <time>2012-03-18T13:03:49Z</time>
      </trkpt>
      <trkpt lat="49.15145" lon="-0.49248">
        <ele>132</ele>
        <time>2012-03-18T13:03:54Z</time>
      </trkpt>
      <trkpt lat="49.15146" lon="-0.49235">
        <ele>132</ele>
        <time>2012-03-18T13:04:00Z</time>
      </trkpt>
      <trkpt lat="49.15147" lon="-0.49228">
        <ele>132</ele>
        <time>2012-03-18T13:04:03Z</time>
      </trkpt>
      <trkpt lat="49.15147" lon="-0.49221">
        <ele>133</ele>
        <time>2012-03-18T13:04:07Z</time>
      </trkpt>
      <trkpt lat="49.1515" lon="-0.49214">
        <ele>133</ele>
        <time>2012-03-18T13:04:11Z</time>
      </trkpt>
      <trkpt lat="49.1515" lon="-0.49207">
        <ele>131</ele>
        <time>2012-03-18T13:04:16Z</time>
      </trkpt>
      <trkpt lat="49.15152" lon="-0.49199">
        <ele>131</ele>
        <time>2012-03-18T13:04:23Z</time>
      </trkpt>
      <trkpt lat="49.15152" lon="-0.49192">
        <ele>130</ele>
        <time>2012-03-18T13:04:27Z</time>
      </trkpt>
      <trkpt lat="49.15154" lon="-0.49186">
        <ele>131</ele>
        <time>2012-03-18T13:04:32Z</time>
      </trkpt>
      <trkpt lat="49.15159" lon="-0.49183">
        <ele>131</ele>
        <time>2012-03-18T13:04:36Z</time>
      </trkpt>
      <trkpt lat="49.15165" lon="-0.49051">
        <ele>132</ele>
        <time>2012-03-18T13:05:45Z</time>
      </trkpt>
      <trkpt lat="49.15165" lon="-0.49044">
        <ele>131</ele>
        <time>2012-03-18T13:05:49Z</time>
      </trkpt>
      <trkpt lat="49.15166" lon="-0.49037">
        <ele>130</ele>
        <time>2012-03-18T13:05:53Z</time>
      </trkpt>
      <trkpt lat="49.15166" lon="-0.49029">
        <ele>131</ele>
        <time>2012-03-18T13:05:57Z</time>
      </trkpt>
      <trkpt lat="49.15166" lon="-0.49022">
        <ele>130</ele>
        <time>2012-03-18T13:06:01Z</time>
      </trkpt>
      <trkpt lat="49.15165" lon="-0.49014">
        <ele>131</ele>
        <time>2012-03-18T13:06:05Z</time>
      </trkpt>
      <trkpt lat="49.15165" lon="-0.49006">
        <ele>131</ele>
        <time>2012-03-18T13:06:09Z</time>
      </trkpt>
      <trkpt lat="49.15169" lon="-0.48994">
        <ele>131</ele>
        <time>2012-03-18T13:06:17Z</time>
      </trkpt>
      <trkpt lat="49.15167" lon="-0.48987">
        <ele>130</ele>
        <time>2012-03-18T13:06:22Z</time>
      </trkpt>
      <trkpt lat="49.15166" lon="-0.48979">
        <ele>130</ele>
        <time>2012-03-18T13:06:24Z</time>
      </trkpt>
      <trkpt lat="49.15165" lon="-0.48972">
        <ele>131</ele>
        <time>2012-03-18T13:06:27Z</time>
      </trkpt>
      <trkpt lat="49.15165" lon="-0.48965">
        <ele>130</ele>
        <time>2012-03-18T13:06:32Z</time>
      </trkpt>
      <trkpt lat="49.15162" lon="-0.48937">
        <ele>127</ele>
        <time>2012-03-18T13:06:52Z</time>
      </trkpt>
      <trkpt lat="49.15167" lon="-0.48934">
        <ele>128</ele>
        <time>2012-03-18T13:07:00Z</time>
      </trkpt>
      <trkpt lat="49.15162" lon="-0.4893">
        <ele>125</ele>
        <time>2012-03-18T13:07:08Z</time>
      </trkpt>
      <trkpt lat="49.15159" lon="-0.48924">
        <ele>126</ele>
        <time>2012-03-18T13:07:12Z</time>
      </trkpt>
      <trkpt lat="49.15157" lon="-0.48915">
        <ele>126</ele>
        <time>2012-03-18T13:07:17Z</time>
      </trkpt>
      <trkpt lat="49.15158" lon="-0.48908">
        <ele>125</ele>
        <time>2012-03-18T13:07:20Z</time>
      </trkpt>
      <trkpt lat="49.15158" lon="-0.48901">
        <ele>126</ele>
        <time>2012-03-18T13:07:24Z</time>
      </trkpt>
      <trkpt lat="49.15159" lon="-0.48892">
        <ele>125</ele>
        <time>2012-03-18T13:07:29Z</time>
      </trkpt>
      <trkpt lat="49.15159" lon="-0.48885">
        <ele>126</ele>
        <time>2012-03-18T13:07:33Z</time>
      </trkpt>
      <trkpt lat="49.15162" lon="-0.48876">
        <ele>127</ele>
        <time>2012-03-18T13:07:43Z</time>
      </trkpt>
      <trkpt lat="49.1516" lon="-0.4887">
        <ele>126</ele>
        <time>2012-03-18T13:07:45Z</time>
      </trkpt>
      <trkpt lat="49.15159" lon="-0.48862">
        <ele>126</ele>
        <time>2012-03-18T13:07:47Z</time>
      </trkpt>
      <trkpt lat="49.15157" lon="-0.48855">
        <ele>125</ele>
        <time>2012-03-18T13:07:51Z</time>
      </trkpt>
      <trkpt lat="49.15157" lon="-0.48846">
        <ele>126</ele>
        <time>2012-03-18T13:07:55Z</time>
      </trkpt>
      <trkpt lat="49.1516" lon="-0.48828">
        <ele>127</ele>
        <time>2012-03-18T13:08:08Z</time>
      </trkpt>
      <trkpt lat="49.15158" lon="-0.48817">
        <ele>128</ele>
        <time>2012-03-18T13:08:12Z</time>
      </trkpt>
      <trkpt lat="49.15158" lon="-0.4881">
        <ele>128</ele>
        <time>2012-03-18T13:08:14Z</time>
      </trkpt>
      <trkpt lat="49.1516" lon="-0.48804">
        <ele>129</ele>
        <time>2012-03-18T13:08:18Z</time>
      </trkpt>
      <trkpt lat="49.1516" lon="-0.48795">
        <ele>130</ele>
        <time>2012-03-18T13:08:23Z</time>
      </trkpt>
      <trkpt lat="49.15161" lon="-0.48786">
        <ele>129</ele>
        <time>2012-03-18T13:08:30Z</time>
      </trkpt>
      <trkpt lat="49.1516" lon="-0.48774">
        <ele>129</ele>
        <time>2012-03-18T13:08:34Z</time>
      </trkpt>
      <trkpt lat="49.15163" lon="-0.48765">
        <ele>130</ele>
        <time>2012-03-18T13:08:40Z</time>
      </trkpt>
      <trkpt lat="49.15168" lon="-0.48751">
        <ele>132</ele>
        <time>2012-03-18T13:08:47Z</time>
      </trkpt>
      <trkpt lat="49.15172" lon="-0.48746">
        <ele>132</ele>
        <time>2012-03-18T13:08:51Z</time>
      </trkpt>
      <trkpt lat="49.15176" lon="-0.4874">
        <ele>133</ele>
        <time>2012-03-18T13:08:55Z</time>
      </trkpt>
      <trkpt lat="49.15181" lon="-0.48736">
        <ele>133</ele>
        <time>2012-03-18T13:08:58Z</time>
      </trkpt>
      <trkpt lat="49.15184" lon="-0.4873">
        <ele>133</ele>
        <time>2012-03-18T13:09:04Z</time>
      </trkpt>
      <trkpt lat="49.15184" lon="-0.4873">
        <ele>133</ele>
        <time>2012-03-18T13:09:04Z</time>
      </trkpt>
      <trkpt lat="49.15184" lon="-0.4873">
        <ele>133</ele>
        <time>2012-03-18T13:09:05Z</time>
      </trkpt>
      <trkpt lat="49.15189" lon="-0.48729">
        <ele>133</ele>
        <time>2012-03-18T13:09:09Z</time>
      </trkpt>
      <trkpt lat="49.15193" lon="-0.48723">
        <ele>133</ele>
        <time>2012-03-18T13:09:13Z</time>
      </trkpt>
      <trkpt lat="49.15196" lon="-0.48717">
        <ele>133</ele>
        <time>2012-03-18T13:09:16Z</time>
      </trkpt>
      <trkpt lat="49.152" lon="-0.48712">
        <ele>132</ele>
        <time>2012-03-18T13:09:20Z</time>
      </trkpt>
      <trkpt lat="49.15204" lon="-0.4871">
        <ele>135</ele>
        <time>2012-03-18T13:09:25Z</time>
      </trkpt>
      <trkpt lat="49.15209" lon="-0.48707">
        <ele>134</ele>
        <time>2012-03-18T13:09:29Z</time>
      </trkpt>
      <trkpt lat="49.15213" lon="-0.48701">
        <ele>135</ele>
        <time>2012-03-18T13:09:34Z</time>
      </trkpt>
      <trkpt lat="49.15216" lon="-0.48696">
        <ele>136</ele>
        <time>2012-03-18T13:09:38Z</time>
      </trkpt>
      <trkpt lat="49.1522" lon="-0.4869">
        <ele>135</ele>
        <time>2012-03-18T13:09:44Z</time>
      </trkpt>
      <trkpt lat="49.15224" lon="-0.48686">
        <ele>133</ele>
        <time>2012-03-18T13:09:50Z</time>
      </trkpt>
      <trkpt lat="49.15228" lon="-0.4868">
        <ele>132</ele>
        <time>2012-03-18T13:09:56Z</time>
      </trkpt>
      <trkpt lat="49.15231" lon="-0.48674">
        <ele>130</ele>
        <time>2012-03-18T13:10:02Z</time>
      </trkpt>
      <trkpt lat="49.15234" lon="-0.48666">
        <ele>129</ele>
        <time>2012-03-18T13:10:06Z</time>
      </trkpt>
      <trkpt lat="49.15235" lon="-0.48658">
        <ele>129</ele>
        <time>2012-03-18T13:10:10Z</time>
      </trkpt>
      <trkpt lat="49.15238" lon="-0.48652">
        <ele>128</ele>
        <time>2012-03-18T13:10:15Z</time>
      </trkpt>
      <trkpt lat="49.15239" lon="-0.48645">
        <ele>129</ele>
        <time>2012-03-18T13:10:18Z</time>
      </trkpt>
      <trkpt lat="49.15242" lon="-0.48638">
        <ele>128</ele>
        <time>2012-03-18T13:10:22Z</time>
      </trkpt>
      <trkpt lat="49.15245" lon="-0.48632">
        <ele>126</ele>
        <time>2012-03-18T13:10:26Z</time>
      </trkpt>
      <trkpt lat="49.1525" lon="-0.48627">
        <ele>128</ele>
        <time>2012-03-18T13:10:29Z</time>
      </trkpt>
      <trkpt lat="49.15255" lon="-0.48623">
        <ele>129</ele>
        <time>2012-03-18T13:10:33Z</time>
      </trkpt>
      <trkpt lat="49.15258" lon="-0.48618">
        <ele>129</ele>
        <time>2012-03-18T13:10:36Z</time>
      </trkpt>
      <trkpt lat="49.15261" lon="-0.48611">
        <ele>131</ele>
        <time>2012-03-18T13:10:38Z</time>
      </trkpt>
      <trkpt lat="49.15262" lon="-0.48604">
        <ele>128</ele>
        <time>2012-03-18T13:10:41Z</time>
      </trkpt>
      <trkpt lat="49.15265" lon="-0.48598">
        <ele>130</ele>
        <time>2012-03-18T13:10:44Z</time>
      </trkpt>
      <trkpt lat="49.15269" lon="-0.48594">
        <ele>129</ele>
        <time>2012-03-18T13:10:49Z</time>
      </trkpt>
      <trkpt lat="49.15271" lon="-0.48588">
        <ele>129</ele>
        <time>2012-03-18T13:10:53Z</time>
      </trkpt>
      <trkpt lat="49.15274" lon="-0.48582">
        <ele>129</ele>
        <time>2012-03-18T13:11:00Z</time>
      </trkpt>
      <trkpt lat="49.15277" lon="-0.48575">
        <ele>130</ele>
        <time>2012-03-18T13:11:05Z</time>
      </trkpt>
      <trkpt lat="49.1528" lon="-0.48569">
        <ele>129</ele>
        <time>2012-03-18T13:11:09Z</time>
      </trkpt>
      <trkpt lat="49.15283" lon="-0.48561">
        <ele>131</ele>
        <time>2012-03-18T13:11:12Z</time>
      </trkpt>
      <trkpt lat="49.15286" lon="-0.48555">
        <ele>131</ele>
        <time>2012-03-18T13:11:16Z</time>
      </trkpt>
      <trkpt lat="49.1529" lon="-0.48549">
        <ele>132</ele>
        <time>2012-03-18T13:11:19Z</time>
      </trkpt>
      <trkpt lat="49.15292" lon="-0.48542">
        <ele>129</ele>
        <time>2012-03-18T13:11:23Z</time>
      </trkpt>
      <trkpt lat="49.15297" lon="-0.48538">
        <ele>126</ele>
        <time>2012-03-18T13:11:30Z</time>
      </trkpt>
      <trkpt lat="49.15293" lon="-0.48529">
        <ele>125</ele>
        <time>2012-03-18T13:11:37Z</time>
      </trkpt>
      <trkpt lat="49.15289" lon="-0.48522">
        <ele>124</ele>
        <time>2012-03-18T13:11:43Z</time>
      </trkpt>
      <trkpt lat="49.15286" lon="-0.48512">
        <ele>125</ele>
        <time>2012-03-18T13:11:48Z</time>
      </trkpt>
      <trkpt lat="49.15283" lon="-0.48507">
        <ele>126</ele>
        <time>2012-03-18T13:11:51Z</time>
      </trkpt>
      <trkpt lat="49.1528" lon="-0.48501">
        <ele>125</ele>
        <time>2012-03-18T13:11:56Z</time>
      </trkpt>
      <trkpt lat="49.15276" lon="-0.48494">
        <ele>123</ele>
        <time>2012-03-18T13:12:04Z</time>
      </trkpt>
      <trkpt lat="49.15275" lon="-0.48486">
        <ele>124</ele>
        <time>2012-03-18T13:12:07Z</time>
      </trkpt>
      <trkpt lat="49.15272" lon="-0.48478">
        <ele>122</ele>
        <time>2012-03-18T13:12:13Z</time>
      </trkpt>
      <trkpt lat="49.1527" lon="-0.48471">
        <ele>123</ele>
        <time>2012-03-18T13:12:23Z</time>
      </trkpt>
      <trkpt lat="49.15267" lon="-0.48464">
        <ele>123</ele>
        <time>2012-03-18T13:12:31Z</time>
      </trkpt>
      <trkpt lat="49.15268" lon="-0.48456">
        <ele>126</ele>
        <time>2012-03-18T13:12:35Z</time>
      </trkpt>
      <trkpt lat="49.15266" lon="-0.48448">
        <ele>126</ele>
        <time>2012-03-18T13:12:38Z</time>
      </trkpt>
      <trkpt lat="49.15265" lon="-0.4844">
        <ele>126</ele>
        <time>2012-03-18T13:12:42Z</time>
      </trkpt>
      <trkpt lat="49.15263" lon="-0.48433">
        <ele>124</ele>
        <time>2012-03-18T13:12:47Z</time>
      </trkpt>
      <trkpt lat="49.1526" lon="-0.48426">
        <ele>124</ele>
        <time>2012-03-18T13:12:51Z</time>
      </trkpt>
      <trkpt lat="49.15256" lon="-0.48419">
        <ele>121</ele>
        <time>2012-03-18T13:12:58Z</time>
      </trkpt>
      <trkpt lat="49.15255" lon="-0.48412">
        <ele>119</ele>
        <time>2012-03-18T13:13:04Z</time>
      </trkpt>
      <trkpt lat="49.15255" lon="-0.48412">
        <ele>119</ele>
        <time>2012-03-18T13:13:04Z</time>
      </trkpt>
      <trkpt lat="49.15255" lon="-0.48412">
        <ele>119</ele>
        <time>2012-03-18T13:13:05Z</time>
      </trkpt>
      <trkpt lat="49.15254" lon="-0.48404">
        <ele>119</ele>
        <time>2012-03-18T13:13:09Z</time>
      </trkpt>
      <trkpt lat="49.15255" lon="-0.48397">
        <ele>118</ele>
        <time>2012-03-18T13:13:14Z</time>
      </trkpt>
      <trkpt lat="49.15255" lon="-0.4839">
        <ele>118</ele>
        <time>2012-03-18T13:13:18Z</time>
      </trkpt>
      <trkpt lat="49.15254" lon="-0.48383">
        <ele>117</ele>
        <time>2012-03-18T13:13:21Z</time>
      </trkpt>
      <trkpt lat="49.15251" lon="-0.48374">
        <ele>118</ele>
        <time>2012-03-18T13:13:24Z</time>
      </trkpt>
      <trkpt lat="49.15251" lon="-0.48367">
        <ele>117</ele>
        <time>2012-03-18T13:13:30Z</time>
      </trkpt>
      <trkpt lat="49.15251" lon="-0.48367">
        <ele>117</ele>
        <time>2012-03-18T13:13:30Z</time>
      </trkpt>
      <trkpt lat="49.15251" lon="-0.48367">
        <ele>118</ele>
        <time>2012-03-18T13:13:31Z</time>
      </trkpt>
      <trkpt lat="49.15249" lon="-0.48359">
        <ele>119</ele>
        <time>2012-03-18T13:13:38Z</time>
      </trkpt>
      <trkpt lat="49.15249" lon="-0.48359">
        <ele>119</ele>
        <time>2012-03-18T13:13:38Z</time>
      </trkpt>
      <trkpt lat="49.15249" lon="-0.48359">
        <ele>119</ele>
        <time>2012-03-18T13:13:41Z</time>
      </trkpt>
      <trkpt lat="49.15248" lon="-0.48352">
        <ele>116</ele>
        <time>2012-03-18T13:14:03Z</time>
      </trkpt>
      <trkpt lat="49.15229" lon="-0.48266">
        <ele>117</ele>
        <time>2012-03-18T13:14:49Z</time>
      </trkpt>
      <trkpt lat="49.15227" lon="-0.48257">
        <ele>118</ele>
        <time>2012-03-18T13:14:52Z</time>
      </trkpt>
      <trkpt lat="49.15224" lon="-0.48249">
        <ele>119</ele>
        <time>2012-03-18T13:14:56Z</time>
      </trkpt>
      <trkpt lat="49.15222" lon="-0.48242">
        <ele>118</ele>
        <time>2012-03-18T13:14:59Z</time>
      </trkpt>
      <trkpt lat="49.15219" lon="-0.48236">
        <ele>119</ele>
        <time>2012-03-18T13:15:04Z</time>
      </trkpt>
      <trkpt lat="49.15217" lon="-0.48229">
        <ele>120</ele>
        <time>2012-03-18T13:15:09Z</time>
      </trkpt>
      <trkpt lat="49.15212" lon="-0.48227">
        <ele>120</ele>
        <time>2012-03-18T13:15:13Z</time>
      </trkpt>
      <trkpt lat="49.15212" lon="-0.48227">
        <ele>120</ele>
        <time>2012-03-18T13:15:13Z</time>
      </trkpt>
      <trkpt lat="49.15212" lon="-0.48227">
        <ele>120</ele>
        <time>2012-03-18T13:15:14Z</time>
      </trkpt>
      <trkpt lat="49.15206" lon="-0.48223">
        <ele>120</ele>
        <time>2012-03-18T13:15:18Z</time>
      </trkpt>
      <trkpt lat="49.15205" lon="-0.48215">
        <ele>117</ele>
        <time>2012-03-18T13:15:24Z</time>
      </trkpt>
      <trkpt lat="49.15204" lon="-0.48208">
        <ele>114</ele>
        <time>2012-03-18T13:15:28Z</time>
      </trkpt>
      <trkpt lat="49.15205" lon="-0.48201">
        <ele>115</ele>
        <time>2012-03-18T13:15:32Z</time>
      </trkpt>
      <trkpt lat="49.15209" lon="-0.48197">
        <ele>117</ele>
        <time>2012-03-18T13:15:34Z</time>
      </trkpt>
      <trkpt lat="49.15211" lon="-0.48188">
        <ele>117</ele>
        <time>2012-03-18T13:15:38Z</time>
      </trkpt>
      <trkpt lat="49.15214" lon="-0.48183">
        <ele>118</ele>
        <time>2012-03-18T13:15:42Z</time>
      </trkpt>
      <trkpt lat="49.15214" lon="-0.48175">
        <ele>119</ele>
        <time>2012-03-18T13:15:47Z</time>
      </trkpt>
      <trkpt lat="49.15217" lon="-0.48167">
        <ele>120</ele>
        <time>2012-03-18T13:15:52Z</time>
      </trkpt>
      <trkpt lat="49.15217" lon="-0.48159">
        <ele>120</ele>
        <time>2012-03-18T13:15:56Z</time>
      </trkpt>
      <trkpt lat="49.1522" lon="-0.48153">
        <ele>119</ele>
        <time>2012-03-18T13:16:00Z</time>
      </trkpt>
      <trkpt lat="49.15229" lon="-0.48108">
        <ele>122</ele>
        <time>2012-03-18T13:16:25Z</time>
      </trkpt>
      <trkpt lat="49.15235" lon="-0.48083">
        <ele>120</ele>
        <time>2012-03-18T13:16:42Z</time>
      </trkpt>
      <trkpt lat="49.15238" lon="-0.48076">
        <ele>118</ele>
        <time>2012-03-18T13:16:48Z</time>
      </trkpt>
      <trkpt lat="49.15241" lon="-0.4807">
        <ele>116</ele>
        <time>2012-03-18T13:16:56Z</time>
      </trkpt>
      <trkpt lat="49.15245" lon="-0.48064">
        <ele>115</ele>
        <time>2012-03-18T13:17:00Z</time>
      </trkpt>
      <trkpt lat="49.1525" lon="-0.48064">
        <ele>115</ele>
        <time>2012-03-18T13:17:03Z</time>
      </trkpt>
      <trkpt lat="49.15253" lon="-0.48057">
        <ele>113</ele>
        <time>2012-03-18T13:17:09Z</time>
      </trkpt>
      <trkpt lat="49.1525" lon="-0.4805">
        <ele>110</ele>
        <time>2012-03-18T13:17:14Z</time>
      </trkpt>
      <trkpt lat="49.1525" lon="-0.48042">
        <ele>110</ele>
        <time>2012-03-18T13:17:18Z</time>
      </trkpt>
      <trkpt lat="49.15254" lon="-0.48036">
        <ele>110</ele>
        <time>2012-03-18T13:17:22Z</time>
      </trkpt>
      <trkpt lat="49.15257" lon="-0.48029">
        <ele>110</ele>
        <time>2012-03-18T13:17:28Z</time>
      </trkpt>
      <trkpt lat="49.1526" lon="-0.48013">
        <ele>111</ele>
        <time>2012-03-18T13:17:38Z</time>
      </trkpt>
      <trkpt lat="49.15264" lon="-0.48006">
        <ele>114</ele>
        <time>2012-03-18T13:17:45Z</time>
      </trkpt>
      <trkpt lat="49.15266" lon="-0.48">
        <ele>114</ele>
        <time>2012-03-18T13:17:49Z</time>
      </trkpt>
      <trkpt lat="49.15268" lon="-0.47992">
        <ele>114</ele>
        <time>2012-03-18T13:17:56Z</time>
      </trkpt>
      <trkpt lat="49.15265" lon="-0.47984">
        <ele>115</ele>
        <time>2012-03-18T13:18:01Z</time>
      </trkpt>
      <trkpt lat="49.15262" lon="-0.47976">
        <ele>116</ele>
        <time>2012-03-18T13:18:05Z</time>
      </trkpt>
      <trkpt lat="49.15261" lon="-0.47969">
        <ele>116</ele>
        <time>2012-03-18T13:18:08Z</time>
      </trkpt>
      <trkpt lat="49.15258" lon="-0.47962">
        <ele>114</ele>
        <time>2012-03-18T13:18:15Z</time>
      </trkpt>
      <trkpt lat="49.15256" lon="-0.47955">
        <ele>114</ele>
        <time>2012-03-18T13:18:20Z</time>
      </trkpt>
      <trkpt lat="49.15255" lon="-0.47948">
        <ele>115</ele>
        <time>2012-03-18T13:18:33Z</time>
      </trkpt>
      <trkpt lat="49.1526" lon="-0.47942">
        <ele>118</ele>
        <time>2012-03-18T13:18:40Z</time>
      </trkpt>
      <trkpt lat="49.15259" lon="-0.47934">
        <ele>117</ele>
        <time>2012-03-18T13:18:46Z</time>
      </trkpt>
      <trkpt lat="49.15261" lon="-0.47927">
        <ele>115</ele>
        <time>2012-03-18T13:18:51Z</time>
      </trkpt>
      <trkpt lat="49.15261" lon="-0.47927">
        <ele>115</ele>
        <time>2012-03-18T13:18:51Z</time>
      </trkpt>
      <trkpt lat="49.15261" lon="-0.47927">
        <ele>115</ele>
        <time>2012-03-18T13:18:52Z</time>
      </trkpt>
      <trkpt lat="49.15266" lon="-0.47925">
        <ele>113</ele>
        <time>2012-03-18T13:19:03Z</time>
      </trkpt>
      <trkpt lat="49.15268" lon="-0.4793">
        <ele>112</ele>
        <time>2012-03-18T13:19:06Z</time>
      </trkpt>
      <trkpt lat="49.15271" lon="-0.47936">
        <ele>111</ele>
        <time>2012-03-18T13:19:11Z</time>
      </trkpt>
      <trkpt lat="49.15271" lon="-0.47936">
        <ele>111</ele>
        <time>2012-03-18T13:19:11Z</time>
      </trkpt>
      <trkpt lat="49.15271" lon="-0.47936">
        <ele>110</ele>
        <time>2012-03-18T13:19:12Z</time>
      </trkpt>
      <trkpt lat="49.15274" lon="-0.47944">
        <ele>107</ele>
        <time>2012-03-18T13:19:24Z</time>
      </trkpt>
      <trkpt lat="49.15277" lon="-0.47948">
        <ele>106</ele>
        <time>2012-03-18T13:19:28Z</time>
      </trkpt>
      <trkpt lat="49.15284" lon="-0.47951">
        <ele>106</ele>
        <time>2012-03-18T13:19:33Z</time>
      </trkpt>
      <trkpt lat="49.1529" lon="-0.47955">
        <ele>105</ele>
        <time>2012-03-18T13:19:35Z</time>
      </trkpt>
      <trkpt lat="49.15294" lon="-0.47957">
        <ele>104</ele>
        <time>2012-03-18T13:19:37Z</time>
      </trkpt>
      <trkpt lat="49.15298" lon="-0.47961">
        <ele>101</ele>
        <time>2012-03-18T13:19:39Z</time>
      </trkpt>
      <trkpt lat="49.15302" lon="-0.47964">
        <ele>101</ele>
        <time>2012-03-18T13:19:46Z</time>
      </trkpt>
      <trkpt lat="49.15309" lon="-0.47965">
        <ele>100</ele>
        <time>2012-03-18T13:19:52Z</time>
      </trkpt>
      <trkpt lat="49.15314" lon="-0.47967">
        <ele>101</ele>
        <time>2012-03-18T13:19:58Z</time>
      </trkpt>
      <trkpt lat="49.15314" lon="-0.47967">
        <ele>101</ele>
        <time>2012-03-18T13:19:58Z</time>
      </trkpt>
      <trkpt lat="49.15314" lon="-0.47967">
        <ele>101</ele>
        <time>2012-03-18T13:19:59Z</time>
      </trkpt>
      <trkpt lat="49.15319" lon="-0.47971">
        <ele>102</ele>
        <time>2012-03-18T13:20:06Z</time>
      </trkpt>
      <trkpt lat="49.15323" lon="-0.47973">
        <ele>105</ele>
        <time>2012-03-18T13:20:15Z</time>
      </trkpt>
      <trkpt lat="49.15329" lon="-0.47976">
        <ele>104</ele>
        <time>2012-03-18T13:20:19Z</time>
      </trkpt>
      <trkpt lat="49.15334" lon="-0.47977">
        <ele>104</ele>
        <time>2012-03-18T13:20:22Z</time>
      </trkpt>
      <trkpt lat="49.15339" lon="-0.4798">
        <ele>106</ele>
        <time>2012-03-18T13:20:26Z</time>
      </trkpt>
      <trkpt lat="49.15343" lon="-0.47983">
        <ele>106</ele>
        <time>2012-03-18T13:20:31Z</time>
      </trkpt>
      <trkpt lat="49.15348" lon="-0.47985">
        <ele>106</ele>
        <time>2012-03-18T13:20:36Z</time>
      </trkpt>
      <trkpt lat="49.15353" lon="-0.47987">
        <ele>109</ele>
        <time>2012-03-18T13:20:45Z</time>
      </trkpt>
      <trkpt lat="49.15358" lon="-0.47987">
        <ele>108</ele>
        <time>2012-03-18T13:20:47Z</time>
      </trkpt>
      <trkpt lat="49.15364" lon="-0.47987">
        <ele>110</ele>
        <time>2012-03-18T13:20:52Z</time>
      </trkpt>
      <trkpt lat="49.15368" lon="-0.47991">
        <ele>109</ele>
        <time>2012-03-18T13:20:56Z</time>
      </trkpt>
      <trkpt lat="49.15373" lon="-0.47993">
        <ele>109</ele>
        <time>2012-03-18T13:20:59Z</time>
      </trkpt>
      <trkpt lat="49.15378" lon="-0.47993">
        <ele>108</ele>
        <time>2012-03-18T13:21:02Z</time>
      </trkpt>
      <trkpt lat="49.15382" lon="-0.47995">
        <ele>107</ele>
        <time>2012-03-18T13:21:06Z</time>
      </trkpt>
      <trkpt lat="49.15387" lon="-0.47997">
        <ele>105</ele>
        <time>2012-03-18T13:21:10Z</time>
      </trkpt>
      <trkpt lat="49.1539" lon="-0.48001">
        <ele>106</ele>
        <time>2012-03-18T13:21:15Z</time>
      </trkpt>
      <trkpt lat="49.15394" lon="-0.48006">
        <ele>105</ele>
        <time>2012-03-18T13:21:19Z</time>
      </trkpt>
      <trkpt lat="49.15398" lon="-0.48007">
        <ele>105</ele>
        <time>2012-03-18T13:21:25Z</time>
      </trkpt>
      <trkpt lat="49.15405" lon="-0.4801">
        <ele>105</ele>
        <time>2012-03-18T13:21:29Z</time>
      </trkpt>
      <trkpt lat="49.15409" lon="-0.48013">
        <ele>104</ele>
        <time>2012-03-18T13:21:34Z</time>
      </trkpt>
      <trkpt lat="49.15414" lon="-0.48015">
        <ele>104</ele>
        <time>2012-03-18T13:21:39Z</time>
      </trkpt>
      <trkpt lat="49.15418" lon="-0.48018">
        <ele>105</ele>
        <time>2012-03-18T13:21:44Z</time>
      </trkpt>
      <trkpt lat="49.15423" lon="-0.48019">
        <ele>107</ele>
        <time>2012-03-18T13:21:49Z</time>
      </trkpt>
      <trkpt lat="49.15428" lon="-0.48021">
        <ele>107</ele>
        <time>2012-03-18T13:21:59Z</time>
      </trkpt>
      <trkpt lat="49.15432" lon="-0.48023">
        <ele>109</ele>
        <time>2012-03-18T13:22:02Z</time>
      </trkpt>
      <trkpt lat="49.15437" lon="-0.48025">
        <ele>110</ele>
        <time>2012-03-18T13:22:08Z</time>
      </trkpt>
      <trkpt lat="49.15442" lon="-0.48026">
        <ele>111</ele>
        <time>2012-03-18T13:22:14Z</time>
      </trkpt>
      <trkpt lat="49.15447" lon="-0.48026">
        <ele>112</ele>
        <time>2012-03-18T13:22:17Z</time>
      </trkpt>
      <trkpt lat="49.15452" lon="-0.48025">
        <ele>114</ele>
        <time>2012-03-18T13:22:21Z</time>
      </trkpt>
      <trkpt lat="49.15455" lon="-0.4802">
        <ele>117</ele>
        <time>2012-03-18T13:22:26Z</time>
      </trkpt>
      <trkpt lat="49.15457" lon="-0.48013">
        <ele>118</ele>
        <time>2012-03-18T13:22:29Z</time>
      </trkpt>
      <trkpt lat="49.15461" lon="-0.48009">
        <ele>117</ele>
        <time>2012-03-18T13:22:33Z</time>
      </trkpt>
      <trkpt lat="49.15466" lon="-0.48006">
        <ele>117</ele>
        <time>2012-03-18T13:22:41Z</time>
      </trkpt>
      <trkpt lat="49.15466" lon="-0.48015">
        <ele>114</ele>
        <time>2012-03-18T13:22:49Z</time>
      </trkpt>
      <trkpt lat="49.15468" lon="-0.48007">
        <ele>113</ele>
        <time>2012-03-18T13:22:57Z</time>
      </trkpt>
      <trkpt lat="49.15469" lon="-0.47995">
        <ele>113</ele>
        <time>2012-03-18T13:23:02Z</time>
      </trkpt>
      <trkpt lat="49.15468" lon="-0.47986">
        <ele>115</ele>
        <time>2012-03-18T13:23:04Z</time>
      </trkpt>
      <trkpt lat="49.15467" lon="-0.47979">
        <ele>116</ele>
        <time>2012-03-18T13:23:07Z</time>
      </trkpt>
      <trkpt lat="49.15464" lon="-0.4796">
        <ele>117</ele>
        <time>2012-03-18T13:23:15Z</time>
      </trkpt>
      <trkpt lat="49.15463" lon="-0.47954">
        <ele>117</ele>
        <time>2012-03-18T13:23:18Z</time>
      </trkpt>
      <trkpt lat="49.15461" lon="-0.47947">
        <ele>119</ele>
        <time>2012-03-18T13:23:20Z</time>
      </trkpt>
      <trkpt lat="49.15459" lon="-0.4794">
        <ele>120</ele>
        <time>2012-03-18T13:23:24Z</time>
      </trkpt>
      <trkpt lat="49.15456" lon="-0.47933">
        <ele>119</ele>
        <time>2012-03-18T13:23:28Z</time>
      </trkpt>
      <trkpt lat="49.15455" lon="-0.47926">
        <ele>120</ele>
        <time>2012-03-18T13:23:31Z</time>
      </trkpt>
      <trkpt lat="49.15455" lon="-0.47917">
        <ele>121</ele>
        <time>2012-03-18T13:23:35Z</time>
      </trkpt>
      <trkpt lat="49.15454" lon="-0.4791">
        <ele>121</ele>
        <time>2012-03-18T13:23:41Z</time>
      </trkpt>
      <trkpt lat="49.15453" lon="-0.47902">
        <ele>119</ele>
        <time>2012-03-18T13:23:46Z</time>
      </trkpt>
      <trkpt lat="49.15453" lon="-0.47895">
        <ele>119</ele>
        <time>2012-03-18T13:23:51Z</time>
      </trkpt>
      <trkpt lat="49.1544" lon="-0.47838">
        <ele>120</ele>
        <time>2012-03-18T13:24:22Z</time>
      </trkpt>
      <trkpt lat="49.15437" lon="-0.47831">
        <ele>121</ele>
        <time>2012-03-18T13:24:26Z</time>
      </trkpt>
      <trkpt lat="49.15433" lon="-0.47826">
        <ele>119</ele>
        <time>2012-03-18T13:24:30Z</time>
      </trkpt>
      <trkpt lat="49.15431" lon="-0.47819">
        <ele>120</ele>
        <time>2012-03-18T13:24:36Z</time>
      </trkpt>
      <trkpt lat="49.15427" lon="-0.47813">
        <ele>120</ele>
        <time>2012-03-18T13:24:42Z</time>
      </trkpt>
      <trkpt lat="49.15425" lon="-0.47787">
        <ele>118</ele>
        <time>2012-03-18T13:25:01Z</time>
      </trkpt>
      <trkpt lat="49.1542" lon="-0.47776">
        <ele>119</ele>
        <time>2012-03-18T13:25:05Z</time>
      </trkpt>
      <trkpt lat="49.15419" lon="-0.47768">
        <ele>119</ele>
        <time>2012-03-18T13:25:08Z</time>
      </trkpt>
      <trkpt lat="49.15418" lon="-0.47761">
        <ele>119</ele>
        <time>2012-03-18T13:25:12Z</time>
      </trkpt>
      <trkpt lat="49.15418" lon="-0.47752">
        <ele>119</ele>
        <time>2012-03-18T13:25:18Z</time>
      </trkpt>
      <trkpt lat="49.1542" lon="-0.47746">
        <ele>120</ele>
        <time>2012-03-18T13:25:22Z</time>
      </trkpt>
      <trkpt lat="49.15431" lon="-0.4768">
        <ele>121</ele>
        <time>2012-03-18T13:25:57Z</time>
      </trkpt>
      <trkpt lat="49.15431" lon="-0.47672">
        <ele>122</ele>
        <time>2012-03-18T13:26:01Z</time>
      </trkpt>
      <trkpt lat="49.15432" lon="-0.47666">
        <ele>122</ele>
        <time>2012-03-18T13:26:04Z</time>
      </trkpt>
      <trkpt lat="49.1545" lon="-0.4756">
        <ele>125</ele>
        <time>2012-03-18T13:27:01Z</time>
      </trkpt>
      <trkpt lat="49.15453" lon="-0.47545">
        <ele>125</ele>
        <time>2012-03-18T13:27:08Z</time>
      </trkpt>
      <trkpt lat="49.15458" lon="-0.47545">
        <ele>126</ele>
        <time>2012-03-18T13:27:12Z</time>
      </trkpt>
      <trkpt lat="49.1546" lon="-0.47538">
        <ele>125</ele>
        <time>2012-03-18T13:27:17Z</time>
      </trkpt>
      <trkpt lat="49.1546" lon="-0.4753">
        <ele>126</ele>
        <time>2012-03-18T13:27:21Z</time>
      </trkpt>
      <trkpt lat="49.1546" lon="-0.4752">
        <ele>126</ele>
        <time>2012-03-18T13:27:26Z</time>
      </trkpt>
      <trkpt lat="49.15477" lon="-0.47417">
        <ele>129</ele>
        <time>2012-03-18T13:28:18Z</time>
      </trkpt>
      <trkpt lat="49.15477" lon="-0.47417">
        <ele>129</ele>
        <time>2012-03-18T13:28:18Z</time>
      </trkpt>
      <trkpt lat="49.15477" lon="-0.47417">
        <ele>129</ele>
        <time>2012-03-18T13:28:19Z</time>
      </trkpt>
      <trkpt lat="49.15494" lon="-0.47363">
        <ele>127</ele>
        <time>2012-03-18T13:28:55Z</time>
      </trkpt>
      <trkpt lat="49.15495" lon="-0.47354">
        <ele>127</ele>
        <time>2012-03-18T13:28:59Z</time>
      </trkpt>
      <trkpt lat="49.15496" lon="-0.47347">
        <ele>128</ele>
        <time>2012-03-18T13:29:02Z</time>
      </trkpt>
      <trkpt lat="49.15497" lon="-0.4734">
        <ele>128</ele>
        <time>2012-03-18T13:29:04Z</time>
      </trkpt>
      <trkpt lat="49.155" lon="-0.47334">
        <ele>128</ele>
        <time>2012-03-18T13:29:09Z</time>
      </trkpt>
      <trkpt lat="49.15505" lon="-0.47328">
        <ele>127</ele>
        <time>2012-03-18T13:29:16Z</time>
      </trkpt>
      <trkpt lat="49.15505" lon="-0.47321">
        <ele>125</ele>
        <time>2012-03-18T13:29:19Z</time>
      </trkpt>
      <trkpt lat="49.15556" lon="-0.47109">
        <ele>117</ele>
        <time>2012-03-18T13:31:29Z</time>
      </trkpt>
      <trkpt lat="49.15556" lon="-0.47102">
        <ele>116</ele>
        <time>2012-03-18T13:31:34Z</time>
      </trkpt>
      <trkpt lat="49.15556" lon="-0.47095">
        <ele>117</ele>
        <time>2012-03-18T13:31:38Z</time>
      </trkpt>
      <trkpt lat="49.15556" lon="-0.47087">
        <ele>117</ele>
        <time>2012-03-18T13:31:42Z</time>
      </trkpt>
      <trkpt lat="49.15557" lon="-0.4708">
        <ele>118</ele>
        <time>2012-03-18T13:31:46Z</time>
      </trkpt>
      <trkpt lat="49.15559" lon="-0.47073">
        <ele>116</ele>
        <time>2012-03-18T13:31:50Z</time>
      </trkpt>
      <trkpt lat="49.15562" lon="-0.47067">
        <ele>116</ele>
        <time>2012-03-18T13:31:55Z</time>
      </trkpt>
      <trkpt lat="49.15563" lon="-0.47058">
        <ele>113</ele>
        <time>2012-03-18T13:31:59Z</time>
      </trkpt>
      <trkpt lat="49.15564" lon="-0.47049">
        <ele>110</ele>
        <time>2012-03-18T13:32:06Z</time>
      </trkpt>
      <trkpt lat="49.15568" lon="-0.47042">
        <ele>111</ele>
        <time>2012-03-18T13:32:09Z</time>
      </trkpt>
      <trkpt lat="49.15568" lon="-0.47032">
        <ele>111</ele>
        <time>2012-03-18T13:32:13Z</time>
      </trkpt>
      <trkpt lat="49.15568" lon="-0.47024">
        <ele>112</ele>
        <time>2012-03-18T13:32:17Z</time>
      </trkpt>
      <trkpt lat="49.15569" lon="-0.47017">
        <ele>112</ele>
        <time>2012-03-18T13:32:21Z</time>
      </trkpt>
      <trkpt lat="49.1557" lon="-0.47009">
        <ele>113</ele>
        <time>2012-03-18T13:32:25Z</time>
      </trkpt>
      <trkpt lat="49.15572" lon="-0.47002">
        <ele>111</ele>
        <time>2012-03-18T13:32:30Z</time>
      </trkpt>
      <trkpt lat="49.15572" lon="-0.46993">
        <ele>112</ele>
        <time>2012-03-18T13:32:34Z</time>
      </trkpt>
      <trkpt lat="49.15573" lon="-0.46985">
        <ele>112</ele>
        <time>2012-03-18T13:32:38Z</time>
      </trkpt>
      <trkpt lat="49.15575" lon="-0.46978">
        <ele>112</ele>
        <time>2012-03-18T13:32:42Z</time>
      </trkpt>
      <trkpt lat="49.15573" lon="-0.4697">
        <ele>113</ele>
        <time>2012-03-18T13:32:45Z</time>
      </trkpt>
      <trkpt lat="49.15576" lon="-0.46962">
        <ele>112</ele>
        <time>2012-03-18T13:32:51Z</time>
      </trkpt>
      <trkpt lat="49.15575" lon="-0.46954">
        <ele>112</ele>
        <time>2012-03-18T13:32:56Z</time>
      </trkpt>
      <trkpt lat="49.15573" lon="-0.46947">
        <ele>112</ele>
        <time>2012-03-18T13:33:00Z</time>
      </trkpt>
      <trkpt lat="49.15571" lon="-0.46939">
        <ele>111</ele>
        <time>2012-03-18T13:33:05Z</time>
      </trkpt>
      <trkpt lat="49.15569" lon="-0.46932">
        <ele>112</ele>
        <time>2012-03-18T13:33:09Z</time>
      </trkpt>
      <trkpt lat="49.15567" lon="-0.46925">
        <ele>113</ele>
        <time>2012-03-18T13:33:15Z</time>
      </trkpt>
      <trkpt lat="49.15563" lon="-0.46918">
        <ele>115</ele>
        <time>2012-03-18T13:33:20Z</time>
      </trkpt>
      <trkpt lat="49.1556" lon="-0.46912">
        <ele>116</ele>
        <time>2012-03-18T13:33:23Z</time>
      </trkpt>
      <trkpt lat="49.1556" lon="-0.46905">
        <ele>116</ele>
        <time>2012-03-18T13:33:26Z</time>
      </trkpt>
      <trkpt lat="49.1556" lon="-0.46898">
        <ele>117</ele>
        <time>2012-03-18T13:33:30Z</time>
      </trkpt>
      <trkpt lat="49.1556" lon="-0.4689">
        <ele>117</ele>
        <time>2012-03-18T13:33:33Z</time>
      </trkpt>
      <trkpt lat="49.15562" lon="-0.46882">
        <ele>116</ele>
        <time>2012-03-18T13:33:37Z</time>
      </trkpt>
      <trkpt lat="49.15566" lon="-0.46879">
        <ele>116</ele>
        <time>2012-03-18T13:33:40Z</time>
      </trkpt>
      <trkpt lat="49.15568" lon="-0.46873">
        <ele>116</ele>
        <time>2012-03-18T13:33:44Z</time>
      </trkpt>
      <trkpt lat="49.15572" lon="-0.46868">
        <ele>115</ele>
        <time>2012-03-18T13:33:47Z</time>
      </trkpt>
      <trkpt lat="49.15575" lon="-0.46862">
        <ele>115</ele>
        <time>2012-03-18T13:33:51Z</time>
      </trkpt>
      <trkpt lat="49.15577" lon="-0.46854">
        <ele>113</ele>
        <time>2012-03-18T13:33:55Z</time>
      </trkpt>
      <trkpt lat="49.15579" lon="-0.46847">
        <ele>114</ele>
        <time>2012-03-18T13:34:00Z</time>
      </trkpt>
      <trkpt lat="49.15583" lon="-0.46843">
        <ele>115</ele>
        <time>2012-03-18T13:34:05Z</time>
      </trkpt>
      <trkpt lat="49.15585" lon="-0.46836">
        <ele>116</ele>
        <time>2012-03-18T13:34:09Z</time>
      </trkpt>
      <trkpt lat="49.1559" lon="-0.4683">
        <ele>117</ele>
        <time>2012-03-18T13:34:14Z</time>
      </trkpt>
      <trkpt lat="49.15593" lon="-0.46825">
        <ele>117</ele>
        <time>2012-03-18T13:34:18Z</time>
      </trkpt>
      <trkpt lat="49.15597" lon="-0.4682">
        <ele>118</ele>
        <time>2012-03-18T13:34:22Z</time>
      </trkpt>
      <trkpt lat="49.156" lon="-0.46814">
        <ele>118</ele>
        <time>2012-03-18T13:34:25Z</time>
      </trkpt>
      <trkpt lat="49.15603" lon="-0.46808">
        <ele>118</ele>
        <time>2012-03-18T13:34:29Z</time>
      </trkpt>
      <trkpt lat="49.15607" lon="-0.46805">
        <ele>119</ele>
        <time>2012-03-18T13:34:32Z</time>
      </trkpt>
      <trkpt lat="49.1561" lon="-0.46799">
        <ele>118</ele>
        <time>2012-03-18T13:34:35Z</time>
      </trkpt>
      <trkpt lat="49.15614" lon="-0.46792">
        <ele>118</ele>
        <time>2012-03-18T13:34:39Z</time>
      </trkpt>
      <trkpt lat="49.15618" lon="-0.46788">
        <ele>116</ele>
        <time>2012-03-18T13:34:43Z</time>
      </trkpt>
      <trkpt lat="49.15623" lon="-0.46785">
        <ele>117</ele>
        <time>2012-03-18T13:34:47Z</time>
      </trkpt>
      <trkpt lat="49.15628" lon="-0.46782">
        <ele>118</ele>
        <time>2012-03-18T13:34:52Z</time>
      </trkpt>
      <trkpt lat="49.15631" lon="-0.46778">
        <ele>118</ele>
        <time>2012-03-18T13:34:56Z</time>
      </trkpt>
      <trkpt lat="49.15634" lon="-0.46771">
        <ele>118</ele>
        <time>2012-03-18T13:35:01Z</time>
      </trkpt>
      <trkpt lat="49.15639" lon="-0.46766">
        <ele>117</ele>
        <time>2012-03-18T13:35:06Z</time>
      </trkpt>
      <trkpt lat="49.15642" lon="-0.46759">
        <ele>117</ele>
        <time>2012-03-18T13:35:11Z</time>
      </trkpt>
      <trkpt lat="49.15648" lon="-0.46758">
        <ele>116</ele>
        <time>2012-03-18T13:35:15Z</time>
      </trkpt>
      <trkpt lat="49.15653" lon="-0.46755">
        <ele>117</ele>
        <time>2012-03-18T13:35:22Z</time>
      </trkpt>
      <trkpt lat="49.15653" lon="-0.46755">
        <ele>117</ele>
        <time>2012-03-18T13:35:22Z</time>
      </trkpt>
      <trkpt lat="49.15653" lon="-0.46755">
        <ele>117</ele>
        <time>2012-03-18T13:35:23Z</time>
      </trkpt>
      <trkpt lat="49.15658" lon="-0.46755">
        <ele>117</ele>
        <time>2012-03-18T13:35:25Z</time>
      </trkpt>
      <trkpt lat="49.15663" lon="-0.46751">
        <ele>116</ele>
        <time>2012-03-18T13:35:29Z</time>
      </trkpt>
      <trkpt lat="49.15669" lon="-0.46748">
        <ele>115</ele>
        <time>2012-03-18T13:35:32Z</time>
      </trkpt>
      <trkpt lat="49.15708" lon="-0.46729">
        <ele>115</ele>
        <time>2012-03-18T13:36:06Z</time>
      </trkpt>
      <trkpt lat="49.15712" lon="-0.46729">
        <ele>116</ele>
        <time>2012-03-18T13:36:08Z</time>
      </trkpt>
      <trkpt lat="49.15717" lon="-0.46727">
        <ele>114</ele>
        <time>2012-03-18T13:36:14Z</time>
      </trkpt>
      <trkpt lat="49.15722" lon="-0.46727">
        <ele>114</ele>
        <time>2012-03-18T13:36:16Z</time>
      </trkpt>
      <trkpt lat="49.1573" lon="-0.46729">
        <ele>118</ele>
        <time>2012-03-18T13:36:32Z</time>
      </trkpt>
      <trkpt lat="49.15736" lon="-0.46733">
        <ele>119</ele>
        <time>2012-03-18T13:36:35Z</time>
      </trkpt>
      <trkpt lat="49.15741" lon="-0.46736">
        <ele>118</ele>
        <time>2012-03-18T13:36:38Z</time>
      </trkpt>
      <trkpt lat="49.15743" lon="-0.46742">
        <ele>122</ele>
        <time>2012-03-18T13:36:43Z</time>
      </trkpt>
      <trkpt lat="49.15749" lon="-0.46746">
        <ele>122</ele>
        <time>2012-03-18T13:36:46Z</time>
      </trkpt>
      <trkpt lat="49.15752" lon="-0.4675">
        <ele>122</ele>
        <time>2012-03-18T13:36:51Z</time>
      </trkpt>
      <trkpt lat="49.15756" lon="-0.46756">
        <ele>122</ele>
        <time>2012-03-18T13:36:55Z</time>
      </trkpt>
      <trkpt lat="49.15759" lon="-0.46763">
        <ele>121</ele>
        <time>2012-03-18T13:36:59Z</time>
      </trkpt>
      <trkpt lat="49.15761" lon="-0.46769">
        <ele>119</ele>
        <time>2012-03-18T13:37:03Z</time>
      </trkpt>
      <trkpt lat="49.15762" lon="-0.46777">
        <ele>118</ele>
        <time>2012-03-18T13:37:07Z</time>
      </trkpt>
      <trkpt lat="49.15765" lon="-0.46782">
        <ele>115</ele>
        <time>2012-03-18T13:37:12Z</time>
      </trkpt>
      <trkpt lat="49.1577" lon="-0.46786">
        <ele>115</ele>
        <time>2012-03-18T13:37:16Z</time>
      </trkpt>
      <trkpt lat="49.15774" lon="-0.46784">
        <ele>115</ele>
        <time>2012-03-18T13:37:21Z</time>
      </trkpt>
      <trkpt lat="49.15776" lon="-0.46776">
        <ele>115</ele>
        <time>2012-03-18T13:37:26Z</time>
      </trkpt>
      <trkpt lat="49.15777" lon="-0.4677">
        <ele>116</ele>
        <time>2012-03-18T13:37:32Z</time>
      </trkpt>
      <trkpt lat="49.15781" lon="-0.46766">
        <ele>115</ele>
        <time>2012-03-18T13:37:54Z</time>
      </trkpt>
      <trkpt lat="49.15781" lon="-0.46766">
        <ele>115</ele>
        <time>2012-03-18T13:37:54Z</time>
      </trkpt>
    </trkseg>
  </trk>
</gpx>